# Wetter Temperatur Luftdruck Luftfeuchtigkeit Sichtweite Windgeschwindigkeit Windrichtung Zeit
1 Clouds 16 1014 77 10000 2.1 180 08:41 14.07.2020
2 Clouds 16 1014 77 10000 1 0 08:22 14.07.2020
3 Clouds 15 1014 87 10000 1.5 0 07:55 14.07.2020
4 Clouds 14 1014 87 10000 1.38 259 07:36 14.07.2020
5 Clouds 14 1014 87 10000 0.5 0 07:18 14.07.2020
6 Clouds 13 1014 100 10000 0.5 0 06:27 14.07.2020
7 Clouds 13 1014 100 10000 0.5 0 05:58 14.07.2020
8 Clear 12 1014 100 10000 1 200 04:55 14.07.2020
9 Clear 12 1014 100 10000 1.5 200 04:35 14.07.2020
10 Clear 12 1014 93 10000 1.85 249 03:34 14.07.2020
11 Clouds 13 1015 100 10000 1.5 140 02:31 14.07.2020
12 Clouds 13 1015 93 10000 2.1 130 01:45 14.07.2020
13 Clouds 12 1015 100 10000 2.1 140 01:24 14.07.2020
14 Clouds 12 1015 100 10000 2.6 130 00:46 14.07.2020
15 Clouds 13 1015 87 10000 2.6 130 00:27 14.07.2020
16 Clouds 13 1015 87 10000 3.1 130 23:40 13.07.2020
17 Clouds 13 1015 87 10000 3.1 120 23:20 13.07.2020
18 Clouds 13 1015 82 10000 4.1 130 22:58 13.07.2020
19 Clouds 13 1015 82 10000 4.1 130 22:39 13.07.2020
20 Clouds 14 1015 76 10000 3.6 130 22:20 13.07.2020
21 Clouds 14 1015 72 10000 4.1 130 21:55 13.07.2020
22 Clear 15 1015 67 10000 4.6 120 21:37 13.07.2020
23 Clear 15 1015 67 10000 4.6 120 21:19 13.07.2020
24 Clear 16 1015 67 10000 4.6 130 20:55 13.07.2020
25 Clear 16 1015 67 10000 4.6 130 20:37 13.07.2020
26 Clouds 16 1015 67 10000 4.6 130 20:19 13.07.2020
27 Clouds 17 1015 67 10000 4.1 110 19:42 13.07.2020
28 Rain 17 1015 67 10000 4.1 120 19:24 13.07.2020
29 Rain 19 1015 42 10000 2.1 280 18:57 13.07.2020
30 Rain 18 1015 42 10000 4.6 270 18:38 13.07.2020
31 Rain 19 1015 42 10000 4.6 270 18:20 13.07.2020
32 Rain 18 1015 42 10000 3.1 270 17:56 13.07.2020
33 Rain 18 1015 42 10000 3.1 270 17:56 13.07.2020
34 Rain 18 1015 45 10000 2.1 330 17:37 13.07.2020
35 Rain 19 1015 45 10000 2.1 330 17:18 13.07.2020
36 Rain 19 1015 45 10000 1.5 0 16:43 13.07.2020
37 Clouds 19 1015 52 10000 3.6 290 16:21 13.07.2020
38 Clouds 19 1015 52 10000 4.1 320 15:59 13.07.2020
39 Clouds 19 1015 52 10000 4.1 320 15:40 13.07.2020
40 Clouds 19 1015 52 10000 4.6 340 15:20 13.07.2020
41 Clouds 19 1015 52 10000 3.6 300 14:59 13.07.2020
42 Clouds 19 1015 52 10000 3.6 300 14:59 13.07.2020
43 Clouds 19 1015 55 10000 4.1 300 14:39 13.07.2020
44 Clouds 19 1015 55 10000 4.1 300 14:39 13.07.2020
45 Clouds 19 1015 55 10000 4.1 300 14:20 13.07.2020
46 Clouds 19 1016 63 10000 5.1 290 13:56 13.07.2020
47 Clouds 18 1016 63 10000 4.6 300 13:37 13.07.2020
48 Clouds 18 1016 63 10000 4.6 300 13:19 13.07.2020
49 Clouds 18 1016 67 10000 5.1 300 12:43 13.07.2020
50 Clouds 17 1016 67 10000 5.1 300 12:22 13.07.2020
51 Clouds 17 1016 67 10000 4.6 290 11:58 13.07.2020
52 Clouds 16 1016 77 10000 4.6 260 11:38 13.07.2020
53 Clouds 17 1016 77 10000 4.6 260 11:19 13.07.2020
54 Clouds 16 1016 77 10000 4.1 260 10:38 13.07.2020
55 Clouds 16 1016 82 10000 4.1 250 10:20 13.07.2020
56 Clouds 16 1016 82 10000 3.6 260 09:43 13.07.2020
57 Clouds 15 1015 82 10000 3.6 250 09:25 13.07.2020
58 Clouds 15 1015 87 10000 3.1 240 08:53 13.07.2020
59 Clouds 15 1016 87 10000 3.6 250 08:34 13.07.2020
60 Clear 14 1016 87 10000 2.1 250 07:44 13.07.2020
61 Clear 12 1016 87 10000 2.1 250 07:20 13.07.2020
62 Clear 12 1016 100 10000 2.1 230 06:44 13.07.2020
63 Clear 11 1016 100 10000 1.92 284 06:22 13.07.2020
64 Clear 9 1016 100 10000 1.5 220 04:43 13.07.2020
65 Clouds 10 1016 100 10000 1.26 257 01:57 13.07.2020
66 Clouds 10 1016 100 10000 1.64 219 01:29 13.07.2020
67 Clouds 10 1016 100 10000 2.1 220 00:59 13.07.2020
68 Clouds 10 1016 100 10000 2.6 220 00:27 13.07.2020
69 Clouds 10 1016 100 10000 1.91 192 23:58 12.07.2020
70 Clouds 10 1016 100 10000 1.5 210 23:40 12.07.2020
71 Clouds 10 1016 100 10000 1.5 210 23:21 12.07.2020
72 Clouds 11 1016 93 10000 1.64 159 22:54 12.07.2020
73 Clouds 11 1016 100 10000 0.5 160 22:36 12.07.2020
74 Clouds 11 1016 100 10000 0.5 160 22:18 12.07.2020
75 Clouds 12 1016 93 10000 1 160 21:42 12.07.2020
76 Clouds 14 1016 87 10000 3.1 180 21:20 12.07.2020
77 Clouds 14 1016 87 10000 1.63 10 20:59 12.07.2020
78 Clouds 15 1016 87 10000 1.63 10 20:40 12.07.2020
79 Rain 15 1017 87 10000 4.1 300 20:20 12.07.2020
80 Clouds 16 1016 63 10000 1.5 360 19:55 12.07.2020
81 Clouds 15 1016 67 10000 2.1 100 19:37 12.07.2020
82 Clouds 16 1016 67 10000 2.1 100 19:18 12.07.2020
83 Clouds 16 1016 63 10000 3.6 60 18:42 12.07.2020
84 Rain 18 1016 59 10000 3.1 20 18:20 12.07.2020
85 Clouds 17 1016 63 10000 5.7 350 17:58 12.07.2020
86 Clouds 16 1016 63 10000 5.7 350 17:37 12.07.2020
87 Clouds 18 1016 55 10000 1.5 200 17:19 12.07.2020
88 Clouds 16 1016 59 10000 2.1 220 16:45 12.07.2020
89 Clouds 18 1016 52 10000 5.1 280 16:21 12.07.2020
90 Clouds 18 1016 52 10000 3.6 260 15:45 12.07.2020
91 Clouds 17 1015 63 10000 2.6 240 15:26 12.07.2020
92 Clouds 18 1015 59 10000 7.2 270 14:57 12.07.2020
93 Clouds 18 1015 45 10000 6.2 250 14:38 12.07.2020
94 Rain 19 1015 45 10000 6.2 250 14:18 12.07.2020
95 Clouds 19 1015 49 10000 3.6 240 13:39 12.07.2020
96 Clouds 19 1015 49 10000 3.6 240 13:20 12.07.2020
97 Clouds 19 1015 49 10000 3.6 250 12:55 12.07.2020
98 Rain 19 1015 55 10000 3.1 230 12:36 12.07.2020
99 Rain 19 1015 55 10000 3.1 230 12:18 12.07.2020
100 Rain 19 1015 55 10000 3.1 230 12:18 12.07.2020
101 Rain 19 1015 55 10000 4.1 260 11:44 12.07.2020
102 Rain 18 1015 52 10000 4.6 240 11:20 12.07.2020
103 Rain 18 1015 59 10000 5.1 250 10:42 12.07.2020
104 Clouds 18 1015 63 10000 3.6 250 10:23 12.07.2020
105 Clouds 17 1015 63 10000 3.1 240 09:58 12.07.2020
106 Clouds 17 1015 72 10000 3.6 240 09:39 12.07.2020
107 Clouds 16 1015 72 10000 3.6 240 09:19 12.07.2020
108 Clouds 15 1014 77 10000 3.6 260 08:43 12.07.2020
109 Clouds 15 1014 77 10000 3.6 230 08:23 12.07.2020
110 Clouds 14 1014 82 10000 3.1 240 07:58 12.07.2020
111 Clear 14 1014 82 10000 3.6 240 07:40 12.07.2020
112 Clear 13 1014 82 10000 3.6 240 07:21 12.07.2020
113 Clear 13 1014 93 10000 2.6 220 06:49 12.07.2020
114 Clear 12 1014 93 10000 2.6 220 06:20 12.07.2020
115 Clear 11 1014 93 10000 2.6 220 05:23 12.07.2020
116 Clear 10 1014 100 10000 2.6 220 04:44 12.07.2020
117 Clear 10 1014 93 10000 1 0 04:24 12.07.2020
118 Clear 10 1013 100 10000 1 210 03:31 12.07.2020
119 Clear 11 1013 100 10000 1.5 220 02:47 12.07.2020
120 Clouds 11 1013 100 10000 2.1 230 01:36 12.07.2020
121 Clouds 11 1013 100 10000 2.1 210 00:44 12.07.2020
122 Clouds 12 1013 93 10000 2.1 220 00:23 12.07.2020
123 Clouds 13 1013 87 10000 2.6 220 23:56 11.07.2020
124 Clouds 12 1013 87 10000 2.6 220 23:38 11.07.2020
125 Clouds 13 1013 87 10000 2.6 220 23:19 11.07.2020
126 Clouds 13 1013 87 10000 2.1 210 22:45 11.07.2020
127 Clouds 13 1013 82 10000 2.1 220 22:26 11.07.2020
128 Clouds 14 1013 82 10000 1.5 230 21:59 11.07.2020
129 Clouds 14 1013 82 10000 1.5 230 21:40 11.07.2020
130 Rain 15 1013 77 10000 2.1 210 21:21 11.07.2020
131 Rain 16 1013 82 10000 2.6 170 20:56 11.07.2020
132 Rain 16 1012 77 10000 3.1 210 20:38 11.07.2020
133 Clouds 16 1012 77 10000 3.1 210 20:19 11.07.2020
134 Clouds 16 1012 77 10000 2.6 200 19:56 11.07.2020
135 Clouds 16 1012 82 10000 3.6 170 19:38 11.07.2020
136 Rain 16 1012 82 10000 3.6 170 19:19 11.07.2020
137 Rain 16 1012 67 10000 4.1 260 18:54 11.07.2020
138 Rain 17 1011 55 10000 3.1 200 18:36 11.07.2020
139 Rain 17 1011 55 10000 3.1 200 18:36 11.07.2020
140 Rain 18 1011 55 10000 3.1 200 18:18 11.07.2020
141 Rain 19 1011 55 10000 4.1 200 17:40 11.07.2020
142 Rain 19 1011 52 10000 5.1 230 17:21 11.07.2020
143 Rain 20 1011 45 10000 4.6 260 16:58 11.07.2020
144 Rain 20 1011 45 10000 4.6 260 16:38 11.07.2020
145 Rain 20 1011 45 10000 5.1 260 16:19 11.07.2020
146 Rain 20 1011 52 10000 4.6 250 15:42 11.07.2020
147 Rain 19 1010 52 10000 6.2 280 15:22 11.07.2020
148 Rain 20 1010 55 10000 6.2 250 14:59 11.07.2020
149 Rain 19 1010 55 10000 6.2 250 14:40 11.07.2020
150 Clouds 19 1010 59 10000 4.6 250 14:22 11.07.2020
151 Clouds 19 1009 55 10000 4.1 270 13:44 11.07.2020
152 Clouds 18 1009 59 10000 4.6 280 13:23 11.07.2020
153 Clouds 18 1009 67 10000 4.6 280 12:59 11.07.2020
154 Clouds 17 1009 72 10000 5.1 260 12:41 11.07.2020
155 Clouds 17 1009 72 10000 5.1 260 12:23 11.07.2020
156 Clouds 16 1008 77 10000 5.7 270 11:58 11.07.2020
157 Clouds 16 1008 77 10000 5.7 270 11:40 11.07.2020
158 Clouds 15 1008 82 10000 6.2 290 11:19 11.07.2020
159 Clouds 15 1007 82 10000 5.1 270 10:45 11.07.2020
160 Clouds 15 1007 82 10000 4.6 270 10:26 11.07.2020
161 Clouds 14 1007 87 10000 3.6 270 09:56 11.07.2020
162 Clouds 14 1007 87 10000 3.6 270 09:37 11.07.2020
163 Clouds 13 1006 87 10000 4.1 270 09:18 11.07.2020
164 Clouds 13 1005 93 10000 3.1 300 08:38 11.07.2020
165 Clouds 13 1005 93 10000 3.1 300 08:19 11.07.2020
166 Clouds 12 1005 100 10000 2.1 290 07:46 11.07.2020
167 Clouds 12 1005 100 10000 2.1 300 07:27 11.07.2020
168 Clouds 12 1005 100 10000 2.1 300 07:27 11.07.2020
169 Rain 12 1005 100 10000 2.6 310 06:59 11.07.2020
170 Rain 12 1005 93 10000 2.1 320 06:22 11.07.2020
171 Drizzle 12 1004 93 10000 2.6 330 05:41 11.07.2020
172 Clouds 12 1004 93 10000 1.5 310 04:57 11.07.2020
173 Clouds 12 1004 93 10000 1.5 330 04:33 11.07.2020
174 Clouds 12 1004 93 10000 2.1 330 03:38 11.07.2020
175 Rain 12 1005 93 10000 1.5 350 02:48 11.07.2020
176 Clouds 13 1005 87 10000 2.1 60 01:51 11.07.2020
177 Clouds 13 1005 87 10000 2.1 60 01:19 11.07.2020
178 Clouds 13 1006 82 10000 2.1 90 00:41 11.07.2020
179 Clouds 13 1006 82 10000 2.1 90 00:22 11.07.2020
180 Clouds 13 1006 82 10000 3.1 90 23:58 10.07.2020
181 Clouds 13 1006 82 10000 3.1 90 23:40 10.07.2020
182 Clouds 13 1006 87 10000 3.6 100 23:20 10.07.2020
183 Clouds 13 1006 82 10000 2.6 130 22:46 10.07.2020
184 Clouds 14 1007 76 10000 3.6 130 22:22 10.07.2020
185 Clouds 14 1007 76 10000 4.1 130 21:58 10.07.2020
186 Clouds 14 1007 72 10000 2.6 110 21:38 10.07.2020
187 Clouds 14 1007 72 10000 2.6 110 21:38 10.07.2020
188 Clouds 14 1007 72 10000 2.6 110 21:19 10.07.2020
189 Clouds 15 1007 72 10000 4.1 140 20:43 10.07.2020
190 Clouds 16 1007 63 10000 4.6 130 20:24 10.07.2020
191 Clouds 16 1007 72 10000 3.6 130 19:59 10.07.2020
192 Clouds 16 1007 59 10000 4.1 150 19:41 10.07.2020
193 Clouds 16 1007 59 10000 4.1 150 19:21 10.07.2020
194 Clouds 16 1007 59 10000 3.1 30 18:42 10.07.2020
195 Clouds 17 1007 59 10000 3.1 30 18:22 10.07.2020
196 Clouds 17 1008 59 10000 2.6 30 17:59 10.07.2020
197 Clouds 17 1008 55 10000 4.1 30 17:41 10.07.2020
198 Clouds 18 1008 55 10000 4.1 30 17:22 10.07.2020
199 Clouds 18 1008 59 10000 3.1 20 16:56 10.07.2020
200 Clouds 15 1008 72 10000 2.6 10 16:37 10.07.2020
201 Clouds 15 1008 72 10000 2.6 10 16:18 10.07.2020
202 Clouds 15 1009 76 10000 4.1 350 15:42 10.07.2020
203 Clouds 15 1009 76 10000 4.1 350 15:18 10.07.2020
204 Clouds 15 1008 76 10000 5.7 320 14:43 10.07.2020
205 Clouds 15 1008 76 10000 5.7 320 14:22 10.07.2020
206 Clouds 18 1008 63 10000 3.6 40 13:58 10.07.2020
207 Clouds 19 1008 52 10000 4.1 130 13:40 10.07.2020
208 Clouds 19 1008 52 10000 4.1 130 13:22 10.07.2020
209 Clouds 19 1008 52 10000 4.6 150 12:59 10.07.2020
210 Thunderstorm 19 1008 52 10000 4.6 140 12:40 10.07.2020
211 Thunderstorm 19 1008 52 10000 4.6 140 12:22 10.07.2020
212 Clouds 19 1008 55 10000 4.6 150 11:43 10.07.2020
213 Clouds 20 1008 55 10000 4.6 120 11:24 10.07.2020
214 Clouds 20 1008 55 10000 4.6 120 10:59 10.07.2020
215 Clouds 20 1008 55 10000 4.6 120 10:59 10.07.2020
216 Clouds 19 1008 68 10000 3.6 110 10:41 10.07.2020
217 Clouds 19 1008 68 10000 3.6 110 10:21 10.07.2020
218 Clouds 18 1008 68 10000 3.6 110 09:55 10.07.2020
219 Rain 18 1008 67 10000 4.1 120 09:36 10.07.2020
220 Clouds 18 1008 67 10000 4.1 120 09:18 10.07.2020
221 Clouds 17 1008 72 10000 2.1 150 08:43 10.07.2020
222 Clouds 16 1008 77 10000 2.1 120 08:25 10.07.2020
223 Clouds 16 1009 82 10000 1.5 0 07:59 10.07.2020
224 Clouds 15 1009 82 10000 1.5 130 07:41 10.07.2020
225 Clear 14 1009 82 10000 1.5 130 07:20 10.07.2020
226 Clear 13 1009 93 10000 1.5 130 06:45 10.07.2020
227 Clear 11 1009 93 10000 1.04 339 05:53 10.07.2020
228 Clear 11 1009 93 10000 1.11 243 04:31 10.07.2020
229 Clear 10 1009 93 10000 1 160 03:26 10.07.2020
230 Clear 10 1009 93 10000 1 150 02:48 10.07.2020
231 Clouds 11 1009 87 10000 1.95 224 01:39 10.07.2020
232 Clouds 12 1009 81 10000 0.5 270 00:40 10.07.2020
233 Clouds 12 1009 81 10000 0.5 270 00:18 10.07.2020
234 Clouds 13 1009 71 10000 1.5 210 23:43 09.07.2020
235 Clouds 13 1009 71 10000 2.1 200 23:20 09.07.2020
236 Clouds 13 1009 71 10000 1.5 0 22:57 09.07.2020
237 Clouds 14 1009 71 10000 1.5 0 22:39 09.07.2020
238 Clouds 14 1009 67 10000 2.1 190 22:20 09.07.2020
239 Clouds 14 1009 67 10000 2.1 180 21:55 09.07.2020
240 Clouds 15 1009 59 10000 2.6 180 21:37 09.07.2020
241 Clouds 16 1009 59 10000 2.6 180 21:18 09.07.2020
242 Clouds 17 1009 55 10000 1.5 190 20:42 09.07.2020
243 Clouds 17 1009 55 10000 2.6 190 20:24 09.07.2020
244 Clouds 18 1009 51 10000 2.1 200 19:56 09.07.2020
245 Clouds 18 1009 48 10000 3.1 220 19:38 09.07.2020
246 Clouds 18 1009 48 10000 3.1 220 19:20 09.07.2020
247 Clouds 19 1009 45 10000 4.6 240 18:42 09.07.2020
248 Clouds 18 1009 45 10000 3.1 240 18:20 09.07.2020
249 Clouds 19 1009 37 10000 4.1 230 17:55 09.07.2020
250 Clouds 19 1009 37 10000 4.1 260 17:37 09.07.2020
251 Rain 19 1009 37 10000 4.1 260 17:18 09.07.2020
252 Rain 20 1009 42 10000 3.6 250 16:54 09.07.2020
253 Rain 20 1009 40 10000 3.6 290 16:36 09.07.2020
254 Rain 19 1009 40 10000 3.6 290 16:18 09.07.2020
255 Rain 19 1009 39 10000 3.6 300 15:45 09.07.2020
256 Rain 19 1009 39 10000 3.6 300 15:45 09.07.2020
257 Rain 19 1009 37 10000 3.6 280 15:27 09.07.2020
258 Rain 19 1009 39 10000 4.6 290 14:59 09.07.2020
259 Rain 19 1009 39 10000 4.6 290 14:40 09.07.2020
260 Rain 19 1009 39 10000 4.6 290 14:40 09.07.2020
261 Clear 18 1010 45 10000 4.6 290 14:22 09.07.2020
262 Clear 18 1009 45 10000 5.1 280 13:58 09.07.2020
263 Clear 18 1009 45 10000 5.1 280 13:39 09.07.2020
264 Clear 18 1010 45 10000 5.7 280 13:20 09.07.2020
265 Clear 18 1009 45 10000 5.7 280 12:43 09.07.2020
266 Clouds 18 1009 55 10000 4.1 280 12:24 09.07.2020
267 Clouds 17 1009 59 10000 4.1 270 11:59 09.07.2020
268 Clouds 17 1009 59 10000 4.1 270 11:41 09.07.2020
269 Clouds 17 1009 59 10000 4.6 250 11:23 09.07.2020
270 Clouds 16 1009 63 10000 5.1 250 10:58 09.07.2020
271 Clouds 16 1009 63 10000 3.6 240 10:40 09.07.2020
272 Clouds 16 1009 63 10000 3.6 240 10:40 09.07.2020
273 Clouds 16 1009 63 10000 3.6 240 10:21 09.07.2020
274 Clear 16 1009 67 10000 4.1 280 09:44 09.07.2020
275 Clouds 15 1009 67 10000 3.6 280 09:24 09.07.2020
276 Clear 14 1008 67 10000 3.1 260 08:56 09.07.2020
277 Clear 14 1008 76 10000 3.1 280 08:37 09.07.2020
278 Clouds 13 1008 76 10000 3.1 280 08:18 09.07.2020
279 Clouds 12 1008 82 10000 3.1 270 07:45 09.07.2020
280 Clouds 12 1008 82 10000 3.6 270 07:21 09.07.2020
281 Clouds 11 1008 93 10000 3.1 250 06:40 09.07.2020
282 Clouds 10 1008 93 10000 3.1 250 06:19 09.07.2020
283 Clouds 7 1007 100 10000 1.5 250 04:29 09.07.2020
284 Clear 10 1007 93 10000 1.5 270 03:24 09.07.2020
285 Clouds 10 1007 93 10000 3.1 240 01:58 09.07.2020
286 Clouds 10 1007 93 10000 2.6 230 01:23 09.07.2020
287 Clouds 9 1006 93 10000 1.5 230 00:43 09.07.2020
288 Clouds 10 1006 93 10000 1.5 230 00:23 09.07.2020
289 Clouds 10 1006 93 10000 1 230 23:44 08.07.2020
290 Clouds 10 1006 93 10000 2.1 230 23:26 08.07.2020
291 Clouds 10 1006 93 10000 2.1 230 22:57 08.07.2020
292 Clouds 10 1005 93 10000 1.5 220 22:38 08.07.2020
293 Rain 10 1005 93 10000 1.5 220 22:20 08.07.2020
294 Rain 11 1005 87 10000 1.5 230 21:57 08.07.2020
295 Clouds 11 1005 76 10000 2.1 240 21:38 08.07.2020
296 Rain 12 1005 76 10000 2.1 240 21:20 08.07.2020
297 Rain 13 1005 71 10000 3.1 260 20:42 08.07.2020
298 Rain 14 1005 62 10000 3.6 270 20:24 08.07.2020
299 Rain 14 1004 58 10000 2.1 0 19:57 08.07.2020
300 Rain 14 1004 66 10000 1 0 19:39 08.07.2020
301 Rain 14 1004 66 10000 1 0 19:20 08.07.2020
302 Rain 14 1004 71 10000 3.1 230 18:42 08.07.2020
303 Rain 14 1004 71 10000 3.1 230 18:21 08.07.2020
304 Rain 14 1004 67 10000 2.1 210 17:59 08.07.2020
305 Rain 13 1004 76 10000 1.5 240 17:40 08.07.2020
306 Rain 13 1004 76 10000 1.5 240 17:21 08.07.2020
307 Clouds 14 1004 71 10000 2.1 230 16:58 08.07.2020
308 Rain 13 1004 71 10000 1 0 16:38 08.07.2020
309 Rain 13 1004 71 10000 1 0 16:19 08.07.2020
310 Rain 13 1004 71 10000 1 0 15:58 08.07.2020
311 Rain 13 1004 71 10000 1 0 15:38 08.07.2020
312 Clouds 12 1004 76 10000 1.95 304 15:19 08.07.2020
313 Rain 12 1003 76 10000 2.25 292 14:44 08.07.2020
314 Rain 11 1003 93 10000 1 0 14:25 08.07.2020
315 Rain 11 1003 87 10000 1 0 13:58 08.07.2020
316 Rain 11 1003 87 10000 1 0 13:40 08.07.2020
317 Rain 10 1003 93 10000 1.5 280 13:18 08.07.2020
318 Rain 10 1003 93 10000 3.6 270 12:41 08.07.2020
319 Rain 11 1003 93 10000 3.6 270 12:20 08.07.2020
320 Rain 13 1003 81 10000 3.6 250 11:56 08.07.2020
321 Rain 14 1002 71 10000 5.1 130 11:37 08.07.2020
322 Rain 14 1002 71 10000 5.1 130 11:19 08.07.2020
323 Clouds 15 1002 62 10000 3.6 130 10:43 08.07.2020
324 Clouds 14 1002 67 10000 2.6 120 10:24 08.07.2020
325 Clouds 13 1002 66 10000 2.6 130 09:46 08.07.2020
326 Clouds 13 1002 66 10000 2.1 220 09:25 08.07.2020
327 Clouds 12 1003 71 10000 2.1 0 08:56 08.07.2020
328 Clouds 12 1003 71 10000 2.1 0 08:38 08.07.2020
329 Clouds 11 1003 81 10000 2.6 170 08:19 08.07.2020
330 Clouds 11 1003 81 10000 2.6 160 07:42 08.07.2020
331 Clouds 10 1003 87 10000 3.1 160 07:19 08.07.2020
332 Clouds 10 1003 87 10000 2.6 180 06:45 08.07.2020
333 Clouds 9 1003 93 10000 2.6 190 06:25 08.07.2020
334 Clouds 9 1003 93 10000 2.6 200 05:45 08.07.2020
335 Clouds 9 1003 93 10000 2.6 210 04:50 08.07.2020
336 Clouds 9 1003 93 10000 2.6 200 03:39 08.07.2020
337 Clouds 10 1004 87 10000 2.1 190 02:19 08.07.2020
338 Clouds 10 1004 87 10000 2.1 230 01:38 08.07.2020
339 Clouds 10 1003 87 10000 2.1 220 00:51 08.07.2020
340 Rain 11 1003 93 10000 2.6 210 00:20 08.07.2020
341 Rain 11 1004 93 10000 2.1 180 23:43 07.07.2020
342 Rain 11 1004 93 10000 2.1 170 23:22 07.07.2020
343 Rain 12 1004 87 10000 3.1 220 22:57 07.07.2020
344 Clear 14 1004 62 10000 4.1 220 22:38 07.07.2020
345 Clear 14 1004 62 10000 4.1 220 22:20 07.07.2020
346 Clear 14 1004 58 10000 3.6 230 21:56 07.07.2020
347 Clear 14 1004 58 10000 3.6 230 21:38 07.07.2020
348 Clear 14 1004 58 10000 3.6 230 21:38 07.07.2020
349 Clear 16 1004 62 10000 3.1 240 21:18 07.07.2020
350 Clear 16 1004 55 10000 3.1 270 20:42 07.07.2020
351 Clouds 15 1004 58 10000 5.7 270 20:23 07.07.2020
352 Clouds 17 1004 45 10000 5.7 240 19:59 07.07.2020
353 Clouds 18 1004 48 10000 5.7 230 19:39 07.07.2020
354 Clouds 17 1004 48 10000 5.7 230 19:20 07.07.2020
355 Clouds 17 1004 51 10000 3.6 260 18:55 07.07.2020
356 Rain 17 1004 45 10000 6.7 240 18:37 07.07.2020
357 Rain 18 1004 45 10000 6.7 240 18:19 07.07.2020
358 Clouds 20 1004 37 10000 5.1 240 17:55 07.07.2020
359 Clouds 19 1004 34 10000 5.7 270 17:36 07.07.2020
360 Clouds 19 1004 34 10000 5.7 270 17:18 07.07.2020
361 Clouds 20 1004 34 10000 7.2 240 16:42 07.07.2020
362 Clouds 19 1003 42 10000 6.2 270 16:22 07.07.2020
363 Rain 19 1003 42 10000 5.1 260 15:55 07.07.2020
364 Rain 19 1003 42 10000 5.1 260 15:37 07.07.2020
365 Rain 20 1004 40 10000 6.7 270 15:18 07.07.2020
366 Rain 19 1003 45 10000 5.7 250 14:43 07.07.2020
367 Clouds 19 1003 45 10000 6.2 280 14:24 07.07.2020
368 Clouds 18 1003 48 10000 8.2 250 13:43 07.07.2020
369 Clouds 18 1003 48 10000 6.7 270 13:21 07.07.2020
370 Clouds 18 1003 55 10000 7.2 260 12:57 07.07.2020
371 Clouds 18 1003 55 10000 8.2 260 12:37 07.07.2020
372 Clouds 17 1003 55 10000 8.2 260 12:18 07.07.2020
373 Clouds 17 1002 63 10000 7.2 240 11:43 07.07.2020
374 Clouds 17 1002 63 10000 7.2 240 11:22 07.07.2020
375 Clouds 16 1002 63 10000 7.2 250 10:58 07.07.2020
376 Clouds 16 1002 63 10000 7.2 250 10:40 07.07.2020
377 Clouds 16 1001 63 10000 6.7 250 10:21 07.07.2020
378 Clouds 15 1001 67 10000 6.2 240 09:43 07.07.2020
379 Clouds 15 1001 67 10000 5.7 260 09:22 07.07.2020
380 Clouds 14 1000 71 10000 5.1 270 08:58 07.07.2020
381 Clouds 14 1000 71 10000 5.7 260 08:39 07.07.2020
382 Clouds 14 1000 71 10000 5.7 260 08:19 07.07.2020
383 Clouds 13 1000 82 10000 4.6 250 07:38 07.07.2020
384 Clouds 13 1000 82 10000 4.6 250 07:19 07.07.2020
385 Clouds 12 998 82 10000 4.1 250 06:46 07.07.2020
386 Clouds 12 998 82 10000 4.1 250 06:26 07.07.2020
387 Clouds 13 998 82 10000 5.1 240 05:43 07.07.2020
388 Clouds 13 997 82 10000 4.1 250 04:53 07.07.2020
389 Clouds 13 997 82 10000 4.1 260 03:49 07.07.2020
390 Clouds 13 996 87 10000 5.1 270 03:30 07.07.2020
391 Clouds 13 996 87 10000 5.1 270 03:30 07.07.2020
392 Clouds 13 994 93 10000 4.6 240 01:50 07.07.2020
393 Clouds 13 994 93 10000 4.1 230 01:18 07.07.2020
394 Clouds 13 994 93 10000 3.6 220 00:41 07.07.2020
395 Clouds 13 994 93 10000 3.6 220 00:21 07.07.2020
396 Clouds 13 993 87 10000 3.6 220 23:44 06.07.2020
397 Clouds 13 993 87 10000 4.6 220 23:25 06.07.2020
398 Drizzle 13 993 82 10000 5.1 210 22:59 06.07.2020
399 Clouds 13 993 76 10000 4.1 200 22:39 06.07.2020
400 Clouds 13 993 76 10000 4.1 200 22:18 06.07.2020
401 Clouds 14 993 82 10000 3.6 200 21:56 06.07.2020
402 Clouds 14 993 72 10000 4.1 190 21:37 06.07.2020
403 Clouds 14 993 72 10000 4.1 190 21:18 06.07.2020
404 Rain 15 993 72 10000 5.7 180 20:41 06.07.2020
405 Rain 15 993 72 10000 3.1 200 20:22 06.07.2020
406 Rain 15 993 77 10000 2.6 210 19:59 06.07.2020
407 Rain 16 993 67 10000 4.6 210 19:41 06.07.2020
408 Clouds 16 993 67 10000 4.6 210 19:23 06.07.2020
409 Clouds 16 993 72 10000 4.6 210 18:58 06.07.2020
410 Rain 15 993 71 10000 7.7 230 18:40 06.07.2020
411 Rain 15 993 71 10000 7.7 230 18:22 06.07.2020
412 Clouds 16 992 82 10000 6.2 250 17:54 06.07.2020
413 Clouds 17 992 72 10000 5.1 260 17:36 06.07.2020
414 Clouds 17 992 72 10000 5.1 260 17:36 06.07.2020
415 Clouds 17 992 72 10000 5.1 260 17:18 06.07.2020
416 Clouds 19 992 45 10000 7.7 200 16:42 06.07.2020
417 Clouds 19 992 52 10000 8.2 190 16:23 06.07.2020
418 Clouds 19 992 55 10000 8.7 190 15:45 06.07.2020
419 Clouds 19 992 59 10000 6.7 190 15:27 06.07.2020
420 Clouds 19 992 59 10000 6.7 190 15:27 06.07.2020
421 Rain 18 991 55 10000 7.7 180 14:58 06.07.2020
422 Rain 18 991 55 10000 7.7 180 14:40 06.07.2020
423 Clouds 18 991 55 10000 6.7 200 14:22 06.07.2020
424 Clouds 18 991 52 10000 6.7 190 13:59 06.07.2020
425 Rain 17 991 59 10000 6.7 210 13:40 06.07.2020
426 Rain 17 991 59 10000 6.7 210 13:21 06.07.2020
427 Clouds 16 991 77 10000 4.6 240 12:44 06.07.2020
428 Clouds 16 991 77 10000 4.6 240 12:20 06.07.2020
429 Clouds 16 991 55 10000 7.7 220 11:58 06.07.2020
430 Clouds 16 991 55 10000 7.7 220 11:40 06.07.2020
431 Clouds 16 991 59 10000 7.2 220 11:22 06.07.2020
432 Clouds 16 991 59 10000 6.7 220 10:58 06.07.2020
433 Clouds 16 991 62 10000 5.7 210 10:39 06.07.2020
434 Clouds 15 991 62 10000 5.7 210 10:18 06.07.2020
435 Clouds 15 991 62 10000 6.7 220 09:45 06.07.2020
436 Clouds 15 991 62 10000 6.7 220 09:22 06.07.2020
437 Clouds 15 991 62 10000 6.2 220 08:58 06.07.2020
438 Clouds 15 991 62 10000 6.2 220 08:39 06.07.2020
439 Clouds 14 991 67 10000 6.7 220 08:20 06.07.2020
440 Clouds 14 991 67 10000 5.1 210 07:47 06.07.2020
441 Clouds 14 991 67 10000 6.2 220 07:29 06.07.2020
442 Clouds 14 991 67 10000 6.2 200 06:45 06.07.2020
443 Clear 14 991 67 10000 5.1 200 06:27 06.07.2020
444 Clear 13 991 67 10000 5.7 210 05:44 06.07.2020
445 Clear 13 991 67 10000 5.7 210 05:22 06.07.2020
446 Clear 14 991 71 10000 6.2 220 03:52 06.07.2020
447 Clouds 15 991 62 10000 9.8 240 02:25 06.07.2020
448 Clouds 15 991 59 10000 9.3 230 01:44 06.07.2020
449 Clouds 16 991 67 10000 7.2 230 00:39 06.07.2020
450 Clouds 16 991 67 10000 7.2 230 00:21 06.07.2020
451 Clouds 17 990 63 10000 7.7 230 23:45 05.07.2020
452 Clouds 17 990 67 10000 5.1 220 23:27 05.07.2020
453 Clouds 17 990 63 10000 6.2 230 22:59 05.07.2020
454 Clouds 17 990 63 10000 6.2 230 22:41 05.07.2020
455 Clouds 17 990 63 10000 6.2 230 22:41 05.07.2020
456 Clouds 17 990 63 10000 7.7 230 22:20 05.07.2020
457 Clouds 17 990 68 10000 4.6 230 21:58 05.07.2020
458 Clouds 17 990 68 10000 4.6 230 21:40 05.07.2020
459 Rain 18 990 72 10000 7.2 250 21:19 05.07.2020
460 Rain 18 990 68 10000 6.7 230 20:58 05.07.2020
461 Rain 19 989 72 10000 7.2 230 20:39 05.07.2020
462 Rain 19 989 72 10000 7.2 230 20:21 05.07.2020
463 Clouds 19 989 72 10000 5.7 230 19:55 05.07.2020
464 Clouds 19 989 82 10000 5.7 220 19:36 05.07.2020
465 Clouds 20 989 82 10000 5.7 220 19:18 05.07.2020
466 Clouds 19 990 88 10000 5.1 190 18:41 05.07.2020
467 Clouds 19 990 88 10000 5.1 190 18:21 05.07.2020
468 Rain 18 990 93 10000 5.7 190 17:56 05.07.2020
469 Drizzle 18 990 93 10000 7.2 180 17:37 05.07.2020
470 Drizzle 18 990 93 10000 7.2 180 17:18 05.07.2020
471 Rain 17 991 93 10000 5.7 170 16:43 05.07.2020
472 Rain 17 991 93 9000 6.2 160 16:24 05.07.2020
473 Rain 16 992 100 5000 5.7 150 15:55 05.07.2020
474 Rain 16 992 100 5000 5.7 150 15:37 05.07.2020
475 Rain 16 993 93 6000 5.1 140 15:18 05.07.2020
476 Rain 15 994 100 6000 5.1 130 14:41 05.07.2020
477 Rain 15 995 100 7000 4.1 110 14:21 05.07.2020
478 Rain 15 996 93 5000 3.1 110 13:42 05.07.2020
479 Rain 15 997 93 4500 4.1 130 13:24 05.07.2020
480 Rain 15 998 93 10000 4.1 140 12:56 05.07.2020
481 Rain 15 998 87 10000 5.1 130 12:38 05.07.2020
482 Rain 16 998 87 10000 5.1 130 12:19 05.07.2020
483 Rain 16 999 87 10000 3.1 140 11:40 05.07.2020
484 Rain 16 999 87 10000 2.6 160 11:21 05.07.2020
485 Rain 16 999 93 10000 3.6 130 10:58 05.07.2020
486 Rain 16 1000 93 10000 3.6 110 10:39 05.07.2020
487 Clouds 16 1000 93 10000 3.6 110 10:19 05.07.2020
488 Clouds 16 1000 87 10000 3.1 110 09:56 05.07.2020
489 Clouds 16 1000 87 10000 2.6 100 09:37 05.07.2020
490 Rain 16 1000 87 10000 2.6 100 09:19 05.07.2020
491 Rain 16 1001 87 10000 1.5 0 08:45 05.07.2020
492 Rain 16 1001 87 10000 1.5 0 08:45 05.07.2020
493 Clouds 15 1001 93 10000 2.1 140 08:27 05.07.2020
494 Clouds 15 1001 93 10000 2.1 110 07:47 05.07.2020
495 Clouds 15 1001 93 10000 2.1 110 07:47 05.07.2020
496 Clouds 15 1001 93 10000 2.1 80 07:29 05.07.2020
497 Clouds 15 1001 100 10000 0.5 0 06:51 05.07.2020
498 Clouds 14 1001 100 10000 0.76 72 05:41 05.07.2020
499 Clouds 14 1001 100 10000 1.5 280 03:31 05.07.2020
500 Rain 14 1001 100 10000 2.1 280 02:41 05.07.2020
501 Rain 14 1001 100 10000 0.5 0 02:18 05.07.2020
502 Rain 14 1001 100 10000 2.1 310 01:33 05.07.2020
503 Rain 15 1002 93 10000 1.79 160 00:58 05.07.2020
504 Rain 15 1002 93 8000 1 180 00:38 05.07.2020
505 Rain 15 1002 93 8000 1 180 00:20 05.07.2020
506 Clouds 15 1002 93 10000 0.5 290 23:46 04.07.2020
507 Clouds 15 1002 100 10000 0.69 158 23:28 04.07.2020
508 Clouds 15 1002 93 10000 0.69 158 22:55 04.07.2020
509 Clouds 15 1002 93 10000 0.69 158 22:37 04.07.2020
510 Clouds 15 1002 93 10000 1 180 22:18 04.07.2020
511 Clouds 16 1002 93 10000 0.38 312 21:42 04.07.2020
512 Rain 16 1002 93 10000 1.02 271 21:23 04.07.2020
513 Drizzle 16 1002 93 10000 1 250 20:57 04.07.2020
514 Rain 17 1002 82 10000 2.1 300 20:38 04.07.2020
515 Rain 17 1002 82 10000 2.1 300 20:18 04.07.2020
516 Rain 17 1002 72 10000 1.5 280 19:43 04.07.2020
517 Rain 18 1002 72 10000 1.5 280 19:22 04.07.2020
518 Rain 18 1002 77 10000 2.6 280 19:22 04.07.2020
519 Clouds 18 1002 72 10000 3.6 290 18:55 04.07.2020
520 Clouds 18 1002 72 10000 3.6 290 18:37 04.07.2020
521 Clouds 18 1002 72 10000 3.6 290 18:19 04.07.2020
522 Clouds 19 1002 72 10000 4.1 280 17:42 04.07.2020
523 Rain 18 1002 77 10000 4.1 280 17:23 04.07.2020
524 Rain 19 1001 72 10000 4.6 300 16:57 04.07.2020
525 Rain 19 1001 77 10000 4.6 300 16:38 04.07.2020
526 Rain 18 1001 77 10000 4.6 300 16:19 04.07.2020
527 Rain 18 1001 82 10000 4.6 290 15:46 04.07.2020
528 Rain 19 1001 77 10000 5.1 270 15:27 04.07.2020
529 Rain 18 1001 88 10000 4.1 270 14:59 04.07.2020
530 Rain 18 1001 88 10000 4.1 270 14:38 04.07.2020
531 Rain 17 1001 88 10000 6.7 210 14:19 04.07.2020
532 Rain 17 1000 88 10000 4.6 180 13:58 04.07.2020
533 Rain 17 1000 88 10000 4.6 180 13:39 04.07.2020
534 Rain 16 1001 93 10000 3.1 160 13:18 04.07.2020
535 Rain 16 1001 93 7000 2.6 190 12:42 04.07.2020
536 Rain 16 1001 82 10000 3.6 200 12:21 04.07.2020
537 Clouds 16 1002 87 10000 3.6 200 11:54 04.07.2020
538 Clouds 16 1002 87 10000 4.6 190 11:36 04.07.2020
539 Clouds 15 1002 87 10000 4.6 190 11:18 04.07.2020
540 Clouds 15 1002 87 10000 4.6 200 10:41 04.07.2020
541 Clouds 15 1002 82 10000 3.6 180 10:21 04.07.2020
542 Clouds 15 1003 87 10000 3.6 190 09:58 04.07.2020
543 Clouds 15 1003 87 10000 3.6 190 09:58 04.07.2020
544 Clouds 14 1003 87 10000 4.1 190 09:37 04.07.2020
545 Clouds 14 1003 87 10000 4.1 190 09:19 04.07.2020
546 Clouds 13 1003 93 10000 4.6 190 08:46 04.07.2020
547 Rain 13 1003 93 10000 4.1 200 08:27 04.07.2020
548 Rain 13 1003 93 10000 4.1 200 07:46 04.07.2020
549 Rain 12 1004 93 10000 2.6 170 07:28 04.07.2020
550 Rain 12 1004 93 10000 2.1 150 06:55 04.07.2020
551 Rain 12 1004 87 10000 2.6 130 06:22 04.07.2020
552 Drizzle 12 1005 71 10000 2.6 170 05:35 04.07.2020
553 Clouds 13 1005 71 10000 2.6 150 04:43 04.07.2020
554 Clouds 12 1006 66 10000 2.6 210 02:51 04.07.2020
555 Clouds 12 1007 71 10000 2.6 220 02:19 04.07.2020
556 Clouds 12 1007 81 10000 2.1 200 01:31 04.07.2020
557 Clouds 13 1007 71 10000 1.5 220 00:41 04.07.2020
558 Clouds 13 1007 71 10000 1.5 220 00:22 04.07.2020
559 Clouds 14 1007 62 10000 2.6 220 23:40 03.07.2020
560 Clouds 15 1007 58 10000 2.6 230 23:19 03.07.2020
561 Clouds 15 1007 54 10000 2.6 230 22:55 03.07.2020
562 Clouds 16 1007 51 10000 2.1 230 22:37 03.07.2020
563 Clouds 16 1007 51 10000 2.1 230 22:19 03.07.2020
564 Clouds 16 1007 45 10000 3.6 240 21:41 03.07.2020
565 Clouds 17 1007 45 10000 4.1 240 21:20 03.07.2020
566 Clouds 18 1007 42 10000 5.1 250 20:55 03.07.2020
567 Clouds 18 1007 42 10000 5.1 250 20:55 03.07.2020
568 Clouds 18 1007 45 10000 4.6 250 20:37 03.07.2020
569 Clouds 18 1007 45 10000 4.6 250 20:19 03.07.2020
570 Clouds 18 1007 42 10000 5.7 240 19:41 03.07.2020
571 Clouds 19 1007 42 10000 5.7 240 19:19 03.07.2020
572 Clouds 19 1007 42 10000 5.7 240 18:56 03.07.2020
573 Clouds 19 1007 42 10000 5.1 210 18:38 03.07.2020
574 Clouds 19 1007 42 10000 5.7 220 18:19 03.07.2020
575 Clouds 20 1007 42 10000 5.7 220 17:42 03.07.2020
576 Clouds 20 1007 42 10000 5.1 240 17:22 03.07.2020
577 Clouds 20 1006 40 10000 4.1 250 16:46 03.07.2020
578 Clouds 20 1006 40 10000 5.1 250 16:27 03.07.2020
579 Clouds 20 1006 40 10000 5.1 220 15:48 03.07.2020
580 Clouds 20 1007 40 10000 4.6 250 15:25 03.07.2020
581 Clouds 20 1006 42 10000 4.1 240 14:59 03.07.2020
582 Clouds 20 1006 42 10000 4.1 240 14:41 03.07.2020
583 Clouds 20 1006 40 10000 4.6 220 14:22 03.07.2020
584 Clouds 20 1007 42 10000 5.1 240 13:48 03.07.2020
585 Clouds 19 1006 45 10000 4.6 260 13:29 03.07.2020
586 Clouds 19 1006 45 10000 5.1 230 12:59 03.07.2020
587 Clouds 19 1006 45 10000 5.7 260 12:40 03.07.2020
588 Clouds 19 1006 45 10000 5.7 260 12:20 03.07.2020
589 Clouds 18 1006 52 10000 5.1 220 11:44 03.07.2020
590 Clouds 19 1006 52 10000 5.1 260 11:25 03.07.2020
591 Clouds 18 1006 48 10000 5.7 260 10:59 03.07.2020
592 Clouds 17 1006 51 10000 5.7 250 10:40 03.07.2020
593 Clouds 18 1006 51 10000 5.7 250 10:21 03.07.2020
594 Clouds 18 1006 55 10000 3.6 230 09:57 03.07.2020
595 Clouds 17 1006 55 10000 3.6 230 09:38 03.07.2020
596 Clouds 17 1006 63 10000 3.6 200 09:18 03.07.2020
597 Clouds 16 1006 67 10000 4.1 240 08:40 03.07.2020
598 Clouds 15 1005 72 10000 4.1 230 08:19 03.07.2020
599 Clouds 15 1005 72 10000 3.6 240 07:50 03.07.2020
600 Clouds 14 1005 71 10000 4.1 240 07:28 03.07.2020
601 Clouds 14 1005 76 10000 4.1 240 06:58 03.07.2020
602 Clouds 13 1005 71 10000 3.6 250 06:25 03.07.2020
603 Clouds 13 1005 71 10000 3.6 250 06:25 03.07.2020
604 Clear 12 1005 71 10000 3.6 220 05:22 03.07.2020
605 Clear 12 1004 66 10000 3.6 230 03:46 03.07.2020
606 Clear 13 1004 62 10000 4.6 240 02:49 03.07.2020
607 Clear 13 1004 71 10000 3.6 230 02:30 03.07.2020
608 Clear 13 1004 67 10000 3.6 230 01:30 03.07.2020
609 Clear 14 1003 62 10000 4.1 230 00:56 03.07.2020
610 Clear 15 1003 62 10000 4.1 240 00:37 03.07.2020
611 Clear 15 1003 55 10000 4.6 250 23:52 02.07.2020
612 Clear 16 1003 55 10000 5.1 250 23:21 02.07.2020
613 Clear 16 1003 55 10000 4.6 250 22:58 02.07.2020
614 Clear 16 1003 55 10000 4.6 250 22:40 02.07.2020
615 Clear 17 1002 51 10000 6.2 240 22:20 02.07.2020
616 Clear 17 1002 51 10000 4.1 250 21:57 02.07.2020
617 Clear 18 1001 45 10000 6.7 260 21:39 02.07.2020
618 Clear 18 1001 45 10000 6.7 260 21:19 02.07.2020
619 Clear 18 1001 39 10000 5.7 250 20:57 02.07.2020
620 Clear 19 1001 39 10000 5.7 250 20:39 02.07.2020
621 Clouds 19 1001 39 10000 6.2 250 20:18 02.07.2020
622 Clouds 20 1000 40 10000 7.7 250 19:42 02.07.2020
623 Clouds 20 1000 40 10000 7.7 250 19:23 02.07.2020
624 Clouds 20 1000 43 10000 6.7 250 18:58 02.07.2020
625 Clouds 20 999 64 10000 4.6 230 18:40 02.07.2020
626 Clouds 20 999 64 10000 4.6 230 18:21 02.07.2020
627 Clouds 19 999 63 10000 5.1 190 17:54 02.07.2020
628 Rain 19 999 63 10000 5.7 190 17:36 02.07.2020
629 Rain 19 999 63 10000 5.7 190 17:18 02.07.2020
630 Clouds 20 999 52 10000 6.2 190 16:41 02.07.2020
631 Clouds 20 999 52 10000 6.2 190 16:20 02.07.2020
632 Clouds 19 999 59 10000 5.1 200 15:56 02.07.2020
633 Clouds 19 999 59 10000 5.1 200 15:56 02.07.2020
634 Rain 18 999 77 10000 3.1 290 15:37 02.07.2020
635 Rain 18 999 77 10000 3.1 290 15:18 02.07.2020
636 Clouds 19 999 59 10000 4.6 190 14:44 02.07.2020
637 Clouds 20 999 56 10000 5.1 160 14:22 02.07.2020
638 Rain 20 999 56 10000 4.6 180 13:57 02.07.2020
639 Clouds 19 999 63 10000 5.1 160 13:38 02.07.2020
640 Clouds 20 999 63 10000 5.1 160 13:18 02.07.2020
641 Clouds 19 1000 59 10000 4.1 190 12:41 02.07.2020
642 Clouds 19 1000 59 10000 4.1 190 12:22 02.07.2020
643 Clouds 19 1000 63 10000 4.1 180 11:57 02.07.2020
644 Clouds 19 1000 63 10000 4.1 180 11:39 02.07.2020
645 Clouds 19 1000 59 10000 4.1 180 11:21 02.07.2020
646 Clouds 18 1000 68 10000 4.1 170 10:42 02.07.2020
647 Clouds 18 1000 68 10000 4.1 170 10:42 02.07.2020
648 Clouds 18 1000 72 10000 4.1 170 10:24 02.07.2020
649 Clouds 17 1000 72 10000 3.1 170 09:45 02.07.2020
650 Clouds 16 1000 77 10000 2.1 180 09:23 02.07.2020
651 Clouds 16 1000 77 10000 2.6 180 08:59 02.07.2020
652 Clouds 16 1000 82 10000 2.1 190 08:40 02.07.2020
653 Clouds 16 1000 82 10000 2.1 190 08:20 02.07.2020
654 Clouds 15 1000 87 10000 1.5 180 07:42 02.07.2020
655 Clouds 15 1000 82 10000 2.6 210 07:22 02.07.2020
656 Clouds 14 1000 82 10000 2.1 220 06:50 02.07.2020
657 Clouds 14 1000 87 10000 2.23 230 06:27 02.07.2020
658 Clouds 13 1000 93 10000 2.23 230 05:50 02.07.2020
659 Clouds 13 1000 93 10000 1 190 05:19 02.07.2020
660 Clear 13 1000 93 10000 2.6 210 03:35 02.07.2020
661 Clouds 13 1000 93 10000 1.5 210 01:53 02.07.2020
662 Clouds 13 1000 100 10000 2.6 210 00:45 02.07.2020
663 Clouds 13 1000 93 10000 2.1 210 00:21 02.07.2020
664 Clouds 13 999 93 10000 1.5 220 23:45 01.07.2020
665 Clouds 14 999 93 10000 2.1 220 23:26 01.07.2020
666 Clouds 15 999 87 10000 2.1 220 22:55 01.07.2020
667 Clouds 15 999 82 10000 2.1 220 22:37 01.07.2020
668 Clouds 15 999 82 10000 2.1 220 22:19 01.07.2020
669 Clouds 15 998 77 10000 3.1 230 21:57 01.07.2020
670 Clouds 16 998 82 10000 3.1 230 21:39 01.07.2020
671 Rain 16 998 82 10000 3.1 230 21:20 01.07.2020
672 Rain 16 998 77 10000 3.1 240 20:46 01.07.2020
673 Clouds 16 998 72 10000 4.6 230 20:28 01.07.2020
674 Clouds 17 997 68 10000 3.6 220 19:58 01.07.2020
675 Clouds 17 997 68 10000 2.6 210 19:40 01.07.2020
676 Rain 17 997 68 10000 2.6 210 19:20 01.07.2020
677 Rain 17 997 72 10000 3.1 290 18:56 01.07.2020
678 Rain 18 997 55 10000 3.1 280 18:38 01.07.2020
679 Rain 19 997 55 10000 3.1 280 18:20 01.07.2020
680 Clouds 19 997 55 10000 3.6 300 17:41 01.07.2020
681 Clouds 19 997 55 10000 3.6 300 17:41 01.07.2020
682 Rain 19 997 55 10000 5.1 290 17:21 01.07.2020
683 Rain 18 996 59 10000 4.6 290 16:57 01.07.2020
684 Rain 18 996 59 10000 4.6 290 16:39 01.07.2020
685 Clouds 19 996 56 10000 4.1 290 16:20 01.07.2020
686 Clouds 19 996 56 10000 4.6 270 15:42 01.07.2020
687 Clouds 19 996 63 10000 5.1 310 15:23 01.07.2020
688 Clouds 19 996 63 10000 5.1 300 14:58 01.07.2020
689 Clouds 19 996 63 10000 4.6 270 14:38 01.07.2020
690 Clouds 19 996 63 10000 4.6 270 14:19 01.07.2020
691 Clouds 18 995 72 10000 4.6 280 13:40 01.07.2020
692 Clouds 18 995 77 10000 4.6 280 13:22 01.07.2020
693 Clouds 18 995 77 10000 4.6 300 12:59 01.07.2020
694 Clouds 18 994 77 10000 5.1 310 12:40 01.07.2020
695 Clouds 17 994 77 10000 5.1 310 12:22 01.07.2020
696 Clouds 17 994 82 10000 5.1 310 11:58 01.07.2020
697 Rain 17 993 77 10000 5.1 290 11:39 01.07.2020
698 Rain 17 993 77 10000 5.1 290 11:20 01.07.2020
699 Clouds 17 993 82 10000 5.1 290 10:43 01.07.2020
700 Clouds 17 992 72 10000 4.1 280 10:23 01.07.2020
701 Clouds 17 992 77 10000 5.1 250 09:59 01.07.2020
702 Clouds 17 992 77 10000 5.1 250 09:59 01.07.2020
703 Clouds 17 992 77 10000 5.7 250 09:38 01.07.2020
704 Clouds 16 992 77 10000 5.7 250 09:20 01.07.2020
705 Clouds 16 991 82 10000 4.6 250 08:57 01.07.2020
706 Clouds 16 991 82 10000 4.6 250 08:38 01.07.2020
707 Clouds 15 991 82 10000 4.6 250 08:19 01.07.2020
708 Clouds 15 991 82 10000 4.6 250 08:19 01.07.2020
709 Clouds 14 990 87 10000 3.6 230 07:40 01.07.2020
710 Clouds 14 990 87 10000 3.6 230 07:21 01.07.2020
711 Clouds 14 990 87 10000 3.6 230 06:51 01.07.2020
712 Clouds 14 990 87 10000 4.1 220 06:30 01.07.2020
713 Clouds 14 990 87 10000 3.1 220 05:35 01.07.2020
714 Clouds 13 990 93 10000 3.1 220 03:55 01.07.2020
715 Clouds 13 990 87 10000 3.1 210 03:36 01.07.2020
716 Clouds 14 990 87 10000 3.1 210 03:18 01.07.2020
717 Clouds 14 991 87 10000 3.1 220 01:55 01.07.2020
718 Clouds 14 991 93 10000 3.1 220 00:48 01.07.2020
719 Clouds 14 991 93 10000 3.1 220 00:26 01.07.2020
720 Rain 14 991 93 10000 4.6 220 23:57 30.06.2020
721 Rain 14 991 93 10000 4.1 220 23:39 30.06.2020
722 Rain 14 991 93 10000 4.1 220 23:19 30.06.2020
723 Rain 15 991 93 10000 3.1 210 22:41 30.06.2020
724 Rain 15 991 87 10000 3.1 210 22:18 30.06.2020
725 Rain 15 991 87 10000 3.1 220 21:41 30.06.2020
726 Rain 15 991 93 10000 2.1 210 21:19 30.06.2020
727 Clouds 16 991 82 10000 2.6 220 20:57 30.06.2020
728 Clouds 16 991 82 10000 2.6 220 20:39 30.06.2020
729 Rain 17 992 82 10000 1.5 230 20:20 30.06.2020
730 Rain 17 992 87 10000 1.5 320 19:43 30.06.2020
731 Rain 17 992 87 10000 1.5 320 19:20 30.06.2020
732 Rain 17 992 87 10000 2.6 170 18:54 30.06.2020
733 Rain 17 992 72 10000 3.6 220 18:36 30.06.2020
734 Rain 18 992 72 10000 3.6 220 18:18 30.06.2020
735 Clouds 19 993 68 10000 3.6 250 17:38 30.06.2020
736 Clouds 19 993 68 10000 3.6 250 17:19 30.06.2020
737 Clouds 18 993 82 10000 3.6 240 16:55 30.06.2020
738 Rain 18 994 77 9000 4.6 230 16:36 30.06.2020
739 Rain 18 994 77 9000 4.6 230 16:18 30.06.2020
740 Clouds 18 994 72 10000 3.1 240 15:41 30.06.2020
741 Clouds 17 994 77 10000 2.6 240 15:22 30.06.2020
742 Rain 16 994 87 10000 2.1 230 14:58 30.06.2020
743 Clouds 18 994 68 10000 4.1 200 14:39 30.06.2020
744 Clouds 18 994 68 10000 4.1 200 14:18 30.06.2020
745 Clouds 18 994 68 10000 4.1 200 14:18 30.06.2020
746 Clouds 18 994 68 10000 4.1 200 14:18 30.06.2020
747 Clouds 18 994 77 10000 4.1 200 13:41 30.06.2020
748 Rain 18 995 63 10000 5.1 200 13:21 30.06.2020
749 Clouds 18 995 68 10000 4.1 220 12:59 30.06.2020
750 Clouds 18 996 72 10000 4.1 210 12:40 30.06.2020
751 Clouds 18 996 72 10000 4.1 210 12:21 30.06.2020
752 Clouds 18 996 72 10000 4.1 210 12:21 30.06.2020
753 Clouds 18 996 68 10000 6.7 220 11:58 30.06.2020
754 Clouds 19 996 59 10000 4.6 210 11:39 30.06.2020
755 Clouds 19 996 59 10000 4.6 210 11:39 30.06.2020
756 Clouds 19 996 59 10000 4.6 210 11:19 30.06.2020
757 Rain 19 996 59 10000 4.1 220 10:58 30.06.2020
758 Rain 19 996 59 10000 4.1 220 10:58 30.06.2020
759 Clear 27 1008 47 10000 6.2 110 16:40 28.06.2020
760 Clear 28 1008 45 10000 6.2 110 16:22 28.06.2020
761 Clear 28 1008 42 10000 5.7 110 15:56 28.06.2020
762 Clear 28 1008 42 10000 5.7 110 15:38 28.06.2020
763 Clear 28 1008 42 10000 5.7 110 15:38 28.06.2020
764 Clear 28 1008 45 10000 5.7 110 15:18 28.06.2020
765 Clear 28 1008 42 10000 6.7 110 14:46 28.06.2020
766 Clouds 28 1009 37 10000 5.7 120 14:27 28.06.2020
767 Clouds 29 1009 35 10000 6.2 100 13:58 28.06.2020
768 Clouds 28 1009 42 10000 5.1 120 13:37 28.06.2020
769 Clouds 28 1009 42 10000 5.1 120 13:37 28.06.2020
770 Clouds 28 1009 42 10000 5.1 120 13:19 28.06.2020
771 Clouds 28 1009 42 10000 5.1 110 12:56 28.06.2020
772 Clouds 28 1009 42 10000 4.6 90 12:37 28.06.2020
773 Clouds 28 1009 42 10000 4.6 90 12:18 28.06.2020
774 Clouds 28 1009 45 10000 4.6 100 11:56 28.06.2020
775 Clouds 26 1009 57 10000 2.6 90 11:37 28.06.2020
776 Clouds 26 1009 57 10000 2.6 90 11:19 28.06.2020
777 Clouds 25 1009 57 10000 3.6 60 10:42 28.06.2020
778 Clouds 25 1009 57 10000 3.6 60 10:42 28.06.2020
779 Clouds 26 1009 61 10000 3.1 80 10:23 28.06.2020
780 Clouds 25 1009 69 10000 3.6 60 09:59 28.06.2020
781 Clouds 25 1009 69 10000 3.6 60 09:39 28.06.2020
782 Clouds 23 1009 64 10000 3.1 70 09:20 28.06.2020
783 Clouds 23 1009 64 10000 2.6 60 08:46 28.06.2020
784 Clouds 22 1009 64 10000 3.1 50 08:25 28.06.2020
785 Clouds 20 1009 72 10000 2.6 40 07:47 28.06.2020
786 Clouds 20 1009 72 10000 2.6 40 07:28 28.06.2020
787 Clouds 19 1010 72 10000 1 0 06:41 28.06.2020
788 Clouds 19 1010 72 10000 1 0 06:22 28.06.2020
789 Clouds 18 1010 77 10000 1 0 05:26 28.06.2020
790 Clouds 18 1010 77 10000 2.1 60 03:32 28.06.2020
791 Clouds 19 1010 72 10000 2.6 70 02:39 28.06.2020
792 Clouds 20 1010 64 10000 2.1 90 01:53 28.06.2020
793 Clouds 20 1010 56 10000 2.6 70 01:26 28.06.2020
794 Clouds 20 1010 56 10000 2.1 70 00:46 28.06.2020
795 Clouds 20 1010 56 10000 2.1 70 00:46 28.06.2020
796 Clouds 20 1010 60 10000 1.5 70 00:24 28.06.2020
797 Clouds 20 1010 56 10000 1 70 23:41 27.06.2020
798 Clouds 21 1010 53 10000 2.1 90 23:23 27.06.2020
799 Clouds 21 1010 46 10000 2.6 120 22:58 27.06.2020
800 Clouds 21 1011 46 10000 2.6 120 22:40 27.06.2020
801 Clear 22 1011 46 10000 2.6 120 22:20 27.06.2020
802 Clear 23 1011 44 10000 2.6 140 21:54 27.06.2020
803 Clouds 23 1011 44 10000 4.6 120 21:36 27.06.2020
804 Clouds 24 1011 44 10000 4.6 120 21:18 27.06.2020
805 Clouds 25 1010 41 10000 4.1 130 20:41 27.06.2020
806 Clouds 26 1010 41 10000 4.6 120 20:18 27.06.2020
807 Clouds 26 1010 39 10000 4.1 110 19:54 27.06.2020
808 Clouds 27 1010 36 10000 5.1 120 19:36 27.06.2020
809 Clouds 27 1010 36 10000 5.1 120 19:18 27.06.2020
810 Clouds 27 1011 39 10000 5.7 130 18:43 27.06.2020
811 Clouds 27 1011 39 10000 5.7 130 18:22 27.06.2020
812 Clouds 27 1011 39 10000 5.7 130 17:55 27.06.2020
813 Clouds 27 1011 36 10000 6.2 130 17:37 27.06.2020
814 Clouds 28 1011 36 10000 6.2 130 17:19 27.06.2020
815 Clouds 29 1011 35 10000 5.1 130 16:43 27.06.2020
816 Clouds 29 1012 32 10000 3.6 160 16:24 27.06.2020
817 Clouds 29 1012 32 10000 3.6 140 15:54 27.06.2020
818 Clouds 28 1012 37 10000 3.6 140 15:36 27.06.2020
819 Clear 29 1012 37 10000 3.6 140 15:18 27.06.2020
820 Clear 28 1012 42 10000 2.6 160 14:41 27.06.2020
821 Clear 28 1012 42 10000 2.6 130 14:22 27.06.2020
822 Clear 28 1013 37 10000 3.6 130 13:57 27.06.2020
823 Clear 28 1013 34 10000 2.1 240 13:37 27.06.2020
824 Clear 28 1013 34 10000 1.5 150 13:19 27.06.2020
825 Clear 28 1013 34 10000 1.5 150 12:56 27.06.2020
826 Clear 28 1013 37 10000 2.1 0 12:37 27.06.2020
827 Clear 28 1013 37 10000 2.1 0 12:19 27.06.2020
828 Clear 28 1013 37 10000 2.1 0 11:41 27.06.2020
829 Clear 28 1014 36 10000 2.6 150 11:23 27.06.2020
830 Clear 28 1014 39 10000 2.6 170 10:55 27.06.2020
831 Clear 27 1014 44 10000 2.6 140 10:37 27.06.2020
832 Clear 27 1014 44 10000 2.6 140 10:18 27.06.2020
833 Clear 26 1014 50 10000 3.1 150 09:40 27.06.2020
834 Clear 24 1014 50 10000 2.6 170 09:21 27.06.2020
835 Clear 24 1015 53 10000 1.5 150 08:46 27.06.2020
836 Clouds 21 1015 60 10000 2.1 150 08:23 27.06.2020
837 Clouds 21 1015 60 10000 2.1 140 07:50 27.06.2020
838 Clouds 20 1015 64 10000 1 140 07:30 27.06.2020
839 Clouds 19 1015 77 10000 2.04 193 06:55 27.06.2020
840 Clouds 18 1015 82 10000 0.5 130 06:34 27.06.2020
841 Clouds 16 1016 93 10000 1.5 140 05:31 27.06.2020
842 Clouds 16 1016 93 10000 1.98 209 04:19 27.06.2020
843 Clouds 16 1016 93 10000 1.98 209 03:51 27.06.2020
844 Clouds 17 1016 87 10000 0.5 130 02:45 27.06.2020
845 Clouds 17 1016 88 10000 1 130 02:26 27.06.2020
846 Clouds 18 1017 82 10000 2.52 203 01:37 27.06.2020
847 Clouds 19 1017 82 10000 2.58 200 00:49 27.06.2020
848 Clouds 19 1017 77 10000 1 160 23:57 26.06.2020
849 Clouds 20 1017 77 10000 1 160 23:38 26.06.2020
850 Clouds 20 1017 68 10000 1.5 160 23:20 26.06.2020
851 Clouds 22 1017 64 10000 1.5 160 22:43 26.06.2020
852 Clouds 22 1017 56 10000 3.1 160 22:24 26.06.2020
853 Clouds 23 1017 53 10000 3.1 150 21:58 26.06.2020
854 Clouds 23 1017 53 10000 3.1 150 21:40 26.06.2020
855 Clouds 23 1017 53 10000 3.1 150 21:40 26.06.2020
856 Clouds 24 1017 47 10000 4.6 160 21:21 26.06.2020
857 Clouds 25 1017 47 10000 4.1 150 20:58 26.06.2020
858 Clouds 25 1017 44 10000 4.6 160 20:39 26.06.2020
859 Clouds 25 1017 44 10000 4.6 160 20:18 26.06.2020
860 Clouds 27 1017 36 10000 4.6 190 19:40 26.06.2020
861 Clouds 27 1017 36 10000 4.6 190 19:20 26.06.2020
862 Clouds 27 1018 39 10000 5.1 210 18:43 26.06.2020
863 Clouds 28 1018 34 10000 5.1 180 18:25 26.06.2020
864 Clouds 28 1018 34 10000 5.1 200 17:57 26.06.2020
865 Clouds 28 1018 34 10000 5.1 200 17:39 26.06.2020
866 Clouds 28 1019 32 10000 5.1 210 17:21 26.06.2020
867 Clouds 28 1019 30 10000 5.1 200 16:43 26.06.2020
868 Clear 29 1019 30 10000 4.6 210 16:23 26.06.2020
869 Clear 29 1019 37 10000 3.1 180 15:41 26.06.2020
870 Clear 29 1019 37 10000 3.1 180 15:22 26.06.2020
871 Clear 28 1020 39 10000 3.1 180 14:59 26.06.2020
872 Clear 28 1020 42 10000 3.1 190 14:40 26.06.2020
873 Clear 28 1020 42 10000 3.1 190 14:22 26.06.2020
874 Clear 28 1020 42 10000 2.6 200 13:57 26.06.2020
875 Clear 28 1021 39 10000 2.6 210 13:38 26.06.2020
876 Clear 28 1021 39 10000 2.6 210 13:18 26.06.2020
877 Clear 27 1021 47 10000 2.6 220 12:41 26.06.2020
878 Clear 26 1021 47 10000 2.6 220 12:23 26.06.2020
879 Clear 27 1021 47 10000 3.6 210 11:58 26.06.2020
880 Clear 26 1021 47 10000 4.1 230 11:39 26.06.2020
881 Clear 26 1021 47 10000 4.1 230 11:21 26.06.2020
882 Clear 27 1021 50 10000 3.6 200 10:57 26.06.2020
883 Clear 26 1021 50 10000 3.6 180 10:38 26.06.2020
884 Clear 26 1021 50 10000 3.6 180 10:18 26.06.2020
885 Clear 25 1022 57 10000 3.1 170 09:44 26.06.2020
886 Clouds 23 1022 57 10000 3.1 200 09:25 26.06.2020
887 Clouds 22 1022 60 10000 3.1 210 08:56 26.06.2020
888 Clear 21 1022 64 10000 3.1 200 08:28 26.06.2020
889 Clear 20 1022 68 10000 2.6 200 07:53 26.06.2020
890 Clear 19 1022 68 10000 3.1 180 07:25 26.06.2020
891 Clear 19 1023 72 10000 1.5 160 06:59 26.06.2020
892 Clear 18 1023 72 10000 1.5 130 06:41 26.06.2020
893 Clear 16 1023 72 10000 1.5 130 06:18 26.06.2020
894 Clear 15 1023 82 10000 1.5 140 05:41 26.06.2020
895 Clear 15 1023 87 10000 1.5 140 03:55 26.06.2020
896 Clear 16 1024 77 10000 1.5 170 02:22 26.06.2020
897 Clear 17 1024 82 10000 1 0 01:20 26.06.2020
898 Clear 18 1024 68 10000 1.5 0 00:41 26.06.2020
899 Clear 18 1024 68 10000 1.5 0 00:19 26.06.2020
900 Clear 19 1024 59 10000 2.1 190 23:42 25.06.2020
901 Clear 20 1024 52 10000 1.5 190 23:18 25.06.2020
902 Clear 20 1024 43 10000 1.5 0 22:56 25.06.2020
903 Clear 21 1024 35 10000 2.1 180 22:37 25.06.2020
904 Clear 22 1024 35 10000 2.1 180 22:18 25.06.2020
905 Clear 22 1024 31 10000 1.5 180 21:56 25.06.2020
906 Clear 24 1024 31 10000 1.5 180 21:38 25.06.2020
907 Clear 24 1024 29 10000 2.6 180 21:19 25.06.2020
908 Clear 24 1024 29 10000 2.6 180 21:19 25.06.2020
909 Clear 25 1024 29 10000 3.1 200 20:44 25.06.2020
910 Clear 26 1024 29 10000 3.1 220 20:23 25.06.2020
911 Clear 27 1024 30 10000 3.1 200 19:58 25.06.2020
912 Clear 27 1024 30 10000 3.1 200 19:39 25.06.2020
913 Clear 28 1024 30 10000 4.1 210 19:19 25.06.2020
914 Clear 28 1024 30 10000 4.1 210 18:55 25.06.2020
915 Clear 28 1024 30 10000 4.6 200 18:36 25.06.2020
916 Clear 28 1024 30 10000 4.6 200 18:18 25.06.2020
917 Clear 29 1025 32 10000 5.1 220 17:39 25.06.2020
918 Clear 29 1025 32 10000 4.6 230 17:19 25.06.2020
919 Clear 29 1025 32 10000 5.1 210 16:42 25.06.2020
920 Clear 29 1025 32 10000 4.1 210 16:22 25.06.2020
921 Clear 30 1025 30 10000 4.6 200 15:59 25.06.2020
922 Clear 30 1025 33 10000 4.6 230 15:40 25.06.2020
923 Clear 30 1025 33 10000 4.6 230 15:19 25.06.2020
924 Clouds 30 1025 37 10000 3.1 200 14:43 25.06.2020
925 Clear 29 1026 37 10000 3.1 220 14:23 25.06.2020
926 Clear 29 1026 35 10000 3.6 230 13:56 25.06.2020
927 Clear 29 1026 37 10000 2.1 230 13:37 25.06.2020
928 Clear 29 1026 37 10000 2.1 230 13:19 25.06.2020
929 Clear 29 1026 32 10000 1.5 0 12:44 25.06.2020
930 Clear 29 1026 32 10000 1.5 0 12:20 25.06.2020
931 Clear 28 1026 45 10000 2.1 190 11:58 25.06.2020
932 Clear 28 1026 45 10000 2.1 190 11:38 25.06.2020
933 Clear 28 1026 45 10000 2.1 190 11:20 25.06.2020
934 Clear 28 1026 45 10000 2.1 190 11:20 25.06.2020
935 Clear 28 1026 45 10000 1 0 10:42 25.06.2020
936 Clear 27 1026 42 10000 1.5 0 10:23 25.06.2020
937 Clear 26 1026 57 10000 0.92 233 09:41 25.06.2020
938 Clear 26 1026 57 10000 0.86 260 09:23 25.06.2020
939 Clear 23 1026 60 10000 0.86 260 08:47 25.06.2020
940 Clear 23 1026 64 10000 1 0 08:20 25.06.2020
941 Clear 21 1026 68 10000 1 0 07:56 25.06.2020
942 Clear 22 1026 73 10000 1.07 289 07:38 25.06.2020
943 Clear 21 1026 73 10000 1.36 292 07:19 25.06.2020
944 Clear 18 1026 82 10000 1.7 278 06:28 25.06.2020
945 Clear 18 1026 82 10000 1.7 278 05:53 25.06.2020
946 Clear 17 1026 87 10000 2 253 05:25 25.06.2020
947 Clear 16 1026 82 10000 2.16 235 03:36 25.06.2020
948 Clear 16 1026 82 10000 2.25 227 02:44 25.06.2020
949 Clear 16 1026 82 10000 0.5 120 02:19 25.06.2020
950 Clear 17 1026 82 10000 1 150 01:34 25.06.2020
951 Clear 18 1026 77 10000 1.5 230 00:47 25.06.2020
952 Clear 19 1026 77 10000 1.5 230 00:22 25.06.2020
953 Clear 19 1026 72 10000 1 240 23:58 24.06.2020
954 Clear 19 1026 68 10000 1 200 23:37 24.06.2020
955 Clear 20 1026 68 10000 1 200 23:19 24.06.2020
956 Clear 22 1026 64 10000 1 180 22:41 24.06.2020
957 Clear 22 1026 60 10000 1.5 200 22:20 24.06.2020
958 Clear 23 1025 50 10000 2.1 200 21:57 24.06.2020
959 Clear 24 1025 47 10000 2.1 200 21:37 24.06.2020
960 Clear 24 1025 47 10000 2.1 200 21:19 24.06.2020
961 Clear 26 1025 36 10000 2.1 190 20:58 24.06.2020
962 Clear 26 1025 36 10000 2.1 190 20:39 24.06.2020
963 Clear 27 1025 36 10000 2.1 200 20:20 24.06.2020
964 Clear 28 1025 37 10000 3.1 200 19:57 24.06.2020
965 Clear 28 1025 34 10000 3.6 200 19:38 24.06.2020
966 Clear 28 1025 34 10000 3.6 200 19:38 24.06.2020
967 Clear 28 1025 34 10000 3.6 200 19:19 24.06.2020
968 Clear 29 1025 32 10000 3.1 200 18:58 24.06.2020
969 Clear 29 1025 35 10000 3.1 190 18:39 24.06.2020
970 Clear 29 1025 35 10000 3.1 190 18:20 24.06.2020
971 Clear 29 1025 32 10000 3.1 250 17:54 24.06.2020
972 Clear 29 1025 30 10000 3.1 260 17:36 24.06.2020
973 Clear 29 1025 30 10000 3.1 260 17:18 24.06.2020
974 Clear 29 1025 30 10000 3.6 240 16:55 24.06.2020
975 Clear 29 1025 30 10000 3.6 240 16:36 24.06.2020
976 Clear 29 1025 30 10000 2.6 250 16:18 24.06.2020
977 Clear 29 1025 30 10000 3.6 270 15:39 24.06.2020
978 Clear 29 1025 30 10000 3.6 270 15:20 24.06.2020
979 Clear 28 1025 30 10000 2.6 250 14:59 24.06.2020
980 Clear 29 1025 35 10000 2.6 250 14:40 24.06.2020
981 Clear 28 1025 35 10000 2.6 250 14:21 24.06.2020
982 Clear 28 1025 34 10000 1.5 0 13:42 24.06.2020
983 Clear 27 1025 37 10000 1.5 0 13:21 24.06.2020
984 Clear 27 1025 47 10000 2.6 270 12:44 24.06.2020
985 Clear 27 1025 47 10000 2.6 270 12:21 24.06.2020
986 Clear 26 1025 44 10000 2.6 250 11:58 24.06.2020
987 Clear 26 1025 47 10000 3.1 280 11:40 24.06.2020
988 Clear 26 1025 47 10000 3.1 280 11:21 24.06.2020
989 Clear 26 1025 50 10000 3.6 270 10:47 24.06.2020
990 Clear 25 1025 50 10000 3.6 230 10:20 24.06.2020
991 Clear 25 1025 57 10000 3.1 240 09:56 24.06.2020
992 Clear 25 1025 57 10000 2.6 240 09:38 24.06.2020
993 Clear 23 1025 57 10000 2.6 240 09:19 24.06.2020
994 Clear 22 1025 60 10000 2.6 260 08:40 24.06.2020
995 Clear 21 1025 64 10000 2.1 240 08:19 24.06.2020
996 Clear 20 1025 72 10000 1.5 240 07:48 24.06.2020
997 Clear 20 1025 72 10000 1.5 240 07:25 24.06.2020
998 Clear 18 1024 82 10000 0.5 0 06:46 24.06.2020
999 Clear 16 1024 82 10000 0.5 0 06:24 24.06.2020
1000 Clear 16 1024 82 10000 0.5 0 06:24 24.06.2020
1001 Clear 15 1024 87 10000 2.08 263 05:45 24.06.2020
1002 Clear 14 1024 100 10000 2.08 257 04:39 24.06.2020
1003 Clear 14 1024 93 10000 2.22 247 03:39 24.06.2020
1004 Clear 15 1024 93 10000 2.54 234 03:18 24.06.2020
1005 Clear 15 1024 93 10000 1.5 210 02:36 24.06.2020
1006 Clear 17 1023 82 10000 2.6 220 00:53 24.06.2020
1007 Clear 17 1023 82 10000 2.6 220 00:53 24.06.2020
1008 Clear 18 1023 77 10000 2.1 210 00:34 24.06.2020
1009 Clear 18 1023 77 10000 2.6 200 23:49 23.06.2020
1010 Clear 18 1022 72 10000 2.6 200 23:24 23.06.2020
1011 Clear 18 1022 64 10000 3.1 200 22:59 23.06.2020
1012 Clear 19 1022 60 10000 2.6 210 22:41 23.06.2020
1013 Clear 20 1022 60 10000 2.6 210 22:19 23.06.2020
1014 Clear 22 1022 56 10000 2.1 220 21:57 23.06.2020
1015 Clear 23 1022 47 10000 2.1 260 21:38 23.06.2020
1016 Clear 23 1022 47 10000 2.1 260 21:18 23.06.2020
1017 Clear 23 1021 47 10000 2.6 310 20:55 23.06.2020
1018 Clear 24 1021 44 10000 3.1 310 20:36 23.06.2020
1019 Clear 25 1021 44 10000 3.1 300 20:18 23.06.2020
1020 Clear 25 1021 41 10000 2.6 280 19:42 23.06.2020
1021 Clear 25 1021 39 10000 2.6 280 19:23 23.06.2020
1022 Clear 26 1021 39 10000 2.6 230 18:39 23.06.2020
1023 Clear 26 1021 36 10000 2.6 310 18:19 23.06.2020
1024 Clear 26 1021 36 10000 2.6 310 17:44 23.06.2020
1025 Clear 26 1021 36 10000 2.6 250 17:25 23.06.2020
1026 Clear 26 1021 36 10000 3.6 280 16:57 23.06.2020
1027 Clear 26 1021 36 10000 3.6 280 16:39 23.06.2020
1028 Clear 25 1021 31 10000 3.6 270 16:20 23.06.2020
1029 Clear 25 1021 31 10000 3.1 230 15:59 23.06.2020
1030 Clear 25 1021 31 10000 2.6 230 15:41 23.06.2020
1031 Clear 25 1021 31 10000 2.6 230 15:23 23.06.2020
1032 Clear 25 1021 33 10000 3.1 290 14:54 23.06.2020
1033 Clear 24 1021 36 10000 3.1 240 14:36 23.06.2020
1034 Clouds 24 1021 38 10000 2.1 240 14:18 23.06.2020
1035 Clouds 24 1021 38 10000 2.6 270 13:42 23.06.2020
1036 Clouds 24 1021 38 10000 2.6 270 13:23 23.06.2020
1037 Clouds 24 1021 38 10000 2.6 270 13:23 23.06.2020
1038 Clouds 24 1020 40 10000 2.1 290 12:46 23.06.2020
1039 Clouds 23 1020 40 10000 2.1 290 12:23 23.06.2020
1040 Clouds 23 1020 43 10000 1.5 110 11:59 23.06.2020
1041 Clouds 23 1020 43 10000 1.5 110 11:40 23.06.2020
1042 Clouds 23 1020 40 10000 2.1 60 11:20 23.06.2020
1043 Clouds 23 1020 53 10000 2.1 230 10:58 23.06.2020
1044 Clouds 22 1020 60 10000 1.5 130 10:39 23.06.2020
1045 Clouds 22 1020 60 10000 1.5 130 10:21 23.06.2020
1046 Clouds 22 1020 56 10000 2.1 130 09:55 23.06.2020
1047 Clouds 21 1020 60 10000 1.5 0 09:36 23.06.2020
1048 Clouds 20 1020 60 10000 1.5 0 09:18 23.06.2020
1049 Clouds 20 1020 64 10000 0.56 341 08:42 23.06.2020
1050 Clouds 19 1019 72 10000 0.5 0 08:22 23.06.2020
1051 Clouds 18 1019 82 10000 0.5 0 07:44 23.06.2020
1052 Clouds 17 1019 82 10000 0.87 327 07:24 23.06.2020
1053 Clouds 18 1019 82 10000 1 0 06:51 23.06.2020
1054 Clouds 18 1019 82 10000 1 0 06:31 23.06.2020
1055 Clouds 15 1019 93 10000 1.05 300 05:48 23.06.2020
1056 Clouds 13 1019 100 10000 1.04 291 04:41 23.06.2020
1057 Clouds 14 1018 100 10000 1.26 331 03:20 23.06.2020
1058 Clouds 14 1018 93 10000 1.26 331 02:46 23.06.2020
1059 Clouds 15 1018 87 10000 0.5 300 02:27 23.06.2020
1060 Clouds 15 1018 87 10000 1 260 01:44 23.06.2020
1061 Clouds 15 1018 87 10000 1.5 260 01:21 23.06.2020
1062 Clouds 16 1018 77 10000 3.6 270 00:38 23.06.2020
1063 Clouds 16 1018 77 10000 3.6 270 00:18 23.06.2020
1064 Clouds 16 1017 77 10000 2.1 240 23:39 22.06.2020
1065 Clouds 16 1017 77 10000 2.1 240 23:19 22.06.2020
1066 Clouds 17 1017 67 10000 1.5 160 22:58 22.06.2020
1067 Clouds 18 1017 63 10000 2.6 160 22:40 22.06.2020
1068 Clouds 18 1017 63 10000 2.6 160 22:20 22.06.2020
1069 Clouds 18 1017 59 10000 2.6 150 21:58 22.06.2020
1070 Clouds 18 1017 59 10000 2.6 150 21:58 22.06.2020
1071 Clouds 18 1017 59 10000 2.6 150 21:58 22.06.2020
1072 Clouds 18 1017 59 10000 3.1 110 21:40 22.06.2020
1073 Clouds 19 1017 59 10000 3.1 110 21:21 22.06.2020
1074 Clouds 19 1016 59 10000 4.1 120 20:55 22.06.2020
1075 Clouds 20 1016 56 10000 3.6 110 20:36 22.06.2020
1076 Clouds 20 1016 56 10000 3.6 110 20:18 22.06.2020
1077 Clouds 21 1016 52 10000 4.1 60 19:43 22.06.2020
1078 Clouds 21 1016 52 10000 4.1 60 19:19 22.06.2020
1079 Clouds 22 1016 49 10000 3.6 90 18:56 22.06.2020
1080 Clouds 22 1016 49 10000 3.6 90 18:36 22.06.2020
1081 Clouds 22 1016 46 10000 3.1 70 18:18 22.06.2020
1082 Clouds 22 1016 46 10000 3.1 70 17:55 22.06.2020
1083 Clouds 22 1017 43 10000 2.6 90 17:36 22.06.2020
1084 Clouds 22 1017 43 10000 3.1 130 17:18 22.06.2020
1085 Clouds 22 1017 49 10000 3.6 130 16:41 22.06.2020
1086 Clouds 22 1017 46 10000 3.1 100 16:18 22.06.2020
1087 Clouds 22 1017 46 10000 3.1 100 15:55 22.06.2020
1088 Clouds 22 1017 49 10000 4.1 120 15:37 22.06.2020
1089 Clouds 22 1017 52 10000 4.6 120 15:19 22.06.2020
1090 Clouds 22 1017 46 10000 4.6 130 14:39 22.06.2020
1091 Clouds 22 1017 46 10000 4.1 100 14:20 22.06.2020
1092 Clouds 22 1017 46 10000 4.1 100 13:56 22.06.2020
1093 Clouds 22 1017 46 10000 4.1 90 13:37 22.06.2020
1094 Clouds 21 1017 46 10000 4.1 90 13:19 22.06.2020
1095 Clouds 22 1017 43 10000 4.1 60 12:42 22.06.2020
1096 Clouds 22 1017 43 10000 4.1 60 12:42 22.06.2020
1097 Clouds 21 1017 49 10000 5.1 60 12:23 22.06.2020
1098 Clouds 22 1017 49 10000 5.1 60 11:57 22.06.2020
1099 Clouds 22 1017 49 10000 4.6 90 11:37 22.06.2020
1100 Clouds 22 1017 49 10000 4.6 90 11:18 22.06.2020
1101 Clouds 21 1017 56 10000 4.6 80 10:54 22.06.2020
1102 Clouds 21 1017 56 10000 4.6 80 10:36 22.06.2020
1103 Clouds 20 1017 60 10000 4.1 60 10:18 22.06.2020
1104 Clouds 20 1017 63 10000 4.1 60 09:41 22.06.2020
1105 Clouds 18 1017 63 10000 4.1 80 09:20 22.06.2020
1106 Clouds 19 1017 63 10000 4.1 80 08:59 22.06.2020
1107 Clouds 19 1017 68 10000 3.1 80 08:39 22.06.2020
1108 Clouds 19 1017 68 10000 3.1 80 08:39 22.06.2020
1109 Clouds 18 1017 68 10000 3.1 80 08:20 22.06.2020
1110 Clouds 17 1018 67 10000 3.6 80 07:52 22.06.2020
1111 Clouds 17 1018 67 10000 3.1 90 07:33 22.06.2020
1112 Clouds 15 1018 67 10000 3.1 90 06:46 22.06.2020
1113 Clear 14 1018 67 10000 3.1 90 06:27 22.06.2020
1114 Clear 14 1018 72 10000 3.1 80 05:58 22.06.2020
1115 Clear 13 1018 76 10000 2.1 80 05:30 22.06.2020
1116 Clear 12 1019 76 10000 1.5 60 02:55 22.06.2020
1117 Clear 14 1019 67 10000 2.1 100 01:25 22.06.2020
1118 Clear 15 1020 67 10000 3.1 70 00:41 22.06.2020
1119 Clear 15 1020 63 10000 2.6 90 23:59 21.06.2020
1120 Clear 15 1020 63 10000 2.1 90 23:39 21.06.2020
1121 Clear 15 1020 63 10000 2.1 90 23:21 21.06.2020
1122 Clear 16 1020 59 10000 3.6 110 22:57 21.06.2020
1123 Clear 16 1020 59 10000 3.6 100 22:38 21.06.2020
1124 Clear 17 1019 48 10000 3.6 90 22:19 21.06.2020
1125 Clear 17 1019 48 10000 3.6 90 21:58 21.06.2020
1126 Clear 18 1019 48 10000 3.6 90 21:40 21.06.2020
1127 Clear 19 1019 42 10000 3.6 60 21:21 21.06.2020
1128 Clear 20 1019 42 10000 3.6 60 20:59 21.06.2020
1129 Clear 19 1019 40 10000 3.6 90 20:38 21.06.2020
1130 Clear 21 1019 37 10000 4.1 110 20:19 21.06.2020
1131 Clear 21 1019 37 10000 4.1 110 19:56 21.06.2020
1132 Clear 20 1019 40 10000 4.6 90 19:38 21.06.2020
1133 Clear 21 1020 49 10000 3.6 70 19:19 21.06.2020
1134 Clear 21 1020 49 10000 3.6 70 18:54 21.06.2020
1135 Clear 21 1020 52 10000 4.6 60 18:36 21.06.2020
1136 Clear 21 1020 52 10000 4.1 80 18:18 21.06.2020
1137 Clear 22 1020 49 10000 4.1 80 17:40 21.06.2020
1138 Clear 22 1020 49 10000 4.1 80 17:20 21.06.2020
1139 Clear 22 1020 53 10000 4.1 80 16:56 21.06.2020
1140 Clear 22 1020 49 10000 4.6 60 16:37 21.06.2020
1141 Clear 22 1020 46 10000 4.6 60 16:19 21.06.2020
1142 Clear 22 1020 46 10000 5.1 60 15:38 21.06.2020
1143 Clear 22 1021 46 10000 4.6 60 15:20 21.06.2020
1144 Clear 22 1021 40 10000 5.1 70 14:39 21.06.2020
1145 Clear 22 1021 40 10000 5.1 70 14:21 21.06.2020
1146 Clear 22 1021 37 10000 4.6 60 13:59 21.06.2020
1147 Clear 22 1021 37 10000 4.6 60 13:59 21.06.2020
1148 Clear 22 1021 43 10000 4.6 70 13:41 21.06.2020
1149 Clear 23 1021 43 10000 4.6 70 13:22 21.06.2020
1150 Clear 23 1020 43 10000 5.1 60 12:56 21.06.2020
1151 Clear 23 1021 40 10000 5.1 70 12:37 21.06.2020
1152 Clear 22 1020 43 10000 4.6 50 12:19 21.06.2020
1153 Clear 22 1020 43 10000 4.6 50 11:42 21.06.2020
1154 Clear 22 1020 43 10000 4.6 50 11:42 21.06.2020
1155 Clear 22 1021 43 10000 5.1 60 11:23 21.06.2020
1156 Clear 22 1021 43 10000 5.1 60 10:58 21.06.2020
1157 Clear 21 1021 43 10000 5.1 60 10:39 21.06.2020
1158 Clear 22 1021 43 10000 5.1 60 10:21 21.06.2020
1159 Clear 20 1021 49 10000 4.1 70 09:44 21.06.2020
1160 Clear 20 1021 49 10000 4.1 70 09:23 21.06.2020
1161 Clear 19 1020 56 10000 4.1 50 08:57 21.06.2020
1162 Clear 19 1020 59 10000 3.1 60 08:39 21.06.2020
1163 Clear 19 1020 59 10000 3.1 60 08:20 21.06.2020
1164 Clear 17 1020 67 10000 3.1 50 07:42 21.06.2020
1165 Clear 17 1020 67 10000 3.1 50 07:24 21.06.2020
1166 Clear 17 1020 67 10000 2.6 50 06:51 21.06.2020
1167 Clear 15 1020 67 10000 1.5 50 06:31 21.06.2020
1168 Clear 15 1020 72 10000 2.1 20 05:57 21.06.2020
1169 Clear 14 1020 67 10000 2.1 20 04:42 21.06.2020
1170 Clear 14 1020 67 10000 1.5 20 03:19 21.06.2020
1171 Clear 15 1020 67 10000 2.6 50 02:36 21.06.2020
1172 Clear 16 1020 59 10000 2.6 50 01:40 21.06.2020
1173 Clear 16 1020 59 10000 2.6 50 01:19 21.06.2020
1174 Clear 17 1020 55 10000 2.6 50 00:46 21.06.2020
1175 Clear 17 1020 55 10000 2.6 50 00:25 21.06.2020
1176 Clear 17 1020 48 10000 4.6 60 23:46 20.06.2020
1177 Clear 18 1019 45 10000 4.1 60 23:23 20.06.2020
1178 Clear 18 1019 45 10000 4.1 60 22:59 20.06.2020
1179 Clear 18 1019 45 10000 5.1 50 22:41 20.06.2020
1180 Clear 19 1019 42 10000 4.1 50 22:21 20.06.2020
1181 Clear 19 1019 42 10000 4.1 50 21:58 20.06.2020
1182 Clear 19 1019 45 10000 5.7 50 21:40 20.06.2020
1183 Clear 19 1019 45 10000 5.7 50 21:21 20.06.2020
1184 Clear 20 1019 45 10000 6.2 60 20:58 20.06.2020
1185 Clear 20 1019 46 10000 5.1 70 20:40 20.06.2020
1186 Clear 20 1019 46 10000 5.1 70 20:21 20.06.2020
1187 Clear 21 1019 52 10000 5.1 50 19:59 20.06.2020
1188 Clear 22 1018 60 10000 5.7 40 19:40 20.06.2020
1189 Clear 22 1018 60 10000 6.2 60 19:20 20.06.2020
1190 Clear 22 1018 64 10000 6.7 60 18:43 20.06.2020
1191 Clear 22 1018 60 10000 5.7 60 18:21 20.06.2020
1192 Clear 23 1018 60 10000 5.7 60 17:58 20.06.2020
1193 Clear 23 1018 56 10000 6.7 80 17:39 20.06.2020
1194 Clear 23 1018 56 10000 6.7 80 17:20 20.06.2020
1195 Clear 23 1018 60 10000 7.2 60 16:55 20.06.2020
1196 Clear 23 1019 60 10000 7.2 70 16:37 20.06.2020
1197 Clear 23 1018 60 10000 6.7 70 16:18 20.06.2020
1198 Clear 23 1019 60 10000 7.2 60 15:41 20.06.2020
1199 Clear 23 1018 60 10000 6.7 60 15:18 20.06.2020
1200 Clear 23 1018 64 10000 6.2 70 14:43 20.06.2020
1201 Clear 23 1018 64 10000 6.2 70 14:21 20.06.2020
1202 Clear 23 1018 64 10000 6.2 70 13:55 20.06.2020
1203 Clear 23 1018 64 10000 5.1 70 13:37 20.06.2020
1204 Clear 23 1018 68 10000 7.2 70 13:19 20.06.2020
1205 Clear 23 1018 68 10000 6.2 60 12:42 20.06.2020
1206 Clear 23 1018 68 10000 7.2 60 12:21 20.06.2020
1207 Clear 23 1018 68 10000 7.2 60 11:57 20.06.2020
1208 Clear 23 1017 64 10000 6.2 60 11:38 20.06.2020
1209 Clear 23 1017 64 10000 5.1 70 11:20 20.06.2020
1210 Clear 23 1017 64 10000 5.1 70 11:20 20.06.2020
1211 Clear 23 1017 64 10000 5.1 50 10:50 20.06.2020
1212 Clear 23 1017 64 10000 5.1 50 10:23 20.06.2020
1213 Clear 22 1016 64 10000 5.1 70 09:57 20.06.2020
1214 Clear 22 1017 68 10000 4.6 80 09:39 20.06.2020
1215 Clear 22 1017 68 10000 4.6 80 09:21 20.06.2020
1216 Clear 22 1016 73 10000 5.1 70 08:48 20.06.2020
1217 Clear 21 1016 73 10000 5.1 70 08:30 20.06.2020
1218 Clear 21 1016 68 10000 4.6 70 07:52 20.06.2020
1219 Clear 20 1016 77 10000 3.6 60 07:28 20.06.2020
1220 Clear 18 1016 77 10000 2.6 40 06:58 20.06.2020
1221 Clear 18 1016 82 10000 2.6 20 06:24 20.06.2020
1222 Clear 16 1015 93 10000 2.6 30 05:54 20.06.2020
1223 Clear 16 1015 93 10000 2.6 30 05:25 20.06.2020
1224 Clear 16 1015 93 10000 2.6 360 02:56 20.06.2020
1225 Clear 17 1015 88 10000 3.1 360 01:50 20.06.2020
1226 Clear 17 1016 77 10000 2.1 340 01:27 20.06.2020
1227 Clear 18 1016 72 10000 2.1 10 00:22 20.06.2020
1228 Clear 18 1016 68 10000 2.1 20 23:58 19.06.2020
1229 Clear 19 1016 64 10000 3.6 30 23:39 19.06.2020
1230 Clear 19 1016 60 10000 3.1 30 23:18 19.06.2020
1231 Clear 20 1015 60 10000 3.1 30 22:42 19.06.2020
1232 Clear 21 1015 56 10000 3.6 40 22:23 19.06.2020
1233 Clear 21 1015 56 10000 3.6 40 21:59 19.06.2020
1234 Clear 22 1015 56 10000 3.6 60 21:39 19.06.2020
1235 Clear 22 1015 56 10000 4.1 60 21:18 19.06.2020
1236 Clear 22 1015 56 10000 4.1 60 20:59 19.06.2020
1237 Clear 23 1015 53 10000 5.1 90 20:40 19.06.2020
1238 Clear 24 1015 53 10000 5.1 90 20:21 19.06.2020
1239 Clear 24 1015 53 10000 5.1 90 20:21 19.06.2020
1240 Clear 24 1015 50 10000 5.7 80 19:58 19.06.2020
1241 Clear 25 1015 47 10000 5.1 70 19:40 19.06.2020
1242 Clear 25 1015 47 10000 5.1 70 19:21 19.06.2020
1243 Clear 25 1014 44 10000 4.6 70 18:56 19.06.2020
1244 Clear 25 1014 44 10000 5.1 80 18:38 19.06.2020
1245 Clear 25 1014 44 10000 5.1 80 18:20 19.06.2020
1246 Clear 25 1014 44 10000 5.7 70 17:40 19.06.2020
1247 Clear 25 1014 44 10000 5.7 70 17:22 19.06.2020
1248 Clear 25 1015 44 10000 5.1 70 16:57 19.06.2020
1249 Clear 25 1015 41 10000 5.7 80 16:37 19.06.2020
1250 Clear 25 1015 44 10000 4.6 80 16:19 19.06.2020
1251 Clear 25 1015 44 10000 5.1 90 15:43 19.06.2020
1252 Clear 25 1015 44 10000 5.1 90 15:25 19.06.2020
1253 Clear 25 1015 47 10000 4.1 80 14:56 19.06.2020
1254 Clear 25 1015 47 10000 4.1 80 14:38 19.06.2020
1255 Clear 25 1016 47 10000 4.1 90 14:20 19.06.2020
1256 Clear 24 1015 50 10000 3.1 70 13:45 19.06.2020
1257 Clear 24 1015 50 10000 3.1 70 13:27 19.06.2020
1258 Clear 24 1015 50 10000 3.6 70 12:58 19.06.2020
1259 Clear 24 1015 49 10000 4.6 80 12:40 19.06.2020
1260 Clear 23 1016 49 10000 4.1 70 12:18 19.06.2020
1261 Clear 24 1015 53 10000 3.6 70 11:40 19.06.2020
1262 Clear 24 1015 56 10000 4.1 50 11:19 19.06.2020
1263 Clear 23 1015 56 10000 4.1 50 10:59 19.06.2020
1264 Clear 23 1015 60 10000 3.1 80 10:40 19.06.2020
1265 Clear 23 1015 60 10000 3.1 80 10:19 19.06.2020
1266 Clear 22 1015 60 10000 3.1 70 09:42 19.06.2020
1267 Clear 21 1015 60 10000 3.1 70 09:21 19.06.2020
1268 Clear 22 1015 64 10000 3.1 60 08:55 19.06.2020
1269 Clear 22 1015 64 10000 1.5 0 08:37 19.06.2020
1270 Clear 22 1015 64 10000 1.5 0 08:37 19.06.2020
1271 Clear 19 1015 72 10000 1.5 0 08:19 19.06.2020
1272 Clear 17 1015 77 10000 1.5 330 07:40 19.06.2020
1273 Clear 17 1015 82 10000 2.25 45 07:21 19.06.2020
1274 Clear 16 1015 87 10000 2.25 45 06:44 19.06.2020
1275 Clear 14 1015 93 10000 1.9 21 06:19 19.06.2020
1276 Clear 12 1015 100 10000 1.65 3 04:30 19.06.2020
1277 Clear 13 1015 93 10000 1.23 347 03:29 19.06.2020
1278 Clear 14 1015 93 10000 0.5 270 01:23 19.06.2020
1279 Clear 14 1015 87 10000 1.5 190 00:42 19.06.2020
1280 Clear 15 1015 87 10000 1.5 190 00:22 19.06.2020
1281 Clear 15 1015 93 10000 0.59 173 23:55 18.06.2020
1282 Clear 16 1015 87 10000 0.5 150 23:36 18.06.2020
1283 Clear 16 1015 87 10000 0.5 150 23:36 18.06.2020
1284 Clear 16 1015 82 10000 1.5 180 23:18 18.06.2020
1285 Clear 16 1015 82 10000 1.5 180 23:18 18.06.2020
1286 Clear 18 1014 72 10000 2.6 150 22:39 18.06.2020
1287 Clear 18 1014 68 10000 3.6 130 22:19 18.06.2020
1288 Clear 18 1014 68 10000 3.6 130 21:55 18.06.2020
1289 Clear 19 1014 68 10000 3.6 120 21:36 18.06.2020
1290 Clear 21 1014 64 10000 3.1 120 21:18 18.06.2020
1291 Clear 21 1014 68 10000 3.1 110 20:40 18.06.2020
1292 Clouds 22 1014 60 10000 4.1 120 20:20 18.06.2020
1293 Clouds 22 1014 60 10000 4.1 120 19:56 18.06.2020
1294 Clouds 23 1014 56 10000 2.1 130 19:37 18.06.2020
1295 Clouds 23 1014 56 10000 3.1 150 19:18 18.06.2020
1296 Clouds 24 1014 50 10000 2.6 290 18:38 18.06.2020
1297 Clouds 24 1014 44 10000 1.5 0 18:19 18.06.2020
1298 Clouds 24 1014 47 10000 2.1 0 17:45 18.06.2020
1299 Clouds 24 1014 47 10000 2.1 0 17:26 18.06.2020
1300 Clouds 24 1014 47 10000 2.1 0 17:26 18.06.2020
1301 Clouds 24 1014 50 10000 1.5 0 16:57 18.06.2020
1302 Clouds 24 1014 53 10000 1.5 330 16:39 18.06.2020
1303 Clouds 24 1014 56 10000 0.5 0 16:20 18.06.2020
1304 Clouds 23 1014 56 10000 0.5 0 15:57 18.06.2020
1305 Clouds 23 1015 56 10000 2.6 150 15:38 18.06.2020
1306 Clouds 23 1014 53 10000 1.5 0 15:19 18.06.2020
1307 Clouds 23 1015 60 0 0.51 147 14:55 18.06.2020
1308 Clouds 23 1015 56 10000 1 0 14:37 18.06.2020
1309 Clouds 22 1014 56 10000 1.5 0 14:18 18.06.2020
1310 Clouds 22 1015 53 10000 1 0 13:47 18.06.2020
1311 Clouds 22 1015 53 10000 1 0 13:27 18.06.2020
1312 Clouds 22 1014 60 10000 2.1 260 12:57 18.06.2020
1313 Clouds 22 1014 60 10000 1.5 0 12:39 18.06.2020
1314 Clouds 21 1014 60 10000 1.5 0 12:19 18.06.2020
1315 Clouds 21 1014 64 10000 2.1 300 11:48 18.06.2020
1316 Clouds 21 1014 64 10000 2.1 300 11:21 18.06.2020
1317 Clouds 21 1014 68 10000 1.5 0 10:59 18.06.2020
1318 Clouds 21 1015 72 10000 1 0 10:39 18.06.2020
1319 Clouds 20 1015 72 10000 0.5 0 10:18 18.06.2020
1320 Clouds 19 1015 77 10000 1 0 09:44 18.06.2020
1321 Clouds 19 1015 77 10000 1 0 09:26 18.06.2020
1322 Clouds 19 1015 77 10000 1.5 0 08:54 18.06.2020
1323 Clear 18 1015 77 10000 1.5 100 08:36 18.06.2020
1324 Clear 16 1015 82 10000 1.1 328 08:18 18.06.2020
1325 Clear 16 1015 87 10000 1.1 328 07:43 18.06.2020
1326 Clear 16 1015 87 10000 1.13 318 07:23 18.06.2020
1327 Clear 14 1015 100 10000 1.13 318 06:34 18.06.2020
1328 Mist 11 1014 100 2800 1.57 272 04:27 18.06.2020
1329 Clear 11 1015 100 10000 2.05 268 03:30 18.06.2020
1330 Mist 13 1015 100 10000 0.5 0 01:43 18.06.2020
1331 Mist 13 1015 100 10000 0.5 0 01:20 18.06.2020
1332 Clear 14 1015 93 10000 2.55 231 00:49 18.06.2020
1333 Clear 14 1015 93 10000 2.72 215 00:26 18.06.2020
1334 Clear 15 1015 93 10000 2.72 215 23:54 17.06.2020
1335 Clear 15 1015 87 10000 1.5 40 23:36 17.06.2020
1336 Clear 15 1015 87 10000 1 80 23:18 17.06.2020
1337 Clear 15 1015 87 10000 1 80 22:54 17.06.2020
1338 Clear 16 1015 87 10000 1.5 30 22:36 17.06.2020
1339 Clear 16 1015 87 10000 1.5 30 22:18 17.06.2020
1340 Clear 16 1014 82 10000 2.1 360 21:39 17.06.2020
1341 Clear 17 1014 88 10000 3.1 320 21:20 17.06.2020
1342 Clear 17 1014 88 10000 3.1 320 20:55 17.06.2020
1343 Clear 18 1014 77 10000 2.6 310 20:37 17.06.2020
1344 Clouds 18 1014 77 10000 2.1 320 20:18 17.06.2020
1345 Clouds 18 1014 82 10000 2.6 320 19:42 17.06.2020
1346 Clouds 18 1014 82 10000 2.6 320 19:21 17.06.2020
1347 Clouds 18 1013 72 10000 2.1 310 19:21 17.06.2020
1348 Clouds 19 1013 72 10000 2.1 310 18:56 17.06.2020
1349 Clouds 19 1014 82 10000 2.6 320 18:37 17.06.2020
1350 Clouds 19 1014 82 10000 2.1 300 18:19 17.06.2020
1351 Clouds 18 1014 82 10000 1.5 0 17:40 17.06.2020
1352 Rain 18 1014 82 10000 2.1 340 17:21 17.06.2020
1353 Rain 18 1014 82 10000 2.1 340 16:56 17.06.2020
1354 Rain 18 1014 88 10000 3.1 330 16:38 17.06.2020
1355 Rain 18 1014 93 10000 3.1 290 16:19 17.06.2020
1356 Rain 17 1013 88 10000 1.87 223 15:40 17.06.2020
1357 Rain 17 1013 88 10000 2.1 209 15:21 17.06.2020
1358 Rain 17 1013 93 10000 1.5 0 14:58 17.06.2020
1359 Rain 16 1014 100 8000 2.6 280 14:40 17.06.2020
1360 Rain 16 1014 100 8000 2.6 280 14:20 17.06.2020
1361 Rain 16 1014 100 6000 2.6 270 13:58 17.06.2020
1362 Clouds 17 1013 87 10000 2.1 90 13:40 17.06.2020
1363 Clouds 16 1013 87 10000 3.1 70 13:21 17.06.2020
1364 Clouds 16 1013 87 10000 2.1 90 12:55 17.06.2020
1365 Clouds 16 1013 87 10000 2.1 90 12:36 17.06.2020
1366 Clouds 16 1013 87 10000 2.6 40 12:18 17.06.2020
1367 Clouds 16 1013 87 10000 3.1 50 11:43 17.06.2020
1368 Clouds 16 1013 87 10000 3.1 50 11:23 17.06.2020
1369 Clouds 15 1013 93 10000 3.1 10 10:39 17.06.2020
1370 Rain 15 1013 93 10000 3.1 10 10:19 17.06.2020
1371 Rain 14 1013 93 10000 2.6 10 09:59 17.06.2020
1372 Rain 14 1013 93 10000 2.6 360 09:41 17.06.2020
1373 Clouds 14 1013 93 9000 2.6 20 09:21 17.06.2020
1374 Clouds 14 1013 93 9000 2.6 20 08:55 17.06.2020
1375 Clouds 14 1013 93 10000 2.1 360 08:36 17.06.2020
1376 Clouds 14 1013 93 10000 2.1 360 08:18 17.06.2020
1377 Rain 14 1013 100 4000 1.5 360 08:18 17.06.2020
1378 Rain 14 1013 93 10000 1.5 20 07:42 17.06.2020
1379 Rain 14 1013 93 10000 1.5 20 07:21 17.06.2020
1380 Rain 13 1013 93 10000 1.5 20 06:56 17.06.2020
1381 Rain 13 1013 93 10000 2.1 40 06:37 17.06.2020
1382 Rain 13 1013 100 10000 1 0 06:19 17.06.2020
1383 Rain 13 1013 100 10000 2.1 50 04:58 17.06.2020
1384 Rain 13 1014 93 10000 1 120 02:59 17.06.2020
1385 Clouds 13 1014 93 10000 1.5 0 01:51 17.06.2020
1386 Clouds 13 1014 100 10000 1 150 00:41 17.06.2020
1387 Clouds 13 1014 100 10000 1 150 00:23 17.06.2020
1388 Clouds 13 1014 93 10000 1 130 23:56 16.06.2020
1389 Clouds 13 1014 93 10000 1 130 23:56 16.06.2020
1390 Clouds 13 1014 93 10000 1 110 23:37 16.06.2020
1391 Clouds 14 1014 87 10000 2.6 130 23:19 16.06.2020
1392 Clouds 13 1014 87 10000 2.6 130 22:55 16.06.2020
1393 Clouds 14 1014 93 10000 1.5 130 22:36 16.06.2020
1394 Clouds 14 1014 93 10000 1.5 130 22:36 16.06.2020
1395 Clouds 14 1014 87 10000 1.5 0 22:18 16.06.2020
1396 Clouds 15 1014 82 10000 2.6 90 21:47 16.06.2020
1397 Clouds 15 1014 82 10000 2.6 90 21:23 16.06.2020
1398 Clouds 15 1014 87 10000 2.1 30 20:57 16.06.2020
1399 Clouds 16 1014 82 10000 1.5 0 20:39 16.06.2020
1400 Clouds 16 1014 82 10000 1.5 0 20:19 16.06.2020
1401 Clouds 16 1014 82 10000 1.5 0 19:57 16.06.2020
1402 Clouds 16 1014 82 10000 2.27 124 19:39 16.06.2020
1403 Clouds 16 1014 82 10000 2.45 128 19:21 16.06.2020
1404 Clouds 16 1014 82 10000 2.45 128 18:54 16.06.2020
1405 Clouds 16 1015 82 10000 2.45 128 18:36 16.06.2020
1406 Clouds 16 1015 87 10000 2.47 128 18:18 16.06.2020
1407 Clouds 16 1015 87 10000 2.47 128 17:54 16.06.2020
1408 Clouds 16 1015 87 10000 2.47 128 17:36 16.06.2020
1409 Clouds 16 1015 93 10000 2.69 128 17:18 16.06.2020
1410 Rain 15 1015 87 10000 1 0 16:42 16.06.2020
1411 Rain 15 1015 93 10000 1.5 0 16:20 16.06.2020
1412 Rain 15 1015 93 10000 1.5 0 15:58 16.06.2020
1413 Rain 14 1015 93 10000 1 0 15:39 16.06.2020
1414 Rain 14 1015 93 10000 1 0 15:21 16.06.2020
1415 Rain 14 1014 93 10000 1 0 14:56 16.06.2020
1416 Rain 14 1015 100 5000 1 0 14:38 16.06.2020
1417 Rain 14 1015 100 3000 3.6 130 14:20 16.06.2020
1418 Rain 14 1014 93 10000 3.1 160 13:46 16.06.2020
1419 Rain 15 1014 93 10000 3.1 160 13:26 16.06.2020
1420 Rain 15 1015 93 7000 4.6 140 12:55 16.06.2020
1421 Rain 16 1014 88 10000 2.42 133 12:37 16.06.2020
1422 Clouds 16 1014 88 10000 1 0 12:18 16.06.2020
1423 Clouds 16 1014 82 10000 2.01 126 11:42 16.06.2020
1424 Clouds 16 1015 93 10000 2.49 107 11:23 16.06.2020
1425 Clouds 16 1015 93 10000 2.49 107 10:59 16.06.2020
1426 Rain 17 1014 93 10000 1 0 10:41 16.06.2020
1427 Rain 16 1014 93 10000 1.5 360 10:20 16.06.2020
1428 Rain 17 1014 87 10000 2.1 90 09:47 16.06.2020
1429 Rain 16 1014 87 10000 2.1 90 09:26 16.06.2020
1430 Clouds 16 1014 87 10000 2.1 90 08:59 16.06.2020
1431 Clouds 16 1014 93 10000 3.6 120 08:41 16.06.2020
1432 Clouds 16 1014 93 10000 3.6 120 08:22 16.06.2020
1433 Rain 16 1013 77 10000 2.6 80 07:45 16.06.2020
1434 Rain 15 1013 77 10000 2.6 80 07:26 16.06.2020
1435 Rain 16 1013 55 10000 3.6 40 06:44 16.06.2020
1436 Rain 16 1013 52 10000 3.1 30 06:19 16.06.2020
1437 Rain 17 1013 52 10000 3.6 30 05:32 16.06.2020
1438 Clouds 17 1013 48 10000 3.6 30 04:27 16.06.2020
1439 Clouds 17 1014 48 10000 2.1 360 02:49 16.06.2020
1440 Clouds 17 1014 45 10000 1.5 20 01:52 16.06.2020
1441 Clouds 17 1014 45 10000 2.1 30 01:20 16.06.2020
1442 Clouds 17 1014 42 10000 2.1 10 00:40 16.06.2020
1443 Clear 18 1014 42 10000 1.5 20 00:19 16.06.2020
1444 Clear 18 1015 45 10000 2.6 50 23:41 15.06.2020
1445 Clear 19 1015 45 10000 2.6 50 23:22 15.06.2020
1446 Clear 19 1015 45 10000 2.1 50 22:55 15.06.2020
1447 Clear 20 1015 43 10000 2.1 50 22:36 15.06.2020
1448 Clear 19 1015 40 10000 2.6 50 22:18 15.06.2020
1449 Clear 21 1015 40 10000 2.6 50 21:55 15.06.2020
1450 Clear 21 1015 37 10000 3.1 50 21:36 15.06.2020
1451 Clear 21 1015 37 10000 3.1 70 21:18 15.06.2020
1452 Clear 21 1015 37 10000 3.1 70 20:54 15.06.2020
1453 Clear 21 1015 37 10000 3.1 70 20:54 15.06.2020
1454 Clear 21 1015 35 10000 3.6 70 20:36 15.06.2020
1455 Clouds 21 1015 35 10000 4.6 60 20:18 15.06.2020
1456 Clouds 22 1015 35 10000 4.6 70 19:41 15.06.2020
1457 Clouds 22 1015 35 10000 4.6 70 19:22 15.06.2020
1458 Clouds 22 1015 33 10000 4.1 60 18:58 15.06.2020
1459 Clouds 22 1015 35 10000 4.1 60 18:40 15.06.2020
1460 Clouds 22 1015 35 10000 4.1 60 18:21 15.06.2020
1461 Clouds 22 1015 35 10000 4.6 70 17:58 15.06.2020
1462 Clouds 22 1015 31 10000 4.6 70 17:40 15.06.2020
1463 Clouds 23 1015 33 10000 5.1 70 17:19 15.06.2020
1464 Clouds 23 1015 33 10000 5.1 70 16:57 15.06.2020
1465 Clouds 23 1016 31 10000 4.6 80 16:38 15.06.2020
1466 Clouds 23 1016 31 10000 5.7 90 16:18 15.06.2020
1467 Clouds 24 1016 27 10000 5.1 70 15:41 15.06.2020
1468 Clouds 23 1016 27 10000 5.1 70 15:21 15.06.2020
1469 Clouds 24 1016 31 10000 4.1 60 14:58 15.06.2020
1470 Clouds 24 1016 31 10000 4.6 60 14:40 15.06.2020
1471 Clouds 24 1016 29 10000 4.1 80 14:19 15.06.2020
1472 Clouds 24 1016 29 10000 4.1 80 13:56 15.06.2020
1473 Clouds 24 1017 31 10000 4.1 40 13:38 15.06.2020
1474 Clouds 24 1017 29 10000 3.6 60 13:18 15.06.2020
1475 Clouds 24 1017 31 10000 4.1 80 12:43 15.06.2020
1476 Clouds 23 1017 31 10000 4.1 80 12:22 15.06.2020
1477 Clouds 23 1017 31 10000 2.6 30 11:58 15.06.2020
1478 Clouds 23 1017 31 10000 2.6 30 11:58 15.06.2020
1479 Clouds 23 1017 33 10000 3.6 10 11:40 15.06.2020
1480 Clouds 23 1017 33 10000 3.6 10 11:22 15.06.2020
1481 Clouds 23 1017 33 10000 3.6 10 11:22 15.06.2020
1482 Clouds 22 1018 33 10000 3.6 40 10:42 15.06.2020
1483 Clouds 22 1018 33 10000 3.6 40 10:22 15.06.2020
1484 Clouds 20 1018 40 10000 2.6 30 09:45 15.06.2020
1485 Clear 18 1018 42 10000 2.6 20 09:23 15.06.2020
1486 Clear 18 1018 42 10000 2.6 20 08:55 15.06.2020
1487 Clear 18 1019 42 10000 2.6 360 08:36 15.06.2020
1488 Clear 17 1018 45 10000 2.1 360 08:18 15.06.2020
1489 Clear 17 1019 51 10000 2.5 35 07:41 15.06.2020
1490 Clear 15 1018 58 10000 2.1 23 07:20 15.06.2020
1491 Clear 12 1019 66 10000 2.08 9 06:29 15.06.2020
1492 Clear 12 1019 71 10000 1 290 05:51 15.06.2020
1493 Clear 10 1019 87 10000 1 290 05:30 15.06.2020
1494 Clear 11 1019 87 10000 1 290 04:22 15.06.2020
1495 Clear 11 1020 87 10000 1 290 03:49 15.06.2020
1496 Clear 11 1020 87 10000 1.5 280 02:58 15.06.2020
1497 Clear 9 1020 87 10000 1.92 23 02:33 15.06.2020
1498 Clear 10 1020 87 10000 1.98 28 01:49 15.06.2020
1499 Clear 10 1020 81 10000 1 20 01:29 15.06.2020
1500 Clear 12 1020 71 10000 1 60 00:45 15.06.2020
1501 Clear 12 1020 71 10000 1 60 00:25 15.06.2020
1502 Clear 14 1021 55 10000 1.5 70 23:59 14.06.2020
1503 Clear 15 1021 51 10000 2.6 80 23:41 14.06.2020
1504 Clear 15 1021 42 10000 2.1 70 23:23 14.06.2020
1505 Clear 15 1021 42 10000 2.1 70 22:58 14.06.2020
1506 Clear 16 1021 42 10000 2.6 70 22:38 14.06.2020
1507 Clear 16 1021 39 10000 2.6 40 22:18 14.06.2020
1508 Clear 17 1021 39 10000 2.6 40 21:56 14.06.2020
1509 Clear 18 1021 37 10000 3.1 70 21:38 14.06.2020
1510 Clear 19 1021 37 10000 3.1 70 21:19 14.06.2020
1511 Clear 19 1021 37 10000 3.1 70 21:19 14.06.2020
1512 Clear 20 1021 37 10000 3.1 50 20:57 14.06.2020
1513 Clear 20 1021 32 10000 2.6 60 20:38 14.06.2020
1514 Clear 20 1021 34 10000 4.1 100 20:19 14.06.2020
1515 Clear 20 1021 34 10000 4.1 100 19:56 14.06.2020
1516 Clear 21 1021 30 10000 4.6 70 19:37 14.06.2020
1517 Clear 21 1021 30 10000 4.1 60 19:19 14.06.2020
1518 Clear 21 1021 30 10000 4.1 60 18:56 14.06.2020
1519 Clear 21 1021 28 10000 4.6 50 18:37 14.06.2020
1520 Clear 21 1021 28 10000 4.6 60 18:19 14.06.2020
1521 Clear 21 1021 28 10000 4.6 60 18:19 14.06.2020
1522 Clear 21 1021 28 10000 4.6 60 17:55 14.06.2020
1523 Clear 21 1022 28 10000 4.6 70 17:37 14.06.2020
1524 Clear 22 1022 30 10000 4.1 80 17:19 14.06.2020
1525 Clear 22 1022 28 10000 4.6 60 16:40 14.06.2020
1526 Clear 22 1023 26 10000 4.6 90 16:20 14.06.2020
1527 Clear 22 1023 26 10000 4.6 90 15:58 14.06.2020
1528 Clear 22 1023 24 10000 4.1 90 15:40 14.06.2020
1529 Clear 22 1023 24 10000 5.1 80 15:18 14.06.2020
1530 Clear 22 1023 24 10000 5.1 80 14:57 14.06.2020
1531 Clear 23 1023 23 10000 4.1 60 14:38 14.06.2020
1532 Clear 22 1023 28 10000 4.6 50 14:18 14.06.2020
1533 Clear 22 1023 28 10000 3.6 30 13:42 14.06.2020
1534 Clear 22 1024 28 10000 3.1 40 13:22 14.06.2020
1535 Clear 23 1024 28 10000 3.1 40 12:59 14.06.2020
1536 Clear 23 1024 26 10000 4.1 50 12:41 14.06.2020
1537 Clear 23 1024 26 10000 4.1 50 12:41 14.06.2020
1538 Clear 22 1024 26 10000 4.1 50 12:23 14.06.2020
1539 Clear 22 1024 26 10000 4.6 60 11:59 14.06.2020
1540 Clear 22 1024 28 10000 4.1 70 11:40 14.06.2020
1541 Clear 22 1024 28 10000 4.1 70 11:22 14.06.2020
1542 Clear 21 1024 28 10000 4.1 70 10:59 14.06.2020
1543 Clear 21 1025 30 10000 4.1 80 10:39 14.06.2020
1544 Clear 21 1025 32 10000 4.6 80 10:18 14.06.2020
1545 Clear 20 1025 37 10000 4.1 60 09:43 14.06.2020
1546 Clear 19 1025 37 10000 4.1 60 09:23 14.06.2020
1547 Clear 18 1024 48 10000 3.1 70 08:42 14.06.2020
1548 Clear 17 1024 48 10000 3.1 70 08:22 14.06.2020
1549 Clear 18 1024 52 10000 3.6 70 07:55 14.06.2020
1550 Clear 17 1024 55 10000 3.1 60 07:35 14.06.2020
1551 Clear 16 1025 59 10000 2.1 40 06:58 14.06.2020
1552 Clear 14 1025 67 10000 1 30 05:56 14.06.2020
1553 Clear 13 1025 66 10000 1 0 05:34 14.06.2020
1554 Clear 12 1025 66 10000 2.6 40 04:39 14.06.2020
1555 Clear 13 1025 62 10000 3.1 70 03:55 14.06.2020
1556 Clear 14 1025 54 10000 2.1 40 02:40 14.06.2020
1557 Clear 14 1025 54 10000 2.1 40 02:18 14.06.2020
1558 Clear 14 1025 51 10000 2.1 60 01:30 14.06.2020
1559 Clear 15 1025 45 10000 2.6 80 00:49 14.06.2020
1560 Clear 15 1025 45 10000 2.6 80 00:21 14.06.2020
1561 Clear 15 1025 42 10000 3.1 80 23:46 13.06.2020
1562 Clear 16 1025 42 10000 3.1 80 23:26 13.06.2020
1563 Clear 16 1025 39 10000 3.1 70 22:59 13.06.2020
1564 Clear 17 1025 42 10000 3.1 70 22:38 13.06.2020
1565 Clear 17 1025 39 10000 3.1 70 22:19 13.06.2020
1566 Clear 18 1025 39 10000 3.1 70 21:58 13.06.2020
1567 Clear 18 1025 39 10000 4.1 60 21:40 13.06.2020
1568 Clear 19 1025 39 10000 4.1 60 21:21 13.06.2020
1569 Clear 19 1025 34 10000 4.1 70 20:54 13.06.2020
1570 Clear 19 1025 34 10000 4.1 70 20:54 13.06.2020
1571 Clear 20 1025 32 10000 4.1 70 20:36 13.06.2020
1572 Clear 20 1025 30 3800 4.1 60 20:18 13.06.2020
1573 Clear 21 1025 30 2800 4.6 70 19:39 13.06.2020
1574 Clear 21 1025 28 2200 4.6 60 19:20 13.06.2020
1575 Clear 22 1025 28 2200 4.6 60 18:58 13.06.2020
1576 Clear 22 1025 28 10000 4.6 70 18:39 13.06.2020
1577 Clear 22 1025 28 10000 4.6 70 18:20 13.06.2020
1578 Clear 22 1025 28 10000 5.1 110 17:56 13.06.2020
1579 Clear 22 1026 30 10000 6.2 100 17:37 13.06.2020
1580 Clear 22 1026 28 10000 6.2 110 17:19 13.06.2020
1581 Clear 22 1026 28 10000 6.2 110 16:54 13.06.2020
1582 Clear 22 1026 28 10000 5.7 90 16:36 13.06.2020
1583 Clear 22 1026 28 10000 6.2 100 16:18 13.06.2020
1584 Clear 23 1026 27 10000 5.7 80 15:41 13.06.2020
1585 Clear 23 1026 27 10000 6.7 100 15:21 13.06.2020
1586 Clear 22 1026 28 10000 6.2 90 14:44 13.06.2020
1587 Clear 22 1026 28 10000 6.2 90 14:24 13.06.2020
1588 Clear 22 1026 30 10000 7.2 100 13:57 13.06.2020
1589 Clear 22 1026 30 10000 6.7 80 13:37 13.06.2020
1590 Clear 22 1026 33 10000 6.7 90 13:19 13.06.2020
1591 Clear 22 1026 35 10000 6.2 60 12:43 13.06.2020
1592 Clear 22 1026 35 10000 6.2 60 12:25 13.06.2020
1593 Clear 21 1026 40 10000 6.2 70 11:57 13.06.2020
1594 Clear 21 1026 35 10000 5.7 70 11:37 13.06.2020
1595 Clear 21 1026 40 10000 5.1 70 11:19 13.06.2020
1596 Clear 21 1026 40 10000 5.1 70 10:54 13.06.2020
1597 Clear 21 1026 42 10000 6.7 60 10:36 13.06.2020
1598 Clouds 21 1026 42 10000 6.2 60 10:18 13.06.2020
1599 Clouds 19 1025 48 10000 5.7 70 09:42 13.06.2020
1600 Clear 18 1025 52 10000 4.6 80 09:20 13.06.2020
1601 Clear 18 1025 52 10000 4.6 60 08:46 13.06.2020
1602 Clouds 17 1025 52 10000 4.6 60 08:27 13.06.2020
1603 Clouds 17 1025 59 10000 4.1 60 07:45 13.06.2020
1604 Clouds 16 1025 59 10000 4.1 60 07:27 13.06.2020
1605 Clouds 15 1024 67 10000 2.6 50 06:47 13.06.2020
1606 Clouds 14 1024 67 10000 2.6 50 06:27 13.06.2020
1607 Clouds 12 1024 76 10000 2.6 50 05:33 13.06.2020
1608 Clouds 12 1024 71 10000 2.6 50 04:55 13.06.2020
1609 Clouds 12 1024 67 10000 2.6 50 03:46 13.06.2020
1610 Clouds 13 1024 66 10000 2.1 30 02:53 13.06.2020
1611 Clear 14 1024 67 10000 2.1 40 02:24 13.06.2020
1612 Clear 14 1024 62 10000 2.1 50 01:26 13.06.2020
1613 Clear 14 1024 62 10000 2.1 50 00:57 13.06.2020
1614 Clear 15 1024 59 10000 2.6 40 00:37 13.06.2020
1615 Clear 15 1024 59 10000 3.1 70 00:19 13.06.2020
1616 Clear 16 1023 59 10000 2.1 50 23:40 12.06.2020
1617 Clear 17 1023 55 10000 3.1 60 23:18 12.06.2020
1618 Clear 17 1023 55 10000 3.1 60 22:55 12.06.2020
1619 Clear 17 1023 55 10000 2.6 40 22:37 12.06.2020
1620 Clear 17 1023 55 10000 2.6 40 22:37 12.06.2020
1621 Clear 17 1023 55 10000 2.6 40 22:18 12.06.2020
1622 Clear 18 1023 55 10000 4.6 60 21:44 12.06.2020
1623 Clear 19 1023 55 10000 4.6 60 21:24 12.06.2020
1624 Clear 20 1023 52 10000 5.1 80 20:57 12.06.2020
1625 Clear 20 1023 52 10000 5.1 80 20:57 12.06.2020
1626 Clear 20 1023 49 10000 4.6 60 20:38 12.06.2020
1627 Clear 21 1023 49 10000 4.6 60 20:20 12.06.2020
1628 Clear 21 1022 43 10000 4.6 70 19:44 12.06.2020
1629 Clear 22 1022 43 10000 4.6 70 19:22 12.06.2020
1630 Clear 23 1022 38 10000 4.6 80 18:59 12.06.2020
1631 Clear 23 1022 35 10000 6.2 80 18:37 12.06.2020
1632 Clear 23 1022 38 10000 6.2 80 18:18 12.06.2020
1633 Clear 23 1022 40 10000 5.7 90 17:43 12.06.2020
1634 Clear 23 1022 40 10000 5.7 90 17:25 12.06.2020
1635 Clear 23 1023 33 10000 5.7 90 16:47 12.06.2020
1636 Clear 23 1023 33 10000 6.2 90 16:23 12.06.2020
1637 Clear 23 1023 33 10000 6.2 90 15:53 12.06.2020
1638 Clear 23 1023 38 10000 6.2 80 15:29 12.06.2020
1639 Clear 23 1023 38 10000 6.7 70 14:59 12.06.2020
1640 Clear 23 1023 40 10000 6.7 70 14:41 12.06.2020
1641 Clear 23 1023 40 10000 6.2 50 14:22 12.06.2020
1642 Clear 23 1023 40 10000 6.2 50 13:56 12.06.2020
1643 Clear 23 1023 40 10000 6.2 50 13:56 12.06.2020
1644 Clear 23 1024 40 10000 7.7 70 13:38 12.06.2020
1645 Clear 23 1023 40 10000 5.7 50 13:18 12.06.2020
1646 Clear 23 1023 43 10000 7.7 70 12:39 12.06.2020
1647 Clear 22 1023 43 10000 6.7 70 12:19 12.06.2020
1648 Clear 22 1023 46 10000 6.2 70 11:45 12.06.2020
1649 Clear 22 1023 46 10000 6.2 70 11:23 12.06.2020
1650 Clear 22 1023 46 10000 6.2 70 11:23 12.06.2020
1651 Clear 22 1023 46 10000 6.2 50 10:57 12.06.2020
1652 Clear 21 1023 49 10000 6.7 70 10:39 12.06.2020
1653 Clear 21 1023 49 10000 6.7 70 10:21 12.06.2020
1654 Clear 20 1023 56 10000 6.2 50 09:44 12.06.2020
1655 Clear 19 1022 63 10000 4.6 40 09:20 12.06.2020
1656 Clear 19 1022 68 10000 3.6 60 08:42 12.06.2020
1657 Clouds 18 1022 68 10000 3.6 60 08:23 12.06.2020
1658 Clouds 16 1022 72 10000 3.1 50 07:43 12.06.2020
1659 Clouds 15 1022 72 10000 3.1 50 07:24 12.06.2020
1660 Clouds 14 1022 76 10000 1.5 20 06:44 12.06.2020
1661 Clouds 12 1022 76 10000 1.5 20 06:23 12.06.2020
1662 Clouds 12 1022 81 10000 2.1 10 05:50 12.06.2020
1663 Clear 12 1022 81 10000 2.1 10 05:25 12.06.2020
1664 Clouds 12 1022 71 10000 2.1 20 03:56 12.06.2020
1665 Clear 13 1022 58 10000 2.6 30 02:43 12.06.2020
1666 Clouds 13 1021 54 10000 2.6 10 01:47 12.06.2020
1667 Clouds 13 1021 54 10000 2.6 10 01:21 12.06.2020
1668 Clouds 14 1021 48 10000 3.1 40 00:40 12.06.2020
1669 Clouds 15 1021 48 10000 2.6 20 00:21 12.06.2020
1670 Clouds 15 1021 48 10000 2.6 20 23:57 11.06.2020
1671 Clouds 15 1021 48 10000 2.6 20 23:39 11.06.2020
1672 Clouds 16 1021 48 10000 2.6 20 23:20 11.06.2020
1673 Clouds 16 1021 45 10000 2.6 360 22:55 11.06.2020
1674 Clouds 18 1021 39 10000 3.1 350 22:37 11.06.2020
1675 Clouds 17 1021 39 10000 2.6 20 22:19 11.06.2020
1676 Clouds 18 1021 37 10000 3.1 30 21:43 11.06.2020
1677 Clouds 18 1021 37 10000 3.1 30 21:20 11.06.2020
1678 Clouds 19 1021 37 10000 4.1 20 20:58 11.06.2020
1679 Clouds 19 1021 34 10000 5.1 40 20:40 11.06.2020
1680 Clouds 19 1021 34 10000 5.1 40 20:20 11.06.2020
1681 Clouds 20 1021 30 10000 5.1 30 19:44 11.06.2020
1682 Clouds 21 1021 30 10000 5.1 30 19:23 11.06.2020
1683 Clouds 20 1021 30 10000 5.1 40 18:57 11.06.2020
1684 Clouds 21 1021 30 10000 5.7 30 18:39 11.06.2020
1685 Clouds 21 1021 30 10000 5.7 30 18:20 11.06.2020
1686 Clouds 22 1021 28 10000 5.1 30 17:55 11.06.2020
1687 Clouds 22 1021 28 10000 5.1 20 17:37 11.06.2020
1688 Clouds 22 1021 28 10000 5.1 20 17:18 11.06.2020
1689 Clouds 22 1021 30 10000 5.1 20 16:43 11.06.2020
1690 Clear 22 1021 28 10000 5.7 10 16:25 11.06.2020
1691 Clear 22 1021 28 10000 5.7 20 15:58 11.06.2020
1692 Clear 22 1021 28 10000 5.7 20 15:39 11.06.2020
1693 Clear 22 1021 28 10000 5.1 20 15:21 11.06.2020
1694 Clear 22 1021 28 10000 5.1 50 14:46 11.06.2020
1695 Clouds 22 1021 26 10000 4.6 50 14:21 11.06.2020
1696 Clouds 22 1021 33 10000 6.2 40 13:57 11.06.2020
1697 Clouds 22 1021 33 10000 5.1 20 13:39 11.06.2020
1698 Clouds 21 1021 35 10000 5.1 20 13:21 11.06.2020
1699 Clouds 21 1021 22 10000 5.7 360 12:58 11.06.2020
1700 Clouds 21 1021 35 10000 5.7 360 12:39 11.06.2020
1701 Clouds 21 1021 37 10000 5.7 360 12:20 11.06.2020
1702 Clouds 21 1021 26 10000 6.2 360 11:58 11.06.2020
1703 Clouds 21 1022 28 10000 5.7 360 11:40 11.06.2020
1704 Clear 21 1022 28 10000 5.7 360 11:21 11.06.2020
1705 Clear 21 1022 26 10000 5.7 10 10:57 11.06.2020
1706 Clear 20 1022 34 10000 5.1 10 10:38 11.06.2020
1707 Clear 20 1022 34 10000 5.1 10 10:18 11.06.2020
1708 Clear 21 1022 40 10000 5.7 30 09:42 11.06.2020
1709 Clear 19 1021 40 10000 5.1 30 09:23 11.06.2020
1710 Clear 18 1021 52 10000 4.6 30 08:44 11.06.2020
1711 Clear 17 1021 55 10000 4.1 20 08:20 11.06.2020
1712 Clear 15 1021 62 10000 3.1 30 07:57 11.06.2020
1713 Clear 15 1021 67 10000 3.6 20 07:39 11.06.2020
1714 Clear 15 1021 67 10000 3.6 20 07:20 11.06.2020
1715 Clear 12 1021 66 10000 3.6 10 06:28 11.06.2020
1716 Clear 11 1021 71 10000 3.1 350 05:36 11.06.2020
1717 Clear 11 1021 62 10000 3.6 340 03:50 11.06.2020
1718 Clear 11 1021 62 10000 3.1 350 03:23 11.06.2020
1719 Clear 11 1021 58 10000 3.1 360 02:32 11.06.2020
1720 Clear 11 1021 58 10000 3.1 340 01:50 11.06.2020
1721 Clear 12 1021 54 10000 2.6 10 01:24 11.06.2020
1722 Clear 13 1022 54 10000 3.1 360 00:50 11.06.2020
1723 Clear 13 1022 54 10000 3.1 360 00:27 11.06.2020
1724 Clear 14 1022 50 10000 2.6 360 23:47 10.06.2020
1725 Clear 14 1022 44 10000 3.1 20 23:27 10.06.2020
1726 Clear 15 1022 41 10000 3.1 10 22:57 10.06.2020
1727 Clear 15 1022 38 10000 3.1 360 22:38 10.06.2020
1728 Clear 15 1022 38 10000 3.1 360 22:19 10.06.2020
1729 Clear 16 1021 33 10000 3.6 20 21:56 10.06.2020
1730 Clear 17 1021 31 10000 4.1 10 21:38 10.06.2020
1731 Clear 18 1021 31 10000 4.1 10 21:18 10.06.2020
1732 Clear 18 1021 31 10000 4.1 30 20:56 10.06.2020
1733 Clear 18 1021 29 10000 4.6 30 20:38 10.06.2020
1734 Clear 19 1021 29 10000 4.6 30 20:20 10.06.2020
1735 Clear 20 1021 30 10000 4.1 10 19:41 10.06.2020
1736 Clear 20 1021 30 10000 4.1 20 19:20 10.06.2020
1737 Clear 20 1021 30 10000 4.1 20 18:59 10.06.2020
1738 Clear 20 1020 30 10000 4.1 40 18:40 10.06.2020
1739 Clear 21 1020 30 10000 4.6 50 18:19 10.06.2020
1740 Clear 21 1020 30 10000 4.6 50 17:56 10.06.2020
1741 Clear 21 1020 30 10000 5.1 40 17:37 10.06.2020
1742 Clear 22 1020 30 10000 5.1 40 17:19 10.06.2020
1743 Clear 22 1020 30 10000 4.6 50 16:57 10.06.2020
1744 Clear 22 1020 33 10000 4.6 50 16:39 10.06.2020
1745 Clear 22 1020 33 10000 4.6 50 16:20 10.06.2020
1746 Clear 22 1020 33 10000 4.6 50 16:20 10.06.2020
1747 Clear 22 1020 35 10000 5.7 60 15:41 10.06.2020
1748 Clear 22 1020 33 10000 5.1 60 15:22 10.06.2020
1749 Clear 22 1020 33 10000 5.1 60 14:59 10.06.2020
1750 Clear 22 1020 33 10000 5.7 60 14:40 10.06.2020
1751 Clear 22 1020 33 10000 5.7 60 14:20 10.06.2020
1752 Clear 22 1021 37 10000 5.7 70 13:41 10.06.2020
1753 Clear 21 1021 37 10000 5.7 70 13:22 10.06.2020
1754 Clear 21 1021 40 10000 5.1 60 12:55 10.06.2020
1755 Clear 21 1021 43 10000 4.6 50 12:37 10.06.2020
1756 Clear 21 1021 45 10000 4.1 60 12:18 10.06.2020
1757 Clear 20 1021 45 10000 3.6 20 11:42 10.06.2020
1758 Clear 20 1021 45 10000 3.6 20 11:20 10.06.2020
1759 Clear 20 1021 48 10000 4.1 10 10:58 10.06.2020
1760 Clear 20 1021 48 10000 4.1 40 10:40 10.06.2020
1761 Clear 20 1021 48 10000 4.1 40 10:21 10.06.2020
1762 Clear 18 1021 51 10000 4.1 60 09:43 10.06.2020
1763 Clear 17 1021 51 10000 4.1 60 09:24 10.06.2020
1764 Clear 17 1021 51 10000 2.6 20 08:57 10.06.2020
1765 Clear 16 1021 51 10000 2.6 30 08:39 10.06.2020
1766 Clear 15 1021 54 10000 2.1 20 08:20 10.06.2020
1767 Clear 14 1021 58 10000 1.5 360 07:39 10.06.2020
1768 Clear 13 1021 58 10000 1.5 360 07:21 10.06.2020
1769 Clear 11 1021 66 10000 1.5 360 06:47 10.06.2020
1770 Clear 11 1021 66 10000 1.5 360 06:25 10.06.2020
1771 Clear 10 1020 71 10000 1 360 05:58 10.06.2020
1772 Clear 10 1020 71 10000 1 360 05:58 10.06.2020
1773 Clear 9 1020 71 10000 1.5 50 05:28 10.06.2020
1774 Clear 8 1020 81 10000 1.5 10 04:37 10.06.2020
1775 Clear 9 1020 76 10000 2.06 24 03:33 10.06.2020
1776 Clear 10 1020 76 10000 1 30 02:23 10.06.2020
1777 Clear 11 1020 66 10000 1.5 40 01:39 10.06.2020
1778 Clear 11 1020 71 10000 1.5 50 00:40 10.06.2020
1779 Clear 12 1020 71 10000 1.5 50 00:22 10.06.2020
1780 Clear 12 1020 62 10000 1.5 80 23:57 09.06.2020
1781 Clear 13 1020 67 10000 1 0 23:39 09.06.2020
1782 Clear 13 1020 67 10000 1 0 23:20 09.06.2020
1783 Clear 13 1020 62 10000 2.1 90 22:56 09.06.2020
1784 Clear 14 1020 62 10000 1.5 110 22:38 09.06.2020
1785 Clear 16 1019 55 10000 3.1 110 22:19 09.06.2020
1786 Clear 16 1019 55 10000 3.1 110 21:56 09.06.2020
1787 Clear 17 1019 52 10000 3.6 110 21:38 09.06.2020
1788 Clear 17 1019 52 10000 3.6 110 21:38 09.06.2020
1789 Clear 18 1019 52 10000 3.6 110 21:20 09.06.2020
1790 Clear 18 1019 52 10000 4.6 110 20:56 09.06.2020
1791 Clear 19 1018 48 10000 4.1 80 20:38 09.06.2020
1792 Clouds 19 1018 48 10000 4.1 80 20:18 09.06.2020
1793 Clouds 20 1018 42 10000 3.6 90 19:57 09.06.2020
1794 Clouds 19 1018 42 10000 3.6 80 19:38 09.06.2020
1795 Clouds 20 1018 42 10000 3.6 80 19:20 09.06.2020
1796 Clouds 20 1018 42 10000 3.6 80 19:20 09.06.2020
1797 Clouds 20 1018 46 10000 2.6 120 18:46 09.06.2020
1798 Clouds 20 1018 46 10000 2.6 120 18:28 09.06.2020
1799 Clouds 20 1018 43 10000 3.1 140 17:59 09.06.2020
1800 Clouds 20 1018 43 10000 3.1 0 17:41 09.06.2020
1801 Clouds 20 1018 43 10000 3.1 0 17:22 09.06.2020
1802 Clouds 19 1018 49 10000 4.6 130 17:00 09.06.2020
1803 Clouds 20 1018 49 10000 4.6 130 16:40 09.06.2020
1804 Clouds 20 1018 49 10000 5.1 130 16:21 09.06.2020
1805 Clouds 20 1018 42 10000 5.1 130 15:42 09.06.2020
1806 Clouds 20 1018 42 10000 5.1 130 15:23 09.06.2020
1807 Clouds 20 1018 45 10000 2.6 110 14:59 09.06.2020
1808 Clouds 20 1018 45 10000 2.6 110 14:40 09.06.2020
1809 Clouds 20 1018 45 10000 2.6 110 14:20 09.06.2020
1810 Clouds 20 1018 45 10000 1.5 120 13:57 09.06.2020
1811 Clouds 20 1018 45 10000 1.5 120 13:57 09.06.2020
1812 Clouds 20 1018 42 10000 2.1 140 13:38 09.06.2020
1813 Clouds 21 1018 43 10000 1.5 110 13:20 09.06.2020
1814 Clouds 21 1018 43 10000 2.6 90 12:42 09.06.2020
1815 Clouds 21 1018 43 10000 2.6 90 12:21 09.06.2020
1816 Clouds 20 1018 49 10000 2.6 90 11:58 09.06.2020
1817 Clouds 20 1018 49 10000 1.5 70 11:40 09.06.2020
1818 Clouds 20 1018 49 10000 1.5 70 11:20 09.06.2020
1819 Clouds 20 1018 49 10000 1.5 70 11:20 09.06.2020
1820 Clouds 21 1018 52 10000 2.1 90 10:58 09.06.2020
1821 Clouds 20 1018 52 10000 1.5 90 10:39 09.06.2020
1822 Clouds 20 1018 52 10000 1.5 90 10:19 09.06.2020
1823 Clouds 19 1017 59 10000 2.1 40 09:41 09.06.2020
1824 Clouds 17 1017 59 10000 2.1 40 09:22 09.06.2020
1825 Clouds 16 1017 59 10000 2.6 60 08:56 09.06.2020
1826 Clouds 16 1017 59 10000 2.6 60 08:37 09.06.2020
1827 Clouds 16 1017 59 10000 2.6 60 08:19 09.06.2020
1828 Clouds 14 1016 72 10000 1.53 115 07:38 09.06.2020
1829 Clouds 13 1016 72 10000 1.17 93 07:19 09.06.2020
1830 Clouds 12 1016 76 10000 1.17 93 06:53 09.06.2020
1831 Clouds 11 1016 81 10000 1.17 93 06:33 09.06.2020
1832 Clouds 10 1016 93 10000 0.42 228 05:23 09.06.2020
1833 Clouds 9 1015 87 10000 1.07 200 02:56 09.06.2020
1834 Clear 9 1015 87 10000 1.51 192 01:41 09.06.2020
1835 Clear 10 1015 81 10000 0.5 0 01:19 09.06.2020
1836 Clear 10 1015 76 10000 1 0 00:49 09.06.2020
1837 Clear 11 1014 71 10000 1.5 150 00:20 09.06.2020
1838 Clear 11 1014 71 10000 1.5 150 23:58 08.06.2020
1839 Clear 12 1014 66 10000 1.5 170 23:37 08.06.2020
1840 Clear 11 1014 66 10000 1.5 170 23:19 08.06.2020
1841 Clear 12 1014 54 10000 1.5 150 22:42 08.06.2020
1842 Clear 13 1014 54 10000 1.5 150 22:22 08.06.2020
1843 Clear 14 1014 44 10000 2.6 170 21:58 08.06.2020
1844 Clear 14 1014 44 10000 2.6 170 21:58 08.06.2020
1845 Clear 16 1014 41 10000 3.6 170 21:40 08.06.2020
1846 Clear 16 1014 41 10000 3.6 170 21:22 08.06.2020
1847 Clear 17 1013 51 10000 3.1 190 20:57 08.06.2020
1848 Clear 17 1013 55 10000 3.6 200 20:39 08.06.2020
1849 Clouds 17 1013 55 10000 3.6 200 20:20 08.06.2020
1850 Clouds 18 1012 52 10000 3.6 170 19:55 08.06.2020
1851 Clouds 18 1012 52 10000 4.6 140 19:37 08.06.2020
1852 Clouds 18 1012 48 10000 2.6 170 19:19 08.06.2020
1853 Clouds 19 1012 55 10000 3.6 160 18:41 08.06.2020
1854 Clouds 19 1012 55 10000 3.6 160 18:18 08.06.2020
1855 Clouds 19 1012 52 10000 3.6 150 17:56 08.06.2020
1856 Clouds 19 1012 48 10000 3.1 160 17:38 08.06.2020
1857 Clouds 20 1012 48 10000 3.1 160 17:19 08.06.2020
1858 Clouds 19 1012 48 10000 3.1 170 16:45 08.06.2020
1859 Clouds 19 1012 52 10000 3.1 160 16:25 08.06.2020
1860 Clouds 19 1012 59 10000 3.1 130 15:59 08.06.2020
1861 Clouds 18 1012 55 10000 3.6 140 15:41 08.06.2020
1862 Clouds 19 1012 55 10000 3.6 140 15:20 08.06.2020
1863 Clouds 19 1012 48 10000 1 0 14:56 08.06.2020
1864 Clouds 19 1012 45 10000 1.5 0 14:36 08.06.2020
1865 Clouds 19 1012 45 10000 1.5 310 14:18 08.06.2020
1866 Clouds 19 1012 45 10000 2.1 240 13:41 08.06.2020
1867 Clouds 19 1012 45 10000 2.1 240 13:20 08.06.2020
1868 Clouds 19 1011 42 10000 2.6 0 12:40 08.06.2020
1869 Clouds 19 1011 42 10000 2.6 0 12:19 08.06.2020
1870 Clouds 19 1011 45 10000 3.1 270 11:57 08.06.2020
1871 Clouds 19 1011 45 10000 2.1 290 11:38 08.06.2020
1872 Clouds 19 1011 45 10000 2.1 290 11:38 08.06.2020
1873 Clouds 19 1011 45 10000 2.1 290 11:20 08.06.2020
1874 Clouds 18 1011 48 10000 1.5 220 10:56 08.06.2020
1875 Clouds 17 1011 55 10000 0.5 0 10:37 08.06.2020
1876 Clouds 17 1011 55 10000 0.5 0 10:19 08.06.2020
1877 Clouds 17 1011 67 10000 1.49 140 09:43 08.06.2020
1878 Clouds 16 1011 72 10000 0.31 236 09:23 08.06.2020
1879 Clouds 15 1011 76 10000 0.31 236 08:49 08.06.2020
1880 Clouds 13 1010 82 10000 0.73 273 08:24 08.06.2020
1881 Clouds 13 1010 82 10000 0.73 273 07:56 08.06.2020
1882 Clouds 13 1010 87 10000 0.73 273 07:37 08.06.2020
1883 Clouds 13 1010 87 10000 0.73 273 07:37 08.06.2020
1884 Clouds 12 1010 87 10000 0.5 130 07:18 08.06.2020
1885 Clouds 12 1010 81 10000 0.97 263 06:38 08.06.2020
1886 Clouds 11 1010 81 10000 1 0 05:54 08.06.2020
1887 Clouds 10 1009 87 10000 0.5 130 04:59 08.06.2020
1888 Clouds 10 1009 87 10000 1 150 03:24 08.06.2020
1889 Clouds 10 1009 87 10000 1.5 140 02:26 08.06.2020
1890 Clouds 11 1009 81 10000 2.1 130 01:42 08.06.2020
1891 Clouds 12 1009 71 10000 1.5 170 00:57 08.06.2020
1892 Clouds 12 1009 66 10000 2.1 150 00:24 08.06.2020
1893 Clouds 13 1009 62 10000 3.6 160 23:38 07.06.2020
1894 Clouds 13 1009 62 10000 3.6 160 23:19 07.06.2020
1895 Clouds 13 1009 62 10000 3.1 160 22:57 07.06.2020
1896 Clouds 14 1009 58 10000 3.6 160 22:37 07.06.2020
1897 Clouds 14 1009 58 10000 3.6 160 22:18 07.06.2020
1898 Clouds 14 1008 58 10000 3.1 170 21:57 07.06.2020
1899 Clouds 15 1008 55 10000 3.1 170 21:36 07.06.2020
1900 Clouds 16 1008 55 10000 3.1 170 21:18 07.06.2020
1901 Clouds 16 1008 48 10000 4.1 170 20:39 07.06.2020
1902 Clouds 17 1008 48 10000 4.1 170 20:20 07.06.2020
1903 Clouds 17 1008 48 10000 4.6 190 19:57 07.06.2020
1904 Clouds 17 1008 51 10000 5.7 200 19:38 07.06.2020
1905 Clouds 17 1007 48 10000 5.1 200 19:20 07.06.2020
1906 Clouds 18 1007 48 10000 5.1 200 18:59 07.06.2020
1907 Clouds 18 1007 48 10000 5.1 190 18:38 07.06.2020
1908 Clouds 18 1007 51 10000 5.7 190 18:19 07.06.2020
1909 Clouds 18 1007 51 10000 5.7 190 17:57 07.06.2020
1910 Clouds 18 1007 48 10000 4.6 210 17:38 07.06.2020
1911 Clouds 18 1007 48 10000 4.6 210 17:19 07.06.2020
1912 Clouds 18 1007 51 10000 4.6 190 16:42 07.06.2020
1913 Drizzle 17 1007 59 10000 4.1 190 16:21 07.06.2020
1914 Clouds 17 1007 55 10000 5.7 200 15:42 07.06.2020
1915 Clouds 17 1007 55 10000 5.7 200 15:22 07.06.2020
1916 Clouds 17 1006 55 10000 5.1 190 14:41 07.06.2020
1917 Clouds 17 1006 48 10000 5.7 190 14:22 07.06.2020
1918 Clouds 17 1006 48 10000 5.7 190 14:22 07.06.2020
1919 Clouds 17 1006 55 10000 5.1 180 13:50 07.06.2020
1920 Clouds 17 1006 52 10000 6.2 190 13:22 07.06.2020
1921 Clouds 17 1006 51 10000 5.1 200 12:58 07.06.2020
1922 Clouds 17 1005 51 10000 5.7 200 12:40 07.06.2020
1923 Clear 18 1005 51 10000 5.7 200 12:20 07.06.2020
1924 Clear 18 1005 48 10000 6.2 170 11:55 07.06.2020
1925 Clear 18 1005 51 10000 5.7 190 11:37 07.06.2020
1926 Clear 17 1005 51 10000 5.7 190 11:37 07.06.2020
1927 Clear 17 1005 51 10000 5.7 190 11:18 07.06.2020
1928 Clear 17 1005 51 10000 5.7 190 10:45 07.06.2020
1929 Clear 17 1005 55 10000 6.2 190 10:22 07.06.2020
1930 Clear 16 1005 58 10000 6.2 190 09:59 07.06.2020
1931 Clear 16 1004 62 10000 5.7 190 09:40 07.06.2020
1932 Clear 15 1004 62 10000 5.7 190 09:21 07.06.2020
1933 Clear 15 1004 62 10000 5.1 190 08:58 07.06.2020
1934 Clear 14 1004 62 10000 5.1 190 08:40 07.06.2020
1935 Clear 14 1004 67 10000 6.2 190 08:21 07.06.2020
1936 Clear 13 1004 71 10000 4.6 180 07:39 07.06.2020
1937 Clear 12 1003 71 10000 4.6 180 06:55 07.06.2020
1938 Clear 11 1003 76 10000 4.1 190 05:54 07.06.2020
1939 Clear 10 1002 81 10000 4.6 190 04:22 07.06.2020
1940 Clear 10 1001 76 10000 5.1 200 03:48 07.06.2020
1941 Clouds 10 1000 76 10000 5.1 210 02:19 07.06.2020
1942 Clouds 11 999 76 10000 5.1 200 01:26 07.06.2020
1943 Clouds 11 998 76 10000 5.7 210 00:48 07.06.2020
1944 Clouds 11 998 76 10000 5.7 210 00:21 07.06.2020
1945 Clouds 11 997 71 10000 6.2 210 23:59 06.06.2020
1946 Clouds 11 997 81 10000 5.1 200 23:38 06.06.2020
1947 Clouds 11 997 81 10000 5.1 200 23:20 06.06.2020
1948 Clouds 11 996 76 10000 5.1 200 22:57 06.06.2020
1949 Clouds 11 996 76 10000 6.7 190 22:39 06.06.2020
1950 Clouds 12 996 76 10000 6.7 190 22:19 06.06.2020
1951 Clouds 12 995 81 10000 5.1 200 21:56 06.06.2020
1952 Clouds 11 994 87 10000 5.1 190 21:37 06.06.2020
1953 Clouds 12 994 87 10000 5.1 190 21:19 06.06.2020
1954 Clouds 12 993 87 10000 5.7 180 20:40 06.06.2020
1955 Rain 12 993 87 10000 5.7 180 20:20 06.06.2020
1956 Rain 12 993 87 10000 5.7 190 19:58 06.06.2020
1957 Rain 12 992 87 10000 4.6 190 19:40 06.06.2020
1958 Rain 12 992 87 10000 4.6 190 19:21 06.06.2020
1959 Rain 12 992 87 10000 4.6 190 18:56 06.06.2020
1960 Rain 12 991 93 10000 4.1 210 18:37 06.06.2020
1961 Rain 12 991 93 10000 4.1 210 18:18 06.06.2020
1962 Rain 12 990 87 10000 3.1 190 17:43 06.06.2020
1963 Rain 13 990 87 10000 3.1 190 17:20 06.06.2020
1964 Rain 13 990 87 10000 3.1 180 16:56 06.06.2020
1965 Rain 12 990 93 10000 3.1 170 16:38 06.06.2020
1966 Rain 12 990 93 10000 3.1 170 16:20 06.06.2020
1967 Rain 12 990 93 10000 5.1 140 15:44 06.06.2020
1968 Rain 12 990 93 10000 4.6 140 15:20 06.06.2020
1969 Rain 11 990 87 10000 4.6 140 14:58 06.06.2020
1970 Drizzle 11 990 87 10000 5.1 160 14:37 06.06.2020
1971 Rain 11 990 87 10000 5.1 160 14:19 06.06.2020
1972 Rain 12 990 87 9000 7.2 150 13:47 06.06.2020
1973 Clouds 14 990 62 10000 7.7 140 13:19 06.06.2020
1974 Clouds 14 990 62 10000 7.7 140 12:57 06.06.2020
1975 Clouds 15 990 67 10000 5.1 160 12:38 06.06.2020
1976 Clouds 16 990 67 10000 5.1 160 12:18 06.06.2020
1977 Clouds 16 990 67 10000 6.7 150 11:54 06.06.2020
1978 Clouds 16 989 77 10000 4.6 180 11:36 06.06.2020
1979 Clouds 16 989 77 10000 4.6 180 11:36 06.06.2020
1980 Clouds 16 989 77 10000 4.6 180 11:18 06.06.2020
1981 Clouds 15 989 82 10000 4.1 170 10:55 06.06.2020
1982 Clear 15 989 82 10000 4.6 160 10:36 06.06.2020
1983 Clear 15 989 82 10000 4.6 160 10:18 06.06.2020
1984 Clear 14 989 87 10000 3.1 160 09:41 06.06.2020
1985 Clouds 14 989 93 10000 2.6 180 09:23 06.06.2020
1986 Clouds 13 989 93 10000 3.1 170 08:47 06.06.2020
1987 Clouds 13 989 93 10000 2.1 170 08:24 06.06.2020
1988 Clouds 13 989 93 10000 3.1 170 07:56 06.06.2020
1989 Clouds 13 989 93 10000 3.1 170 07:38 06.06.2020
1990 Mist 12 989 100 5000 2.1 170 07:19 06.06.2020
1991 Clouds 12 989 100 10000 2.1 150 06:43 06.06.2020
1992 Rain 12 989 100 10000 2.1 150 06:25 06.06.2020
1993 Drizzle 12 990 100 6000 1.5 150 05:33 06.06.2020
1994 Mist 12 990 100 7000 1.5 150 04:50 06.06.2020
1995 Rain 12 991 100 3300 3.1 100 03:45 06.06.2020
1996 Rain 12 992 93 9000 3.1 70 02:35 06.06.2020
1997 Rain 12 993 100 10000 4.6 70 01:23 06.06.2020
1998 Rain 12 993 100 10000 4.1 60 00:57 06.06.2020
1999 Rain 12 994 100 10000 3.6 60 00:39 06.06.2020
2000 Rain 12 994 100 10000 3.6 60 00:20 06.06.2020
2001 Rain 12 994 100 10000 3.1 50 23:40 05.06.2020
2002 Rain 12 994 100 10000 3.1 50 23:20 05.06.2020
2003 Rain 12 995 93 10000 3.1 50 22:56 05.06.2020
2004 Rain 12 995 93 10000 3.1 50 22:38 05.06.2020
2005 Rain 12 995 93 10000 3.1 50 22:20 05.06.2020
2006 Rain 12 996 93 10000 2.6 70 21:54 05.06.2020
2007 Rain 12 996 93 10000 3.1 110 21:36 05.06.2020
2008 Rain 12 996 93 10000 3.1 110 21:18 05.06.2020
2009 Rain 13 996 93 10000 4.6 120 20:44 05.06.2020
2010 Drizzle 13 996 82 10000 4.6 110 20:22 05.06.2020
2011 Rain 14 996 72 10000 4.6 120 19:44 05.06.2020
2012 Rain 14 996 72 10000 4.6 120 19:24 05.06.2020
2013 Rain 15 996 77 10000 4.1 110 18:59 05.06.2020
2014 Rain 15 996 72 10000 5.1 110 18:39 05.06.2020
2015 Clouds 15 996 72 10000 5.1 110 18:20 05.06.2020
2016 Clouds 16 996 72 10000 5.7 120 17:58 05.06.2020
2017 Clouds 16 996 72 10000 5.7 120 17:58 05.06.2020
2018 Clouds 16 996 72 10000 5.7 100 17:40 05.06.2020
2019 Clouds 16 996 72 10000 5.7 100 17:20 05.06.2020
2020 Clouds 16 996 67 10000 5.7 100 16:41 05.06.2020
2021 Clouds 17 996 67 10000 5.7 100 16:23 05.06.2020
2022 Clouds 17 996 63 10000 5.7 110 15:58 05.06.2020
2023 Clouds 17 996 67 10000 5.7 110 15:38 05.06.2020
2024 Clouds 17 996 67 10000 5.7 110 15:20 05.06.2020
2025 Clouds 18 996 63 10000 5.1 120 14:56 05.06.2020
2026 Clouds 17 997 67 10000 5.1 100 14:38 05.06.2020
2027 Clouds 18 997 67 10000 5.1 100 14:19 05.06.2020
2028 Clouds 18 997 67 10000 5.1 110 13:44 05.06.2020
2029 Clouds 18 997 68 10000 4.6 100 13:26 05.06.2020
2030 Clouds 18 997 72 10000 5.1 100 12:55 05.06.2020
2031 Clouds 18 997 67 10000 4.6 110 12:37 05.06.2020
2032 Clouds 17 997 67 10000 4.6 110 12:18 05.06.2020
2033 Clouds 17 997 72 10000 3.6 100 11:42 05.06.2020
2034 Clouds 17 997 77 10000 3.6 100 11:23 05.06.2020
2035 Clouds 16 997 82 10000 3.1 130 10:57 05.06.2020
2036 Clouds 17 997 82 10000 3.1 130 10:38 05.06.2020
2037 Clouds 16 997 82 10000 2.6 130 10:19 05.06.2020
2038 Clouds 15 997 77 10000 4.1 120 09:56 05.06.2020
2039 Clouds 15 997 82 10000 3.6 120 09:37 05.06.2020
2040 Clouds 14 997 82 10000 3.6 120 09:18 05.06.2020
2041 Clouds 14 997 82 10000 3.6 120 08:56 05.06.2020
2042 Clouds 14 998 87 10000 3.6 120 08:38 05.06.2020
2043 Clouds 14 998 87 10000 3.6 120 08:38 05.06.2020
2044 Clouds 14 998 87 10000 3.6 120 08:18 05.06.2020
2045 Clouds 13 998 87 10000 4.1 110 07:43 05.06.2020
2046 Clouds 13 998 93 10000 3.6 90 07:23 05.06.2020
2047 Clouds 12 998 93 10000 3.6 80 06:20 05.06.2020
2048 Clouds 11 998 87 10000 2.6 80 05:21 05.06.2020
2049 Clouds 11 999 87 10000 2.1 70 04:27 05.06.2020
2050 Clouds 11 1000 87 10000 2.1 80 03:20 05.06.2020
2051 Clear 12 1000 82 10000 2.6 70 02:26 05.06.2020
2052 Clear 12 1000 82 10000 3.6 60 01:56 05.06.2020
2053 Clear 12 1000 82 10000 2.6 60 01:30 05.06.2020
2054 Clear 12 1001 82 10000 2.6 80 00:42 05.06.2020
2055 Clear 12 1001 82 10000 2.6 80 00:21 05.06.2020
2056 Clear 12 1001 82 10000 3.1 80 23:47 04.06.2020
2057 Clouds 13 1001 82 10000 3.1 70 23:28 04.06.2020
2058 Clouds 13 1002 76 10000 3.6 70 22:56 04.06.2020
2059 Clouds 13 1002 71 10000 3.1 80 22:37 04.06.2020
2060 Clear 13 1002 71 10000 3.1 80 22:18 04.06.2020
2061 Clear 14 1002 67 10000 4.6 80 21:56 04.06.2020
2062 Clear 15 1002 67 10000 3.1 60 21:38 04.06.2020
2063 Clear 15 1002 67 10000 3.1 60 21:19 04.06.2020
2064 Clear 16 1002 63 10000 4.6 60 20:55 04.06.2020
2065 Clear 16 1002 63 10000 4.6 80 20:36 04.06.2020
2066 Clear 16 1002 63 10000 4.6 80 20:18 04.06.2020
2067 Clouds 17 1002 63 10000 5.1 70 19:40 04.06.2020
2068 Clouds 17 1002 63 10000 5.1 70 19:21 04.06.2020
2069 Clouds 17 1002 63 10000 4.6 70 18:56 04.06.2020
2070 Clouds 18 1002 59 10000 4.6 80 18:38 04.06.2020
2071 Clouds 18 1002 59 10000 4.6 80 18:20 04.06.2020
2072 Clouds 18 1003 59 10000 5.7 110 17:42 04.06.2020
2073 Clouds 18 1003 59 10000 5.7 110 17:21 04.06.2020
2074 Clouds 17 1003 63 10000 5.1 120 16:57 04.06.2020
2075 Clear 18 1003 59 10000 5.7 110 16:39 04.06.2020
2076 Clear 18 1003 59 10000 5.7 110 16:18 04.06.2020
2077 Clear 19 1003 48 10000 5.1 80 15:43 04.06.2020
2078 Clear 19 1003 48 10000 5.1 80 15:24 04.06.2020
2079 Clouds 19 1004 48 10000 5.1 90 14:41 04.06.2020
2080 Clouds 19 1004 48 10000 5.1 90 14:22 04.06.2020
2081 Clouds 20 1004 45 10000 5.1 70 13:57 04.06.2020
2082 Clouds 19 1004 48 10000 5.1 80 13:39 04.06.2020
2083 Clouds 19 1004 48 10000 5.1 80 13:20 04.06.2020
2084 Clouds 19 1004 48 10000 3.6 80 12:58 04.06.2020
2085 Clouds 19 1004 48 10000 3.6 80 12:58 04.06.2020
2086 Clouds 19 1004 45 10000 3.6 80 12:40 04.06.2020
2087 Clouds 19 1004 45 10000 3.6 80 12:21 04.06.2020
2088 Clouds 17 1005 48 10000 3.6 100 11:54 04.06.2020
2089 Clouds 18 1005 52 10000 3.6 40 11:36 04.06.2020
2090 Clouds 18 1005 52 10000 3.6 40 11:18 04.06.2020
2091 Clouds 17 1005 63 10000 2.6 60 10:39 04.06.2020
2092 Clouds 17 1005 63 10000 2.6 60 10:21 04.06.2020
2093 Clouds 16 1005 67 10000 2.6 70 09:56 04.06.2020
2094 Clouds 14 1006 67 10000 2.6 50 09:37 04.06.2020
2095 Clouds 14 1006 67 10000 2.6 50 09:18 04.06.2020
2096 Clouds 13 1006 76 10000 1.5 20 08:38 04.06.2020
2097 Clear 13 1006 76 10000 1.5 20 08:20 04.06.2020
2098 Clear 11 1006 81 10000 1.5 30 07:32 04.06.2020
2099 Clear 10 1006 87 10000 1 0 06:58 04.06.2020
2100 Clear 10 1006 81 10000 1.5 0 06:58 04.06.2020
2101 Clear 10 1006 87 10000 1 0 06:39 04.06.2020
2102 Clear 9 1007 93 10000 1 340 06:20 04.06.2020
2103 Clear 8 1007 93 10000 1 340 05:33 04.06.2020
2104 Clear 8 1007 93 10000 1 340 05:33 04.06.2020
2105 Clear 7 1007 93 10000 1.5 40 03:50 04.06.2020
2106 Clear 7 1008 87 10000 1.5 70 02:21 04.06.2020
2107 Clear 9 1008 81 10000 2.1 60 02:21 04.06.2020
2108 Clear 9 1008 81 10000 2.6 80 01:39 04.06.2020
2109 Clear 8 1008 81 10000 2.6 80 01:18 04.06.2020
2110 Clear 9 1009 71 10000 3.1 90 00:19 04.06.2020
2111 Clear 10 1009 58 10000 2.6 70 23:39 03.06.2020
2112 Clear 12 1009 58 10000 4.1 80 23:19 03.06.2020
2113 Clear 12 1009 58 10000 4.1 80 22:56 03.06.2020
2114 Clear 12 1009 54 10000 3.1 70 22:38 03.06.2020
2115 Clear 12 1009 54 10000 3.1 70 22:18 03.06.2020
2116 Clear 12 1009 54 10000 1 0 21:55 03.06.2020
2117 Clear 13 1009 50 10000 2.1 140 21:36 03.06.2020
2118 Clear 14 1009 50 10000 2.1 140 21:18 03.06.2020
2119 Clear 15 1010 47 10000 5.1 110 20:42 03.06.2020
2120 Clear 16 1010 51 10000 5.1 110 20:21 03.06.2020
2121 Clear 16 1010 51 10000 5.1 110 19:57 03.06.2020
2122 Clear 16 1010 48 10000 5.1 110 19:39 03.06.2020
2123 Clear 16 1010 48 10000 5.1 110 19:20 03.06.2020
2124 Clear 17 1010 42 10000 5.1 110 18:58 03.06.2020
2125 Clear 17 1010 39 10000 5.1 120 18:40 03.06.2020
2126 Clear 17 1010 36 10000 5.1 120 18:19 03.06.2020
2127 Clear 18 1010 36 10000 5.1 120 17:45 03.06.2020
2128 Clear 18 1010 34 10000 4.6 120 17:23 03.06.2020
2129 Clear 18 1010 36 10000 4.6 110 16:58 03.06.2020
2130 Clear 18 1011 36 10000 4.1 110 16:39 03.06.2020
2131 Clear 19 1011 32 10000 4.6 110 16:19 03.06.2020
2132 Clear 19 1011 32 10000 4.6 110 15:55 03.06.2020
2133 Clear 19 1011 34 10000 5.1 120 15:36 03.06.2020
2134 Clear 19 1011 34 10000 5.1 120 15:36 03.06.2020
2135 Clear 19 1011 34 10000 5.1 120 15:18 03.06.2020
2136 Clear 19 1011 32 10000 4.1 100 14:42 03.06.2020
2137 Clouds 19 1011 34 10000 4.1 120 14:22 03.06.2020
2138 Clouds 19 1012 34 10000 4.6 100 13:40 03.06.2020
2139 Clouds 19 1012 34 10000 4.6 100 13:21 03.06.2020
2140 Clouds 19 1012 39 10000 5.1 110 12:57 03.06.2020
2141 Clouds 19 1012 45 10000 4.1 70 12:38 03.06.2020
2142 Clouds 18 1012 51 10000 3.1 110 12:18 03.06.2020
2143 Clouds 18 1012 51 10000 3.1 110 11:43 03.06.2020
2144 Clouds 18 1012 51 10000 4.1 80 11:24 03.06.2020
2145 Clouds 18 1012 51 10000 3.1 60 10:44 03.06.2020
2146 Clouds 18 1012 51 10000 3.1 80 10:25 03.06.2020
2147 Clouds 17 1013 55 10000 2.6 80 09:55 03.06.2020
2148 Clouds 15 1013 55 10000 2.1 80 09:36 03.06.2020
2149 Clouds 15 1013 55 10000 2.1 80 09:18 03.06.2020
2150 Clouds 15 1013 54 10000 2.1 110 08:46 03.06.2020
2151 Clouds 14 1013 67 10000 2.1 110 08:21 03.06.2020
2152 Clouds 13 1013 66 10000 1.5 80 07:46 03.06.2020
2153 Clouds 12 1013 81 10000 3.1 90 07:24 03.06.2020
2154 Clouds 11 1013 81 10000 3.1 90 06:59 03.06.2020
2155 Clouds 10 1013 87 10000 2.6 70 06:41 03.06.2020
2156 Clouds 8 1013 87 10000 2.6 70 06:21 03.06.2020
2157 Clouds 8 1013 87 10000 2.6 80 05:44 03.06.2020
2158 Clouds 7 1014 87 10000 2.1 70 04:19 03.06.2020
2159 Clouds 7 1014 81 10000 2.1 60 03:41 03.06.2020
2160 Clear 6 1014 81 10000 2.1 70 02:33 03.06.2020
2161 Clear 7 1015 81 10000 1.53 98 01:42 03.06.2020
2162 Clear 7 1015 81 10000 1.45 111 00:38 03.06.2020
2163 Clear 7 1015 81 10000 1.7 124 00:19 03.06.2020
2164 Clear 9 1015 61 10000 1.5 110 23:43 02.06.2020
2165 Clear 9 1015 61 10000 1.5 110 23:24 02.06.2020
2166 Clear 10 1016 57 10000 2.1 130 22:40 02.06.2020
2167 Clear 10 1016 57 10000 2.1 130 22:19 02.06.2020
2168 Clear 11 1016 57 10000 3.1 130 21:57 02.06.2020
2169 Clear 11 1016 57 10000 3.1 130 21:39 02.06.2020
2170 Clear 12 1016 54 10000 5.1 110 21:21 02.06.2020
2171 Clear 12 1016 54 10000 5.1 110 21:21 02.06.2020
2172 Clear 13 1016 54 10000 4.6 110 20:59 02.06.2020
2173 Clear 13 1016 50 10000 5.1 110 20:41 02.06.2020
2174 Clear 14 1016 50 10000 5.1 110 20:22 02.06.2020
2175 Clear 15 1017 44 10000 4.1 100 19:46 02.06.2020
2176 Clear 14 1017 44 10000 4.1 100 19:26 02.06.2020
2177 Clear 15 1017 41 10000 4.1 100 18:59 02.06.2020
2178 Clear 15 1017 41 10000 5.1 110 18:40 02.06.2020
2179 Clear 16 1017 36 10000 5.7 120 18:21 02.06.2020
2180 Clear 16 1017 36 10000 5.7 120 17:59 02.06.2020
2181 Clear 16 1017 36 10000 5.1 100 17:40 02.06.2020
2182 Clear 16 1017 36 10000 5.1 100 17:21 02.06.2020
2183 Clear 16 1017 41 10000 5.1 110 16:56 02.06.2020
2184 Clear 17 1018 39 10000 6.2 120 16:38 02.06.2020
2185 Clear 18 1018 39 10000 6.2 120 16:19 02.06.2020
2186 Clear 18 1018 42 10000 5.7 110 15:42 02.06.2020
2187 Clear 18 1018 42 10000 6.2 120 15:23 02.06.2020
2188 Clear 18 1019 36 10000 5.7 110 14:49 02.06.2020
2189 Clear 18 1019 36 10000 5.1 110 14:30 02.06.2020
2190 Clear 19 1019 36 10000 5.1 110 13:58 02.06.2020
2191 Clear 18 1019 39 10000 4.6 110 13:38 02.06.2020
2192 Clear 18 1019 39 10000 4.6 110 13:19 02.06.2020
2193 Clear 18 1020 39 10000 5.7 110 12:58 02.06.2020
2194 Clear 19 1020 42 10000 5.7 120 12:39 02.06.2020
2195 Clear 19 1020 42 10000 5.7 120 12:20 02.06.2020
2196 Clear 19 1020 39 10000 5.1 130 11:55 02.06.2020
2197 Clear 18 1020 42 10000 5.7 110 11:36 02.06.2020
2198 Clear 18 1020 42 10000 5.7 110 11:18 02.06.2020
2199 Clear 18 1020 42 10000 5.7 110 10:46 02.06.2020
2200 Clear 17 1020 45 10000 5.1 120 10:28 02.06.2020
2201 Clear 17 1020 48 10000 5.1 130 09:55 02.06.2020
2202 Clear 17 1020 45 10000 6.2 140 09:36 02.06.2020
2203 Clear 17 1020 45 10000 6.2 140 09:18 02.06.2020
2204 Clear 16 1020 55 10000 5.1 130 08:45 02.06.2020
2205 Clear 16 1020 59 10000 5.1 130 08:20 02.06.2020
2206 Clear 15 1020 62 10000 5.1 140 07:44 02.06.2020
2207 Clear 14 1020 62 10000 5.1 140 07:25 02.06.2020
2208 Clear 14 1020 67 10000 4.6 140 06:43 02.06.2020
2209 Clear 13 1021 76 10000 4.1 130 05:54 02.06.2020
2210 Clear 12 1020 76 10000 4.1 120 04:57 02.06.2020
2211 Clear 14 1020 67 10000 3.6 110 03:20 02.06.2020
2212 Clouds 14 1021 63 10000 2.1 80 02:24 02.06.2020
2213 Clouds 16 1021 59 10000 2.6 70 00:58 02.06.2020
2214 Clouds 16 1021 59 10000 1.5 60 00:25 02.06.2020
2215 Clouds 17 1021 63 10000 1 0 23:54 01.06.2020
2216 Clouds 17 1021 59 10000 1.5 0 23:36 01.06.2020
2217 Clouds 17 1021 59 10000 1.5 0 23:36 01.06.2020
2218 Rain 18 1021 59 10000 1.5 0 23:18 01.06.2020
2219 Rain 19 1021 56 10000 2.6 300 22:40 01.06.2020
2220 Rain 19 1021 52 10000 2.1 290 22:20 01.06.2020
2221 Rain 21 1021 52 10000 1.5 290 21:57 01.06.2020
2222 Rain 23 1021 43 10000 2.6 310 21:37 01.06.2020
2223 Clear 22 1021 43 10000 2.6 310 21:18 01.06.2020
2224 Clear 24 1021 38 10000 2.6 330 20:55 01.06.2020
2225 Clear 26 1022 34 10000 5.1 330 20:36 01.06.2020
2226 Clear 26 1022 34 10000 5.1 330 20:36 01.06.2020
2227 Clear 26 1022 34 10000 5.1 330 20:18 01.06.2020
2228 Clear 26 1022 34 10000 5.1 330 19:43 01.06.2020
2229 Clear 26 1022 34 10000 4.1 320 19:21 01.06.2020
2230 Clear 25 1022 36 10000 3.1 310 18:59 01.06.2020
2231 Clear 26 1023 34 10000 3.1 350 18:39 01.06.2020
2232 Clear 26 1023 31 10000 2.6 310 18:19 01.06.2020
2233 Clear 26 1023 31 10000 2.6 310 17:55 01.06.2020
2234 Clear 26 1024 31 10000 4.6 290 17:36 01.06.2020
2235 Clear 26 1024 34 10000 3.6 300 17:18 01.06.2020
2236 Clear 26 1024 34 10000 3.6 290 16:39 01.06.2020
2237 Clear 25 1024 34 10000 3.6 290 16:20 01.06.2020
2238 Clear 25 1024 31 10000 3.1 320 15:55 01.06.2020
2239 Clear 25 1025 34 10000 3.1 30 15:37 01.06.2020
2240 Clear 25 1025 34 10000 3.1 30 15:18 01.06.2020
2241 Clear 25 1025 36 10000 1.5 0 14:56 01.06.2020
2242 Clear 25 1026 36 10000 3.1 320 14:38 01.06.2020
2243 Clear 25 1026 36 10000 3.1 320 14:19 01.06.2020
2244 Clear 24 1026 36 10000 3.1 310 13:43 01.06.2020
2245 Clear 24 1026 36 10000 3.1 310 13:21 01.06.2020
2246 Clear 24 1026 38 10000 2.6 330 12:58 01.06.2020
2247 Clear 23 1027 38 10000 2.6 50 12:40 01.06.2020
2248 Clear 23 1027 38 10000 2.6 50 12:40 01.06.2020
2249 Clear 23 1027 38 10000 2.6 50 12:21 01.06.2020
2250 Clear 22 1027 43 10000 2.6 50 11:58 01.06.2020
2251 Clear 22 1027 43 10000 2.1 330 11:37 01.06.2020
2252 Clear 22 1027 43 10000 2.1 330 11:18 01.06.2020
2253 Clear 22 1027 43 10000 2.1 320 10:56 01.06.2020
2254 Clear 21 1027 43 10000 1.5 40 10:36 01.06.2020
2255 Clear 19 1028 48 10000 1 0 10:18 01.06.2020
2256 Clear 19 1028 48 10000 1.5 330 09:44 01.06.2020
2257 Clear 18 1028 48 10000 1.5 330 09:25 01.06.2020
2258 Clear 17 1028 51 10000 1.5 0 08:57 01.06.2020
2259 Clear 17 1028 51 10000 2.1 360 08:34 01.06.2020
2260 Clear 16 1027 54 10000 2.1 360 07:59 01.06.2020
2261 Clear 14 1027 54 10000 1.5 350 07:40 01.06.2020
2262 Clear 15 1027 54 10000 2.6 340 07:22 01.06.2020
2263 Clear 14 1027 54 10000 2.6 350 06:49 01.06.2020
2264 Clear 11 1027 50 10000 2.6 350 05:57 01.06.2020
2265 Clear 10 1027 53 10000 1.5 340 04:56 01.06.2020
2266 Clear 10 1028 61 10000 2.6 320 03:56 01.06.2020
2267 Clear 10 1028 61 10000 2.1 340 03:37 01.06.2020
2268 Clear 11 1028 62 10000 1.5 310 02:42 01.06.2020
2269 Clouds 10 1028 66 10000 1.5 290 01:38 01.06.2020
2270 Clouds 10 1028 62 10000 1 290 01:18 01.06.2020
2271 Clouds 11 1028 54 10000 2.1 350 00:40 01.06.2020
2272 Clouds 11 1028 54 10000 2.1 350 00:21 01.06.2020
2273 Clouds 11 1028 54 10000 2.1 350 00:21 01.06.2020
2274 Clouds 12 1028 47 10000 2.6 350 23:59 31.05.2020
2275 Clouds 13 1028 44 10000 2.6 340 23:40 31.05.2020
2276 Clouds 13 1028 44 10000 2.6 340 23:22 31.05.2020
2277 Clouds 14 1029 38 10000 3.1 350 22:58 31.05.2020
2278 Clouds 14 1029 38 10000 3.1 350 22:58 31.05.2020
2279 Clouds 14 1029 36 10000 3.1 340 22:40 31.05.2020
2280 Clouds 16 1029 56 10000 3.1 350 22:21 31.05.2020
2281 Clouds 17 1029 56 10000 3.1 350 21:56 31.05.2020
2282 Clouds 17 1029 56 10000 4.1 350 21:38 31.05.2020
2283 Clouds 18 1029 51 10000 4.1 350 21:19 31.05.2020
2284 Clear 18 1029 32 10000 3.6 30 20:42 31.05.2020
2285 Clear 19 1029 32 10000 3.6 30 20:23 31.05.2020
2286 Clear 19 1029 28 10000 5.1 350 19:56 31.05.2020
2287 Clear 20 1029 28 10000 5.1 350 19:37 31.05.2020
2288 Clear 20 1029 28 10000 5.1 350 19:19 31.05.2020
2289 Clear 21 1029 28 10000 4.1 10 18:44 31.05.2020
2290 Clear 21 1029 28 10000 4.1 10 18:25 31.05.2020
2291 Clear 21 1029 28 10000 4.6 20 17:58 31.05.2020
2292 Clear 21 1029 30 10000 5.1 350 17:39 31.05.2020
2293 Clear 21 1029 30 10000 5.1 350 17:20 31.05.2020
2294 Clear 21 1029 30 10000 4.6 360 16:41 31.05.2020
2295 Clear 21 1030 28 10000 5.1 350 16:21 31.05.2020
2296 Clear 21 1030 28 10000 4.6 360 15:42 31.05.2020
2297 Clear 21 1030 28 10000 4.6 360 15:23 31.05.2020
2298 Clear 21 1030 30 10000 4.6 40 14:59 31.05.2020
2299 Clear 21 1030 30 10000 4.6 40 14:40 31.05.2020
2300 Clear 21 1030 30 10000 5.1 30 14:19 31.05.2020
2301 Clear 21 1030 30 10000 5.1 30 13:55 31.05.2020
2302 Clear 21 1030 30 10000 5.1 30 13:36 31.05.2020
2303 Clouds 20 1030 34 10000 4.6 40 13:18 31.05.2020
2304 Clouds 20 1030 34 10000 4.6 20 12:42 31.05.2020
2305 Clouds 20 1030 34 10000 4.6 20 12:23 31.05.2020
2306 Clouds 20 1031 37 10000 4.1 30 11:54 31.05.2020
2307 Clouds 19 1031 45 10000 4.1 10 11:36 31.05.2020
2308 Clouds 19 1031 45 10000 3.6 340 11:18 31.05.2020
2309 Clouds 18 1031 51 10000 3.6 340 10:42 31.05.2020
2310 Clear 18 1031 51 10000 3.6 340 10:23 31.05.2020
2311 Clear 16 1031 55 10000 2.6 350 09:57 31.05.2020
2312 Clear 16 1031 58 10000 3.1 10 09:39 31.05.2020
2313 Clear 15 1031 62 10000 2.6 20 09:19 31.05.2020
2314 Clear 14 1031 62 10000 3.1 350 08:42 31.05.2020
2315 Clear 14 1031 62 10000 3.1 350 08:23 31.05.2020
2316 Clear 13 1030 71 10000 3.1 360 07:48 31.05.2020
2317 Clear 11 1030 76 10000 2.6 360 07:22 31.05.2020
2318 Clear 11 1030 76 10000 2.6 360 06:57 31.05.2020
2319 Clear 11 1030 71 10000 2.6 350 06:34 31.05.2020
2320 Clear 9 1030 76 10000 2.1 350 05:49 31.05.2020
2321 Clear 9 1030 76 10000 2.1 350 05:31 31.05.2020
2322 Clear 8 1030 70 10000 3.1 360 03:57 31.05.2020
2323 Clear 9 1029 70 10000 2.6 350 03:22 31.05.2020
2324 Clear 9 1029 66 10000 3.1 360 02:44 31.05.2020
2325 Clouds 9 1029 66 10000 3.6 350 01:45 31.05.2020
2326 Clouds 10 1029 62 10000 3.1 350 00:40 31.05.2020
2327 Clouds 10 1030 62 10000 3.6 350 00:20 31.05.2020
2328 Clouds 11 1029 58 10000 2.6 340 23:42 30.05.2020
2329 Clouds 11 1029 58 10000 2.6 340 23:42 30.05.2020
2330 Clouds 11 1029 58 10000 2.6 340 23:23 30.05.2020
2331 Clouds 12 1029 54 10000 4.6 340 22:54 30.05.2020
2332 Clouds 12 1029 50 10000 3.6 350 22:36 30.05.2020
2333 Clouds 13 1029 50 10000 3.1 360 22:18 30.05.2020
2334 Clouds 13 1029 50 10000 3.6 360 21:42 30.05.2020
2335 Clouds 14 1029 47 10000 4.6 360 21:22 30.05.2020
2336 Clouds 15 1029 47 10000 4.6 360 20:57 30.05.2020
2337 Clouds 16 1029 44 10000 5.1 20 20:39 30.05.2020
2338 Clouds 16 1029 44 10000 5.7 20 20:21 30.05.2020
2339 Clouds 16 1029 44 10000 5.7 20 19:55 30.05.2020
2340 Clouds 17 1029 42 10000 6.7 30 19:37 30.05.2020
2341 Clear 17 1029 42 10000 6.7 30 19:18 30.05.2020
2342 Clear 17 1029 45 10000 6.7 350 18:42 30.05.2020
2343 Clear 18 1029 42 10000 7.7 350 18:18 30.05.2020
2344 Clear 18 1029 37 10000 6.2 350 17:41 30.05.2020
2345 Clear 18 1029 37 10000 6.2 350 17:23 30.05.2020
2346 Clear 19 1029 37 10000 6.7 40 16:57 30.05.2020
2347 Clear 19 1029 37 10000 5.1 20 16:38 30.05.2020
2348 Clear 19 1029 37 10000 5.1 20 16:20 30.05.2020
2349 Clear 19 1029 39 10000 5.7 30 15:42 30.05.2020
2350 Clear 19 1029 39 10000 5.7 30 15:24 30.05.2020
2351 Clear 19 1029 39 10000 5.7 20 14:43 30.05.2020
2352 Clear 19 1029 39 10000 5.7 20 14:24 30.05.2020
2353 Clear 18 1029 45 10000 5.7 350 13:44 30.05.2020
2354 Clear 18 1029 45 10000 5.7 350 13:24 30.05.2020
2355 Clear 17 1030 51 10000 5.1 350 12:42 30.05.2020
2356 Clear 17 1030 51 10000 5.1 350 12:21 30.05.2020
2357 Clear 17 1030 55 10000 4.1 350 11:57 30.05.2020
2358 Clear 16 1030 58 10000 4.1 10 11:39 30.05.2020
2359 Clear 16 1030 58 10000 4.1 10 11:21 30.05.2020
2360 Clear 15 1030 62 10000 3.1 360 10:41 30.05.2020
2361 Clear 15 1030 62 10000 3.1 360 10:21 30.05.2020
2362 Clear 14 1030 66 10000 3.6 350 09:51 30.05.2020
2363 Clear 13 1030 66 10000 2.6 360 09:32 30.05.2020
2364 Clear 13 1030 62 10000 2.6 360 08:52 30.05.2020
2365 Clear 13 1030 66 10000 3.1 10 08:33 30.05.2020
2366 Clear 12 1030 66 10000 2.1 360 07:50 30.05.2020
2367 Clear 11 1030 66 10000 2.1 360 07:27 30.05.2020
2368 Clear 11 1029 66 10000 2.6 360 06:59 30.05.2020
2369 Clear 10 1029 66 10000 2.6 350 06:25 30.05.2020
2370 Clear 10 1029 66 10000 2.6 350 05:49 30.05.2020
2371 Clear 9 1029 93 10000 1.5 300 04:33 30.05.2020
2372 Clear 7 1029 93 10000 2.64 340 02:34 30.05.2020
2373 Clouds 8 1029 100 10000 2.54 321 01:56 30.05.2020
2374 Clouds 9 1029 87 10000 1.5 250 00:44 30.05.2020
2375 Clouds 9 1029 87 10000 1.5 250 00:23 30.05.2020
2376 Clouds 9 1029 87 10000 2.06 295 23:59 29.05.2020
2377 Clouds 10 1029 81 10000 2.06 295 23:38 29.05.2020
2378 Clouds 10 1029 71 10000 1.5 160 23:19 29.05.2020
2379 Clouds 11 1028 66 10000 1.36 279 22:42 29.05.2020
2380 Clear 13 1028 58 10000 1.5 170 22:21 29.05.2020
2381 Clear 13 1028 58 10000 1.5 170 22:00 29.05.2020
2382 Clear 14 1028 41 10000 1.5 80 21:39 29.05.2020
2383 Clear 16 1028 41 10000 2.6 40 21:20 29.05.2020
2384 Clear 16 1028 41 10000 2.6 40 20:56 29.05.2020
2385 Clear 16 1028 41 10000 2.6 40 20:37 29.05.2020
2386 Clear 16 1028 41 10000 2.6 40 20:37 29.05.2020
2387 Clouds 16 1028 41 10000 2.6 40 20:18 29.05.2020
2388 Clouds 16 1028 39 10000 2.6 50 19:42 29.05.2020
2389 Clouds 17 1028 39 10000 2.6 50 19:24 29.05.2020
2390 Clouds 17 1028 36 10000 4.1 70 18:48 29.05.2020
2391 Clouds 17 1028 36 10000 4.1 70 18:23 29.05.2020
2392 Clouds 17 1028 39 10000 3.1 10 17:58 29.05.2020
2393 Clouds 18 1028 36 10000 4.1 330 17:39 29.05.2020
2394 Clouds 17 1028 39 10000 5.1 330 17:20 29.05.2020
2395 Clouds 17 1028 39 10000 4.6 320 16:46 29.05.2020
2396 Clouds 18 1028 39 10000 4.6 320 16:28 29.05.2020
2397 Clouds 17 1029 39 10000 4.6 330 15:59 29.05.2020
2398 Clouds 17 1029 41 10000 3.6 360 15:40 29.05.2020
2399 Clouds 17 1029 41 10000 4.1 330 15:21 29.05.2020
2400 Clouds 17 1029 41 10000 4.1 330 14:54 29.05.2020
2401 Clouds 17 1030 41 10000 4.1 320 14:36 29.05.2020
2402 Clouds 17 1030 41 10000 4.1 320 14:18 29.05.2020
2403 Clouds 17 1030 44 10000 3.6 360 13:41 29.05.2020
2404 Clouds 17 1030 41 10000 3.6 0 13:21 29.05.2020
2405 Clouds 16 1030 47 10000 3.1 300 12:46 29.05.2020
2406 Clouds 15 1030 47 10000 3.1 300 12:26 29.05.2020
2407 Clouds 15 1030 47 10000 3.1 300 12:26 29.05.2020
2408 Clouds 15 1030 50 10000 4.1 340 11:59 29.05.2020
2409 Clouds 15 1030 47 10000 4.1 330 11:41 29.05.2020
2410 Clouds 15 1030 47 10000 4.1 330 11:22 29.05.2020
2411 Clouds 14 1030 54 10000 3.6 310 10:43 29.05.2020
2412 Clouds 14 1030 54 10000 3.6 310 10:23 29.05.2020
2413 Clouds 14 1031 54 10000 3.1 310 09:56 29.05.2020
2414 Clouds 14 1031 58 10000 3.1 350 09:38 29.05.2020
2415 Clouds 13 1031 58 10000 3.1 350 09:19 29.05.2020
2416 Clouds 12 1031 62 10000 3.6 40 08:46 29.05.2020
2417 Clouds 12 1031 62 10000 3.6 40 08:22 29.05.2020
2418 Clouds 11 1031 66 10000 2.6 20 07:47 29.05.2020
2419 Clouds 11 1031 66 10000 2.6 20 07:29 29.05.2020
2420 Clouds 10 1031 70 10000 2.1 10 06:55 29.05.2020
2421 Clouds 9 1031 70 10000 2.1 20 06:37 29.05.2020
2422 Clouds 8 1031 70 10000 2.1 10 06:18 29.05.2020
2423 Clouds 6 1031 93 10000 1.5 0 05:24 29.05.2020
2424 Clouds 6 1030 93 10000 1.25 264 01:48 29.05.2020
2425 Clouds 6 1030 93 10000 1.3 238 01:27 29.05.2020
2426 Clouds 7 1030 93 10000 1.3 238 00:50 29.05.2020
2427 Clouds 7 1030 93 10000 1.17 215 00:28 29.05.2020
2428 Clouds 8 1030 81 10000 1.5 140 23:41 28.05.2020
2429 Clouds 9 1030 76 10000 2.6 140 23:20 28.05.2020
2430 Clouds 9 1030 76 10000 2.6 140 23:20 28.05.2020
2431 Clouds 9 1030 76 10000 2.6 140 22:59 28.05.2020
2432 Clouds 9 1030 76 10000 3.1 120 22:40 28.05.2020
2433 Clouds 10 1030 76 10000 3.1 120 22:20 28.05.2020
2434 Clouds 12 1029 50 10000 1 320 21:55 28.05.2020
2435 Clouds 13 1029 44 10000 2.6 320 21:37 28.05.2020
2436 Clouds 13 1029 38 10000 3.1 320 21:18 28.05.2020
2437 Clouds 14 1029 41 10000 3.1 340 20:42 28.05.2020
2438 Clouds 14 1029 41 10000 3.1 340 20:20 28.05.2020
2439 Clouds 14 1029 38 10000 3.6 330 19:59 28.05.2020
2440 Clouds 16 1029 36 10000 4.1 320 19:41 28.05.2020
2441 Clouds 15 1029 36 10000 4.1 320 19:20 28.05.2020
2442 Clouds 15 1029 38 10000 3.6 340 18:57 28.05.2020
2443 Clouds 15 1029 38 10000 4.6 330 18:38 28.05.2020
2444 Clouds 15 1029 38 10000 4.6 330 18:20 28.05.2020
2445 Clouds 15 1029 36 10000 4.1 310 17:40 28.05.2020
2446 Clouds 16 1029 36 10000 4.1 310 17:21 28.05.2020
2447 Clouds 16 1029 38 10000 4.6 320 16:47 28.05.2020
2448 Clouds 16 1029 38 10000 4.6 320 16:21 28.05.2020
2449 Clouds 16 1029 38 10000 4.1 300 15:59 28.05.2020
2450 Clouds 16 1029 38 10000 4.6 340 15:40 28.05.2020
2451 Clouds 16 1029 38 10000 4.6 340 15:22 28.05.2020
2452 Clouds 16 1029 41 10000 4.6 290 14:42 28.05.2020
2453 Clouds 15 1029 47 10000 3.6 320 14:23 28.05.2020
2454 Clouds 16 1029 44 10000 5.1 330 13:47 28.05.2020
2455 Clouds 16 1029 44 10000 5.1 330 13:47 28.05.2020
2456 Clouds 16 1029 44 10000 5.1 330 13:29 28.05.2020
2457 Clouds 15 1029 47 10000 4.6 320 12:59 28.05.2020
2458 Clouds 14 1029 47 10000 4.6 340 12:38 28.05.2020
2459 Clouds 15 1029 47 10000 4.1 300 12:18 28.05.2020
2460 Clouds 14 1029 50 10000 4.1 320 11:41 28.05.2020
2461 Clouds 14 1029 50 10000 4.1 320 11:23 28.05.2020
2462 Clouds 14 1029 54 10000 3.1 350 10:56 28.05.2020
2463 Clouds 14 1029 54 10000 4.6 320 10:37 28.05.2020
2464 Clouds 13 1029 58 10000 4.1 350 10:18 28.05.2020
2465 Clouds 13 1029 58 10000 3.6 330 09:39 28.05.2020
2466 Clear 12 1029 58 10000 4.6 340 09:19 28.05.2020
2467 Clear 12 1029 62 10000 4.1 350 08:45 28.05.2020
2468 Clear 12 1029 62 10000 4.1 350 08:26 28.05.2020
2469 Clear 11 1029 66 10000 4.1 350 07:45 28.05.2020
2470 Clear 10 1029 66 10000 4.1 350 07:25 28.05.2020
2471 Clear 10 1029 71 10000 3.6 340 06:55 28.05.2020
2472 Clear 10 1028 76 10000 3.1 340 06:36 28.05.2020
2473 Clear 8 1028 81 10000 3.1 340 05:40 28.05.2020
2474 Clear 7 1027 93 10000 2.6 310 04:46 28.05.2020
2475 Clear 7 1027 93 10000 2.6 310 04:25 28.05.2020
2476 Clear 6 1027 100 900 1 280 03:45 28.05.2020
2477 Fog 6 1027 100 10000 0.5 280 02:45 28.05.2020
2478 Fog 6 1027 100 7000 1 280 01:50 28.05.2020
2479 Mist 7 1026 100 5000 1.5 280 00:54 28.05.2020
2480 Clouds 8 1026 100 10000 1 280 00:24 28.05.2020
2481 Clouds 8 1026 93 10000 1.5 260 23:57 27.05.2020
2482 Clouds 8 1026 93 10000 1.5 260 23:39 27.05.2020
2483 Clouds 8 1026 93 10000 1.5 260 23:20 27.05.2020
2484 Clouds 9 1026 87 10000 1 280 22:54 27.05.2020
2485 Clouds 10 1026 81 10000 2.1 340 22:36 27.05.2020
2486 Clouds 10 1026 81 10000 2.1 350 22:18 27.05.2020
2487 Clouds 11 1025 81 10000 2.6 10 21:40 27.05.2020
2488 Clouds 11 1025 81 10000 2.6 10 21:21 27.05.2020
2489 Clouds 11 1025 81 10000 3.6 360 20:58 27.05.2020
2490 Clouds 11 1025 87 10000 3.1 30 20:40 27.05.2020
2491 Clouds 11 1025 87 10000 3.1 30 20:20 27.05.2020
2492 Rain 12 1024 87 10000 3.6 20 19:47 27.05.2020
2493 Rain 12 1024 87 10000 3.6 20 19:47 27.05.2020
2494 Rain 12 1025 87 10000 4.1 360 19:21 27.05.2020
2495 Clouds 12 1025 87 10000 4.1 360 18:58 27.05.2020
2496 Clouds 12 1024 93 10000 4.1 10 18:39 27.05.2020
2497 Rain 12 1024 87 10000 4.6 30 18:19 27.05.2020
2498 Rain 12 1024 82 9000 7.7 340 17:43 27.05.2020
2499 Rain 13 1024 82 9000 7.7 340 17:25 27.05.2020
2500 Rain 15 1023 45 10000 4.1 260 16:57 27.05.2020
2501 Rain 15 1023 45 10000 4.1 260 16:57 27.05.2020
2502 Clouds 17 1023 45 10000 3.6 270 16:38 27.05.2020
2503 Clouds 17 1023 45 10000 3.6 270 16:38 27.05.2020
2504 Clouds 17 1023 45 10000 3.6 270 16:20 27.05.2020
2505 Clouds 18 1023 42 10000 3.6 240 15:55 27.05.2020
2506 Clouds 17 1023 42 10000 4.1 250 15:37 27.05.2020
2507 Clouds 18 1023 42 10000 3.6 300 15:18 27.05.2020
2508 Clouds 17 1023 45 10000 5.1 260 14:42 27.05.2020
2509 Clouds 18 1023 48 10000 4.1 290 14:20 27.05.2020
2510 Clouds 17 1024 55 10000 4.1 290 13:44 27.05.2020
2511 Clouds 18 1024 55 10000 4.1 290 13:25 27.05.2020
2512 Clouds 17 1024 59 10000 3.6 250 12:56 27.05.2020
2513 Clouds 18 1024 59 10000 3.6 250 12:37 27.05.2020
2514 Clouds 18 1024 63 10000 4.6 250 12:18 27.05.2020
2515 Clouds 17 1024 63 10000 3.6 260 11:39 27.05.2020
2516 Clouds 17 1025 63 10000 3.1 240 11:21 27.05.2020
2517 Clouds 16 1025 63 10000 3.1 240 10:56 27.05.2020
2518 Clouds 16 1025 63 10000 4.1 260 10:38 27.05.2020
2519 Clouds 16 1025 67 10000 3.6 240 10:19 27.05.2020
2520 Clouds 15 1025 67 10000 3.6 250 09:40 27.05.2020
2521 Clouds 14 1025 67 10000 3.6 250 09:21 27.05.2020
2522 Clouds 14 1025 71 10000 3.6 240 08:55 27.05.2020
2523 Clouds 13 1026 71 10000 3.1 250 08:36 27.05.2020
2524 Clouds 13 1026 71 10000 3.6 240 08:18 27.05.2020
2525 Clouds 12 1026 76 10000 3.6 240 07:41 27.05.2020
2526 Clouds 12 1026 76 10000 3.6 240 07:23 27.05.2020
2527 Clouds 12 1026 71 10000 3.1 250 06:45 27.05.2020
2528 Clouds 12 1026 71 10000 3.1 250 06:20 27.05.2020
2529 Clouds 11 1027 71 10000 2.1 250 05:48 27.05.2020
2530 Clouds 11 1027 76 10000 3.1 240 04:24 27.05.2020
2531 Clouds 11 1028 87 10000 2.6 230 02:32 27.05.2020
2532 Clouds 11 1028 81 10000 2.1 220 01:53 27.05.2020
2533 Clouds 12 1028 76 10000 2.1 230 01:25 27.05.2020
2534 Clouds 13 1029 66 10000 2.1 220 00:46 27.05.2020
2535 Clouds 12 1029 66 10000 2.1 220 00:46 27.05.2020
2536 Clouds 13 1029 66 10000 2.1 220 00:20 27.05.2020
2537 Clouds 13 1029 62 10000 3.1 210 23:54 26.05.2020
2538 Clouds 14 1029 62 10000 2.1 200 23:36 26.05.2020
2539 Clouds 14 1029 58 10000 2.1 200 23:18 26.05.2020
2540 Clouds 14 1029 58 10000 2.6 170 22:40 26.05.2020
2541 Clouds 15 1029 58 10000 2.6 170 22:21 26.05.2020
2542 Clouds 15 1029 55 10000 2.6 170 21:58 26.05.2020
2543 Clouds 15 1029 51 10000 3.1 170 21:40 26.05.2020
2544 Clouds 16 1029 51 10000 3.1 170 21:21 26.05.2020
2545 Clouds 16 1030 48 10000 3.6 190 20:55 26.05.2020
2546 Clouds 16 1030 48 10000 4.6 200 20:37 26.05.2020
2547 Clouds 18 1030 45 10000 4.6 210 20:18 26.05.2020
2548 Clouds 19 1030 42 10000 4.6 200 19:39 26.05.2020
2549 Clouds 19 1030 45 10000 4.6 210 19:19 26.05.2020
2550 Clouds 20 1030 45 10000 5.1 190 18:43 26.05.2020
2551 Clouds 20 1030 45 10000 5.1 190 18:24 26.05.2020
2552 Clouds 20 1030 42 10000 5.1 200 17:59 26.05.2020
2553 Clouds 20 1030 42 10000 5.7 210 17:38 26.05.2020
2554 Clouds 20 1030 42 10000 5.7 210 17:20 26.05.2020
2555 Clouds 21 1031 28 10000 3.6 210 16:45 26.05.2020
2556 Clouds 21 1031 28 10000 3.6 210 16:20 26.05.2020
2557 Clouds 21 1031 30 10000 2.6 230 15:56 26.05.2020
2558 Clouds 21 1031 28 10000 2.6 250 15:38 26.05.2020
2559 Clouds 21 1031 40 10000 2.1 220 15:19 26.05.2020
2560 Clouds 21 1032 30 10000 3.1 250 14:43 26.05.2020
2561 Clear 21 1032 30 10000 3.1 250 14:23 26.05.2020
2562 Clear 20 1032 30 10000 3.1 250 13:57 26.05.2020
2563 Clear 20 1032 35 10000 2.1 240 13:38 26.05.2020
2564 Clear 20 1032 35 10000 2.1 240 13:20 26.05.2020
2565 Clear 19 1033 39 10000 3.1 160 12:43 26.05.2020
2566 Clear 19 1033 39 10000 3.1 160 12:22 26.05.2020
2567 Clear 19 1033 42 10000 1 0 11:59 26.05.2020
2568 Clear 19 1033 42 10000 2.1 350 11:40 26.05.2020
2569 Clear 19 1033 42 10000 1.5 0 11:19 26.05.2020
2570 Clear 19 1033 45 10000 1.5 0 10:44 26.05.2020
2571 Clear 17 1033 42 10000 1 0 10:19 26.05.2020
2572 Clear 17 1033 51 10000 0.5 0 09:54 26.05.2020
2573 Clear 16 1033 51 10000 0.5 0 09:36 26.05.2020
2574 Clear 16 1033 55 10000 0.48 34 09:18 26.05.2020
2575 Clear 14 1033 67 10000 1 0 08:39 26.05.2020
2576 Clear 13 1033 67 10000 1 0 08:20 26.05.2020
2577 Clear 12 1033 76 10000 0.71 357 07:40 26.05.2020
2578 Clear 11 1033 76 10000 0.73 335 07:22 26.05.2020
2579 Clear 9 1033 87 9000 0.73 335 06:49 26.05.2020
2580 Clear 8 1033 87 9000 0.94 298 06:23 26.05.2020
2581 Clear 6 1032 100 10000 0.94 298 05:35 26.05.2020
2582 Clear 6 1032 100 10000 0.95 262 04:59 26.05.2020
2583 Clear 6 1032 100 10000 0.95 262 04:41 26.05.2020
2584 Clear 6 1032 100 10000 0.99 226 04:22 26.05.2020
2585 Clear 7 1032 100 10000 1.19 201 03:28 26.05.2020
2586 Clear 7 1032 100 10000 1.33 220 02:32 26.05.2020
2587 Clear 7 1032 93 10000 1.37 199 01:41 26.05.2020
2588 Clear 8 1031 93 10000 1.42 191 00:39 26.05.2020
2589 Clear 9 1031 93 10000 1.44 205 00:20 26.05.2020
2590 Clear 9 1031 93 10000 1.44 205 23:58 25.05.2020
2591 Clear 9 1031 87 10000 0.5 0 23:38 25.05.2020
2592 Clear 10 1031 87 10000 0.5 0 23:19 25.05.2020
2593 Clear 11 1031 87 10000 1 220 22:56 25.05.2020
2594 Clear 11 1030 81 10000 1.23 203 22:37 25.05.2020
2595 Clear 12 1030 76 10000 2.1 220 22:19 25.05.2020
2596 Clear 12 1030 76 10000 2.1 220 21:58 25.05.2020
2597 Clear 14 1030 62 10000 1.02 166 21:37 25.05.2020
2598 Clear 14 1030 58 10000 1 200 21:18 25.05.2020
2599 Clear 15 1030 58 10000 1 200 20:57 25.05.2020
2600 Clear 16 1029 59 10000 1 140 20:38 25.05.2020
2601 Clouds 16 1029 59 10000 2.1 70 20:19 25.05.2020
2602 Clouds 16 1029 55 10000 2.1 100 19:42 25.05.2020
2603 Clouds 17 1029 55 10000 3.1 90 19:20 25.05.2020
2604 Clouds 17 1029 55 10000 3.1 90 18:58 25.05.2020
2605 Clouds 17 1028 51 10000 2.6 120 18:40 25.05.2020
2606 Clouds 16 1028 51 10000 2.6 70 18:21 25.05.2020
2607 Clouds 16 1028 55 10000 3.1 90 17:44 25.05.2020
2608 Clouds 16 1028 55 10000 3.1 90 17:25 25.05.2020
2609 Clouds 16 1028 55 10000 3.1 50 16:58 25.05.2020
2610 Clouds 16 1028 55 10000 3.1 50 16:58 25.05.2020
2611 Clouds 17 1027 51 10000 2.6 100 16:40 25.05.2020
2612 Clouds 17 1027 51 10000 2.6 100 16:21 25.05.2020
2613 Clouds 17 1027 42 10000 2.1 20 15:45 25.05.2020
2614 Clouds 17 1027 42 10000 2.1 20 15:45 25.05.2020
2615 Clouds 17 1027 42 10000 2.1 20 15:21 25.05.2020
2616 Rain 17 1027 42 10000 3.1 40 14:59 25.05.2020
2617 Rain 17 1027 45 10000 3.1 40 14:41 25.05.2020
2618 Clouds 16 1026 48 10000 2.1 20 14:23 25.05.2020
2619 Clouds 17 1026 48 10000 2.1 20 13:56 25.05.2020
2620 Clouds 17 1026 48 10000 2.1 50 13:37 25.05.2020
2621 Clouds 17 1026 48 10000 2.1 80 13:19 25.05.2020
2622 Clouds 16 1026 51 10000 3.6 320 12:39 25.05.2020
2623 Clouds 16 1026 51 10000 3.6 320 12:21 25.05.2020
2624 Clouds 16 1025 51 10000 3.1 60 11:57 25.05.2020
2625 Clear 16 1025 58 10000 3.6 350 11:37 25.05.2020
2626 Clear 15 1025 58 10000 2.6 20 11:18 25.05.2020
2627 Clear 15 1024 62 10000 2.6 50 10:41 25.05.2020
2628 Clear 14 1024 62 10000 2.6 50 10:21 25.05.2020
2629 Clear 14 1024 62 10000 2.6 50 10:21 25.05.2020
2630 Clear 13 1024 71 10000 1.5 60 09:56 25.05.2020
2631 Clear 12 1024 76 10000 1.5 340 09:38 25.05.2020
2632 Clear 12 1023 81 10000 1.5 30 09:19 25.05.2020
2633 Clear 11 1023 87 10000 2.6 40 08:44 25.05.2020
2634 Clear 10 1023 87 10000 2.6 40 08:25 25.05.2020
2635 Clear 9 1022 87 10000 2.1 40 07:59 25.05.2020
2636 Clear 9 1022 100 10000 2.1 50 07:41 25.05.2020
2637 Clear 8 1022 100 10000 2.1 50 07:20 25.05.2020
2638 Clear 8 1021 100 10000 2.1 50 06:46 25.05.2020
2639 Clear 8 1021 100 10000 2.1 50 06:27 25.05.2020
2640 Clear 7 1018 100 10000 2.1 100 03:46 25.05.2020
2641 Clear 7 1018 100 10000 2.1 100 03:22 25.05.2020
2642 Clear 7 1018 100 10000 0.5 0 02:44 25.05.2020
2643 Clouds 8 1017 93 10000 1.5 110 01:46 25.05.2020
2644 Clouds 8 1017 93 10000 1.5 110 01:28 25.05.2020
2645 Clouds 8 1017 87 10000 1.5 130 00:36 25.05.2020
2646 Clouds 8 1016 87 10000 1.5 130 00:18 25.05.2020
2647 Clouds 9 1016 87 10000 2.6 120 23:43 24.05.2020
2648 Clouds 9 1016 87 10000 2.6 120 23:23 24.05.2020
2649 Clouds 9 1016 81 10000 2.1 120 22:58 24.05.2020
2650 Clouds 10 1016 81 10000 3.1 140 22:40 24.05.2020
2651 Clouds 10 1016 81 10000 3.1 140 22:18 24.05.2020
2652 Clouds 10 1015 81 10000 3.1 120 21:55 24.05.2020
2653 Clouds 11 1015 81 10000 4.1 140 21:37 24.05.2020
2654 Clouds 12 1015 76 10000 4.6 130 21:19 24.05.2020
2655 Clouds 12 1014 66 10000 2.6 180 20:43 24.05.2020
2656 Clouds 13 1014 66 10000 2.6 180 20:22 24.05.2020
2657 Clouds 13 1014 62 10000 3.6 170 19:59 24.05.2020
2658 Clouds 13 1014 62 10000 3.6 170 19:59 24.05.2020
2659 Clouds 14 1014 62 10000 4.1 150 19:40 24.05.2020
2660 Clouds 14 1014 58 0 4.1 140 19:19 24.05.2020
2661 Clouds 15 1014 58 0 4.1 140 18:54 24.05.2020
2662 Clouds 15 1014 51 10000 5.1 150 18:36 24.05.2020
2663 Clouds 15 1014 51 10000 5.1 150 18:36 24.05.2020
2664 Clouds 15 1014 47 10000 4.6 150 18:18 24.05.2020
2665 Clouds 16 1013 44 10000 5.1 160 17:40 24.05.2020
2666 Clouds 16 1013 44 10000 5.1 160 17:21 24.05.2020
2667 Clouds 16 1013 48 10000 5.7 150 16:57 24.05.2020
2668 Clouds 16 1013 44 10000 5.7 140 16:38 24.05.2020
2669 Clouds 16 1013 44 10000 5.7 140 16:20 24.05.2020
2670 Clouds 16 1013 51 10000 6.2 130 15:57 24.05.2020
2671 Clouds 16 1013 51 10000 5.1 140 15:38 24.05.2020
2672 Clouds 16 1013 51 10000 5.1 140 15:19 24.05.2020
2673 Clouds 16 1013 44 10000 4.6 200 14:46 24.05.2020
2674 Clouds 16 1013 44 10000 4.6 200 14:24 24.05.2020
2675 Clouds 16 1013 44 10000 5.1 200 13:59 24.05.2020
2676 Clouds 16 1013 44 10000 6.7 230 13:41 24.05.2020
2677 Clouds 15 1013 44 10000 6.7 230 13:21 24.05.2020
2678 Clouds 16 1013 45 10000 6.2 200 12:59 24.05.2020
2679 Clouds 16 1013 41 10000 5.1 200 12:40 24.05.2020
2680 Clouds 15 1013 41 10000 5.1 200 12:22 24.05.2020
2681 Clouds 16 1013 41 10000 4.6 180 11:59 24.05.2020
2682 Clouds 15 1013 41 10000 4.6 180 11:59 24.05.2020
2683 Clouds 15 1013 51 10000 4.1 200 11:41 24.05.2020
2684 Clouds 15 1013 51 10000 4.1 200 11:41 24.05.2020
2685 Clouds 15 1013 51 10000 4.1 200 11:41 24.05.2020
2686 Clouds 15 1013 51 10000 4.1 200 11:22 24.05.2020
2687 Clouds 15 1013 54 10000 3.6 220 10:57 24.05.2020
2688 Clouds 14 1013 58 10000 3.6 220 10:39 24.05.2020
2689 Clouds 14 1013 62 10000 2.6 0 10:21 24.05.2020
2690 Clouds 14 1013 58 10000 3.6 220 10:21 24.05.2020
2691 Clouds 13 1013 66 10000 2.1 260 09:41 24.05.2020
2692 Clouds 13 1013 71 10000 2.1 230 09:19 24.05.2020
2693 Clouds 13 1013 71 10000 2.1 230 08:57 24.05.2020
2694 Clouds 12 1013 76 10000 3.1 230 08:39 24.05.2020
2695 Clouds 11 1013 76 10000 3.1 230 08:20 24.05.2020
2696 Clouds 11 1013 87 10000 2.6 240 07:49 24.05.2020
2697 Clouds 10 1013 87 10000 2.6 240 07:25 24.05.2020
2698 Clouds 10 1013 87 10000 1.5 0 06:57 24.05.2020
2699 Clouds 9 1013 93 10000 0.5 0 06:36 24.05.2020
2700 Clouds 7 1013 93 10000 1 0 04:54 24.05.2020
2701 Clouds 8 1013 93 10000 2.1 140 03:42 24.05.2020
2702 Clouds 8 1013 100 10000 2.6 180 02:46 24.05.2020
2703 Rain 8 1013 93 10000 2.1 160 01:50 24.05.2020
2704 Rain 9 1013 93 10000 2.6 160 00:41 24.05.2020
2705 Rain 9 1013 93 10000 2.6 160 00:22 24.05.2020
2706 Rain 9 1013 93 10000 2.6 160 00:22 24.05.2020
2707 Rain 8 1013 93 10000 2.1 180 23:46 23.05.2020
2708 Clouds 8 1013 93 10000 2.1 180 23:25 23.05.2020
2709 Clouds 8 1013 87 10000 2.6 170 22:59 23.05.2020
2710 Clouds 8 1013 87 10000 2.1 170 22:39 23.05.2020
2711 Clouds 8 1013 93 10000 2.1 150 22:20 23.05.2020
2712 Clouds 8 1013 93 10000 2.1 150 21:58 23.05.2020
2713 Clouds 8 1013 93 10000 3.1 140 21:40 23.05.2020
2714 Clouds 8 1013 93 10000 3.1 140 21:20 23.05.2020
2715 Mist 8 1013 93 7000 3.6 140 20:59 23.05.2020
2716 Mist 8 1013 93 7000 3.6 140 20:59 23.05.2020
2717 Clouds 8 1014 81 10000 4.6 140 20:38 23.05.2020
2718 Clouds 8 1014 81 10000 5.1 140 20:19 23.05.2020
2719 Clouds 8 1014 81 10000 6.7 130 19:54 23.05.2020
2720 Clouds 8 1014 81 10000 6.7 130 19:36 23.05.2020
2721 Clouds 9 1014 76 10000 4.6 140 19:18 23.05.2020
2722 Clouds 8 1015 81 10000 5.7 130 18:40 23.05.2020
2723 Rain 8 1015 81 10000 5.1 130 18:22 23.05.2020
2724 Rain 8 1015 81 10000 5.1 130 17:57 23.05.2020
2725 Rain 8 1015 81 10000 5.1 130 17:39 23.05.2020
2726 Rain 8 1015 81 10000 5.1 130 17:19 23.05.2020
2727 Rain 8 1016 75 10000 6.2 140 16:57 23.05.2020
2728 Rain 8 1016 75 10000 7.2 140 16:39 23.05.2020
2729 Rain 8 1016 75 10000 7.2 140 16:20 23.05.2020
2730 Rain 9 1017 61 10000 6.7 140 15:43 23.05.2020
2731 Rain 9 1017 61 10000 6.7 140 15:24 23.05.2020
2732 Rain 9 1017 61 10000 6.7 140 15:24 23.05.2020
2733 Rain 10 1017 57 10000 5.1 170 14:58 23.05.2020
2734 Rain 11 1017 57 10000 4.6 180 14:40 23.05.2020
2735 Rain 11 1017 57 10000 4.6 180 14:22 23.05.2020
2736 Rain 11 1017 53 10000 5.7 140 13:41 23.05.2020
2737 Clouds 11 1017 53 10000 5.7 140 13:19 23.05.2020
2738 Clouds 11 1017 53 10000 5.7 140 13:19 23.05.2020
2739 Clouds 11 1017 53 10000 5.7 140 13:19 23.05.2020
2740 Clouds 12 1017 50 10000 4.6 140 12:57 23.05.2020
2741 Clouds 12 1017 50 10000 4.6 140 12:57 23.05.2020
2742 Clouds 12 1018 46 10000 4.1 150 12:39 23.05.2020
2743 Clouds 12 1018 46 10000 4.1 150 12:19 23.05.2020
2744 Clouds 12 1018 47 10000 4.6 160 11:43 23.05.2020
2745 Clouds 12 1018 47 10000 4.6 160 11:22 23.05.2020
2746 Clouds 11 1018 50 10000 4.6 150 10:58 23.05.2020
2747 Clouds 11 1018 50 10000 4.1 150 10:39 23.05.2020
2748 Clouds 11 1018 50 10000 4.1 150 10:20 23.05.2020
2749 Clouds 11 1019 50 10000 4.1 160 09:59 23.05.2020
2750 Clouds 11 1019 53 10000 4.6 150 09:41 23.05.2020
2751 Clouds 11 1019 53 10000 4.6 150 09:22 23.05.2020
2752 Clouds 11 1019 57 10000 5.1 150 08:44 23.05.2020
2753 Clouds 11 1019 57 10000 5.1 150 08:20 23.05.2020
2754 Clouds 11 1019 57 10000 5.1 150 07:59 23.05.2020
2755 Clouds 11 1019 57 10000 4.1 150 07:39 23.05.2020
2756 Clouds 11 1019 57 10000 4.1 150 07:21 23.05.2020
2757 Clouds 10 1019 66 10000 4.6 140 06:40 23.05.2020
2758 Clouds 8 1020 70 10000 3.1 140 05:51 23.05.2020
2759 Clouds 8 1020 65 10000 3.6 140 03:51 23.05.2020
2760 Clouds 8 1020 65 10000 4.1 140 03:21 23.05.2020
2761 Clouds 8 1021 70 10000 3.6 140 02:24 23.05.2020
2762 Clouds 8 1021 75 10000 3.6 150 01:27 23.05.2020
2763 Clouds 7 1022 70 10000 3.6 140 00:49 23.05.2020
2764 Clouds 8 1022 70 10000 3.6 140 00:29 23.05.2020
2765 Clouds 8 1022 65 10000 4.6 140 23:58 22.05.2020
2766 Clouds 8 1022 61 10000 4.6 140 23:40 22.05.2020
2767 Clouds 8 1022 61 10000 4.6 140 23:20 22.05.2020
2768 Clouds 8 1022 61 10000 3.6 140 22:56 22.05.2020
2769 Clouds 9 1022 53 10000 3.6 140 22:38 22.05.2020
2770 Clouds 9 1022 53 10000 4.6 140 22:18 22.05.2020
2771 Clouds 11 1022 65 10000 4.1 140 21:45 22.05.2020
2772 Clear 11 1022 37 10000 4.6 150 21:22 22.05.2020
2773 Clear 12 1022 37 10000 4.6 150 20:55 22.05.2020
2774 Clear 12 1022 32 10000 5.1 160 20:36 22.05.2020
2775 Clear 13 1023 33 10000 5.1 150 20:18 22.05.2020
2776 Clear 14 1023 33 10000 5.1 140 19:43 22.05.2020
2777 Clear 14 1023 33 10000 5.1 140 19:24 22.05.2020
2778 Clear 15 1023 30 10000 5.7 130 18:40 22.05.2020
2779 Clear 15 1023 30 10000 5.7 130 18:21 22.05.2020
2780 Clear 15 1024 28 10000 4.6 150 17:59 22.05.2020
2781 Clear 16 1024 28 10000 5.7 150 17:39 22.05.2020
2782 Clear 16 1024 28 10000 5.7 150 17:19 22.05.2020
2783 Clear 16 1024 26 10000 5.7 140 16:55 22.05.2020
2784 Clear 16 1024 29 10000 5.7 160 16:37 22.05.2020
2785 Clear 16 1024 29 10000 4.1 140 16:18 22.05.2020
2786 Clear 16 1024 29 10000 4.6 120 15:41 22.05.2020
2787 Clear 16 1024 29 10000 4.6 120 15:21 22.05.2020
2788 Clear 16 1025 26 10000 4.1 110 14:44 22.05.2020
2789 Clear 16 1025 26 10000 4.1 110 14:25 22.05.2020
2790 Clear 17 1025 26 10000 4.6 100 13:50 22.05.2020
2791 Clear 16 1025 23 10000 4.6 110 13:22 22.05.2020
2792 Clear 16 1025 25 10000 3.1 90 12:59 22.05.2020
2793 Clear 16 1025 25 10000 3.6 100 12:39 22.05.2020
2794 Clear 15 1025 24 10000 3.1 130 12:20 22.05.2020
2795 Clear 15 1025 21 10000 2.6 100 11:44 22.05.2020
2796 Clear 15 1025 21 10000 2.6 100 11:21 22.05.2020
2797 Clear 14 1025 28 10000 2.6 90 10:56 22.05.2020
2798 Clear 14 1025 30 10000 2.6 90 10:38 22.05.2020
2799 Clear 14 1025 30 10000 2.6 90 10:19 22.05.2020
2800 Clear 14 1025 32 10000 2.1 50 10:19 22.05.2020
2801 Clear 13 1025 30 10000 2.1 40 09:47 22.05.2020
2802 Clear 12 1025 32 10000 2.6 60 09:21 22.05.2020
2803 Clear 12 1025 32 10000 2.6 60 08:57 22.05.2020
2804 Clouds 12 1025 34 10000 1.5 70 08:39 22.05.2020
2805 Clouds 11 1025 37 10000 2.1 50 08:18 22.05.2020
2806 Clouds 11 1025 43 10000 1.5 60 07:48 22.05.2020
2807 Clouds 10 1025 43 10000 1.5 60 07:22 22.05.2020
2808 Clouds 9 1025 49 10000 1 0 06:46 22.05.2020
2809 Clouds 8 1025 49 10000 1 0 06:28 22.05.2020
2810 Clouds 6 1025 75 10000 1.5 0 05:35 22.05.2020
2811 Clouds 5 1025 75 10000 1.5 100 04:48 22.05.2020
2812 Clouds 5 1025 75 10000 1.61 83 03:51 22.05.2020
2813 Clouds 5 1025 75 10000 0.93 100 03:32 22.05.2020
2814 Clouds 5 1025 75 10000 1 100 02:23 22.05.2020
2815 Clouds 5 1025 80 10000 0.73 84 01:42 22.05.2020
2816 Clouds 5 1025 80 10000 0.47 73 01:20 22.05.2020
2817 Clouds 5 1025 60 10000 1 0 00:33 22.05.2020
2818 Clouds 5 1025 63 10000 0.39 137 23:57 21.05.2020
2819 Clouds 5 1025 70 10000 1 120 23:39 21.05.2020
2820 Clear 6 1025 70 10000 1 120 23:20 21.05.2020
2821 Clear 7 1025 65 10000 1 130 22:57 21.05.2020
2822 Clear 8 1025 65 10000 1.5 170 22:37 21.05.2020
2823 Clear 9 1025 62 10000 2.6 160 22:18 21.05.2020
2824 Clear 10 1024 43 10000 3.6 140 21:47 21.05.2020
2825 Clear 10 1024 43 10000 3.6 140 21:26 21.05.2020
2826 Clear 11 1024 58 10000 4.1 130 20:57 21.05.2020
2827 Clear 12 1024 58 10000 4.6 140 20:38 21.05.2020
2828 Clouds 12 1024 52 10000 4.6 140 20:20 21.05.2020
2829 Clouds 13 1024 52 10000 4.6 140 19:39 21.05.2020
2830 Clouds 13 1024 47 10000 4.6 140 19:19 21.05.2020
2831 Clouds 14 1024 47 10000 4.6 140 18:55 21.05.2020
2832 Clouds 14 1024 47 10000 5.1 140 18:36 21.05.2020
2833 Clouds 14 1024 38 10000 5.1 140 18:18 21.05.2020
2834 Clouds 14 1024 41 10000 5.1 140 17:43 21.05.2020
2835 Clouds 15 1024 41 10000 5.1 140 17:25 21.05.2020
2836 Clouds 15 1024 26 10000 2.6 360 16:48 21.05.2020
2837 Clouds 16 1024 26 10000 2.6 360 16:27 21.05.2020
2838 Clouds 16 1024 28 10000 3.6 330 15:58 21.05.2020
2839 Clouds 16 1024 26 10000 4.1 350 15:39 21.05.2020
2840 Clouds 16 1024 26 10000 4.1 350 15:20 21.05.2020
2841 Clouds 15 1024 25 10000 3.1 340 14:41 21.05.2020
2842 Clear 16 1024 29 10000 4.1 330 14:21 21.05.2020
2843 Clear 15 1024 28 10000 2.6 0 13:43 21.05.2020
2844 Clear 15 1024 28 10000 2.6 0 13:23 21.05.2020
2845 Clear 14 1025 30 10000 3.1 290 12:59 21.05.2020
2846 Clear 14 1025 30 10000 4.1 340 12:38 21.05.2020
2847 Clear 14 1025 33 10000 3.6 10 12:19 21.05.2020
2848 Clear 14 1025 33 10000 3.6 10 12:19 21.05.2020
2849 Clear 14 1025 33 10000 3.6 10 11:55 21.05.2020
2850 Clear 14 1025 30 10000 2.6 350 11:37 21.05.2020
2851 Clear 14 1025 32 10000 3.1 330 11:19 21.05.2020
2852 Clear 14 1025 35 10000 2.6 320 10:39 21.05.2020
2853 Clear 14 1025 35 10000 2.1 0 10:20 21.05.2020
2854 Clear 14 1025 35 10000 2.1 0 09:56 21.05.2020
2855 Clear 13 1025 40 10000 1.5 0 09:38 21.05.2020
2856 Clear 12 1025 40 10000 1.5 0 09:20 21.05.2020
2857 Clear 11 1025 50 10000 1 0 08:48 21.05.2020
2858 Clear 11 1025 50 10000 1 0 08:29 21.05.2020
2859 Clear 9 1025 53 10000 1.93 27 07:49 21.05.2020
2860 Clear 9 1025 70 10000 1.61 16 07:27 21.05.2020
2861 Clear 6 1025 75 10000 1.61 16 06:54 21.05.2020
2862 Clear 4 1025 93 10000 1.57 13 06:23 21.05.2020
2863 Clear 3 1025 100 10000 1.57 13 05:47 21.05.2020
2864 Clear 4 1025 93 10000 1.49 334 03:22 21.05.2020
2865 Clear 5 1024 86 10000 1.49 334 02:54 21.05.2020
2866 Clouds 5 1024 86 10000 1.4 299 02:30 21.05.2020
2867 Clear 5 1024 86 10000 1.58 281 01:47 21.05.2020
2868 Clear 6 1024 86 10000 1.69 265 01:23 21.05.2020
2869 Clear 6 1024 81 10000 1.69 265 00:53 21.05.2020
2870 Clear 6 1024 81 10000 1.5 240 00:24 21.05.2020
2871 Clear 6 1024 75 10000 1 170 23:46 20.05.2020
2872 Clear 6 1024 75 10000 1 170 23:21 20.05.2020
2873 Clear 6 1024 75 10000 1.5 150 22:58 20.05.2020
2874 Clear 7 1024 65 10000 1.5 160 22:39 20.05.2020
2875 Clear 7 1024 65 10000 1.5 160 22:21 20.05.2020
2876 Clear 9 1024 61 10000 3.1 140 21:42 20.05.2020
2877 Clouds 9 1023 61 10000 3.1 140 21:23 20.05.2020
2878 Clouds 9 1023 61 10000 3.1 140 20:55 20.05.2020
2879 Clouds 10 1023 57 10000 4.1 140 20:37 20.05.2020
2880 Clouds 11 1023 32 10000 3.1 50 20:19 20.05.2020
2881 Clouds 12 1023 30 10000 2.6 340 19:39 20.05.2020
2882 Clouds 12 1023 30 10000 2.6 340 19:20 20.05.2020
2883 Clouds 12 1023 32 10000 2.6 300 18:56 20.05.2020
2884 Clouds 12 1023 30 10000 3.1 40 18:38 20.05.2020
2885 Clouds 12 1023 30 10000 3.1 40 18:19 20.05.2020
2886 Clouds 12 1023 30 10000 4.1 330 17:38 20.05.2020
2887 Clouds 12 1023 32 10000 2.1 50 17:19 20.05.2020
2888 Clouds 12 1023 32 10000 3.6 10 16:42 20.05.2020
2889 Clouds 12 1023 32 10000 3.6 10 16:23 20.05.2020
2890 Clouds 13 1022 30 10000 4.6 40 15:57 20.05.2020
2891 Clouds 12 1022 34 10000 3.1 290 15:39 20.05.2020
2892 Clouds 12 1022 34 10000 3.1 290 15:21 20.05.2020
2893 Clouds 12 1022 37 10000 3.6 340 14:42 20.05.2020
2894 Clouds 13 1022 34 10000 6.2 340 14:20 20.05.2020
2895 Clouds 12 1022 40 10000 3.6 20 13:41 20.05.2020
2896 Clouds 12 1022 40 10000 4.6 350 13:20 20.05.2020
2897 Clouds 12 1022 40 10000 4.6 350 12:57 20.05.2020
2898 Clouds 12 1022 43 10000 4.1 330 12:37 20.05.2020
2899 Clouds 11 1022 44 10000 5.1 330 12:19 20.05.2020
2900 Clouds 11 1022 53 10000 3.6 320 11:36 20.05.2020
2901 Clouds 11 1022 53 10000 4.6 340 11:18 20.05.2020
2902 Clear 10 1022 57 10000 5.7 320 10:42 20.05.2020
2903 Clear 11 1022 53 10000 4.6 320 10:20 20.05.2020
2904 Clear 10 1021 61 10000 3.6 330 09:45 20.05.2020
2905 Clear 9 1021 61 10000 3.1 320 09:21 20.05.2020
2906 Clear 9 1021 61 10000 3.1 320 09:21 20.05.2020
2907 Clear 9 1021 61 10000 3.1 320 08:57 20.05.2020
2908 Clear 8 1021 65 10000 3.1 330 08:39 20.05.2020
2909 Clear 8 1021 70 10000 3.1 320 08:18 20.05.2020
2910 Clear 7 1021 75 10000 2.6 310 07:46 20.05.2020
2911 Clear 6 1020 80 10000 1.5 300 07:20 20.05.2020
2912 Clear 4 1020 86 10000 1.5 300 06:36 20.05.2020
2913 Clear 2 1020 100 10000 1.5 280 05:24 20.05.2020
2914 Clear 2 1020 100 10000 1.5 280 05:24 20.05.2020
2915 Clear 2 1020 93 10000 1 320 04:27 20.05.2020
2916 Clear 3 1019 100 10000 1.5 290 03:42 20.05.2020
2917 Clear 3 1019 93 10000 1.5 290 02:30 20.05.2020
2918 Clouds 3 1018 93 10000 1 0 01:29 20.05.2020
2919 Clouds 4 1018 93 10000 1.5 0 00:44 20.05.2020
2920 Clouds 4 1018 93 10000 1.5 0 00:24 20.05.2020
2921 Clouds 5 1018 77 0 1.85 249 23:42 19.05.2020
2922 Clouds 6 1017 75 10000 1.5 20 23:19 19.05.2020
2923 Clouds 6 1017 75 10000 1.5 20 22:56 19.05.2020
2924 Clouds 6 1017 75 10000 1.5 20 22:38 19.05.2020
2925 Clouds 7 1017 75 10000 1.5 20 22:19 19.05.2020
2926 Clouds 7 1016 70 10000 1.5 130 21:58 19.05.2020
2927 Clouds 7 1016 70 10000 2.6 120 21:38 19.05.2020
2928 Clouds 8 1015 70 10000 2.6 130 21:19 19.05.2020
2929 Clouds 8 1015 70 10000 2.6 130 20:57 19.05.2020
2930 Clouds 8 1015 70 10000 2.6 80 20:39 19.05.2020
2931 Rain 9 1015 70 10000 2.6 80 20:20 19.05.2020
2932 Rain 9 1014 70 10000 3.6 100 19:40 19.05.2020
2933 Rain 9 1014 70 10000 3.6 100 19:21 19.05.2020
2934 Rain 10 1014 66 10000 3.1 90 18:58 19.05.2020
2935 Clouds 10 1014 66 10000 4.1 70 18:40 19.05.2020
2936 Clouds 10 1014 66 10000 4.1 70 18:40 19.05.2020
2937 Clouds 10 1014 66 10000 5.1 50 18:20 19.05.2020
2938 Clouds 11 1013 63 10000 2.6 320 17:43 19.05.2020
2939 Clouds 12 1013 50 10000 3.1 360 17:21 19.05.2020
2940 Clouds 12 1013 50 10000 3.1 360 16:58 19.05.2020
2941 Clouds 11 1013 50 10000 5.7 350 16:38 19.05.2020
2942 Rain 12 1012 54 10000 3.1 110 16:19 19.05.2020
2943 Rain 13 1012 47 10000 3.1 80 15:46 19.05.2020
2944 Rain 13 1012 33 10000 4.6 270 15:21 19.05.2020
2945 Rain 14 1012 33 10000 4.6 270 14:57 19.05.2020
2946 Rain 13 1012 33 10000 2.6 0 14:38 19.05.2020
2947 Rain 13 1012 33 10000 2.6 0 14:20 19.05.2020
2948 Rain 12 1012 44 10000 3.1 280 13:57 19.05.2020
2949 Rain 12 1012 44 10000 2.6 300 13:39 19.05.2020
2950 Clouds 12 1012 46 10000 2.6 300 13:20 19.05.2020
2951 Clouds 12 1012 46 10000 2.6 300 12:56 19.05.2020
2952 Clouds 12 1012 46 10000 1.5 0 12:37 19.05.2020
2953 Clouds 12 1012 62 10000 4.6 310 12:19 19.05.2020
2954 Clouds 12 1011 62 10000 3.6 280 11:43 19.05.2020
2955 Clouds 12 1011 62 10000 3.6 280 11:43 19.05.2020
2956 Clouds 12 1011 66 10000 1.5 0 11:23 19.05.2020
2957 Clouds 12 1011 66 10000 1.5 0 10:58 19.05.2020
2958 Clouds 12 1011 62 10000 1 0 10:40 19.05.2020
2959 Clouds 11 1011 66 10000 1.5 60 10:21 19.05.2020
2960 Clouds 11 1011 71 10000 2.1 10 09:46 19.05.2020
2961 Clouds 11 1011 71 10000 2.1 10 09:25 19.05.2020
2962 Clouds 10 1011 66 10000 1.5 360 08:48 19.05.2020
2963 Clouds 10 1011 76 10000 1.5 350 08:48 19.05.2020
2964 Clouds 10 1011 76 10000 1.5 350 08:26 19.05.2020
2965 Clouds 8 1011 76 10000 2.04 4 07:57 19.05.2020
2966 Clouds 7 1011 93 10000 1 0 07:37 19.05.2020
2967 Clouds 6 1011 100 10000 1 60 07:19 19.05.2020
2968 Clouds 5 1010 100 10000 1.67 335 06:40 19.05.2020
2969 Clouds 4 1010 93 10000 0.5 0 06:18 19.05.2020
2970 Clouds 3 1010 100 10000 1.42 303 05:39 19.05.2020
2971 Clouds 3 1010 100 10000 1.42 293 04:54 19.05.2020
2972 Clear 4 1010 93 10000 1.67 257 02:59 19.05.2020
2973 Clouds 5 1011 93 10000 1.61 196 01:21 19.05.2020
2974 Clouds 6 1011 87 10000 1.5 120 00:40 19.05.2020
2975 Clouds 6 1011 93 10000 0.5 110 00:18 19.05.2020
2976 Clouds 6 1011 93 10000 0.5 0 23:40 18.05.2020
2977 Clouds 6 1011 93 10000 0.5 0 23:20 18.05.2020
2978 Clouds 7 1011 87 10000 1.5 140 22:57 18.05.2020
2979 Clouds 7 1011 87 10000 1.5 150 22:39 18.05.2020
2980 Clouds 7 1011 81 10000 2.6 140 22:20 18.05.2020
2981 Clouds 8 1012 81 10000 4.1 120 21:42 18.05.2020
2982 Clouds 9 1012 70 10000 3.6 110 21:22 18.05.2020
2983 Clouds 9 1012 70 10000 3.6 110 20:57 18.05.2020
2984 Clouds 8 1012 70 10000 3.6 110 20:38 18.05.2020
2985 Clouds 9 1012 66 10000 4.6 90 20:20 18.05.2020
2986 Rain 9 1012 66 10000 4.6 90 19:55 18.05.2020
2987 Rain 9 1012 61 10000 3.1 80 19:37 18.05.2020
2988 Rain 10 1012 57 10000 4.6 70 19:18 18.05.2020
2989 Clouds 11 1011 54 10000 3.6 80 18:43 18.05.2020
2990 Clouds 12 1011 54 10000 3.6 80 18:21 18.05.2020
2991 Clouds 13 1011 37 10000 4.6 280 17:39 18.05.2020
2992 Clouds 13 1011 37 10000 4.6 280 17:39 18.05.2020
2993 Clouds 13 1011 42 10000 4.1 250 17:18 18.05.2020
2994 Clouds 13 1011 44 10000 4.1 250 16:56 18.05.2020
2995 Clouds 13 1011 42 10000 5.7 290 16:38 18.05.2020
2996 Clouds 13 1011 42 10000 5.1 290 16:18 18.05.2020
2997 Clouds 13 1011 42 10000 5.1 290 15:55 18.05.2020
2998 Clouds 13 1011 42 10000 4.6 270 15:37 18.05.2020
2999 Clouds 13 1011 41 10000 6.2 300 15:18 18.05.2020
3000 Clouds 13 1011 40 10000 3.1 280 14:42 18.05.2020
3001 Clear 13 1011 41 10000 3.1 280 14:23 18.05.2020
3002 Clouds 13 1011 43 10000 4.6 260 13:57 18.05.2020
3003 Clouds 12 1011 46 10000 4.1 250 13:38 18.05.2020
3004 Clouds 12 1011 50 10000 5.1 280 13:19 18.05.2020
3005 Clouds 12 1011 50 10000 5.1 280 13:19 18.05.2020
3006 Clouds 12 1011 50 10000 5.1 280 12:56 18.05.2020
3007 Clouds 12 1011 54 10000 3.6 270 12:37 18.05.2020
3008 Clouds 12 1011 50 10000 3.6 270 12:18 18.05.2020
3009 Clouds 11 1011 50 10000 3.6 300 11:46 18.05.2020
3010 Clouds 11 1011 50 10000 3.6 300 11:27 18.05.2020
3011 Clouds 11 1011 57 10000 2.6 270 10:57 18.05.2020
3012 Clouds 11 1011 61 10000 2.1 0 10:38 18.05.2020
3013 Clouds 10 1010 66 10000 2.6 340 10:20 18.05.2020
3014 Clear 9 1010 70 10000 2.6 310 09:42 18.05.2020
3015 Clear 8 1010 70 10000 2.6 310 09:24 18.05.2020
3016 Clear 7 1010 87 10000 2.1 250 08:43 18.05.2020
3017 Clear 7 1010 87 10000 2.1 250 08:25 18.05.2020
3018 Clear 5 1009 87 10000 1.5 0 07:51 18.05.2020
3019 Clear 4 1009 93 10000 0.3 320 07:26 18.05.2020
3020 Clear 2 1009 100 10000 0.3 320 06:50 18.05.2020
3021 Clear 1 1009 100 10000 0.48 314 06:32 18.05.2020
3022 Mist 1 1008 78 10000 0.48 314 05:49 18.05.2020
3023 Fog 0 1008 83 10000 0.63 313 04:42 18.05.2020
3024 Fog 0 1007 84 400 1 250 03:30 18.05.2020
3025 Fog 1 1007 100 10000 0.99 334 02:19 18.05.2020
3026 Clouds 2 1006 93 10000 1.15 295 00:55 18.05.2020
3027 Clouds 2 1006 100 10000 1.63 280 00:23 18.05.2020
3028 Clouds 2 1006 100 10000 0.5 220 23:56 17.05.2020
3029 Clouds 2 1006 100 10000 1.63 280 23:38 17.05.2020
3030 Clouds 3 1006 100 10000 2.06 254 23:19 17.05.2020
3031 Clouds 3 1006 100 10000 2.06 254 22:55 17.05.2020
3032 Clouds 3 1006 100 10000 2.06 254 22:36 17.05.2020
3033 Rain 3 1006 93 10000 0.5 0 22:18 17.05.2020
3034 Rain 4 1006 93 10000 1.5 240 21:41 17.05.2020
3035 Rain 5 1005 93 10000 2.6 230 21:20 17.05.2020
3036 Rain 5 1005 93 10000 2.6 230 20:58 17.05.2020
3037 Rain 5 1005 86 10000 1 0 20:40 17.05.2020
3038 Rain 5 1005 86 10000 1 0 20:19 17.05.2020
3039 Clouds 6 1005 75 10000 3.1 340 19:47 17.05.2020
3040 Clouds 6 1005 75 10000 3.1 340 19:29 17.05.2020
3041 Rain 8 1005 65 10000 3.6 20 18:59 17.05.2020
3042 Rain 8 1005 65 10000 3.6 20 18:59 17.05.2020
3043 Clouds 9 1004 57 10000 4.1 320 18:39 17.05.2020
3044 Clouds 9 1004 57 10000 4.1 320 18:21 17.05.2020
3045 Clouds 10 1004 61 10000 3.6 350 17:42 17.05.2020
3046 Clouds 10 1004 61 10000 3.6 350 17:23 17.05.2020
3047 Rain 10 1004 61 10000 5.7 10 16:59 17.05.2020
3048 Rain 10 1004 46 10000 8.2 280 16:39 17.05.2020
3049 Rain 11 1003 34 10000 7.2 280 16:20 17.05.2020
3050 Rain 11 1003 34 10000 7.2 280 16:20 17.05.2020
3051 Rain 11 1003 34 10000 7.2 280 15:56 17.05.2020
3052 Rain 10 1003 56 10000 5.7 270 15:36 17.05.2020
3053 Rain 10 1003 46 10000 6.2 290 15:18 17.05.2020
3054 Rain 11 1003 44 10000 5.7 250 14:42 17.05.2020
3055 Clouds 11 1003 41 10000 5.7 250 14:24 17.05.2020
3056 Clouds 11 1003 40 10000 7.7 260 13:43 17.05.2020
3057 Clouds 11 1003 40 10000 7.2 260 13:21 17.05.2020
3058 Clouds 10 1003 46 10000 6.2 270 10:50 17.05.2020
3059 Clouds 6 1003 65 10000 3.1 230 04:19 17.05.2020
3060 Clouds 6 1003 60 10000 3.6 230 02:29 17.05.2020
3061 Clouds 5 1003 60 10000 2.6 220 01:55 17.05.2020
3062 Clouds 5 1003 60 10000 2.6 230 00:57 17.05.2020
3063 Clouds 6 1003 52 10000 3.1 220 00:38 17.05.2020
3064 Clouds 6 1003 52 10000 2.6 220 23:57 16.05.2020
3065 Clouds 6 1003 48 10000 2.6 220 23:39 16.05.2020
3066 Clouds 6 1003 48 10000 3.1 240 23:19 16.05.2020
3067 Clouds 6 1003 48 10000 3.1 240 22:57 16.05.2020
3068 Clouds 7 1003 45 10000 3.6 240 22:39 16.05.2020
3069 Clouds 7 1003 42 10000 5.1 250 22:19 16.05.2020
3070 Clouds 8 1003 39 10000 4.6 260 21:44 16.05.2020
3071 Clear 9 1003 39 10000 4.6 260 21:25 16.05.2020
3072 Clear 9 1003 39 10000 4.6 260 21:25 16.05.2020
3073 Clear 9 1002 42 10000 3.6 260 20:57 16.05.2020
3074 Clear 9 1002 42 10000 5.7 260 20:39 16.05.2020
3075 Clouds 9 1002 42 10000 5.7 260 20:20 16.05.2020
3076 Clouds 9 1002 37 10000 6.7 260 19:57 16.05.2020
3077 Clouds 9 1002 34 10000 6.7 250 19:39 16.05.2020
3078 Clouds 10 1002 34 10000 6.7 250 19:21 16.05.2020
3079 Clouds 10 1002 37 10000 4.1 280 19:21 16.05.2020
3080 Clouds 10 1002 37 10000 5.1 250 18:42 16.05.2020
3081 Clouds 10 1002 37 10000 5.1 250 18:22 16.05.2020
3082 Clouds 10 1002 37 10000 3.6 280 17:56 16.05.2020
3083 Clouds 10 1002 39 10000 3.1 310 17:38 16.05.2020
3084 Clouds 10 1002 37 10000 3.1 260 17:19 16.05.2020
3085 Clouds 10 1002 37 10000 3.1 260 17:19 16.05.2020
3086 Clouds 10 1002 34 10000 4.6 230 16:39 16.05.2020
3087 Clouds 11 1002 34 10000 4.6 230 16:20 16.05.2020
3088 Clouds 11 1002 32 10000 6.2 270 15:56 16.05.2020
3089 Clouds 11 1002 29 10000 7.2 270 15:38 16.05.2020
3090 Clouds 11 1002 29 10000 7.2 270 15:38 16.05.2020
3091 Clouds 11 1002 29 10000 7.2 270 15:19 16.05.2020
3092 Clouds 11 1002 34 10000 7.2 280 14:43 16.05.2020
3093 Clouds 11 1002 34 10000 7.2 280 14:20 16.05.2020
3094 Clouds 10 1002 37 10000 8.2 280 13:57 16.05.2020
3095 Clouds 10 1002 42 10000 6.7 290 13:38 16.05.2020
3096 Clouds 10 1002 42 10000 6.7 290 13:38 16.05.2020
3097 Clouds 10 1002 39 10000 8.2 290 13:20 16.05.2020
3098 Clouds 9 1001 45 10000 7.2 270 12:44 16.05.2020
3099 Clouds 9 1001 45 10000 7.2 270 12:20 16.05.2020
3100 Clouds 9 1002 45 10000 6.7 290 11:56 16.05.2020
3101 Clouds 9 1001 47 10000 7.2 280 11:38 16.05.2020
3102 Clouds 8 1001 51 10000 6.7 280 11:19 16.05.2020
3103 Clouds 8 1001 51 10000 6.7 280 10:55 16.05.2020
3104 Clouds 8 1001 51 10000 8.7 290 10:36 16.05.2020
3105 Clouds 8 1001 57 10000 8.7 290 10:18 16.05.2020
3106 Clouds 7 1001 75 10000 7.7 280 09:40 16.05.2020
3107 Clouds 7 1001 75 10000 7.7 280 09:19 16.05.2020
3108 Clouds 6 1001 80 10000 7.2 260 08:43 16.05.2020
3109 Clouds 5 1001 80 10000 7.2 260 08:21 16.05.2020
3110 Rain 4 1000 86 10000 6.2 260 07:46 16.05.2020
3111 Rain 4 1000 86 10000 6.2 260 07:27 16.05.2020
3112 Clouds 5 1000 75 10000 6.2 240 06:58 16.05.2020
3113 Clouds 5 1000 81 10000 2.6 240 06:39 16.05.2020
3114 Clouds 5 1000 86 10000 1.5 240 06:18 16.05.2020
3115 Clouds 4 1000 86 10000 2.1 230 05:33 16.05.2020
3116 Clouds 5 1001 81 10000 2.6 220 03:37 16.05.2020
3117 Clouds 5 1001 81 10000 2.1 220 02:59 16.05.2020
3118 Clouds 6 1001 81 10000 2.6 230 02:21 16.05.2020
3119 Clouds 6 1002 75 10000 3.6 230 01:53 16.05.2020
3120 Clouds 6 1002 75 10000 3.6 230 01:23 16.05.2020
3121 Clouds 6 1002 81 10000 2.6 210 00:49 16.05.2020
3122 Rain 6 1002 81 10000 2.6 210 00:22 16.05.2020
3123 Rain 6 1003 75 10000 2.6 230 23:41 15.05.2020
3124 Rain 7 1003 75 10000 2.6 230 23:41 15.05.2020
3125 Clouds 7 1003 75 10000 1.5 170 23:20 15.05.2020
3126 Clouds 7 1003 75 10000 1.5 170 22:59 15.05.2020
3127 Clouds 7 1003 70 10000 1.5 220 22:40 15.05.2020
3128 Clouds 7 1003 65 10000 2.6 260 22:19 15.05.2020
3129 Clouds 8 1003 61 10000 3.1 250 21:40 15.05.2020
3130 Rain 8 1003 66 10000 3.1 260 21:22 15.05.2020
3131 Rain 8 1003 66 10000 3.1 260 20:59 15.05.2020
3132 Rain 9 1003 66 10000 4.6 210 20:41 15.05.2020
3133 Clouds 9 1003 66 10000 4.6 210 20:22 15.05.2020
3134 Clouds 9 1003 57 10000 4.6 200 19:58 15.05.2020
3135 Rain 9 1003 57 10000 5.1 200 19:40 15.05.2020
3136 Rain 9 1003 57 10000 5.1 200 19:22 15.05.2020
3137 Clouds 10 1003 57 10000 4.6 190 18:46 15.05.2020
3138 Clouds 11 1003 57 10000 4.6 190 18:27 15.05.2020
3139 Clouds 11 1004 62 10000 3.6 200 17:41 15.05.2020
3140 Clouds 12 1004 57 10000 4.1 180 17:20 15.05.2020
3141 Clouds 12 1004 57 10000 4.1 180 16:58 15.05.2020
3142 Clouds 12 1004 53 10000 4.6 220 16:39 15.05.2020
3143 Clouds 12 1005 58 0 4.6 240 16:19 15.05.2020
3144 Clouds 12 1005 58 0 4.6 240 15:59 15.05.2020
3145 Rain 12 1005 58 10000 4.6 240 15:39 15.05.2020
3146 Rain 12 1005 57 10000 5.1 190 15:20 15.05.2020
3147 Rain 12 1005 58 10000 4.6 240 15:20 15.05.2020
3148 Rain 12 1005 57 10000 5.1 190 14:55 15.05.2020
3149 Rain 13 1005 40 10000 5.1 240 14:36 15.05.2020
3150 Rain 12 1005 40 10000 5.1 240 14:18 15.05.2020
3151 Rain 11 1006 43 10000 4.1 230 13:41 15.05.2020
3152 Clouds 10 1006 40 10000 4.1 220 13:20 15.05.2020
3153 Clouds 11 1007 40 10000 4.1 210 12:41 15.05.2020
3154 Clouds 11 1007 37 10000 3.6 270 12:19 15.05.2020
3155 -273 0 0 0 0 0 11:59 15.05.2020
3156 Clouds 10 1007 43 10000 3.6 270 11:40 15.05.2020
3157 Clouds 10 1007 45 10000 3.6 270 11:21 15.05.2020
3158 Clouds 10 1007 45 10000 3.6 270 10:59 15.05.2020
3159 Clouds 9 1007 45 10000 3.6 240 10:40 15.05.2020
3160 Clouds 9 1007 45 10000 3.6 240 10:22 15.05.2020
3161 Clouds 9 1007 49 10000 3.1 240 09:59 15.05.2020
3162 Clouds 9 1007 45 10000 2.6 250 09:38 15.05.2020
3163 Clouds 8 1008 52 10000 2.6 270 09:19 15.05.2020
3164 Clouds 8 1008 52 10000 2.6 270 08:57 15.05.2020
3165 Clouds 7 1008 60 10000 2.6 270 08:37 15.05.2020
3166 Clouds 7 1008 62 10000 1.5 270 08:18 15.05.2020
3167 Clouds 6 1008 62 10000 2.1 310 07:44 15.05.2020
3168 Clouds 6 1008 71 10000 2.1 310 07:24 15.05.2020
3169 Clouds 5 1008 75 10000 2.6 290 06:47 15.05.2020
3170 Clouds 3 1007 93 10000 2.6 270 05:49 15.05.2020
3171 Clouds 4 1007 86 10000 3.1 240 04:27 15.05.2020
3172 Clouds 4 1007 75 10000 3.1 250 03:46 15.05.2020
3173 Clouds 5 1007 70 10000 3.1 240 02:30 15.05.2020
3174 Clouds 6 1007 75 10000 3.1 210 01:21 15.05.2020
3175 Clouds 5 1007 75 10000 2.6 200 00:50 15.05.2020
3176 Clouds 5 1007 75 10000 2.6 200 00:30 15.05.2020
3177 Clouds 5 1008 75 10000 2.6 180 23:45 14.05.2020
3178 Clouds 5 1008 75 10000 2.6 180 23:24 14.05.2020
3179 Clouds 5 1008 75 10000 3.1 190 22:59 14.05.2020
3180 Clouds 5 1008 70 10000 2.6 180 22:40 14.05.2020
3181 Clouds 5 1008 70 10000 2.1 180 22:19 14.05.2020
3182 Clouds 5 1008 70 10000 2.1 180 21:57 14.05.2020
3183 Clouds 7 1008 56 10000 1.5 200 21:39 14.05.2020
3184 Clouds 7 1008 49 10000 2.6 250 21:19 14.05.2020
3185 Clouds 7 1008 49 10000 2.6 250 20:55 14.05.2020
3186 Clouds 7 1008 49 10000 3.1 270 20:36 14.05.2020
3187 Rain 8 1008 49 10000 3.1 270 20:18 14.05.2020
3188 Rain 8 1009 49 10000 5.7 260 19:40 14.05.2020
3189 Rain 8 1009 49 10000 5.7 260 19:21 14.05.2020
3190 Rain 8 1009 49 10000 4.1 260 18:58 14.05.2020
3191 Rain 9 1009 49 10000 6.7 260 18:38 14.05.2020
3192 Rain 9 1009 49 10000 6.7 260 18:20 14.05.2020
3193 Rain 8 1009 45 10000 6.2 260 17:59 14.05.2020
3194 Rain 8 1009 42 10000 6.7 270 17:37 14.05.2020
3195 Rain 8 1009 42 10000 6.7 270 17:37 14.05.2020
3196 Rain 8 1009 42 10000 6.7 270 17:19 14.05.2020
3197 Clouds 8 1009 57 10000 6.2 260 16:57 14.05.2020
3198 Clouds 8 1009 57 10000 4.6 240 16:38 14.05.2020
3199 Clouds 8 1010 52 10000 4.1 250 16:19 14.05.2020
3200 Clouds 9 1010 52 10000 4.1 250 15:56 14.05.2020
3201 Clouds 9 1010 42 10000 4.6 250 15:38 14.05.2020
3202 Clouds 9 1010 53 10000 4.1 250 15:18 14.05.2020
3203 Clouds 9 1010 53 10000 4.1 250 14:55 14.05.2020
3204 Clouds 8 1010 53 10000 2.6 0 14:36 14.05.2020
3205 Clouds 7 1010 75 10000 2.1 280 14:18 14.05.2020
3206 Clouds 6 1011 86 10000 6.7 260 13:42 14.05.2020
3207 Clouds 7 1010 56 10000 10.3 270 13:20 14.05.2020
3208 Clouds 6 1010 56 10000 10.3 270 12:59 14.05.2020
3209 Rain 9 1009 46 10000 4.6 240 12:39 14.05.2020
3210 Rain 9 1009 46 10000 4.6 240 12:20 14.05.2020
3211 Clouds 8 1010 45 10000 3.1 260 11:58 14.05.2020
3212 Rain 8 1010 49 10000 3.1 220 11:39 14.05.2020
3213 Rain 8 1010 54 10000 3.1 270 11:21 14.05.2020
3214 Rain 8 1010 54 10000 3.1 270 10:56 14.05.2020
3215 Rain 8 1010 52 10000 5.1 240 10:38 14.05.2020
3216 Clouds 8 1010 52 10000 5.1 240 10:20 14.05.2020
3217 Clouds 7 1010 65 10000 3.1 250 09:42 14.05.2020
3218 Clouds 7 1010 70 10000 2.6 230 09:23 14.05.2020
3219 Clouds 6 1010 75 10000 1.6 251 08:42 14.05.2020
3220 Clouds 6 1010 75 10000 1.14 281 08:21 14.05.2020
3221 Clouds 5 1009 86 10000 1.14 281 07:47 14.05.2020
3222 Clouds 4 1009 86 10000 1.56 294 07:25 14.05.2020
3223 Clouds 3 1010 100 10000 1.56 294 06:55 14.05.2020
3224 Clouds 1 1010 100 10000 1.87 291 06:31 14.05.2020
3225 Clouds -1 1010 92 10000 1.87 291 05:57 14.05.2020
3226 Clouds -1 1010 100 10000 1.87 291 05:35 14.05.2020
3227 Clouds -1 1010 92 10000 2.7 283 04:32 14.05.2020
3228 Clouds 0 1010 92 10000 2.7 273 03:28 14.05.2020
3229 Clouds 0 1010 84 10000 1 0 02:43 14.05.2020
3230 Clouds 0 1010 85 10000 1 0 02:18 14.05.2020
3231 Clouds 1 1010 83 10000 2.49 239 01:28 14.05.2020
3232 Clouds 1 1010 86 10000 2.49 239 00:50 14.05.2020
3233 Clouds 1 1010 86 10000 2.28 237 00:25 14.05.2020
3234 Clouds 2 1010 80 10000 1 240 23:44 13.05.2020
3235 Clouds 2 1010 80 10000 1 240 23:22 13.05.2020
3236 Clouds 2 1009 80 10000 2.12 245 22:54 13.05.2020
3237 Clouds 3 1009 74 10000 0.5 250 22:36 13.05.2020
3238 Clouds 4 1009 60 10000 1 250 22:18 13.05.2020
3239 Clouds 5 1009 56 10000 4.6 270 21:56 13.05.2020
3240 Clouds 5 1009 56 10000 4.6 270 21:38 13.05.2020
3241 Clouds 6 1009 56 10000 4.6 270 21:18 13.05.2020
3242 Clouds 7 1008 45 10000 3.6 290 20:41 13.05.2020
3243 Clouds 7 1008 45 10000 3.6 290 20:23 13.05.2020
3244 Clouds 8 1008 42 10000 3.6 330 19:44 13.05.2020
3245 Clouds 9 1008 42 10000 3.6 330 19:24 13.05.2020
3246 Clouds 8 1008 55 10000 2.1 20 18:58 13.05.2020
3247 Clouds 8 1008 61 10000 4.6 330 18:39 13.05.2020
3248 Clouds 8 1008 45 10000 6.2 330 18:21 13.05.2020
3249 Clouds 8 1008 45 10000 6.2 330 18:20 13.05.2020
3250 Clouds 8 1007 56 10000 4.1 340 17:39 13.05.2020
3251 Clouds 8 1007 56 10000 4.1 340 17:20 13.05.2020
3252 Clouds 7 1007 65 10000 6.2 330 16:56 13.05.2020
3253 Clouds 6 1007 65 10000 7.2 320 16:37 13.05.2020
3254 Clouds 6 1006 75 10000 6.2 310 16:18 13.05.2020
3255 Rain 5 1006 86 10000 5.1 320 15:42 13.05.2020
3256 Rain 4 1006 86 10000 7.7 330 15:20 13.05.2020
3257 Rain 4 1006 86 10000 7.7 330 14:57 13.05.2020
3258 Rain 4 1005 93 10000 6.7 320 14:39 13.05.2020
3259 Rain 4 1005 93 10000 6.7 320 14:21 13.05.2020
3260 Rain 3 1005 93 10000 6.7 330 13:57 13.05.2020
3261 Rain 3 1004 86 8000 7.2 340 13:39 13.05.2020
3262 Rain 3 1003 93 7000 7.7 340 13:20 13.05.2020
3263 Snow 3 1002 93 7000 6.7 340 12:43 13.05.2020
3264 Rain 3 1002 93 7000 6.7 340 12:23 13.05.2020
3265 Rain 3 1001 93 5000 7.2 330 11:57 13.05.2020
3266 Rain 3 1001 93 6000 7.7 330 11:39 13.05.2020
3267 Clouds 3 1000 93 7000 8.2 330 11:21 13.05.2020
3268 Rain 3 1000 93 7000 8.2 330 10:59 13.05.2020
3269 Rain 2 1000 93 4000 4.6 300 10:39 13.05.2020
3270 Rain 2 999 93 4000 5.7 280 10:20 13.05.2020
3271 Snow 2 999 93 4000 5.7 280 09:59 13.05.2020
3272 Rain 2 999 93 6000 6.2 290 09:40 13.05.2020
3273 Drizzle 3 999 100 4000 5.7 280 09:21 13.05.2020
3274 Rain 2 999 93 5000 5.1 280 08:41 13.05.2020
3275 Rain 2 999 93 5000 5.1 280 08:22 13.05.2020
3276 Rain 2 999 93 10000 5.1 280 07:59 13.05.2020
3277 Rain 2 999 93 10000 5.1 280 07:59 13.05.2020
3278 Snow 2 999 93 10000 5.7 280 07:36 13.05.2020
3279 Clouds 2 999 93 10000 4.6 290 06:59 13.05.2020
3280 Clouds 2 999 100 10000 3.6 280 06:41 13.05.2020
3281 Clouds 2 999 93 10000 3.6 270 05:50 13.05.2020
3282 Rain 2 999 93 10000 3.6 260 04:41 13.05.2020
3283 Clouds 2 999 100 10000 3.1 240 02:59 13.05.2020
3284 Clouds 3 999 93 10000 3.6 230 02:22 13.05.2020
3285 Rain 3 1000 93 9000 3.6 240 01:22 13.05.2020
3286 Drizzle 3 1000 93 10000 2.1 230 00:41 13.05.2020
3287 Drizzle 3 1000 93 10000 2.1 230 00:19 13.05.2020
3288 Rain 3 1000 86 10000 3.1 210 23:40 12.05.2020
3289 Rain 3 1000 86 10000 3.1 210 23:21 12.05.2020
3290 Drizzle 4 1000 86 10000 1.5 190 22:57 12.05.2020
3291 Clouds 4 1000 86 10000 1.5 170 22:39 12.05.2020
3292 Rain 4 1000 80 10000 2.1 160 22:20 12.05.2020
3293 Rain 4 1000 80 10000 2.1 160 21:55 12.05.2020
3294 Rain 4 1000 80 10000 2.1 180 21:36 12.05.2020
3295 Rain 5 1001 86 10000 1.5 160 21:18 12.05.2020
3296 Rain 5 1001 86 10000 1.5 160 20:56 12.05.2020
3297 Rain 5 1001 86 10000 1.5 150 20:37 12.05.2020
3298 Rain 5 1001 86 10000 2.74 208 20:19 12.05.2020
3299 Rain 5 1001 86 10000 2.74 208 19:54 12.05.2020
3300 Drizzle 5 1001 93 10000 2.1 250 19:36 12.05.2020
3301 Clouds 5 1001 80 10000 6.2 260 19:18 12.05.2020
3302 Clouds 6 1001 70 10000 4.6 230 18:41 12.05.2020
3303 Clouds 7 1002 70 10000 3.6 220 18:23 12.05.2020
3304 Clouds 7 1002 70 10000 3.6 220 17:54 12.05.2020
3305 Clouds 7 1002 70 10000 1.5 0 17:36 12.05.2020
3306 Clouds 7 1002 70 10000 1.5 0 17:18 12.05.2020
3307 Rain 7 1003 75 10000 3.1 0 16:42 12.05.2020
3308 Rain 7 1003 75 10000 3.1 0 16:20 12.05.2020
3309 Drizzle 7 1002 75 10000 3.1 330 15:55 12.05.2020
3310 Drizzle 7 1002 75 10000 3.1 330 15:55 12.05.2020
3311 Clouds 9 1002 61 10000 3.6 80 15:36 12.05.2020
3312 Clouds 10 1002 46 10000 3.6 200 15:18 12.05.2020
3313 Clouds 9 1002 46 10000 3.6 200 14:54 12.05.2020
3314 Clouds 9 1003 55 10000 3.6 150 14:36 12.05.2020
3315 Rain 9 1003 70 10000 3.1 130 14:18 12.05.2020
3316 Rain 8 1003 70 10000 3.1 130 13:54 12.05.2020
3317 Rain 7 1003 56 10000 5.7 170 13:36 12.05.2020
3318 Rain 8 1002 36 10000 3.1 290 13:18 12.05.2020
3319 Clouds 8 1002 34 10000 4.1 260 12:54 12.05.2020
3320 Clouds 8 1002 34 10000 4.1 260 12:36 12.05.2020
3321 Clouds 9 1002 34 10000 3.6 240 12:18 12.05.2020
3322 Clouds 10 1003 37 10000 4.1 240 11:55 12.05.2020
3323 Clouds 10 1003 37 10000 4.1 240 11:36 12.05.2020
3324 Clouds 9 1003 39 10000 3.1 200 11:18 12.05.2020
3325 Clouds 9 1003 39 10000 3.1 200 10:54 12.05.2020
3326 Clear 9 1003 42 10000 3.1 190 10:36 12.05.2020
3327 Clear 9 1003 49 10000 3.1 210 10:18 12.05.2020
3328 Clear 9 1003 49 10000 3.1 210 10:18 12.05.2020
3329 Clear 9 1003 49 10000 3.1 210 09:54 12.05.2020
3330 Clear 8 1004 52 10000 2.1 230 09:36 12.05.2020
3331 Clear 7 1004 56 10000 2.1 240 09:18 12.05.2020
3332 Clear 6 1004 56 10000 1.5 280 08:39 12.05.2020
3333 Clear 6 1004 56 10000 1.5 280 08:19 12.05.2020
3334 Clear 5 1004 64 10000 2.1 270 07:44 12.05.2020
3335 Clear 5 1004 71 10000 2.1 270 07:25 12.05.2020
3336 Clear 4 1004 71 10000 2.1 240 06:50 12.05.2020
3337 Clear 2 1004 78 10000 2.1 250 06:29 12.05.2020
3338 Clear 2 1004 78 10000 1.5 250 05:59 12.05.2020
3339 Clear 1 1004 78 10000 1.5 250 05:41 12.05.2020
3340 Clear 1 1004 84 10000 1.5 260 03:43 12.05.2020
3341 Clear 1 1004 82 10000 1.5 250 02:53 12.05.2020
3342 Clouds 1 1004 79 10000 1.5 260 02:25 12.05.2020
3343 Clouds 2 1004 77 10000 2.6 260 01:27 12.05.2020
3344 Clouds 1 1004 86 10000 1 240 00:37 12.05.2020
3345 Clouds 3 1004 80 10000 1.5 240 00:18 12.05.2020
3346 Clouds 3 1004 74 10000 2.1 260 23:42 11.05.2020
3347 Clouds 3 1004 74 10000 2.1 260 23:22 11.05.2020
3348 Clouds 4 1005 71 10000 5.7 320 22:59 11.05.2020
3349 Clouds 4 1005 71 10000 5.7 320 22:59 11.05.2020
3350 Clouds 4 1005 71 10000 3.1 280 22:41 11.05.2020
3351 Clouds 4 1005 65 10000 3.1 270 22:21 11.05.2020
3352 Clouds 4 1005 65 10000 3.1 270 21:59 11.05.2020
3353 Clouds 4 1005 65 10000 2.6 270 21:40 11.05.2020
3354 Clouds 5 1005 65 10000 2.6 270 21:20 11.05.2020
3355 Clouds 5 1005 65 10000 3.6 280 20:59 11.05.2020
3356 Clouds 5 1005 65 10000 3.6 280 20:59 11.05.2020
3357 Clouds 6 1005 65 10000 2.6 280 20:40 11.05.2020
3358 Clouds 6 1005 65 10000 2.6 280 20:21 11.05.2020
3359 Clouds 6 1005 65 10000 4.1 280 19:58 11.05.2020
3360 Clouds 7 1005 56 0 9.8 350 19:40 11.05.2020
3361 Clouds 7 1005 39 10000 5.7 290 19:21 11.05.2020
3362 Clouds 8 1005 39 10000 5.7 290 18:56 11.05.2020
3363 Clouds 8 1005 39 10000 7.2 280 18:37 11.05.2020
3364 Clouds 9 1005 36 10000 7.7 290 18:18 11.05.2020
3365 Clouds 8 1005 39 10000 8.2 290 17:55 11.05.2020
3366 Clouds 9 1005 39 10000 8.2 290 17:36 11.05.2020
3367 Clouds 9 1005 31 10000 7.7 290 17:18 11.05.2020
3368 Clouds 8 1005 36 10000 6.7 280 16:42 11.05.2020
3369 Clouds 8 1005 36 10000 6.7 280 16:22 11.05.2020
3370 Clouds 8 1005 36 10000 6.7 280 16:22 11.05.2020
3371 Clouds 8 1005 42 10000 5.7 290 15:58 11.05.2020
3372 Clouds 7 1005 39 10000 8.7 280 15:39 11.05.2020
3373 Clouds 7 1005 39 10000 8.7 280 15:19 11.05.2020
3374 Clouds 7 1005 36 10000 6.7 270 14:55 11.05.2020
3375 Clouds 8 1006 33 10000 6.7 290 14:37 11.05.2020
3376 Clouds 7 1006 36 10000 6.7 320 14:19 11.05.2020
3377 Clouds 7 1006 39 10000 6.2 320 13:42 11.05.2020
3378 Clear 7 1006 39 10000 6.2 320 13:22 11.05.2020
3379 Clear 7 1006 39 10000 6.2 320 13:22 11.05.2020
3380 Clear 7 1006 38 10000 6.7 320 12:58 11.05.2020
3381 Clear 6 1006 45 10000 6.7 310 12:40 11.05.2020
3382 Clear 6 1006 45 10000 6.7 310 12:22 11.05.2020
3383 Clouds 6 1006 48 10000 6.7 350 11:57 11.05.2020
3384 Clouds 6 1006 52 10000 5.7 330 11:38 11.05.2020
3385 Clouds 5 1006 52 10000 6.7 320 11:19 11.05.2020
3386 Clouds 5 1006 52 10000 6.7 320 10:55 11.05.2020
3387 Clouds 6 1006 60 10000 6.7 330 10:37 11.05.2020
3388 Clouds 5 1006 64 10000 6.2 330 10:18 11.05.2020
3389 Clouds 5 1006 64 10000 6.2 330 10:18 11.05.2020
3390 Clouds 4 1006 64 10000 6.2 330 09:55 11.05.2020
3391 Clouds 4 1006 69 10000 6.7 330 09:37 11.05.2020
3392 Clouds 4 1006 69 10000 6.7 330 09:37 11.05.2020
3393 Clouds 3 1006 69 10000 6.7 330 09:18 11.05.2020
3394 Clouds 3 1006 69 10000 7.2 330 08:40 11.05.2020
3395 Clouds 3 1006 69 10000 7.2 330 08:21 11.05.2020
3396 Clouds 3 1006 80 10000 6.7 330 07:54 11.05.2020
3397 Clouds 2 1005 80 10000 5.7 320 07:36 11.05.2020
3398 Clouds 2 1005 80 10000 5.7 320 07:18 11.05.2020
3399 Clouds 2 1005 80 10000 5.1 320 06:32 11.05.2020
3400 Clouds 2 1005 84 10000 5.7 330 05:44 11.05.2020
3401 Clouds 2 1004 86 10000 4.6 320 05:19 11.05.2020
3402 Drizzle 2 1004 100 10000 3.6 330 03:51 11.05.2020
3403 Rain 2 1005 100 10000 3.1 320 02:36 11.05.2020
3404 Rain 2 1004 93 10000 3.6 340 01:55 11.05.2020
3405 Rain 2 1004 100 5000 4.1 340 00:55 11.05.2020
3406 Rain 3 1004 93 5000 4.6 340 00:28 11.05.2020
3407 Drizzle 4 1004 100 10000 5.1 330 23:59 10.05.2020
3408 Rain 4 1003 93 10000 4.1 350 23:39 10.05.2020
3409 Rain 4 1003 93 10000 4.1 350 23:19 10.05.2020
3410 Drizzle 5 1003 93 10000 4.1 330 22:42 10.05.2020
3411 Drizzle 5 1003 93 10000 4.1 330 22:24 10.05.2020
3412 Drizzle 6 1003 93 10000 4.6 330 21:55 10.05.2020
3413 Rain 7 1002 93 10000 4.1 330 21:37 10.05.2020
3414 Rain 10 1001 93 10000 4.6 310 21:18 10.05.2020
3415 Drizzle 11 1001 87 10000 4.1 250 20:41 10.05.2020
3416 Drizzle 11 1001 87 10000 4.1 250 20:23 10.05.2020
3417 Clouds 11 1001 93 10000 4.6 260 19:56 10.05.2020
3418 Clouds 12 1001 93 10000 2.6 250 19:38 10.05.2020
3419 Clouds 12 1001 93 10000 3.1 270 19:20 10.05.2020
3420 Clouds 12 1001 93 10000 3.1 270 18:54 10.05.2020
3421 Clouds 12 1001 93 10000 3.1 270 18:54 10.05.2020
3422 Rain 12 1001 93 10000 3.6 270 18:36 10.05.2020
3423 Rain 12 1001 76 10000 3.6 210 18:18 10.05.2020
3424 Rain 13 1001 76 10000 3.6 210 17:56 10.05.2020
3425 Clouds 13 1001 76 10000 4.1 190 17:36 10.05.2020
3426 Clouds 13 1001 76 10000 4.1 190 17:18 10.05.2020
3427 Rain 14 1001 62 10000 7.7 190 16:43 10.05.2020
3428 Rain 14 1001 62 10000 7.7 190 16:21 10.05.2020
3429 Clouds 15 1001 59 10000 8.2 180 15:58 10.05.2020
3430 Clouds 15 1001 55 10000 8.2 180 15:38 10.05.2020
3431 Clouds 15 1001 55 10000 8.2 180 15:20 10.05.2020
3432 Clouds 15 1002 58 10000 5.1 220 14:55 10.05.2020
3433 Rain 15 1002 55 10000 7.2 190 14:37 10.05.2020
3434 Rain 15 1002 55 10000 7.2 190 14:18 10.05.2020
3435 Clouds 16 1002 55 10000 6.2 170 13:56 10.05.2020
3436 Clouds 16 1003 51 10000 6.7 180 13:36 10.05.2020
3437 Clouds 16 1003 51 10000 6.7 180 13:36 10.05.2020
3438 Clouds 15 1003 51 10000 6.7 190 13:18 10.05.2020
3439 Clouds 15 1003 51 10000 6.7 190 12:42 10.05.2020
3440 Clouds 15 1003 51 10000 6.7 190 12:22 10.05.2020
3441 Clouds 15 1004 44 10000 6.2 170 11:58 10.05.2020
3442 Clouds 15 1004 47 10000 5.7 190 11:40 10.05.2020
3443 Clouds 15 1004 47 10000 5.7 190 11:21 10.05.2020
3444 Clouds 14 1005 50 10000 5.1 200 10:54 10.05.2020
3445 Clouds 14 1005 50 10000 5.1 200 10:54 10.05.2020
3446 Clouds 14 1005 54 10000 5.1 200 10:36 10.05.2020
3447 Clouds 13 1005 54 10000 5.1 200 10:18 10.05.2020
3448 Clouds 13 1005 58 10000 4.1 180 10:18 10.05.2020
3449 Clouds 12 1005 66 10000 3.6 170 09:41 10.05.2020
3450 Clouds 12 1005 66 10000 3.6 170 09:41 10.05.2020
3451 Clouds 12 1005 66 10000 3.6 170 09:23 10.05.2020
3452 Clouds 10 1006 76 10000 3.1 170 08:55 10.05.2020
3453 Clouds 10 1006 81 10000 3.6 160 08:37 10.05.2020
3454 Clouds 9 1006 81 10000 3.6 170 08:19 10.05.2020
3455 Clouds 8 1007 87 10000 4.1 170 07:38 10.05.2020
3456 Clouds 8 1007 87 10000 3.6 170 07:19 10.05.2020
3457 Clouds 8 1007 87 10000 3.6 170 06:50 10.05.2020
3458 Clouds 8 1007 81 10000 4.6 160 06:23 10.05.2020
3459 Clouds 7 1008 87 10000 4.1 140 05:45 10.05.2020
3460 Clouds 6 1009 87 10000 3.6 140 04:45 10.05.2020
3461 Clouds 6 1009 87 10000 3.6 140 04:25 10.05.2020
3462 Clouds 5 1010 86 10000 3.6 140 03:44 10.05.2020
3463 Clear 5 1010 86 10000 2.6 150 02:59 10.05.2020
3464 Clear 5 1010 80 10000 3.1 130 02:25 10.05.2020
3465 Clear 5 1011 80 10000 3.1 140 01:57 10.05.2020
3466 Clear 5 1011 75 10000 4.1 140 01:39 10.05.2020
3467 Clear 5 1011 70 10000 4.1 140 01:18 10.05.2020
3468 Clear 5 1011 70 10000 4.1 140 00:52 10.05.2020
3469 Clear 5 1011 70 10000 3.6 130 00:20 10.05.2020
3470 Clear 6 1012 79 10000 4.1 130 23:40 09.05.2020
3471 Clear 5 1012 60 10000 4.6 130 23:21 09.05.2020
3472 Clear 5 1012 60 10000 4.6 130 22:57 09.05.2020
3473 Clear 5 1012 60 10000 4.6 130 22:57 09.05.2020
3474 Clear 5 1013 56 10000 4.1 140 22:39 09.05.2020
3475 Clear 5 1013 56 10000 4.1 140 22:21 09.05.2020
3476 Clear 6 1013 48 10000 5.1 130 21:56 09.05.2020
3477 Clear 7 1013 42 10000 4.1 140 21:37 09.05.2020
3478 Clear 7 1013 42 10000 4.1 140 21:37 09.05.2020
3479 Clouds 7 1013 39 10000 5.1 140 21:19 09.05.2020
3480 Clouds 7 1013 39 10000 5.1 140 20:56 09.05.2020
3481 Clouds 8 1013 42 10000 5.7 130 20:37 09.05.2020
3482 Clouds 9 1013 43 10000 5.7 110 20:18 09.05.2020
3483 Clouds 10 1013 39 10000 5.7 120 19:40 09.05.2020
3484 Clouds 10 1013 39 10000 5.1 140 19:20 09.05.2020
3485 Clouds 10 1013 39 10000 5.1 140 18:58 09.05.2020
3486 Clouds 11 1013 40 10000 7.2 120 18:40 09.05.2020
3487 Clouds 11 1013 40 10000 7.2 120 18:19 09.05.2020
3488 Clouds 12 1013 34 10000 6.2 120 17:44 09.05.2020
3489 Clouds 12 1013 34 10000 6.2 120 17:23 09.05.2020
3490 Clouds 12 1013 37 10000 6.2 120 16:55 09.05.2020
3491 Clouds 13 1013 35 10000 4.6 130 16:37 09.05.2020
3492 Clouds 13 1013 35 10000 5.7 110 16:18 09.05.2020
3493 Clouds 13 1014 37 10000 4.1 100 15:40 09.05.2020
3494 Clouds 13 1014 47 10000 3.6 100 15:21 09.05.2020
3495 Clouds 13 1014 47 10000 3.6 100 14:43 09.05.2020
3496 Clouds 13 1014 46 10000 3.6 100 14:20 09.05.2020
3497 Clouds 13 1014 40 10000 3.1 120 13:59 09.05.2020
3498 Clouds 13 1014 46 10000 4.1 120 13:41 09.05.2020
3499 Clouds 13 1014 44 10000 4.1 120 13:21 09.05.2020
3500 Clouds 12 1014 44 10000 3.6 90 12:57 09.05.2020
3501 Clouds 12 1014 44 10000 3.6 90 12:57 09.05.2020
3502 Clouds 12 1014 44 10000 3.6 120 12:39 09.05.2020
3503 Clouds 12 1014 44 10000 3.6 120 12:39 09.05.2020
3504 Clouds 11 1014 50 10000 4.1 140 12:21 09.05.2020
3505 Clouds 11 1014 50 10000 3.1 110 11:43 09.05.2020
3506 Clouds 11 1014 50 10000 3.1 110 11:20 09.05.2020
3507 Clouds 11 1014 44 10000 2.6 70 10:48 09.05.2020
3508 Clouds 10 1014 47 10000 2.6 70 10:27 09.05.2020
3509 Clouds 9 1014 47 10000 2.6 20 09:59 09.05.2020
3510 Clouds 9 1014 48 10000 3.1 50 09:40 09.05.2020
3511 Clear 9 1013 52 10000 3.6 70 09:19 09.05.2020
3512 Clear 10 1013 52 10000 3.6 70 08:52 09.05.2020
3513 Clear 9 1013 52 10000 4.1 40 08:33 09.05.2020
3514 Clear 9 1013 52 10000 4.1 40 08:33 09.05.2020
3515 Clouds 9 1013 58 10000 4.6 50 07:55 09.05.2020
3516 Clouds 8 1013 58 10000 3.1 40 07:36 09.05.2020
3517 Clouds 8 1013 61 10000 3.1 40 07:18 09.05.2020
3518 Clouds 7 1012 64 10000 2.6 20 06:26 09.05.2020
3519 Clouds 7 1012 64 10000 2.6 20 05:49 09.05.2020
3520 Clouds 6 1011 67 10000 3.6 30 04:53 09.05.2020
3521 Clouds 4 1010 80 10000 0.5 0 03:39 09.05.2020
3522 Clouds 4 1010 86 10000 2.86 351 02:50 09.05.2020
3523 Clouds 5 1009 80 10000 2.58 346 01:54 09.05.2020
3524 Clouds 7 1009 75 10000 0.5 280 01:27 09.05.2020
3525 Clouds 8 1009 70 10000 1 0 00:59 09.05.2020
3526 Clouds 8 1009 61 10000 2.6 250 00:38 09.05.2020
3527 Clouds 9 1008 57 10000 2.1 260 23:58 08.05.2020
3528 Clouds 10 1008 53 10000 2.6 260 23:39 08.05.2020
3529 Clouds 10 1008 53 10000 2.6 260 23:19 08.05.2020
3530 Clouds 10 1008 53 10000 3.1 240 22:54 08.05.2020
3531 Clouds 10 1008 53 10000 3.6 240 22:36 08.05.2020
3532 Clouds 11 1008 50 10000 3.1 240 22:18 08.05.2020
3533 Clouds 11 1008 50 10000 3.1 240 22:18 08.05.2020
3534 Clouds 11 1008 50 10000 3.1 240 21:54 08.05.2020
3535 Clouds 12 1007 50 10000 3.6 240 21:36 08.05.2020
3536 Clouds 12 1007 47 10000 3.1 240 21:18 08.05.2020
3537 Clouds 13 1007 47 10000 2.6 230 20:41 08.05.2020
3538 Clouds 13 1007 47 10000 2.6 230 20:23 08.05.2020
3539 Clouds 14 1007 44 10000 4.1 240 19:56 08.05.2020
3540 Clouds 14 1007 47 10000 4.1 250 19:37 08.05.2020
3541 Clouds 14 1006 47 10000 4.6 250 19:19 08.05.2020
3542 Clouds 14 1006 47 10000 6.2 260 18:44 08.05.2020
3543 Clouds 14 1006 47 10000 6.2 260 18:26 08.05.2020
3544 Clouds 15 1006 44 10000 7.2 270 17:43 08.05.2020
3545 Clouds 15 1006 44 10000 7.2 270 17:20 08.05.2020
3546 Clouds 15 1006 44 10000 8.7 290 16:55 08.05.2020
3547 Clouds 15 1006 44 10000 7.7 280 16:37 08.05.2020
3548 Clouds 15 1006 44 10000 7.2 270 16:18 08.05.2020
3549 Clouds 15 1006 44 10000 6.7 270 15:42 08.05.2020
3550 Clouds 15 1006 47 10000 6.7 250 15:20 08.05.2020
3551 Clouds 15 1006 47 10000 6.7 250 14:56 08.05.2020
3552 Clouds 15 1006 47 10000 6.7 250 14:56 08.05.2020
3553 Clouds 15 1006 47 10000 7.2 230 14:37 08.05.2020
3554 Clouds 15 1006 47 10000 7.2 230 14:18 08.05.2020
3555 Clouds 14 1006 54 10000 5.1 210 13:41 08.05.2020
3556 Clouds 14 1006 54 10000 5.1 210 13:41 08.05.2020
3557 Clouds 15 1006 54 10000 5.1 210 13:20 08.05.2020
3558 Clouds 14 1006 62 10000 5.1 140 12:59 08.05.2020
3559 Clouds 13 1007 54 10000 5.7 190 12:38 08.05.2020
3560 Clouds 13 1007 54 10000 5.7 190 12:20 08.05.2020
3561 Clouds 12 1007 50 10000 6.2 170 11:44 08.05.2020
3562 Clouds 13 1007 50 10000 6.2 170 11:23 08.05.2020
3563 Clouds 12 1008 58 10000 5.1 190 10:59 08.05.2020
3564 Clouds 12 1008 62 10000 4.1 180 10:40 08.05.2020
3565 Clouds 11 1009 58 10000 4.1 170 10:19 08.05.2020
3566 Clouds 12 1009 58 10000 4.1 170 09:56 08.05.2020
3567 Clouds 11 1009 54 10000 3.6 150 09:38 08.05.2020
3568 Clouds 11 1010 62 10000 3.6 180 09:18 08.05.2020
3569 Clouds 9 1010 61 10000 2.1 170 08:42 08.05.2020
3570 Clouds 9 1010 61 10000 2.1 170 08:22 08.05.2020
3571 Clouds 9 1010 75 10000 1 0 07:43 08.05.2020
3572 Clouds 8 1010 75 10000 1 0 07:24 08.05.2020
3573 Clouds 7 1011 75 10000 1.5 150 06:51 08.05.2020
3574 Clouds 7 1011 75 10000 1.5 150 06:23 08.05.2020
3575 Clouds 5 1011 80 10000 2.1 170 05:42 08.05.2020
3576 Clouds 4 1012 80 10000 1.5 190 04:38 08.05.2020
3577 Clouds 5 1013 70 10000 1.5 190 02:34 08.05.2020
3578 Clouds 5 1013 70 10000 2.6 180 01:53 08.05.2020
3579 Clouds 5 1013 70 10000 2.1 200 01:28 08.05.2020
3580 Clouds 5 1013 70 10000 2.1 190 00:52 08.05.2020
3581 Clouds 5 1014 65 10000 1.5 190 00:30 08.05.2020
3582 Clouds 5 1014 65 10000 1 190 23:59 07.05.2020
3583 Clouds 5 1014 65 10000 1 190 23:59 07.05.2020
3584 Clouds 5 1014 65 10000 1.5 160 23:40 07.05.2020
3585 Clouds 6 1014 65 10000 1.5 160 23:21 07.05.2020
3586 Clouds 6 1014 63 10000 1 190 22:56 07.05.2020
3587 Clouds 7 1014 63 10000 1.5 200 22:38 07.05.2020
3588 Clouds 7 1014 63 10000 1.5 200 22:38 07.05.2020
3589 Clear 7 1014 63 10000 1.5 180 22:19 07.05.2020
3590 Clear 9 1014 63 10000 1.5 180 21:55 07.05.2020
3591 Clear 9 1014 49 10000 1 200 21:36 07.05.2020
3592 Clear 9 1014 49 10000 1 200 21:18 07.05.2020
3593 Clear 11 1014 37 10000 3.6 240 20:42 07.05.2020
3594 Clouds 12 1014 37 10000 3.6 240 20:23 07.05.2020
3595 Clouds 12 1014 37 10000 3.6 230 19:56 07.05.2020
3596 Clouds 12 1014 34 10000 4.1 230 19:38 07.05.2020
3597 Clouds 12 1014 32 10000 4.6 240 19:19 07.05.2020
3598 Clouds 12 1014 34 10000 4.6 240 18:44 07.05.2020
3599 Clouds 12 1014 34 10000 4.6 240 18:26 07.05.2020
3600 Clouds 12 1015 34 10000 5.7 250 17:44 07.05.2020
3601 Clouds 12 1015 34 10000 5.7 250 17:22 07.05.2020
3602 Clouds 12 1015 34 10000 5.7 270 17:00 07.05.2020
3603 Clouds 11 1015 34 10000 6.2 280 16:40 07.05.2020
3604 Clouds 12 1015 34 10000 6.2 270 16:18 07.05.2020
3605 Clouds 12 1015 34 10000 6.2 270 15:56 07.05.2020
3606 Clouds 12 1015 34 10000 5.1 260 15:37 07.05.2020
3607 Clouds 12 1015 37 10000 5.7 270 15:18 07.05.2020
3608 Clouds 11 1015 40 10000 5.1 260 14:44 07.05.2020
3609 Clouds 11 1015 40 10000 5.1 260 14:21 07.05.2020
3610 Clouds 11 1015 43 10000 5.7 260 13:45 07.05.2020
3611 Clouds 11 1015 43 10000 5.7 260 13:26 07.05.2020
3612 Clouds 11 1015 43 10000 6.2 260 12:55 07.05.2020
3613 Clouds 10 1016 43 10000 6.7 280 12:37 07.05.2020
3614 Clouds 10 1015 46 10000 4.6 280 12:18 07.05.2020
3615 Clouds 10 1015 45 10000 4.1 290 11:39 07.05.2020
3616 Clouds 10 1015 45 10000 4.1 290 11:21 07.05.2020
3617 Clouds 9 1015 49 10000 2.6 310 10:44 07.05.2020
3618 Clouds 9 1015 49 10000 2.6 310 10:25 07.05.2020
3619 Clouds 9 1015 52 10000 4.1 330 09:56 07.05.2020
3620 Clouds 9 1015 52 10000 4.1 330 09:38 07.05.2020
3621 Clear 8 1015 56 10000 4.6 330 09:18 07.05.2020
3622 Clear 8 1015 56 10000 4.6 330 09:18 07.05.2020
3623 Clear 7 1015 56 10000 5.1 340 08:42 07.05.2020
3624 Clear 7 1015 56 10000 5.1 340 08:22 07.05.2020
3625 Clear 7 1015 60 10000 5.1 330 07:57 07.05.2020
3626 Clear 7 1015 60 10000 5.1 330 07:57 07.05.2020
3627 Clear 7 1015 56 10000 5.1 330 07:39 07.05.2020
3628 Clear 6 1015 56 10000 5.1 330 07:18 07.05.2020
3629 Clear 6 1015 65 10000 4.6 330 06:37 07.05.2020
3630 Clear 5 1014 65 10000 3.6 320 05:47 07.05.2020
3631 Clouds 4 1014 69 10000 2.6 290 04:27 07.05.2020
3632 Clouds 5 1013 72 10000 1.5 300 03:29 07.05.2020
3633 Clouds 5 1013 75 10000 1.5 270 02:59 07.05.2020
3634 Clouds 5 1013 70 10000 2.1 280 02:24 07.05.2020
3635 Clouds 5 1013 75 10000 2.1 290 01:25 07.05.2020
3636 Clouds 7 1013 70 10000 1.5 290 00:51 07.05.2020
3637 Clouds 7 1013 75 10000 1.5 280 00:30 07.05.2020
3638 Clouds 8 1013 65 10000 2.1 280 23:58 06.05.2020
3639 Clouds 8 1012 61 10000 2.6 270 23:38 06.05.2020
3640 Clouds 8 1012 61 10000 2.6 260 23:19 06.05.2020
3641 Clouds 9 1012 61 10000 2.6 260 22:54 06.05.2020
3642 Clouds 9 1012 57 10000 3.6 230 22:36 06.05.2020
3643 Clouds 9 1013 57 10000 4.6 270 22:18 06.05.2020
3644 Clouds 9 1013 61 10000 1.5 0 21:42 06.05.2020
3645 Rain 9 1013 61 10000 1.5 0 21:22 06.05.2020
3646 Rain 10 1013 61 10000 4.1 20 20:56 06.05.2020
3647 Rain 10 1012 53 10000 3.1 50 20:37 06.05.2020
3648 Rain 10 1011 50 10000 4.1 80 20:19 06.05.2020
3649 Rain 11 1011 50 10000 4.1 80 19:56 06.05.2020
3650 Rain 11 1011 43 10000 4.1 340 19:37 06.05.2020
3651 Clouds 12 1011 41 10000 2.1 330 19:18 06.05.2020
3652 Clouds 11 1011 41 10000 2.1 330 19:18 06.05.2020
3653 Clouds 13 1011 41 10000 3.1 310 18:55 06.05.2020
3654 Clouds 14 1011 41 10000 3.1 310 18:36 06.05.2020
3655 Clouds 14 1011 41 10000 4.6 330 18:18 06.05.2020
3656 Clouds 14 1011 41 10000 4.6 330 17:54 06.05.2020
3657 Clouds 14 1011 41 10000 3.6 310 17:36 06.05.2020
3658 Clouds 15 1011 41 10000 3.6 310 17:18 06.05.2020
3659 Clouds 15 1011 38 10000 4.1 280 16:56 06.05.2020
3660 Clouds 15 1011 38 10000 4.1 290 16:38 06.05.2020
3661 Clouds 15 1011 38 10000 3.6 290 16:19 06.05.2020
3662 Clouds 14 1011 41 10000 4.1 260 15:45 06.05.2020
3663 Clouds 14 1012 39 10000 4.6 260 15:22 06.05.2020
3664 Clouds 13 1012 39 10000 4.6 260 14:56 06.05.2020
3665 Clouds 13 1012 39 10000 4.6 270 14:38 06.05.2020
3666 Clouds 13 1012 39 10000 4.6 270 14:19 06.05.2020
3667 Clouds 13 1012 39 10000 5.1 270 13:57 06.05.2020
3668 Clouds 13 1012 37 10000 5.7 290 13:37 06.05.2020
3669 Clouds 13 1012 37 10000 5.7 290 13:18 06.05.2020
3670 Clouds 12 1013 42 10000 4.6 270 12:42 06.05.2020
3671 Clouds 13 1013 41 10000 4.6 270 12:24 06.05.2020
3672 Clouds 12 1013 41 10000 4.1 270 11:41 06.05.2020
3673 Clouds 12 1013 43 10000 4.1 270 11:22 06.05.2020
3674 Clouds 12 1013 50 10000 4.6 240 10:58 06.05.2020
3675 Clouds 12 1013 46 10000 4.6 230 10:39 06.05.2020
3676 Clouds 12 1013 46 10000 4.6 230 10:19 06.05.2020
3677 Clouds 12 1013 50 10000 3.6 250 09:56 06.05.2020
3678 Clouds 11 1014 53 10000 4.6 250 09:36 06.05.2020
3679 Clouds 9 1014 61 10000 3.6 240 09:18 06.05.2020
3680 Clouds 9 1014 70 10000 2.1 230 08:41 06.05.2020
3681 Clouds 8 1014 75 10000 2.1 240 08:20 06.05.2020
3682 Clouds 8 1014 75 10000 2.1 240 07:55 06.05.2020
3683 Clouds 8 1014 75 10000 2.1 240 07:36 06.05.2020
3684 Clouds 7 1014 75 10000 2.1 240 07:18 06.05.2020
3685 Clouds 6 1015 87 10000 1 0 07:18 06.05.2020
3686 Clouds 5 1015 100 10000 0.5 200 06:43 06.05.2020
3687 Clouds 4 1015 93 10000 2.74 266 06:19 06.05.2020
3688 Clouds 3 1015 100 10000 2.74 266 05:37 06.05.2020
3689 Clouds 3 1016 100 10000 2.6 268 04:50 06.05.2020
3690 Clouds 2 1016 100 10000 2.62 265 03:50 06.05.2020
3691 Clouds 3 1016 93 10000 2.5 248 03:24 06.05.2020
3692 Clouds 3 1017 93 10000 2.5 248 02:43 06.05.2020
3693 Clouds 3 1017 86 10000 2.01 231 02:20 06.05.2020
3694 Clouds 4 1017 86 10000 2.01 231 01:42 06.05.2020
3695 Clouds 4 1017 86 10000 1.51 234 00:57 06.05.2020
3696 Clouds 4 1017 80 10000 1.51 234 00:37 06.05.2020
3697 Clouds 4 1017 80 10000 0.71 224 00:18 06.05.2020
3698 Clouds 4 1018 80 10000 0.71 224 23:40 05.05.2020
3699 Clouds 4 1018 80 10000 0.55 109 23:19 05.05.2020
3700 Clouds 5 1018 80 10000 0.55 109 22:54 05.05.2020
3701 Clouds 5 1018 70 10000 0.55 109 22:36 05.05.2020
3702 Clouds 6 1018 70 10000 0.9 90 22:18 05.05.2020
3703 Clouds 7 1018 57 10000 1 80 21:41 05.05.2020
3704 Clear 9 1017 64 10000 2.1 130 21:21 05.05.2020
3705 Clear 9 1017 64 10000 2.1 130 20:59 05.05.2020
3706 Clear 10 1017 50 10000 2.1 90 20:40 05.05.2020
3707 Clouds 11 1017 50 10000 2.1 90 20:19 05.05.2020
3708 Clouds 12 1017 50 10000 2.1 120 19:59 05.05.2020
3709 Clouds 12 1017 46 10000 1.5 0 19:37 05.05.2020
3710 Clouds 12 1017 46 10000 1 0 19:19 05.05.2020
3711 Clouds 12 1017 46 10000 1 0 18:56 05.05.2020
3712 Clouds 12 1018 46 10000 1.5 0 18:38 05.05.2020
3713 Clouds 12 1018 46 10000 1.5 0 18:38 05.05.2020
3714 Clouds 12 1018 50 10000 2.1 90 18:19 05.05.2020
3715 Clouds 13 1018 54 10000 2.1 80 17:44 05.05.2020
3716 Clouds 12 1018 54 10000 2.1 80 17:25 05.05.2020
3717 Clouds 13 1018 50 10000 2.1 70 16:58 05.05.2020
3718 Clouds 12 1018 54 10000 2.1 100 16:37 05.05.2020
3719 Clouds 12 1018 50 10000 2.6 80 16:18 05.05.2020
3720 Clouds 12 1018 50 10000 2.6 80 15:56 05.05.2020
3721 Clouds 12 1018 50 10000 2.6 30 15:38 05.05.2020
3722 Clouds 12 1018 50 10000 2.6 30 15:19 05.05.2020
3723 Clouds 12 1018 50 10000 2.6 40 14:54 05.05.2020
3724 Clouds 12 1018 53 10000 3.1 40 14:36 05.05.2020
3725 Clouds 12 1018 53 10000 2.6 10 14:18 05.05.2020
3726 Clouds 11 1018 71 10000 1.5 0 13:54 05.05.2020
3727 Clouds 11 1018 71 10000 1.5 0 13:36 05.05.2020
3728 Clouds 10 1018 76 10000 1 0 13:18 05.05.2020
3729 Clouds 9 1018 75 10000 1.5 30 12:40 05.05.2020
3730 Clouds 9 1018 75 10000 1.5 30 12:22 05.05.2020
3731 Clouds 8 1018 81 10000 2.6 30 11:59 05.05.2020
3732 Clouds 8 1018 81 10000 2.6 30 11:59 05.05.2020
3733 Clouds 8 1018 81 10000 2.6 40 11:40 05.05.2020
3734 Clouds 7 1018 75 10000 3.1 20 11:19 05.05.2020
3735 Clouds 7 1018 75 10000 3.1 20 10:54 05.05.2020
3736 Clouds 7 1018 81 10000 3.1 20 10:36 05.05.2020
3737 Clouds 7 1018 75 10000 3.1 20 10:18 05.05.2020
3738 Clouds 7 1017 81 10000 3.6 30 09:44 05.05.2020
3739 Clouds 6 1017 81 10000 3.6 30 09:25 05.05.2020
3740 Clouds 6 1017 75 10000 3.6 30 08:56 05.05.2020
3741 Clouds 5 1017 80 10000 3.6 20 08:37 05.05.2020
3742 Clouds 5 1017 75 10000 3.1 30 08:18 05.05.2020
3743 Clouds 5 1017 80 10000 3.6 10 07:43 05.05.2020
3744 Clouds 5 1017 80 10000 3.6 10 07:19 05.05.2020
3745 Clouds 5 1017 75 10000 4.1 20 06:51 05.05.2020
3746 Clouds 5 1016 75 10000 3.6 10 06:30 05.05.2020
3747 Clouds 4 1010 84 0 0.89 45 05:51 05.05.2020
3748 Clouds 4 1016 80 10000 3.1 360 04:54 05.05.2020
3749 Clouds 4 1016 86 10000 3.1 10 02:37 05.05.2020
3750 Clouds 4 1016 86 10000 3.1 350 00:56 05.05.2020
3751 Clouds 4 1016 86 10000 3.6 350 00:28 05.05.2020
3752 Clouds 4 1016 86 10000 3.6 340 23:48 04.05.2020
3753 Clouds 4 1016 86 10000 3.6 340 23:48 04.05.2020
3754 Clouds 4 1016 86 10000 3.6 340 23:26 04.05.2020
3755 Clouds 4 1016 86 10000 2.6 10 22:58 04.05.2020
3756 Clouds 4 1015 86 10000 4.6 350 22:40 04.05.2020
3757 Clouds 4 1015 86 10000 4.6 350 22:21 04.05.2020
3758 Clouds 4 1015 86 10000 2.6 20 21:57 04.05.2020
3759 Clouds 4 1015 86 10000 2.6 20 21:57 04.05.2020
3760 Clouds 4 1015 86 10000 3.6 20 21:37 04.05.2020
3761 Clouds 5 1015 86 10000 3.6 20 21:19 04.05.2020
3762 Clouds 5 1015 86 10000 4.6 360 20:41 04.05.2020
3763 Clouds 5 1015 86 10000 4.6 360 20:41 04.05.2020
3764 Clouds 5 1015 86 10000 4.6 360 20:41 04.05.2020
3765 Clouds 5 1015 86 10000 4.6 360 20:41 04.05.2020
3766 Clouds 5 1015 86 10000 4.6 360 20:41 04.05.2020
3767 Clouds 5 1015 86 10000 4.6 360 20:20 04.05.2020
3768 Clouds 6 1014 87 10000 4.1 350 19:55 04.05.2020
3769 Clouds 6 1014 87 10000 3.1 360 19:37 04.05.2020
3770 Clouds 6 1014 87 10000 3.1 360 19:18 04.05.2020
3771 Clouds 6 1014 93 10000 3.6 360 18:39 04.05.2020
3772 Clouds 6 1014 93 10000 3.6 360 18:39 04.05.2020
3773 Clouds 7 1014 93 10000 3.6 360 18:20 04.05.2020
3774 Clouds 7 1014 87 10000 4.1 340 17:56 04.05.2020
3775 Clouds 7 1013 93 10000 5.1 350 17:38 04.05.2020
3776 Clouds 7 1013 100 10000 3.6 360 17:19 04.05.2020
3777 Thunderstorm 7 1013 93 10000 3.6 30 16:44 04.05.2020
3778 Thunderstorm 7 1013 93 10000 3.6 30 16:44 04.05.2020
3779 Thunderstorm 7 1013 93 10000 3.6 30 16:23 04.05.2020
3780 Thunderstorm 6 1013 87 10000 3.6 330 15:58 04.05.2020
3781 Thunderstorm 6 1013 87 10000 4.1 340 15:40 04.05.2020
3782 Rain 7 1013 87 10000 1.5 310 15:21 04.05.2020
3783 Rain 7 1013 87 10000 1.5 310 14:48 04.05.2020
3784 Clouds 8 1012 93 10000 4.6 20 14:20 04.05.2020
3785 Rain 6 1012 93 10000 3.1 20 13:21 04.05.2020
3786 Rain 6 1012 93 10000 3.1 20 13:21 04.05.2020
3787 Rain 6 1012 93 10000 3.1 20 13:21 04.05.2020
3788 Rain 10 1011 66 10000 4.1 100 12:44 04.05.2020
3789 Rain 10 1011 66 10000 4.1 100 12:44 04.05.2020
3790 Rain 10 1011 66 10000 4.1 100 12:44 04.05.2020
3791 Thunderstorm 10 1011 66 10000 4.1 100 12:44 04.05.2020
3792 Clouds 11 1011 66 10000 3.6 100 11:01 04.05.2020
3793 Clouds 9 1011 71 10000 3.1 80 09:27 04.05.2020
3794 Clouds 9 1011 71 10000 3.1 80 09:27 04.05.2020
3795 Clouds 9 1011 71 10000 3.1 80 09:26 04.05.2020
3796 Clouds 8 1011 81 10000 2.6 50 07:53 04.05.2020
3797 Clouds 7 1011 100 10000 1.5 0 07:33 04.05.2020
3798 Clouds 7 1011 100 10000 1.5 0 07:33 04.05.2020
3799 Clouds 7 1011 100 10000 1.5 0 07:33 04.05.2020
3800 Fog 4 1010 100 100 1.82 23 05:24 04.05.2020
3801 Fog 4 1010 100 2000 1.82 23 04:49 04.05.2020
3802 Clouds 5 1010 93 10000 1.71 310 02:42 04.05.2020
3803 Clouds 6 1009 93 10000 0.1 17 01:22 04.05.2020
3804 Clouds 7 1009 100 10000 2.6 210 23:59 03.05.2020
3805 Clouds 6 1009 100 10000 1.5 190 23:41 03.05.2020
3806 Rain 6 1009 100 10000 1.5 190 23:23 03.05.2020
3807 Rain 6 1009 100 10000 0.67 140 22:43 03.05.2020
3808 Rain 7 1009 100 10000 1.57 162 22:24 03.05.2020
3809 Rain 7 1008 93 10000 1.57 162 21:42 03.05.2020
3810 Rain 8 1008 93 10000 2.04 172 21:22 03.05.2020
3811 Rain 9 1008 87 10000 0.5 210 20:56 03.05.2020
3812 Rain 10 1008 81 10000 1.5 0 20:38 03.05.2020
3813 Rain 11 1008 81 10000 1.5 0 20:20 03.05.2020
3814 Rain 10 1008 87 10000 3.1 140 19:47 03.05.2020
3815 Rain 10 1008 87 10000 3.1 140 19:27 03.05.2020
3816 Rain 10 1008 87 10000 3.1 140 19:27 03.05.2020
3817 Rain 10 1008 87 10000 3.1 140 19:27 03.05.2020
3818 Rain 10 1008 87 10000 2.1 40 18:40 03.05.2020
3819 Rain 10 1008 87 10000 2.1 40 18:21 03.05.2020
3820 Rain 11 1009 87 10000 6.2 290 17:59 03.05.2020
3821 Clouds 13 1008 66 10000 1.5 230 17:40 03.05.2020
3822 Clouds 13 1008 66 10000 1.5 230 17:21 03.05.2020
3823 Rain 12 1008 66 10000 4.6 220 16:45 03.05.2020
3824 Rain 12 1008 66 10000 4.6 220 16:45 03.05.2020
3825 Rain 12 1008 66 10000 4.6 220 16:20 03.05.2020
3826 Clouds 13 1007 62 10000 3.1 180 15:58 03.05.2020
3827 Rain 14 1007 58 10000 1.5 160 15:39 03.05.2020
3828 Clouds 12 1007 66 10000 1 0 15:20 03.05.2020
3829 Clouds 12 1007 66 10000 1 0 14:57 03.05.2020
3830 Rain 10 1007 87 10000 4.6 270 14:38 03.05.2020
3831 Rain 11 1007 66 10000 9.3 270 14:20 03.05.2020
3832 Clouds 12 1006 54 10000 6.2 270 13:43 03.05.2020
3833 Rain 14 1006 54 10000 4.1 270 12:59 03.05.2020
3834 Rain 14 1006 54 10000 4.1 270 12:59 03.05.2020
3835 Rain 14 1006 54 10000 4.1 270 12:59 03.05.2020
3836 Rain 14 1006 47 10000 3.1 280 12:39 03.05.2020
3837 Rain 14 1006 47 10000 3.1 280 12:18 03.05.2020
3838 Rain 14 1006 50 10000 2.6 290 11:55 03.05.2020
3839 Rain 14 1006 47 10000 1.5 150 11:37 03.05.2020
3840 Rain 13 1006 54 10000 1.5 0 11:18 03.05.2020
3841 Rain 13 1006 54 10000 2.1 270 10:39 03.05.2020
3842 Rain 13 1006 54 10000 2.1 270 10:39 03.05.2020
3843 Rain 13 1006 54 10000 2.1 270 10:39 03.05.2020
3844 Rain 13 1006 54 10000 2.1 270 10:39 03.05.2020
3845 Rain 13 1006 54 10000 2.1 270 10:39 03.05.2020
3846 Rain 12 1006 66 10000 0.5 0 09:48 03.05.2020
3847 Rain 12 1006 66 10000 0.5 0 09:48 03.05.2020
3848 Rain 12 1006 66 10000 0.5 0 09:48 03.05.2020
3849 Rain 12 1006 66 10000 0.5 0 09:48 03.05.2020
3850 Rain 12 1006 66 10000 0.5 0 09:48 03.05.2020
3851 Rain 10 1006 81 10000 1.5 250 09:27 03.05.2020
3852 Rain 10 1006 81 10000 1.5 250 09:27 03.05.2020
3853 Rain 9 1005 87 10000 1.5 250 08:42 03.05.2020
3854 Rain 9 1005 87 10000 1.5 250 08:42 03.05.2020
3855 Clouds 8 1005 93 10000 1 0 08:19 03.05.2020
3856 Clouds 8 1005 93 10000 1 0 08:19 03.05.2020
3857 Clouds 8 1005 93 10000 1 0 08:19 03.05.2020
3858 Clouds 8 1005 93 10000 1 0 08:19 03.05.2020
3859 Clouds 8 1005 93 10000 1 0 07:38 03.05.2020
3860 Clouds 6 1004 100 10000 1.92 245 06:18 03.05.2020
3861 Clouds 6 1004 100 10000 1.92 245 05:44 03.05.2020
3862 Clouds 7 1004 93 10000 1.45 234 04:29 03.05.2020
3863 Clouds 7 1004 93 10000 1.45 234 03:58 03.05.2020
3864 Clouds 7 1004 93 10000 1.5 250 02:47 03.05.2020
3865 Rain 7 1004 93 10000 1 0 02:22 03.05.2020
3866 Drizzle 7 1004 87 10000 1.76 222 01:41 03.05.2020
3867 Drizzle 7 1004 87 10000 1.61 223 01:23 03.05.2020
3868 Clouds 8 1004 87 10000 1 210 00:40 03.05.2020
3869 Clouds 8 1004 87 10000 1 210 00:21 03.05.2020
3870 Clouds 8 1003 81 10000 1.5 250 23:55 02.05.2020
3871 Clouds 9 1003 81 10000 1 240 23:37 02.05.2020
3872 Clouds 9 1003 81 10000 1 240 23:18 02.05.2020
3873 Clouds 9 1003 71 10000 1.5 220 22:41 02.05.2020
3874 Clouds 9 1003 71 10000 1.5 220 22:22 02.05.2020
3875 Clouds 9 1003 71 10000 2.1 180 21:55 02.05.2020
3876 Clouds 10 1003 71 10000 2.6 200 21:37 02.05.2020
3877 Clouds 10 1003 71 10000 2.6 200 21:18 02.05.2020
3878 Clouds 11 1003 58 10000 1.98 189 20:54 02.05.2020
3879 Clouds 11 1003 62 10000 1.5 320 20:36 02.05.2020
3880 Clouds 12 1003 62 10000 1.5 340 20:18 02.05.2020
3881 Clouds 12 1002 54 10000 1.5 280 19:39 02.05.2020
3882 Clouds 12 1002 58 10000 2.6 270 19:21 02.05.2020
3883 Clouds 12 1002 58 10000 2.6 270 18:59 02.05.2020
3884 Clouds 12 1002 54 10000 3.1 270 18:39 02.05.2020
3885 Clouds 13 1002 58 10000 2.1 250 18:21 02.05.2020
3886 Clouds 13 1002 58 10000 2.1 250 17:57 02.05.2020
3887 Clouds 13 1002 54 10000 3.1 280 17:38 02.05.2020
3888 Clouds 14 1002 54 10000 3.1 280 17:19 02.05.2020
3889 Clouds 14 1002 54 10000 2.6 280 16:56 02.05.2020
3890 Clouds 14 1002 54 10000 3.1 250 16:38 02.05.2020
3891 Clouds 13 1002 58 10000 3.1 270 16:20 02.05.2020
3892 Clouds 13 1002 62 10000 3.1 250 15:41 02.05.2020
3893 Clouds 12 1002 62 10000 3.6 270 15:20 02.05.2020
3894 Clouds 12 1002 62 10000 3.1 260 14:44 02.05.2020
3895 Clouds 12 1002 62 10000 3.1 260 14:26 02.05.2020
3896 Clouds 12 1002 62 10000 2.6 290 13:59 02.05.2020
3897 Clouds 12 1002 66 10000 3.1 260 13:39 02.05.2020
3898 Clouds 12 1002 66 10000 3.1 270 13:19 02.05.2020
3899 Clouds 12 1002 71 10000 2.6 270 12:41 02.05.2020
3900 Clouds 10 1002 71 10000 2.6 270 12:22 02.05.2020
3901 Clouds 11 1002 71 10000 3.6 270 11:58 02.05.2020
3902 Clouds 11 1002 66 10000 3.6 240 11:39 02.05.2020
3903 Clouds 10 1001 76 10000 4.1 230 11:21 02.05.2020
3904 Clouds 10 1001 76 10000 4.1 230 10:54 02.05.2020
3905 Clouds 10 1001 76 10000 4.6 240 10:36 02.05.2020
3906 Clouds 10 1001 76 10000 4.1 200 10:18 02.05.2020
3907 Clouds 10 1001 76 10000 4.1 200 10:18 02.05.2020
3908 Clouds 10 1001 76 10000 4.1 200 09:54 02.05.2020
3909 Clouds 10 1001 81 10000 3.6 210 09:36 02.05.2020
3910 Clouds 10 1001 81 10000 3.6 210 09:18 02.05.2020
3911 Clouds 9 1001 87 10000 4.1 190 08:41 02.05.2020
3912 Clouds 8 1001 87 10000 4.1 190 08:22 02.05.2020
3913 Clouds 8 1000 87 10000 3.1 190 07:46 02.05.2020
3914 Clouds 8 1000 87 10000 3.1 190 07:27 02.05.2020
3915 Clouds 7 1000 87 10000 2.6 170 06:47 02.05.2020
3916 Clouds 7 999 87 10000 3.1 200 05:28 02.05.2020
3917 Clouds 7 999 93 10000 2.6 180 04:37 02.05.2020
3918 Clouds 7 999 93 10000 2.6 160 04:18 02.05.2020
3919 Clouds 7 999 100 10000 4.1 140 02:43 02.05.2020
3920 Clouds 7 999 100 10000 4.1 140 02:19 02.05.2020
3921 Clouds 7 999 93 10000 4.1 140 01:33 02.05.2020
3922 Clouds 7 999 93 10000 5.7 140 00:45 02.05.2020
3923 Clouds 7 999 93 10000 5.7 140 00:24 02.05.2020
3924 Clouds 8 999 93 10000 5.1 140 23:57 01.05.2020
3925 Clouds 8 999 93 10000 5.1 140 23:37 01.05.2020
3926 Clouds 8 999 93 10000 5.1 140 23:19 01.05.2020
3927 Clouds 8 999 93 10000 4.6 130 22:40 01.05.2020
3928 Clouds 8 999 93 10000 4.6 130 22:21 01.05.2020
3929 Clouds 8 999 93 10000 4.1 130 21:59 01.05.2020
3930 Clouds 8 999 93 10000 4.1 130 21:41 01.05.2020
3931 Clouds 8 999 93 10000 4.1 130 21:21 01.05.2020
3932 Clouds 8 1000 93 10000 4.1 130 20:58 01.05.2020
3933 Clouds 8 1000 93 10000 4.6 120 20:40 01.05.2020
3934 Clouds 7 1000 100 8000 5.1 130 20:20 01.05.2020
3935 Clouds 7 1000 100 8000 5.1 130 19:59 01.05.2020
3936 Clouds 7 1000 100 10000 5.7 130 19:41 01.05.2020
3937 Rain 7 1000 100 10000 5.1 130 19:21 01.05.2020
3938 Clouds 7 1000 100 10000 5.7 130 19:21 01.05.2020
3939 Rain 7 1000 100 10000 5.1 130 18:56 01.05.2020
3940 Rain 7 1000 93 10000 4.6 130 18:38 01.05.2020
3941 Rain 7 1000 93 10000 4.6 130 18:19 01.05.2020
3942 -273 0 0 0 0 0 18:19 01.05.2020
3943 Rain 7 1000 93 5000 6.2 120 17:41 01.05.2020
3944 Rain 7 1000 93 5000 6.2 120 17:22 01.05.2020
3945 Clouds 7 1000 93 10000 6.7 140 16:58 01.05.2020
3946 Rain 7 1001 93 5000 7.7 130 16:40 01.05.2020
3947 Rain 7 1001 93 5000 7.7 130 16:21 01.05.2020
3948 Clouds 7 1001 93 10000 7.2 130 15:58 01.05.2020
3949 Clouds 7 1001 93 10000 6.2 140 15:39 01.05.2020
3950 Clouds 7 1001 93 10000 6.2 140 15:20 01.05.2020
3951 Rain 7 1001 93 10000 7.2 120 14:44 01.05.2020
3952 Clouds 7 1001 93 10000 7.2 120 14:25 01.05.2020
3953 Rain 7 1001 93 8000 6.7 110 13:57 01.05.2020
3954 Rain 7 1001 100 7000 5.7 120 13:38 01.05.2020
3955 Rain 7 1001 100 7000 5.7 120 13:20 01.05.2020
3956 Rain 7 1002 93 10000 6.2 120 12:55 01.05.2020
3957 Rain 8 1002 93 10000 4.6 110 12:37 01.05.2020
3958 Clouds 8 1002 87 10000 4.1 100 12:18 01.05.2020
3959 Clouds 8 1002 87 10000 4.1 100 11:41 01.05.2020
3960 Clouds 8 1002 87 10000 4.1 100 11:23 01.05.2020
3961 Clouds 8 1002 93 10000 5.1 100 10:58 01.05.2020
3962 Clouds 8 1003 87 10000 5.1 100 10:38 01.05.2020
3963 Clouds 8 1003 87 10000 5.1 110 10:20 01.05.2020
3964 Clouds 7 1003 87 10000 5.7 110 09:44 01.05.2020
3965 Clouds 7 1003 87 10000 5.7 110 09:20 01.05.2020
3966 Clouds 7 1003 87 10000 4.6 100 08:57 01.05.2020
3967 Rain 7 1003 87 10000 4.6 100 08:39 01.05.2020
3968 Rain 6 1003 87 10000 4.6 100 08:21 01.05.2020
3969 Rain 6 1004 93 10000 5.1 110 07:44 01.05.2020
3970 Rain 6 1004 93 10000 5.1 110 07:22 01.05.2020
3971 Rain 6 1004 87 10000 4.6 100 06:39 01.05.2020
3972 Rain 6 1005 81 10000 5.7 100 05:35 01.05.2020
3973 Rain 6 1005 81 10000 5.7 110 04:39 01.05.2020
3974 Rain 6 1006 75 10000 6.2 110 03:24 01.05.2020
3975 Rain 6 1007 84 10000 6.2 110 02:43 01.05.2020
3976 Rain 6 1007 81 10000 6.2 110 02:18 01.05.2020
3977 Clouds 6 1007 70 10000 5.1 110 01:28 01.05.2020
3978 Clouds 6 1008 70 10000 4.6 100 00:58 01.05.2020
3979 Clouds 6 1008 70 10000 4.6 100 00:37 01.05.2020
3980 Clouds 6 1008 70 10000 4.6 100 00:18 01.05.2020
3981 Clouds 5 1008 70 10000 5.1 100 23:54 30.04.2020
3982 Clouds 5 1008 75 10000 4.1 90 23:36 30.04.2020
3983 Clouds 5 1009 75 10000 4.6 90 23:18 30.04.2020
3984 Clouds 5 1009 75 10000 4.6 100 22:40 30.04.2020
3985 Clouds 5 1009 72 10000 6.2 100 22:19 30.04.2020
3986 Clouds 5 1009 72 10000 6.2 100 21:55 30.04.2020
3987 Clouds 5 1009 72 10000 6.7 110 21:37 30.04.2020
3988 Clouds 5 1010 75 10000 6.7 100 21:18 30.04.2020
3989 Clouds 5 1010 75 10000 6.7 100 21:18 30.04.2020
3990 Clouds 5 1010 75 10000 5.7 110 20:42 30.04.2020
3991 Clouds 5 1010 70 10000 6.2 110 20:19 30.04.2020
3992 Clouds 6 1010 70 10000 6.2 110 19:58 30.04.2020
3993 Clouds 6 1010 70 10000 6.7 110 19:39 30.04.2020
3994 Clouds 6 1010 70 10000 6.7 110 19:20 30.04.2020
3995 Clouds 6 1010 70 10000 5.7 120 18:55 30.04.2020
3996 Clouds 7 1010 65 10000 6.7 110 18:36 30.04.2020
3997 Clouds 7 1011 65 10000 6.7 120 18:18 30.04.2020
3998 Clouds 7 1011 64 10000 6.2 110 17:41 30.04.2020
3999 Clouds 7 1011 61 10000 6.2 110 17:22 30.04.2020
4000 Clouds 7 1011 61 10000 6.2 100 16:59 30.04.2020
4001 Clouds 7 1011 56 10000 5.7 110 16:40 30.04.2020
4002 Clouds 8 1011 56 10000 5.7 110 16:20 30.04.2020
4003 Clouds 8 1011 60 10000 6.2 100 15:57 30.04.2020
4004 Clouds 8 1012 56 10000 6.2 110 15:39 30.04.2020
4005 Clouds 8 1012 56 10000 6.2 110 15:21 30.04.2020
4006 Clouds 8 1012 57 10000 5.7 110 14:41 30.04.2020
4007 Clouds 8 1012 56 10000 5.7 110 14:20 30.04.2020
4008 Clouds 8 1012 56 10000 5.7 110 14:20 30.04.2020
4009 Clouds 8 1012 56 10000 4.1 100 13:58 30.04.2020
4010 Clouds 7 1012 56 10000 5.7 110 13:39 30.04.2020
4011 Clouds 7 1012 56 10000 5.7 110 13:39 30.04.2020
4012 Clouds 7 1012 52 10000 4.6 90 13:21 30.04.2020
4013 Clouds 7 1012 52 10000 4.6 90 12:55 30.04.2020
4014 Clouds 7 1013 57 10000 3.1 70 12:37 30.04.2020
4015 Clouds 6 1013 58 10000 3.1 80 12:18 30.04.2020
4016 Clouds 7 1013 58 10000 2.6 90 11:38 30.04.2020
4017 Clouds 6 1013 60 10000 2.6 90 11:18 30.04.2020
4018 Clouds 6 1013 75 10000 3.1 80 10:56 30.04.2020
4019 Clouds 6 1013 75 10000 3.1 80 10:38 30.04.2020
4020 Clouds 5 1013 80 10000 3.6 60 10:18 30.04.2020
4021 Clouds 5 1013 80 10000 2.1 60 09:44 30.04.2020
4022 Clouds 5 1013 80 10000 2.1 60 09:23 30.04.2020
4023 Clouds 3 1013 100 10000 1 0 08:54 30.04.2020
4024 Mist 2 1013 66 5000 2.1 50 08:36 30.04.2020
4025 Clouds 1 1014 73 1000 1.5 0 08:18 30.04.2020
4026 Fog 1 1014 73 450 1 0 07:42 30.04.2020
4027 Fog 0 1014 81 450 1 0 07:23 30.04.2020
4028 Clouds 0 1013 100 8000 1 10 06:40 30.04.2020
4029 Clouds -2 1014 100 10000 2.01 44 05:49 30.04.2020
4030 Clouds -2 1014 100 10000 1.85 35 05:28 30.04.2020
4031 Clouds -2 1014 100 10000 1 340 04:32 30.04.2020
4032 Clouds -2 1014 92 10000 1 280 03:52 30.04.2020
4033 Clouds -1 1013 92 10000 1 310 02:29 30.04.2020
4034 Clouds -1 1013 92 10000 1.65 48 01:58 30.04.2020
4035 Clouds 0 1013 80 10000 1 0 01:20 30.04.2020
4036 Clouds 1 1013 69 10000 2.1 50 00:40 30.04.2020
4037 Clouds 1 1013 64 10000 2.6 60 00:18 30.04.2020
4038 Clouds 1 1013 64 10000 2.6 60 00:18 30.04.2020
4039 Clouds 2 1013 64 10000 2.6 60 23:54 29.04.2020
4040 Clouds 2 1013 90 10000 1 0 23:36 29.04.2020
4041 Clouds 2 1013 89 10000 1.5 150 23:18 29.04.2020
4042 Clouds 3 1013 89 10000 2.1 150 22:39 29.04.2020
4043 Clouds 3 1013 87 10000 2.6 160 22:20 29.04.2020
4044 Clouds 3 1013 87 10000 2.6 160 21:56 29.04.2020
4045 Clouds 4 1012 86 10000 3.6 110 21:36 29.04.2020
4046 Clouds 4 1012 65 10000 2.6 100 21:18 29.04.2020
4047 Clouds 4 1012 65 10000 2.6 70 20:40 29.04.2020
4048 Clouds 5 1012 56 10000 1.5 50 20:20 29.04.2020
4049 Clouds 5 1012 56 10000 1.5 50 19:57 29.04.2020
4050 Clouds 6 1012 56 10000 1.5 50 19:39 29.04.2020
4051 Rain 6 1012 60 10000 2.6 40 19:18 29.04.2020
4052 Clouds 7 1011 52 10000 2.6 310 18:42 29.04.2020
4053 Clouds 7 1011 52 10000 2.6 310 18:42 29.04.2020
4054 Clouds 7 1011 52 10000 2.6 310 18:22 29.04.2020
4055 Clouds 7 1011 56 10000 2.6 320 17:57 29.04.2020
4056 Clouds 6 1011 56 10000 3.6 360 17:39 29.04.2020
4057 Clouds 6 1011 48 10000 2.6 340 17:20 29.04.2020
4058 Clouds 7 1011 56 10000 2.6 0 16:38 29.04.2020
4059 Clouds 7 1011 56 10000 2.6 0 16:38 29.04.2020
4060 Clouds 7 1011 52 10000 2.1 360 16:19 29.04.2020
4061 Clouds 7 1011 52 10000 2.1 360 15:57 29.04.2020
4062 Clouds 6 1011 52 10000 3.1 20 15:39 29.04.2020
4063 Clouds 6 1011 52 10000 4.6 340 15:20 29.04.2020
4064 Clouds 6 1011 52 10000 4.6 340 15:20 29.04.2020
4065 Clouds 6 1011 52 10000 4.6 340 14:57 29.04.2020
4066 Clouds 6 1011 56 10000 5.1 340 14:38 29.04.2020
4067 Clouds 6 1011 52 10000 2.1 10 14:18 29.04.2020
4068 Clouds 6 1011 56 10000 4.1 320 13:42 29.04.2020
4069 Clouds 6 1010 52 10000 3.1 360 13:20 29.04.2020
4070 Clouds 6 1010 52 10000 3.1 360 12:58 29.04.2020
4071 Clouds 5 1010 56 10000 3.6 30 12:39 29.04.2020
4072 Rain 5 1010 60 10000 3.6 360 12:19 29.04.2020
4073 Clouds 6 1010 60 10000 4.1 10 11:40 29.04.2020
4074 Clouds 5 1010 60 10000 4.1 10 11:21 29.04.2020
4075 Clouds 4 1010 69 10000 4.1 360 10:59 29.04.2020
4076 Clouds 5 1010 69 10000 4.1 360 10:37 29.04.2020
4077 Clouds 4 1010 74 10000 4.6 350 10:19 29.04.2020
4078 Clouds 3 1010 74 10000 5.1 350 09:42 29.04.2020
4079 Clouds 3 1010 74 10000 5.1 350 09:24 29.04.2020
4080 Clouds 3 1010 74 10000 4.1 350 08:57 29.04.2020
4081 Clouds 3 1010 74 10000 5.7 340 08:39 29.04.2020
4082 Clouds 3 1010 74 10000 5.7 340 08:20 29.04.2020
4083 Clear 1 1009 79 10000 2.6 310 07:47 29.04.2020
4084 Clear 0 1009 87 10000 2.6 310 07:24 29.04.2020
4085 Clear 0 1009 86 10000 2.1 290 06:50 29.04.2020
4086 Clear -1 1009 86 10000 2.1 290 06:31 29.04.2020
4087 Clear -2 1009 86 10000 2.6 310 05:22 29.04.2020
4088 Clear -1 1009 86 10000 2.6 310 04:45 29.04.2020
4089 Clear -1 1009 86 10000 2.6 310 04:18 29.04.2020
4090 Clear -1 1008 94 10000 3.6 330 02:43 29.04.2020
4091 Clear 0 1008 93 10000 3.1 330 01:44 29.04.2020
4092 Clear 0 1008 93 10000 3.1 330 01:26 29.04.2020
4093 Clear 0 1008 93 10000 3.6 320 00:42 29.04.2020
4094 Clear 0 1008 74 10000 3.1 320 00:20 29.04.2020
4095 Clear 1 1008 74 10000 3.6 320 23:51 28.04.2020
4096 Clear 1 1008 74 10000 3.6 320 23:24 28.04.2020
4097 Clear 1 1008 80 10000 4.1 340 22:58 28.04.2020
4098 Clear 2 1007 74 10000 4.6 340 22:37 28.04.2020
4099 Clear 2 1007 69 10000 4.6 350 22:18 28.04.2020
4100 Clear 2 1007 69 10000 4.6 350 21:57 28.04.2020
4101 Clear 3 1007 69 10000 5.1 350 21:38 28.04.2020
4102 Clear 3 1007 69 10000 5.1 350 21:20 28.04.2020
4103 Clear 3 1007 64 10000 4.6 360 20:55 28.04.2020
4104 Clear 3 1007 64 10000 4.6 360 20:37 28.04.2020
4105 Clouds 3 1006 60 10000 4.1 350 20:19 28.04.2020
4106 Clouds 3 1006 64 10000 6.2 350 19:43 28.04.2020
4107 Clouds 4 1006 64 10000 6.2 350 19:22 28.04.2020
4108 Clouds 4 1006 64 10000 4.6 340 18:59 28.04.2020
4109 Clouds 4 1006 64 10000 4.6 340 18:59 28.04.2020
4110 Clouds 4 1006 64 10000 6.2 350 18:40 28.04.2020
4111 Clouds 4 1006 60 10000 5.1 350 18:19 28.04.2020
4112 Clouds 4 1006 60 10000 5.1 350 17:58 28.04.2020
4113 Clouds 4 1006 65 10000 4.1 10 17:37 28.04.2020
4114 Clouds 4 1005 68 10000 5.1 10 17:18 28.04.2020
4115 Clouds 4 1005 68 10000 5.1 10 17:18 28.04.2020
4116 Rain 4 1005 80 10000 5.7 360 16:43 28.04.2020
4117 Rain 4 1005 80 10000 5.7 360 16:23 28.04.2020
4118 Rain 4 1005 86 10000 3.6 340 15:58 28.04.2020
4119 Rain 4 1005 86 10000 2.6 40 15:39 28.04.2020
4120 Rain 4 1005 86 10000 2.6 40 15:39 28.04.2020
4121 Clouds 5 1005 86 10000 2.6 40 15:21 28.04.2020
4122 Rain 4 1005 93 10000 4.1 40 14:59 28.04.2020
4123 Rain 4 1005 86 9000 3.6 10 14:41 28.04.2020
4124 Rain 4 1005 93 8000 4.1 30 14:21 28.04.2020
4125 Rain 4 1005 93 8000 4.1 30 13:58 28.04.2020
4126 Drizzle 4 1005 86 10000 3.1 40 13:38 28.04.2020
4127 Drizzle 4 1005 86 10000 3.1 40 13:20 28.04.2020
4128 Rain 4 1005 93 10000 4.1 20 12:46 28.04.2020
4129 Rain 3 1005 93 10000 4.1 20 12:27 28.04.2020
4130 Rain 3 1005 93 10000 4.1 40 11:59 28.04.2020
4131 Rain 3 1005 93 8000 4.1 30 11:39 28.04.2020
4132 Rain 3 1005 93 10000 4.1 20 11:20 28.04.2020
4133 Rain 2 1005 93 10000 3.6 40 10:39 28.04.2020
4134 Rain 2 1005 93 10000 3.6 40 10:19 28.04.2020
4135 Rain 2 1005 100 10000 4.1 30 09:59 28.04.2020
4136 Rain 2 1005 93 10000 3.6 40 09:40 28.04.2020
4137 Rain 2 1005 93 10000 3.6 40 09:22 28.04.2020
4138 Rain 2 1005 100 7000 3.6 30 08:46 28.04.2020
4139 Rain 2 1005 100 7000 3.6 30 08:46 28.04.2020
4140 Rain 2 1005 100 7000 3.6 30 08:27 28.04.2020
4141 Rain 1 1005 100 4800 3.6 30 07:58 28.04.2020
4142 Rain 1 1005 100 4800 3.6 30 07:37 28.04.2020
4143 Rain 1 1005 100 6000 4.6 50 07:18 28.04.2020
4144 Rain 1 1006 100 10000 4.1 60 06:28 28.04.2020
4145 Rain 1 1006 93 9000 4.1 60 05:44 28.04.2020
4146 Rain 2 1006 93 9000 4.1 60 05:25 28.04.2020
4147 Rain 2 1006 93 10000 4.6 60 04:33 28.04.2020
4148 Rain 2 1007 93 9000 5.1 80 02:36 28.04.2020
4149 Rain 1 1008 100 5000 4.6 70 01:25 28.04.2020
4150 Rain 1 1008 100 9000 4.1 70 00:58 28.04.2020
4151 Rain 2 1008 93 10000 4.6 80 00:25 28.04.2020
4152 Rain 2 1008 93 10000 4.1 60 23:47 27.04.2020
4153 Rain 2 1008 93 7000 4.6 80 23:24 27.04.2020
4154 Rain 2 1009 93 7000 5.1 90 22:56 27.04.2020
4155 Rain 3 1009 86 5000 5.1 90 22:38 27.04.2020
4156 Rain 3 1009 86 7000 5.1 100 22:20 27.04.2020
4157 Rain 3 1009 86 7000 5.1 100 21:56 27.04.2020
4158 Rain 3 1009 86 8000 5.7 100 21:38 27.04.2020
4159 Rain 4 1009 80 10000 5.7 110 21:18 27.04.2020
4160 Rain 4 1009 69 10000 5.1 90 20:44 27.04.2020
4161 Rain 4 1009 66 10000 5.1 90 20:22 27.04.2020
4162 Drizzle 4 1009 66 10000 4.6 100 20:22 27.04.2020
4163 Drizzle 4 1009 66 10000 4.6 100 19:59 27.04.2020
4164 Drizzle 4 1009 66 10000 4.6 100 19:59 27.04.2020
4165 Clouds 6 1009 56 10000 5.7 120 19:39 27.04.2020
4166 Clouds 6 1009 56 10000 5.7 120 19:21 27.04.2020
4167 Clouds 6 1009 56 10000 6.2 120 18:58 27.04.2020
4168 Clouds 6 1009 52 10000 5.7 110 18:40 27.04.2020
4169 Clouds 7 1009 48 10000 5.1 110 18:19 27.04.2020
4170 Clouds 7 1009 48 10000 5.1 110 17:54 27.04.2020
4171 Clouds 7 1010 45 10000 5.1 100 17:36 27.04.2020
4172 Clouds 7 1010 45 10000 5.7 100 17:18 27.04.2020
4173 Clouds 8 1009 42 10000 6.2 100 16:40 27.04.2020
4174 Clouds 8 1009 36 10000 6.2 100 16:21 27.04.2020
4175 Clouds 9 1009 36 10000 6.2 100 15:57 27.04.2020
4176 Clouds 9 1010 39 10000 5.7 110 15:38 27.04.2020
4177 Clouds 8 1010 39 10000 5.1 100 15:19 27.04.2020
4178 Clouds 9 1010 39 10000 5.1 100 14:56 27.04.2020
4179 Clouds 9 1010 36 10000 5.7 120 14:37 27.04.2020
4180 Clouds 9 1010 34 10000 4.6 90 14:18 27.04.2020
4181 Clouds 9 1010 39 10000 4.6 120 13:42 27.04.2020
4182 Clouds 9 1010 39 10000 5.7 110 13:21 27.04.2020
4183 Clouds 9 1010 39 10000 5.7 110 12:57 27.04.2020
4184 Clouds 9 1010 36 10000 5.1 110 12:39 27.04.2020
4185 Clouds 9 1011 39 10000 4.6 120 12:20 27.04.2020
4186 Clouds 9 1011 42 10000 4.6 120 11:41 27.04.2020
4187 Clouds 9 1011 39 10000 4.6 120 11:21 27.04.2020
4188 Clouds 9 1011 39 10000 4.6 120 10:57 27.04.2020
4189 Clouds 8 1011 36 10000 5.1 110 10:39 27.04.2020
4190 Clouds 8 1011 36 10000 5.1 110 10:20 27.04.2020
4191 Clouds 8 1010 36 10000 4.1 100 09:44 27.04.2020
4192 Clouds 8 1010 36 10000 4.1 100 09:19 27.04.2020
4193 Clouds 7 1010 52 10000 2.6 110 08:58 27.04.2020
4194 Clouds 6 1010 56 10000 2.6 140 08:40 27.04.2020
4195 Clouds 4 1010 65 10000 1.5 0 08:22 27.04.2020
4196 Clouds 4 1010 65 10000 3.5 121 07:44 27.04.2020
4197 Clouds 4 1010 65 10000 3.5 121 07:20 27.04.2020
4198 Clouds 2 1010 80 10000 3.5 121 06:56 27.04.2020
4199 Clouds 1 1010 81 10000 1.73 123 06:27 27.04.2020
4200 Clouds 1 1010 81 10000 1.73 123 06:27 27.04.2020
4201 Clouds -1 1010 92 10000 1.73 123 05:50 27.04.2020
4202 Clouds -1 1010 92 10000 1.73 123 04:49 27.04.2020
4203 Clouds 0 1010 92 10000 1.73 123 03:59 27.04.2020
4204 Clear 0 1010 86 10000 1.7 189 03:35 27.04.2020
4205 Clear 1 1010 80 10000 1.76 193 01:41 27.04.2020
4206 Clear 1 1010 80 10000 0.5 0 00:58 27.04.2020
4207 Clear 2 1010 80 10000 2.29 167 00:20 27.04.2020
4208 Clear 2 1010 80 10000 2.29 167 23:56 26.04.2020
4209 Clear 2 1010 74 10000 1.5 160 23:38 26.04.2020
4210 Clear 3 1010 74 10000 1.5 160 23:19 26.04.2020
4211 Clear 3 1010 69 10000 2.1 140 22:58 26.04.2020
4212 Clear 3 1010 69 10000 3.6 130 22:39 26.04.2020
4213 Clear 3 1010 69 10000 3.6 130 22:39 26.04.2020
4214 Clear 3 1010 69 10000 3.6 130 22:19 26.04.2020
4215 Clear 4 1009 78 10000 3.1 160 21:57 26.04.2020
4216 Clear 5 1009 76 10000 3.1 160 21:38 26.04.2020
4217 Clouds 5 1009 60 10000 3.6 140 21:18 26.04.2020
4218 Clouds 6 1008 56 10000 5.1 140 20:42 26.04.2020
4219 Clouds 8 1008 36 10000 3.1 10 20:24 26.04.2020
4220 Clouds 8 1008 36 10000 3.1 10 19:59 26.04.2020
4221 Clouds 9 1008 31 10000 2.6 320 19:38 26.04.2020
4222 Clouds 9 1007 31 10000 2.6 320 19:20 26.04.2020
4223 Clouds 10 1007 31 10000 2.6 320 18:57 26.04.2020
4224 Clouds 10 1007 31 10000 3.1 340 18:39 26.04.2020
4225 Clouds 10 1007 31 10000 3.6 280 18:21 26.04.2020
4226 Clouds 10 1007 31 10000 3.1 320 17:42 26.04.2020
4227 Clouds 10 1007 31 10000 3.1 320 17:22 26.04.2020
4228 Clouds 10 1007 31 10000 3.1 360 16:55 26.04.2020
4229 Clouds 10 1007 31 10000 2.6 270 16:37 26.04.2020
4230 Clouds 10 1007 34 10000 4.6 320 16:18 26.04.2020
4231 Clouds 10 1007 34 10000 4.6 320 15:55 26.04.2020
4232 Clouds 10 1007 31 10000 3.1 360 15:36 26.04.2020
4233 Clouds 10 1007 31 10000 3.6 330 15:18 26.04.2020
4234 Clouds 10 1007 31 10000 3.6 300 14:40 26.04.2020
4235 Clouds 10 1007 34 10000 3.6 320 14:19 26.04.2020
4236 Clouds 10 1007 34 10000 3.6 320 13:58 26.04.2020
4237 Clouds 9 1007 34 10000 3.6 320 13:39 26.04.2020
4238 Clouds 9 1007 34 10000 3.6 320 13:21 26.04.2020
4239 Clouds 9 1007 34 10000 5.1 300 12:55 26.04.2020
4240 Clouds 9 1007 36 10000 4.6 320 12:36 26.04.2020
4241 Clouds 8 1007 36 10000 5.1 330 12:18 26.04.2020
4242 Clouds 8 1006 39 10000 5.7 300 11:43 26.04.2020
4243 Clouds 8 1006 39 10000 5.7 300 11:23 26.04.2020
4244 Clouds 8 1006 42 10000 5.1 310 10:59 26.04.2020
4245 Clouds 8 1006 42 10000 5.1 310 10:59 26.04.2020
4246 Clouds 7 1006 45 10000 6.2 310 10:41 26.04.2020
4247 Clouds 7 1006 45 10000 6.2 310 10:23 26.04.2020
4248 Clouds 7 1006 42 10000 5.1 320 09:57 26.04.2020
4249 Clouds 6 1006 45 10000 5.7 330 09:37 26.04.2020
4250 Clouds 6 1006 45 10000 5.7 330 09:18 26.04.2020
4251 Clouds 6 1006 48 10000 4.1 320 08:41 26.04.2020
4252 Clouds 6 1006 48 10000 4.1 320 08:22 26.04.2020
4253 Clouds 6 1006 48 10000 4.6 320 07:48 26.04.2020
4254 Clouds 5 1005 52 10000 4.6 340 07:23 26.04.2020
4255 Clouds 5 1005 60 10000 3.6 320 06:47 26.04.2020
4256 Clear 5 1005 60 10000 3.6 320 06:21 26.04.2020
4257 Clear 5 1005 65 10000 4.1 320 05:49 26.04.2020
4258 Clear 5 1005 65 10000 4.1 320 05:28 26.04.2020
4259 Clear 5 1005 60 10000 4.1 320 04:37 26.04.2020
4260 Clear 6 1005 80 10000 4.6 320 03:39 26.04.2020
4261 Clouds 7 1004 65 10000 3.6 290 02:37 26.04.2020
4262 Clouds 7 1004 65 10000 3.6 290 02:19 26.04.2020
4263 Clouds 7 1004 61 10000 3.1 290 01:36 26.04.2020
4264 Clouds 8 1004 61 10000 3.1 290 00:41 26.04.2020
4265 Clouds 8 1004 61 10000 3.1 290 00:21 26.04.2020
4266 Clouds 8 1004 61 10000 3.6 290 23:55 25.04.2020
4267 Clouds 8 1004 61 10000 3.6 300 23:36 25.04.2020
4268 Clouds 8 1004 57 10000 5.1 310 23:18 25.04.2020
4269 Clouds 8 1004 67 10000 5.1 310 22:42 25.04.2020
4270 Clouds 8 1004 67 10000 5.1 310 22:20 25.04.2020
4271 Clouds 8 1004 67 10000 4.6 290 21:58 25.04.2020
4272 Clouds 8 1004 67 10000 2.6 260 21:38 25.04.2020
4273 Clouds 9 1004 49 10000 2.6 280 21:18 25.04.2020
4274 Drizzle 9 1004 49 10000 5.7 280 20:43 25.04.2020
4275 Drizzle 9 1004 49 10000 5.7 280 20:23 25.04.2020
4276 Clouds 9 1004 39 10000 5.1 280 19:59 25.04.2020
4277 Clouds 9 1004 39 10000 3.1 300 19:39 25.04.2020
4278 Clouds 10 1004 39 10000 3.1 300 19:20 25.04.2020
4279 Clouds 10 1005 37 10000 4.6 290 18:44 25.04.2020
4280 Clouds 10 1005 37 10000 4.6 290 18:22 25.04.2020
4281 Clouds 10 1005 34 10000 4.1 270 17:59 25.04.2020
4282 Clouds 10 1005 32 10000 3.1 300 17:40 25.04.2020
4283 Clouds 11 1005 32 10000 3.1 300 17:22 25.04.2020
4284 Clouds 10 1005 37 10000 3.6 300 16:59 25.04.2020
4285 Clouds 10 1006 37 10000 4.6 280 16:41 25.04.2020
4286 Clouds 10 1006 37 10000 4.6 280 16:23 25.04.2020
4287 Clouds 10 1006 37 10000 4.1 300 15:55 25.04.2020
4288 Clouds 9 1006 42 10000 5.1 280 15:37 25.04.2020
4289 Rain 10 1006 39 10000 3.6 280 15:18 25.04.2020
4290 Rain 10 1006 39 10000 3.6 280 14:56 25.04.2020
4291 Rain 9 1006 39 10000 4.6 310 14:37 25.04.2020
4292 Rain 9 1006 45 10000 3.1 290 14:18 25.04.2020
4293 Clouds 8 1006 49 10000 3.1 330 13:41 25.04.2020
4294 Clouds 8 1006 49 10000 3.1 330 13:41 25.04.2020
4295 Rain 8 1007 56 10000 4.1 300 13:19 25.04.2020
4296 Rain 8 1007 56 10000 4.1 300 12:56 25.04.2020
4297 Clouds 8 1006 52 10000 4.6 300 12:38 25.04.2020
4298 Clouds 8 1006 52 10000 4.6 300 12:38 25.04.2020
4299 Clouds 8 1007 52 10000 4.1 330 12:19 25.04.2020
4300 Clouds 8 1007 71 10000 4.1 300 11:43 25.04.2020
4301 Clouds 8 1007 71 10000 4.1 300 11:25 25.04.2020
4302 Clouds 7 1006 71 10000 3.1 320 10:57 25.04.2020
4303 Clouds 7 1006 71 10000 3.1 320 10:38 25.04.2020
4304 Clouds 7 1006 71 10000 3.1 320 10:20 25.04.2020
4305 Clouds 6 1006 71 10000 4.6 320 09:44 25.04.2020
4306 Clouds 6 1006 81 10000 4.6 320 09:22 25.04.2020
4307 Clouds 6 1006 81 10000 5.1 340 08:56 25.04.2020
4308 Clouds 6 1006 81 10000 5.1 340 08:38 25.04.2020
4309 Clouds 6 1006 81 10000 4.6 340 08:19 25.04.2020
4310 Clouds 6 1006 77 10000 4.6 330 07:44 25.04.2020
4311 Clouds 6 1006 81 10000 4.6 330 07:22 25.04.2020
4312 Clouds 6 1006 75 10000 2.6 300 06:43 25.04.2020
4313 Clouds 5 1006 75 10000 2.6 330 05:47 25.04.2020
4314 Clouds 5 1006 75 10000 2.6 330 05:28 25.04.2020
4315 Clouds 5 1006 75 10000 2.6 250 04:24 25.04.2020
4316 Clouds 5 1006 78 10000 1 300 02:44 25.04.2020
4317 Clouds 5 1006 79 10000 1 300 02:19 25.04.2020
4318 Clouds 6 1006 79 10000 1.5 280 01:50 25.04.2020
4319 Clouds 6 1006 79 10000 1.5 290 01:26 25.04.2020
4320 Clouds 6 1006 56 10000 2.1 340 00:49 25.04.2020
4321 Clouds 6 1006 56 10000 2.1 340 00:28 25.04.2020
4322 Clouds 7 1006 56 10000 2.1 360 23:43 24.04.2020
4323 Clouds 7 1006 56 10000 2.1 360 23:22 24.04.2020
4324 Clouds 7 1006 52 10000 2.6 10 22:54 24.04.2020
4325 Clouds 7 1006 52 10000 2.6 10 22:54 24.04.2020
4326 Clouds 7 1007 52 10000 3.6 10 22:36 24.04.2020
4327 Clouds 7 1007 52 10000 3.6 10 22:18 24.04.2020
4328 Clouds 8 1006 52 10000 4.1 10 21:54 24.04.2020
4329 Clouds 8 1006 68 10000 3.1 10 21:36 24.04.2020
4330 Clouds 8 1006 61 10000 2.6 350 21:18 24.04.2020
4331 Clouds 8 1006 61 10000 3.1 30 20:42 24.04.2020
4332 Clouds 9 1006 61 10000 3.1 30 20:19 24.04.2020
4333 Clouds 9 1006 61 10000 2.6 360 20:19 24.04.2020
4334 Clouds 9 1006 61 10000 2.6 360 19:58 24.04.2020
4335 Clouds 9 1006 61 10000 3.6 20 19:38 24.04.2020
4336 Clouds 9 1006 61 10000 3.6 20 19:20 24.04.2020
4337 Clouds 10 1006 61 10000 4.1 20 18:41 24.04.2020
4338 Clouds 10 1006 61 10000 4.1 20 18:41 24.04.2020
4339 Clouds 10 1006 49 10000 4.1 20 18:23 24.04.2020
4340 Clouds 11 1006 49 10000 4.1 20 17:54 24.04.2020
4341 Clouds 11 1006 49 10000 4.1 350 17:36 24.04.2020
4342 Clouds 11 1006 43 10000 4.6 340 17:18 24.04.2020
4343 Clouds 11 1006 49 10000 4.1 320 16:41 24.04.2020
4344 Clouds 11 1006 49 10000 4.1 320 16:22 24.04.2020
4345 Clouds 11 1006 49 10000 4.6 330 16:00 24.04.2020
4346 Clouds 11 1007 49 10000 4.6 320 15:39 24.04.2020
4347 Clouds 11 1007 49 10000 4.1 340 15:20 24.04.2020
4348 Clouds 11 1007 50 10000 4.6 350 14:41 24.04.2020
4349 Clouds 11 1007 49 10000 4.6 350 14:22 24.04.2020
4350 Clouds 10 1007 50 10000 4.6 350 13:58 24.04.2020
4351 Clouds 11 1007 50 10000 3.1 10 13:39 24.04.2020
4352 Clouds 11 1007 50 10000 3.1 10 13:20 24.04.2020
4353 Clouds 10 1007 53 10000 4.1 350 12:45 24.04.2020
4354 Clouds 10 1007 53 10000 4.1 350 12:25 24.04.2020
4355 Clouds 10 1007 53 10000 4.1 350 11:59 24.04.2020
4356 Clouds 10 1007 57 10000 3.1 350 11:40 24.04.2020
4357 Clouds 10 1007 57 10000 3.1 350 11:20 24.04.2020
4358 Clouds 10 1007 57 10000 4.6 350 10:56 24.04.2020
4359 Clouds 9 1007 61 10000 2.6 360 10:37 24.04.2020
4360 Clouds 9 1008 61 10000 2.6 360 10:19 24.04.2020
4361 Clouds 8 1008 65 10000 3.1 10 09:47 24.04.2020
4362 Clouds 8 1008 65 10000 3.1 10 09:24 24.04.2020
4363 Clouds 7 1008 70 10000 3.1 10 08:58 24.04.2020
4364 Clouds 7 1008 64 10000 3.6 10 08:40 24.04.2020
4365 Clouds 7 1008 64 10000 3.6 10 08:40 24.04.2020
4366 Clouds 6 1008 64 10000 4.1 360 08:18 24.04.2020
4367 Clouds 6 1008 65 10000 3.6 360 07:47 24.04.2020
4368 Clouds 5 1008 65 10000 3.6 360 07:27 24.04.2020
4369 Clouds 5 1008 60 10000 3.1 360 06:58 24.04.2020
4370 Clouds 5 1009 60 10000 3.1 10 06:38 24.04.2020
4371 Clouds 4 1009 60 10000 3.1 30 05:49 24.04.2020
4372 Clouds 5 1009 72 10000 3.6 20 04:33 24.04.2020
4373 Clouds 5 1009 75 10000 1 60 03:24 24.04.2020
4374 Clouds 5 1010 70 10000 2.6 50 02:44 24.04.2020
4375 Clouds 5 1010 70 10000 2.6 50 02:20 24.04.2020
4376 Clouds 5 1010 78 10000 1 0 01:37 24.04.2020
4377 Clouds 6 1011 78 10000 2.6 140 00:43 24.04.2020
4378 Clouds 6 1011 72 10000 2.6 140 00:18 24.04.2020
4379 Clouds 6 1012 56 10000 2.6 140 23:44 23.04.2020
4380 Clouds 6 1012 56 10000 2.6 140 23:26 23.04.2020
4381 Clouds 6 1012 72 10000 4.1 150 22:55 23.04.2020
4382 Clouds 7 1012 72 10000 4.1 150 22:37 23.04.2020
4383 Clouds 7 1012 72 10000 4.1 150 22:19 23.04.2020
4384 Clouds 7 1013 61 10000 3.6 150 21:56 23.04.2020
4385 Clouds 8 1013 57 10000 4.1 140 21:38 23.04.2020
4386 Clear 9 1013 57 10000 4.1 140 21:20 23.04.2020
4387 Clear 10 1013 53 10000 4.6 140 20:54 23.04.2020
4388 Clear 10 1013 50 10000 4.6 140 20:36 23.04.2020
4389 Clear 11 1013 50 10000 5.7 120 20:18 23.04.2020
4390 Clear 14 1014 41 10000 5.1 100 19:42 23.04.2020
4391 Clear 15 1014 41 10000 5.1 100 19:22 23.04.2020
4392 Clear 16 1014 29 10000 1.5 310 18:58 23.04.2020
4393 Clear 16 1014 27 10000 1.5 310 18:39 23.04.2020
4394 Clear 17 1015 29 10000 3.1 290 18:21 23.04.2020
4395 Clear 17 1015 29 10000 3.1 290 17:56 23.04.2020
4396 Clear 17 1015 29 10000 3.6 290 17:38 23.04.2020
4397 Clear 17 1016 29 10000 3.6 280 17:20 23.04.2020
4398 Clear 17 1016 29 10000 3.6 330 16:44 23.04.2020
4399 Clear 16 1017 31 10000 3.6 300 16:21 23.04.2020
4400 Clear 16 1017 29 10000 5.1 320 15:43 23.04.2020
4401 Clear 16 1017 29 10000 5.1 320 15:24 23.04.2020
4402 Clear 15 1017 31 10000 4.6 300 14:59 23.04.2020
4403 Clear 15 1018 29 10000 4.6 330 14:41 23.04.2020
4404 Clear 15 1018 29 10000 4.6 330 14:41 23.04.2020
4405 Clouds 15 1018 29 10000 4.6 330 14:22 23.04.2020
4406 Clouds 15 1018 29 10000 5.1 320 13:58 23.04.2020
4407 Clouds 15 1018 33 10000 5.1 280 13:40 23.04.2020
4408 Clouds 15 1018 33 10000 5.1 280 13:22 23.04.2020
4409 Clouds 15 1019 38 10000 3.6 300 12:57 23.04.2020
4410 Clouds 14 1019 40 10000 4.6 310 12:38 23.04.2020
4411 Clouds 14 1019 40 10000 4.6 310 12:38 23.04.2020
4412 Clouds 14 1019 47 10000 4.6 310 12:20 23.04.2020
4413 Clouds 13 1020 43 10000 4.6 310 11:46 23.04.2020
4414 Clouds 13 1020 43 10000 4.6 310 11:27 23.04.2020
4415 Clouds 13 1020 43 10000 4.1 330 10:57 23.04.2020
4416 Clouds 13 1020 46 10000 4.1 340 10:39 23.04.2020
4417 Clouds 13 1020 46 10000 4.1 320 10:19 23.04.2020
4418 Clouds 11 1020 50 10000 4.1 310 09:38 23.04.2020
4419 Clouds 11 1020 50 10000 4.1 310 09:18 23.04.2020
4420 Clouds 10 1021 53 10000 3.6 310 08:48 23.04.2020
4421 Clouds 10 1021 53 10000 3.6 310 08:29 23.04.2020
4422 Clouds 9 1021 70 10000 2.1 270 07:56 23.04.2020
4423 Clouds 8 1021 70 10000 2.1 270 07:38 23.04.2020
4424 Clouds 8 1021 70 10000 2.1 270 07:18 23.04.2020
4425 Clouds 6 1021 70 10000 1.5 300 06:43 23.04.2020
4426 Clouds 5 1021 80 10000 2.1 300 05:37 23.04.2020
4427 Clouds 5 1021 80 10000 1.5 300 05:18 23.04.2020
4428 Clouds 6 1022 86 10000 1.85 292 02:48 23.04.2020
4429 Clouds 6 1022 81 10000 2.57 306 02:23 23.04.2020
4430 Clouds 6 1022 75 10000 1 0 01:38 23.04.2020
4431 Clouds 7 1023 75 10000 1.5 200 00:51 23.04.2020
4432 Clouds 7 1023 70 10000 2.6 190 00:26 23.04.2020
4433 Clouds 7 1024 70 10000 3.6 200 23:55 22.04.2020
4434 Clouds 8 1024 70 10000 2.6 180 23:27 22.04.2020
4435 Clouds 8 1024 66 10000 2.6 200 22:59 22.04.2020
4436 Clouds 8 1024 66 10000 2.6 160 22:39 22.04.2020
4437 Clouds 8 1025 66 10000 2.6 180 22:20 22.04.2020
4438 Clouds 9 1025 66 10000 2.6 180 21:58 22.04.2020
4439 Clouds 9 1025 66 10000 2.6 180 21:58 22.04.2020
4440 Clouds 9 1025 61 10000 3.6 170 21:40 22.04.2020
4441 Clouds 10 1025 57 10000 3.6 150 21:21 22.04.2020
4442 Clouds 11 1025 57 10000 3.6 150 20:55 22.04.2020
4443 Clouds 11 1025 54 10000 5.1 140 20:37 22.04.2020
4444 Clouds 12 1025 54 10000 5.1 140 20:18 22.04.2020
4445 Clouds 13 1025 44 10000 4.6 110 20:18 22.04.2020
4446 Clouds 14 1025 44 10000 4.6 110 19:56 22.04.2020
4447 Clouds 15 1025 65 10000 2.1 300 19:36 22.04.2020
4448 Clouds 15 1026 33 10000 2.6 290 19:18 22.04.2020
4449 Clouds 17 1026 33 10000 2.6 290 18:55 22.04.2020
4450 Clouds 17 1026 65 10000 3.1 300 18:37 22.04.2020
4451 Clear 16 1026 43 10000 3.6 260 18:18 22.04.2020
4452 Clear 17 1026 43 10000 3.6 320 17:42 22.04.2020
4453 Clear 17 1027 29 10000 5.1 330 17:23 22.04.2020
4454 Clear 17 1027 43 10000 4.1 280 16:47 22.04.2020
4455 Clear 17 1027 43 10000 4.1 280 16:28 22.04.2020
4456 Clear 17 1028 43 10000 3.1 340 15:59 22.04.2020
4457 Clear 16 1028 31 10000 3.6 320 15:38 22.04.2020
4458 Clear 16 1028 31 10000 3.6 320 15:19 22.04.2020
4459 Clear 16 1029 31 10000 4.1 320 14:56 22.04.2020
4460 Clear 16 1029 40 10000 3.1 10 14:37 22.04.2020
4461 Clear 16 1029 39 10000 3.1 10 14:18 22.04.2020
4462 Clear 15 1029 38 10000 4.1 20 13:43 22.04.2020
4463 Clear 15 1030 39 10000 3.6 10 13:20 22.04.2020
4464 Clear 14 1030 41 10000 4.1 30 12:44 22.04.2020
4465 Clear 14 1030 41 10000 4.1 30 12:24 22.04.2020
4466 Clear 14 1030 44 10000 3.6 20 11:58 22.04.2020
4467 Clear 13 1030 50 10000 4.1 340 11:39 22.04.2020
4468 Clear 13 1030 50 10000 4.1 340 11:39 22.04.2020
4469 Clear 13 1030 50 10000 4.1 340 11:20 22.04.2020
4470 Clear 13 1030 50 10000 4.1 340 11:20 22.04.2020
4471 Clear 12 1031 54 10000 3.6 360 10:45 22.04.2020
4472 Clear 12 1031 54 10000 3.6 360 10:25 22.04.2020
4473 Clear 12 1031 53 10000 3.1 10 09:56 22.04.2020
4474 Clear 11 1031 53 10000 3.6 360 09:38 22.04.2020
4475 Clear 10 1031 53 10000 3.6 360 09:19 22.04.2020
4476 Clear 10 1031 57 10000 2.6 340 08:54 22.04.2020
4477 Clear 9 1031 61 10000 2.6 350 08:36 22.04.2020
4478 Clear 9 1031 65 10000 1.5 340 08:18 22.04.2020
4479 Clear 8 1031 70 10000 2.1 10 07:44 22.04.2020
4480 Clear 7 1031 70 10000 2.1 10 07:21 22.04.2020
4481 Clear 6 1031 75 10000 1.5 0 06:44 22.04.2020
4482 Clear 5 1030 75 10000 1.5 50 05:45 22.04.2020
4483 Clear 5 1030 75 10000 1.5 50 04:59 22.04.2020
4484 Clear 4 1030 80 10000 1.5 40 03:54 22.04.2020
4485 Clear 5 1030 75 10000 0.79 297 02:35 22.04.2020
4486 Clear 5 1030 80 10000 0.95 296 01:41 22.04.2020
4487 Clear 5 1030 80 10000 0.95 296 01:23 22.04.2020
4488 Clear 6 1030 75 10000 0.95 296 00:41 22.04.2020
4489 Clouds 7 1030 70 10000 1 130 00:20 22.04.2020
4490 Clouds 7 1030 70 10000 1 130 00:20 22.04.2020
4491 Clouds 7 1030 65 10000 1 130 23:45 21.04.2020
4492 Clouds 7 1030 65 10000 1 130 23:23 21.04.2020
4493 Clouds 8 1030 61 10000 1.5 150 22:59 21.04.2020
4494 Clouds 8 1030 57 10000 2.1 130 22:39 21.04.2020
4495 Clouds 9 1030 53 10000 2.1 140 22:20 21.04.2020
4496 Clouds 9 1030 53 10000 2.1 140 21:57 21.04.2020
4497 Clear 10 1030 50 10000 2.6 130 21:39 21.04.2020
4498 Clear 10 1030 50 10000 2.6 130 21:39 21.04.2020
4499 Clear 11 1030 50 10000 2.6 130 21:21 21.04.2020
4500 Clear 13 1030 47 10000 2.6 120 20:41 21.04.2020
4501 Clear 13 1030 47 10000 2.6 120 20:23 21.04.2020
4502 Clear 15 1030 38 10000 2.6 310 19:59 21.04.2020
4503 Clear 17 1030 36 10000 4.1 290 19:39 21.04.2020
4504 Clear 17 1030 36 10000 4.1 290 19:19 21.04.2020
4505 Clear 17 1030 36 10000 4.1 290 18:56 21.04.2020
4506 Clear 17 1030 36 10000 2.6 290 18:37 21.04.2020
4507 Clear 17 1030 36 10000 2.6 290 18:18 21.04.2020
4508 Clear 17 1030 36 10000 2.6 290 18:18 21.04.2020
4509 Clear 17 1030 36 10000 3.6 300 17:40 21.04.2020
4510 Clear 17 1030 36 10000 3.6 300 17:21 21.04.2020
4511 Clear 17 1031 36 10000 3.1 280 16:59 21.04.2020
4512 Clear 17 1031 36 10000 3.1 310 16:38 21.04.2020
4513 Clear 17 1031 36 10000 2.6 270 16:19 21.04.2020
4514 Clear 17 1031 36 10000 2.6 270 15:55 21.04.2020
4515 Clear 16 1031 36 10000 2.6 300 15:37 21.04.2020
4516 Clear 16 1032 38 10000 3.1 360 15:19 21.04.2020
4517 Clear 16 1032 38 10000 2.6 340 14:45 21.04.2020
4518 Clear 16 1032 38 10000 2.6 340 14:25 21.04.2020
4519 Clear 16 1032 38 10000 3.1 320 13:58 21.04.2020
4520 Clear 15 1032 41 10000 3.1 350 13:38 21.04.2020
4521 Clear 15 1032 41 10000 3.6 360 13:18 21.04.2020
4522 Clear 15 1033 41 10000 3.6 320 12:40 21.04.2020
4523 Clear 14 1033 44 10000 4.1 320 12:20 21.04.2020
4524 Clear 14 1033 44 10000 4.1 320 11:58 21.04.2020
4525 Clear 14 1033 44 10000 3.6 350 11:39 21.04.2020
4526 Clear 13 1033 51 10000 3.6 330 11:20 21.04.2020
4527 Clear 13 1033 51 10000 3.6 330 10:59 21.04.2020
4528 Clear 12 1033 46 10000 2.1 350 10:40 21.04.2020
4529 Clear 12 1033 46 10000 2.1 350 10:22 21.04.2020
4530 Clear 12 1033 50 10000 3.1 10 09:59 21.04.2020
4531 Clear 11 1033 57 10000 3.1 340 09:37 21.04.2020
4532 Clear 10 1033 53 10000 2.1 330 09:18 21.04.2020
4533 Clear 9 1033 65 10000 2.1 360 08:46 21.04.2020
4534 Clear 8 1033 65 10000 2.1 360 08:27 21.04.2020
4535 Clear 7 1033 65 10000 2.1 360 07:55 21.04.2020
4536 Clear 6 1033 70 10000 1.5 0 07:36 21.04.2020
4537 Clear 5 1033 69 10000 1 0 07:18 21.04.2020
4538 Clear 4 1033 69 10000 1.5 350 06:42 21.04.2020
4539 Clear 3 1032 81 10000 2.1 360 05:51 21.04.2020
4540 Clear 3 1032 81 10000 2.1 360 05:32 21.04.2020
4541 Clear 3 1032 81 10000 1.5 330 03:48 21.04.2020
4542 Clear 4 1032 75 10000 1.5 280 02:47 21.04.2020
4543 Clear 5 1032 79 10000 1.5 270 01:33 21.04.2020
4544 Clear 5 1031 79 10000 1.5 310 00:47 21.04.2020
4545 Clear 5 1031 73 10000 1.5 310 00:23 21.04.2020
4546 Clear 5 1031 65 10000 1.5 340 23:44 20.04.2020
4547 Clear 5 1031 65 10000 1.5 340 23:23 20.04.2020
4548 Clear 6 1031 70 10000 1 0 22:57 20.04.2020
4549 Clear 7 1031 65 10000 2.1 10 22:37 20.04.2020
4550 Clear 7 1031 65 10000 2.1 10 22:19 20.04.2020
4551 Clear 7 1031 70 10000 1 20 22:19 20.04.2020
4552 Clear 7 1031 70 10000 1 20 21:55 20.04.2020
4553 Clear 7 1030 70 10000 1 0 21:37 20.04.2020
4554 Clouds 8 1030 70 10000 1 0 21:18 20.04.2020
4555 Clouds 9 1030 66 10000 2.6 120 20:55 20.04.2020
4556 Clouds 9 1030 66 10000 3.6 120 20:36 20.04.2020
4557 Clouds 10 1029 66 10000 3.6 100 20:18 20.04.2020
4558 Clouds 11 1029 58 10000 5.7 80 19:41 20.04.2020
4559 Clouds 12 1029 58 10000 5.7 80 19:23 20.04.2020
4560 Clouds 14 1028 41 10000 3.6 330 18:59 20.04.2020
4561 Clouds 15 1028 41 10000 4.6 330 18:41 20.04.2020
4562 Clouds 15 1028 41 10000 4.1 300 18:20 20.04.2020
4563 Clouds 15 1028 41 10000 4.1 300 17:55 20.04.2020
4564 Clouds 15 1028 44 10000 3.1 320 17:36 20.04.2020
4565 Clouds 15 1028 44 10000 3.1 290 17:18 20.04.2020
4566 Clouds 15 1029 41 10000 2.1 0 16:43 20.04.2020
4567 Clouds 14 1029 44 10000 2.6 320 16:20 20.04.2020
4568 Clouds 14 1029 44 10000 2.6 320 15:57 20.04.2020
4569 Clouds 14 1029 47 10000 3.6 320 15:38 20.04.2020
4570 Clouds 15 1029 47 10000 3.1 300 15:20 20.04.2020
4571 Clouds 14 1029 47 10000 3.1 310 14:42 20.04.2020
4572 Clouds 13 1029 47 10000 3.1 350 14:20 20.04.2020
4573 Clouds 14 1029 47 10000 3.1 350 13:59 20.04.2020
4574 Clouds 14 1029 47 10000 3.1 280 13:39 20.04.2020
4575 Clouds 14 1029 47 10000 3.1 280 13:20 20.04.2020
4576 Clouds 13 1029 50 10000 3.1 290 12:44 20.04.2020
4577 Clouds 13 1029 50 10000 3.1 290 12:24 20.04.2020
4578 Clouds 12 1029 54 10000 2.1 310 11:58 20.04.2020
4579 Clouds 12 1029 57 10000 2.6 310 11:39 20.04.2020
4580 Clouds 12 1029 57 10000 2.6 310 11:20 20.04.2020
4581 Clouds 11 1029 61 10000 2.6 300 10:55 20.04.2020
4582 Clouds 11 1029 61 10000 1.5 0 10:37 20.04.2020
4583 Clouds 11 1029 61 10000 1.5 0 10:37 20.04.2020
4584 Clouds 11 1029 61 10000 2.1 320 10:18 20.04.2020
4585 Clear 10 1029 66 10000 2.1 310 09:44 20.04.2020
4586 Clouds 9 1029 66 10000 2.1 310 09:26 20.04.2020
4587 Clouds 9 1029 70 10000 2.6 350 08:59 20.04.2020
4588 Clouds 9 1029 65 10000 2.6 350 08:40 20.04.2020
4589 Clouds 8 1029 65 10000 2.6 350 08:19 20.04.2020
4590 Clouds 8 1028 65 10000 2.6 350 08:19 20.04.2020
4591 Clouds 8 1028 65 10000 2.6 350 07:52 20.04.2020
4592 Clouds 8 1028 65 10000 2.1 350 07:28 20.04.2020
4593 Clouds 8 1028 65 10000 3.1 350 06:54 20.04.2020
4594 Clouds 7 1028 65 10000 2.1 350 06:35 20.04.2020
4595 Clouds 7 1027 65 10000 2.1 330 05:25 20.04.2020
4596 Clouds 6 1027 70 10000 1 330 03:36 20.04.2020
4597 Clouds 6 1026 70 10000 2.16 326 02:42 20.04.2020
4598 Clouds 7 1026 65 10000 0.5 0 01:32 20.04.2020
4599 Clouds 7 1026 65 10000 0.5 0 01:32 20.04.2020
4600 Clouds 7 1026 65 10000 2.16 326 00:58 20.04.2020
4601 Clouds 7 1026 61 10000 0.5 0 00:33 20.04.2020
4602 Clouds 7 1025 61 10000 1.37 249 23:55 19.04.2020
4603 Clouds 7 1025 61 10000 1.37 249 23:37 19.04.2020
4604 Clouds 7 1025 61 10000 0.5 0 23:18 19.04.2020
4605 Clouds 7 1025 61 10000 1 170 22:39 19.04.2020
4606 Clouds 7 1025 61 10000 1 170 22:21 19.04.2020
4607 Clouds 8 1025 61 10000 1.37 249 21:56 19.04.2020
4608 Clouds 8 1025 67 10000 2.1 130 21:37 19.04.2020
4609 Clouds 8 1025 68 10000 2.1 140 21:18 19.04.2020
4610 Clouds 8 1025 68 10000 1 320 20:41 19.04.2020
4611 Clouds 9 1025 68 10000 1 320 20:21 19.04.2020
4612 Clouds 9 1024 68 10000 2.6 320 19:59 19.04.2020
4613 Clouds 10 1024 68 10000 3.1 350 19:41 19.04.2020
4614 Clouds 10 1024 68 10000 3.1 350 19:22 19.04.2020
4615 Clouds 11 1024 68 10000 3.1 330 18:58 19.04.2020
4616 Clouds 11 1024 68 10000 3.1 330 18:58 19.04.2020
4617 Clouds 11 1024 68 10000 4.1 340 18:39 19.04.2020
4618 Clouds 11 1024 50 10000 4.1 330 18:20 19.04.2020
4619 Clouds 11 1024 50 10000 4.1 330 17:57 19.04.2020
4620 Clouds 12 1024 50 10000 4.1 340 17:38 19.04.2020
4621 Clouds 12 1024 50 10000 4.6 330 17:20 19.04.2020
4622 Clouds 12 1024 50 10000 4.6 330 16:57 19.04.2020
4623 Clouds 12 1024 50 10000 4.1 320 16:38 19.04.2020
4624 Clouds 12 1024 50 10000 4.1 320 16:19 19.04.2020
4625 Clouds 12 1024 50 10000 5.1 310 15:43 19.04.2020
4626 Clear 12 1024 46 10000 5.1 310 15:22 19.04.2020
4627 Clear 12 1024 46 10000 3.6 320 14:55 19.04.2020
4628 Clear 12 1024 46 10000 3.6 310 14:37 19.04.2020
4629 Clear 12 1024 47 10000 4.1 330 14:19 19.04.2020
4630 Clear 12 1024 47 10000 4.1 320 13:40 19.04.2020
4631 Clear 12 1024 47 10000 4.1 320 13:21 19.04.2020
4632 Clear 12 1024 47 10000 4.1 320 12:58 19.04.2020
4633 Clear 11 1024 47 10000 3.6 310 12:40 19.04.2020
4634 Clear 11 1024 55 10000 3.6 310 12:20 19.04.2020
4635 Clear 10 1024 46 10000 2.6 330 11:37 19.04.2020
4636 Clear 10 1024 49 10000 2.6 360 11:19 19.04.2020
4637 Clear 9 1024 49 10000 2.6 360 10:58 19.04.2020
4638 Clear 9 1024 45 10000 3.1 360 10:39 19.04.2020
4639 Clear 8 1024 55 10000 3.1 310 10:19 19.04.2020
4640 Clear 8 1024 55 10000 3.1 330 09:46 19.04.2020
4641 Clear 7 1024 75 10000 3.1 330 09:28 19.04.2020
4642 Clear 7 1024 75 10000 4.6 340 08:59 19.04.2020
4643 Clear 6 1024 75 10000 4.1 340 08:37 19.04.2020
4644 Clear 5 1023 75 10000 4.1 330 08:18 19.04.2020
4645 Clear 5 1023 75 10000 3.6 320 07:41 19.04.2020
4646 Clear 4 1023 75 10000 3.6 320 07:23 19.04.2020
4647 Clear 3 1023 74 10000 2.6 320 06:31 19.04.2020
4648 Clear 2 1022 80 10000 2.6 310 05:56 19.04.2020
4649 Clear 3 1022 74 10000 3.1 310 04:48 19.04.2020
4650 -273 0 0 0 0 0 02:59 19.04.2020
4651 Clouds 2 1021 74 10000 2.1 300 02:21 19.04.2020
4652 Clouds 2 1021 64 10000 2.1 290 01:39 19.04.2020
4653 Clouds 2 1021 69 10000 2.1 280 00:50 19.04.2020
4654 Clouds 2 1021 69 10000 2.1 280 00:26 19.04.2020
4655 Clouds 2 1021 69 10000 1.5 290 23:59 18.04.2020
4656 Clouds 2 1020 74 10000 1.5 280 23:39 18.04.2020
4657 Clouds 3 1020 64 10000 1.5 270 23:19 18.04.2020
4658 Clouds 5 1021 52 10000 1.5 270 22:42 18.04.2020
4659 Clouds 5 1021 52 10000 1.5 270 22:22 18.04.2020
4660 Clouds 5 1020 55 10000 1 320 21:58 18.04.2020
4661 Clouds 6 1020 48 10000 1.5 310 21:38 18.04.2020
4662 Clear 6 1020 48 10000 1.5 310 21:20 18.04.2020
4663 Clear 7 1020 39 10000 3.1 320 20:42 18.04.2020
4664 Clear 7 1020 39 10000 3.1 320 20:23 18.04.2020
4665 Clear 8 1019 39 10000 4.6 330 19:59 18.04.2020
4666 Clear 8 1019 34 10000 4.1 340 19:39 18.04.2020
4667 Clear 8 1019 34 10000 4.1 340 19:21 18.04.2020
4668 Clear 9 1019 34 10000 3.6 360 18:39 18.04.2020
4669 Clear 9 1019 34 10000 3.6 360 18:20 18.04.2020
4670 Clear 9 1019 34 10000 5.1 350 17:56 18.04.2020
4671 Clear 9 1019 34 10000 5.7 360 17:38 18.04.2020
4672 Clear 9 1019 34 10000 5.1 350 17:18 18.04.2020
4673 Clear 9 1019 34 10000 6.7 300 16:42 18.04.2020
4674 Clear 9 1019 34 10000 6.7 300 16:22 18.04.2020
4675 Clear 9 1019 31 10000 5.7 10 15:55 18.04.2020
4676 Clear 9 1019 36 10000 6.2 340 15:37 18.04.2020
4677 Clear 9 1019 33 10000 6.2 340 15:18 18.04.2020
4678 Clear 9 1019 34 10000 7.7 340 14:41 18.04.2020
4679 Clear 8 1019 33 10000 6.2 330 14:19 18.04.2020
4680 Clear 8 1020 36 10000 5.7 330 13:43 18.04.2020
4681 Clear 8 1020 36 10000 5.7 340 13:20 18.04.2020
4682 Clear 7 1020 38 10000 7.7 320 12:43 18.04.2020
4683 Clear 7 1020 38 10000 7.7 320 12:25 18.04.2020
4684 Clouds 7 1020 41 10000 6.2 320 11:58 18.04.2020
4685 Clouds 7 1020 41 10000 6.2 300 11:40 18.04.2020
4686 Clouds 6 1019 48 10000 5.1 320 11:21 18.04.2020
4687 Clouds 6 1019 48 10000 5.1 320 11:21 18.04.2020
4688 Clouds 6 1019 48 10000 5.1 340 10:42 18.04.2020
4689 Clouds 6 1019 48 10000 5.1 340 10:22 18.04.2020
4690 Clouds 5 1019 48 10000 5.7 330 09:59 18.04.2020
4691 Clear 5 1019 55 10000 5.1 330 09:40 18.04.2020
4692 Clear 5 1019 55 10000 5.1 330 09:20 18.04.2020
4693 Clear 4 1019 59 10000 5.1 320 08:43 18.04.2020
4694 Clear 3 1019 59 10000 5.1 320 08:22 18.04.2020
4695 Clear 3 1019 59 10000 5.1 320 08:22 18.04.2020
4696 Clear 2 1019 59 10000 4.1 310 07:49 18.04.2020
4697 Clear 2 1019 59 10000 4.1 310 07:29 18.04.2020
4698 Clear 1 1019 76 10000 2.6 300 06:49 18.04.2020
4699 Clear 1 1019 87 10000 3.1 300 05:49 18.04.2020
4700 Clear 1 1018 59 10000 3.1 310 04:56 18.04.2020
4701 Clear 1 1018 59 10000 3.1 290 04:31 18.04.2020
4702 Clear 2 1018 55 10000 3.6 290 03:34 18.04.2020
4703 Clouds 3 1018 51 10000 2.6 270 02:42 18.04.2020
4704 Clouds 2 1018 51 10000 2.6 270 02:21 18.04.2020
4705 Clouds 3 1018 47 10000 3.1 300 01:45 18.04.2020
4706 Clouds 3 1018 47 10000 3.1 300 01:22 18.04.2020
4707 Clouds 4 1017 41 10000 4.1 310 00:37 18.04.2020
4708 Clouds 5 1017 41 10000 4.1 320 00:18 18.04.2020
4709 Clouds 5 1017 41 10000 3.6 310 23:41 17.04.2020
4710 Clouds 5 1017 41 10000 3.6 310 23:20 17.04.2020
4711 Clouds 5 1017 45 10000 3.6 310 23:20 17.04.2020
4712 Clouds 6 1017 45 10000 3.6 310 22:59 17.04.2020
4713 Clouds 6 1017 48 10000 2.6 290 22:40 17.04.2020
4714 Clouds 5 1016 52 10000 2.1 280 22:20 17.04.2020
4715 Clouds 5 1016 52 10000 2.1 280 21:58 17.04.2020
4716 Clouds 6 1016 48 10000 1.5 290 21:39 17.04.2020
4717 Rain 6 1016 48 10000 1.5 290 21:19 17.04.2020
4718 Rain 6 1016 45 10000 3.1 300 20:55 17.04.2020
4719 Rain 7 1016 42 10000 4.6 330 20:36 17.04.2020
4720 Rain 8 1016 42 10000 3.6 300 20:18 17.04.2020
4721 Rain 8 1016 42 10000 3.1 310 19:46 17.04.2020
4722 Rain 8 1015 42 10000 5.1 320 19:24 17.04.2020
4723 Rain 9 1015 42 10000 5.1 320 18:55 17.04.2020
4724 Rain 9 1015 39 10000 5.1 340 18:36 17.04.2020
4725 Rain 9 1015 39 10000 6.2 330 18:18 17.04.2020
4726 Rain 9 1015 45 10000 4.6 350 17:38 17.04.2020
4727 Rain 9 1015 45 10000 4.6 350 17:19 17.04.2020
4728 Rain 9 1014 36 10000 5.1 10 16:44 17.04.2020
4729 Rain 9 1014 36 10000 5.1 10 16:24 17.04.2020
4730 Rain 10 1014 27 10000 8.7 330 15:59 17.04.2020
4731 Rain 10 1014 25 10000 8.7 300 15:38 17.04.2020
4732 Rain 10 1013 29 10000 8.7 340 15:20 17.04.2020
4733 Clouds 9 1013 29 10000 7.7 300 14:42 17.04.2020
4734 Clouds 10 1013 29 10000 7.7 300 14:23 17.04.2020
4735 Clouds 10 1013 31 10000 8.7 330 13:59 17.04.2020
4736 Clouds 9 1013 31 10000 9.8 300 13:39 17.04.2020
4737 Clouds 9 1013 31 10000 9.8 300 13:20 17.04.2020
4738 Clouds 9 1013 31 10000 8.7 300 12:48 17.04.2020
4739 Clear 9 1013 36 10000 7.2 300 12:27 17.04.2020
4740 Clear 8 1013 39 10000 8.2 310 11:58 17.04.2020
4741 Clear 8 1013 39 10000 7.7 320 11:38 17.04.2020
4742 Clear 7 1013 42 10000 7.2 320 11:19 17.04.2020
4743 Clear 7 1013 42 10000 7.2 310 10:40 17.04.2020
4744 Clear 6 1013 45 10000 7.2 300 10:20 17.04.2020
4745 Clear 6 1013 45 10000 7.2 300 09:55 17.04.2020
4746 Clear 6 1013 45 10000 7.2 300 09:55 17.04.2020
4747 Clear 5 1013 52 10000 8.7 300 09:36 17.04.2020
4748 Clear 5 1013 55 10000 7.7 300 09:18 17.04.2020
4749 Clear 4 1013 55 10000 7.7 300 08:45 17.04.2020
4750 Clear 4 1013 55 10000 7.7 300 08:26 17.04.2020
4751 Clear 3 1013 59 10000 7.2 300 07:54 17.04.2020
4752 Clear 3 1013 55 10000 6.2 290 07:36 17.04.2020
4753 Clear 3 1012 59 10000 5.7 290 07:18 17.04.2020
4754 Clear 2 1012 59 10000 5.7 290 06:28 17.04.2020
4755 Clear 2 1012 59 10000 5.7 290 05:49 17.04.2020
4756 Clouds 3 1011 55 10000 4.1 280 03:22 17.04.2020
4757 Clouds 3 1011 55 10000 5.7 280 02:49 17.04.2020
4758 Clouds 4 1011 51 10000 4.6 290 01:30 17.04.2020
4759 Clouds 5 1010 44 10000 5.1 300 00:59 17.04.2020
4760 Clouds 5 1010 44 10000 5.1 290 00:20 17.04.2020
4761 Clouds 5 1010 44 10000 4.6 290 23:46 16.04.2020
4762 Clouds 5 1010 41 10000 4.6 290 23:24 16.04.2020
4763 Clouds 5 1009 41 10000 5.7 290 22:59 16.04.2020
4764 Clouds 6 1009 38 10000 5.7 300 22:39 16.04.2020
4765 Clouds 6 1009 38 10000 5.7 300 22:39 16.04.2020
4766 Clouds 6 1009 38 10000 5.7 300 22:39 16.04.2020
4767 Clouds 6 1009 38 10000 5.7 300 22:20 16.04.2020
4768 Clouds 6 1009 41 10000 5.1 290 21:57 16.04.2020
4769 Clouds 6 1009 39 10000 4.6 280 21:38 16.04.2020
4770 Rain 7 1009 39 10000 4.6 280 21:18 16.04.2020
4771 Rain 7 1008 33 10000 6.2 300 20:41 16.04.2020
4772 Rain 7 1008 33 10000 6.2 300 20:22 16.04.2020
4773 Rain 8 1008 31 10000 7.7 300 19:57 16.04.2020
4774 Rain 8 1008 31 10000 7.2 300 19:38 16.04.2020
4775 Rain 8 1008 34 10000 7.7 310 19:19 16.04.2020
4776 Rain 9 1007 34 10000 6.7 310 18:46 16.04.2020
4777 Clouds 9 1007 34 10000 6.7 310 18:27 16.04.2020
4778 Clouds 9 1007 29 10000 7.7 310 17:59 16.04.2020
4779 Clouds 10 1007 29 10000 7.7 310 17:40 16.04.2020
4780 Clouds 9 1007 34 10000 8.2 320 17:21 16.04.2020
4781 Clouds 10 1006 29 10000 6.2 330 16:45 16.04.2020
4782 Rain 10 1006 23 10000 7.2 300 16:26 16.04.2020
4783 Rain 10 1006 23 10000 7.2 300 16:26 16.04.2020
4784 Clouds 11 1005 21 10000 8.2 300 15:58 16.04.2020
4785 Clouds 11 1005 21 10000 8.2 300 15:39 16.04.2020
4786 Clear 11 1005 25 10000 8.7 300 15:19 16.04.2020
4787 Clear 11 1005 27 10000 6.7 300 14:55 16.04.2020
4788 Clear 10 1004 27 10000 8.2 290 14:37 16.04.2020
4789 Clear 11 1004 27 10000 8.2 290 14:18 16.04.2020
4790 Clear 10 1004 29 10000 8.7 310 13:41 16.04.2020
4791 Clear 10 1003 29 10000 8.2 330 13:23 16.04.2020
4792 Clear 10 1004 31 10000 7.7 320 12:58 16.04.2020
4793 Clear 10 1003 31 10000 9.8 320 12:39 16.04.2020
4794 Clear 10 1003 31 10000 9.8 320 12:39 16.04.2020
4795 Clear 9 1003 31 10000 9.8 320 12:20 16.04.2020
4796 Clear 9 1003 37 10000 9.3 320 12:20 16.04.2020
4797 Clear 9 1003 37 10000 9.3 320 11:59 16.04.2020
4798 Clear 9 1002 39 10000 9.3 330 11:41 16.04.2020
4799 Clear 9 1002 39 10000 9.3 330 11:21 16.04.2020
4800 Clear 9 1002 39 10000 9.3 320 10:55 16.04.2020
4801 Clear 8 1001 42 10000 9.8 320 10:37 16.04.2020
4802 Clear 8 1001 42 10000 9.8 320 10:18 16.04.2020
4803 Clear 8 1001 42 10000 10.3 320 09:54 16.04.2020
4804 Clear 8 1000 42 10000 8.7 310 09:36 16.04.2020
4805 Clouds 8 1000 42 10000 8.7 310 09:18 16.04.2020
4806 Clouds 7 1000 45 10000 10.8 310 08:41 16.04.2020
4807 Clouds 7 999 48 10000 10.8 300 08:21 16.04.2020
4808 Clouds 7 999 48 10000 9.8 300 07:46 16.04.2020
4809 Clouds 7 998 52 10000 9.8 300 07:26 16.04.2020
4810 Clouds 7 997 56 10000 9.3 290 06:43 16.04.2020
4811 Clouds 7 997 56 10000 9.3 290 06:24 16.04.2020
4812 Clouds 7 996 65 10000 7.2 290 05:30 16.04.2020
4813 Clouds 8 994 61 10000 8.7 280 03:49 16.04.2020
4814 Clouds 8 993 61 10000 11.8 270 03:23 16.04.2020
4815 Clouds 8 993 65 10000 8.7 260 02:47 16.04.2020
4816 Clouds 8 993 65 10000 8.7 260 02:28 16.04.2020
4817 Clouds 9 994 66 10000 7.7 250 01:18 16.04.2020
4818 Clouds 9 994 66 10000 6.7 260 00:28 16.04.2020
4819 Clouds 9 994 66 10000 6.2 240 23:58 15.04.2020
4820 Clouds 9 994 66 10000 6.2 240 23:40 15.04.2020
4821 Clouds 10 995 66 10000 6.7 250 23:21 15.04.2020
4822 Clouds 11 995 62 10000 8.2 240 22:40 15.04.2020
4823 Clouds 11 995 58 10000 5.1 240 22:22 15.04.2020
4824 Clouds 12 996 58 10000 5.7 240 21:59 15.04.2020
4825 Clouds 12 997 50 10000 6.7 240 21:40 15.04.2020
4826 Clouds 12 997 50 10000 6.7 240 21:22 15.04.2020
4827 Clouds 12 997 50 10000 5.7 230 20:57 15.04.2020
4828 Clouds 13 998 47 10000 5.1 230 20:39 15.04.2020
4829 Clouds 13 998 47 10000 5.1 230 20:21 15.04.2020
4830 Clouds 13 999 44 10000 5.1 240 19:45 15.04.2020
4831 Clouds 14 999 44 10000 5.1 240 19:21 15.04.2020
4832 Clouds 14 1000 38 10000 6.7 240 18:56 15.04.2020
4833 Clouds 14 1000 38 10000 6.7 240 18:56 15.04.2020
4834 Clouds 14 1000 33 10000 3.1 250 18:37 15.04.2020
4835 Clouds 15 1001 30 10000 6.2 280 18:19 15.04.2020
4836 Clouds 15 1001 30 10000 6.7 260 17:40 15.04.2020
4837 Clouds 15 1001 30 10000 6.7 260 17:21 15.04.2020
4838 Clouds 15 1001 30 10000 6.7 260 16:58 15.04.2020
4839 Clouds 14 1002 30 10000 6.7 280 16:39 15.04.2020
4840 Clouds 14 1002 30 10000 6.7 280 16:20 15.04.2020
4841 Clouds 14 1002 28 10000 6.7 270 15:59 15.04.2020
4842 Clouds 13 1003 30 10000 6.7 300 15:40 15.04.2020
4843 Clouds 13 1003 30 10000 6.7 300 15:20 15.04.2020
4844 Clouds 13 1003 33 10000 6.7 280 14:59 15.04.2020
4845 Clouds 12 1003 40 10000 7.2 290 14:40 15.04.2020
4846 Clouds 12 1003 40 10000 7.2 290 14:22 15.04.2020
4847 Clouds 12 1003 40 10000 7.7 280 13:58 15.04.2020
4848 Clouds 12 1003 37 10000 7.2 290 13:39 15.04.2020
4849 Clouds 12 1003 37 10000 7.2 290 13:21 15.04.2020
4850 Clouds 11 1003 40 10000 6.2 300 12:57 15.04.2020
4851 Clouds 11 1003 45 10000 5.7 310 12:39 15.04.2020
4852 Clouds 11 1003 50 10000 7.7 300 12:21 15.04.2020
4853 Clouds 10 1003 50 10000 7.7 300 11:45 15.04.2020
4854 Clouds 10 1003 53 10000 7.2 310 11:25 15.04.2020
4855 Clouds 9 1003 61 10000 7.2 300 10:59 15.04.2020
4856 Clouds 9 1003 61 10000 7.2 300 10:37 15.04.2020
4857 Clouds 9 1003 61 10000 7.2 300 10:19 15.04.2020
4858 Clouds 8 1002 70 10000 7.2 290 09:55 15.04.2020
4859 Clouds 8 1002 75 10000 6.7 280 09:37 15.04.2020
4860 Clouds 7 1002 75 10000 6.7 280 09:19 15.04.2020
4861 Clouds 6 1002 81 10000 7.2 270 08:42 15.04.2020
4862 Clouds 6 1002 81 10000 5.7 270 08:23 15.04.2020
4863 Clouds 6 1002 81 10000 4.6 270 07:57 15.04.2020
4864 Clouds 5 1002 86 10000 5.7 260 07:38 15.04.2020
4865 Clouds 5 1001 86 10000 4.6 260 06:49 15.04.2020
4866 Rain 4 1002 93 10000 4.6 260 06:24 15.04.2020
4867 Rain 4 1002 86 10000 5.1 260 05:23 15.04.2020
4868 Rain 4 1002 93 10000 3.6 250 04:46 15.04.2020
4869 Rain 4 1003 93 10000 4.1 260 04:18 15.04.2020
4870 Rain 4 1003 93 10000 4.6 260 03:22 15.04.2020
4871 Drizzle 4 1003 93 10000 4.6 260 02:40 15.04.2020
4872 Drizzle 4 1003 93 10000 5.7 260 01:50 15.04.2020
4873 Rain 4 1003 93 10000 5.1 260 01:24 15.04.2020
4874 Rain 5 1004 86 10000 6.2 270 00:46 15.04.2020
4875 Rain 5 1004 86 10000 6.2 270 00:23 15.04.2020
4876 Drizzle 5 1004 80 10000 6.2 260 23:55 14.04.2020
4877 Drizzle 5 1005 80 10000 4.6 260 23:37 14.04.2020
4878 Drizzle 4 1005 80 10000 4.6 260 23:18 14.04.2020
4879 Drizzle 5 1005 80 10000 5.7 280 22:56 14.04.2020
4880 Drizzle 5 1006 70 10000 7.2 290 22:38 14.04.2020
4881 Clouds 5 1006 64 10000 8.7 280 22:19 14.04.2020
4882 Clouds 6 1006 64 10000 8.7 280 21:55 14.04.2020
4883 Clouds 6 1006 64 10000 9.8 290 21:37 14.04.2020
4884 Clouds 6 1006 64 10000 9.8 290 21:37 14.04.2020
4885 Clouds 6 1006 61 10000 9.8 290 21:18 14.04.2020
4886 Clouds 7 1006 49 10000 6.2 260 20:41 14.04.2020
4887 Clouds 7 1006 52 10000 5.1 260 20:23 14.04.2020
4888 Clouds 7 1006 52 10000 5.1 270 19:59 14.04.2020
4889 Clouds 7 1007 56 10000 7.2 280 19:40 14.04.2020
4890 Clouds 7 1007 56 10000 7.2 280 19:21 14.04.2020
4891 Clouds 7 1007 56 10000 7.7 270 18:57 14.04.2020
4892 Clouds 7 1007 49 10000 7.2 300 18:38 14.04.2020
4893 Clouds 7 1007 49 10000 7.2 300 18:19 14.04.2020
4894 Clouds 8 1007 52 10000 10.3 290 17:56 14.04.2020
4895 Clouds 8 1007 42 10000 9.8 290 17:37 14.04.2020
4896 Clouds 8 1007 42 10000 9.8 290 17:37 14.04.2020
4897 Clouds 8 1007 42 10000 9.8 290 17:37 14.04.2020
4898 Clouds 8 1007 42 10000 9.8 290 17:19 14.04.2020
4899 Clouds 8 1007 36 10000 7.7 280 16:43 14.04.2020
4900 Clouds 8 1007 31 10000 7.2 280 16:24 14.04.2020
4901 Clouds 8 1007 33 10000 9.8 280 15:58 14.04.2020
4902 Clouds 8 1007 33 10000 9.8 280 15:58 14.04.2020
4903 Clouds 7 1007 33 10000 8.7 290 15:40 14.04.2020
4904 Clouds 8 1007 33 10000 8.7 290 15:21 14.04.2020
4905 Clouds 8 1008 31 10000 8.7 290 14:59 14.04.2020
4906 Clouds 8 1008 31 10000 8.7 290 14:40 14.04.2020
4907 Clouds 8 1008 31 10000 8.7 290 14:40 14.04.2020
4908 Clouds 8 1008 30 10000 6.7 310 14:21 14.04.2020
4909 Clouds 7 1008 30 10000 8.2 310 13:56 14.04.2020
4910 Clouds 7 1008 33 10000 7.7 330 13:38 14.04.2020
4911 Clouds 7 1008 30 10000 7.2 320 13:20 14.04.2020
4912 Clouds 6 1008 35 10000 8.2 310 12:42 14.04.2020
4913 Clear 6 1008 35 10000 7.2 310 12:21 14.04.2020
4914 Clear 5 1008 35 10000 7.2 310 11:55 14.04.2020
4915 Clear 6 1008 36 10000 8.7 320 11:37 14.04.2020
4916 Clear 5 1008 36 10000 8.7 320 11:18 14.04.2020
4917 Clear 5 1008 41 10000 8.2 320 10:44 14.04.2020
4918 Clear 5 1008 44 10000 7.2 320 10:24 14.04.2020
4919 Clear 4 1008 48 10000 8.2 310 09:55 14.04.2020
4920 Clear 3 1008 51 10000 6.2 310 09:37 14.04.2020
4921 Clouds 3 1008 51 10000 6.2 310 09:18 14.04.2020
4922 Clouds 2 1007 55 10000 6.7 310 08:41 14.04.2020
4923 Clouds 2 1007 55 10000 6.7 310 08:22 14.04.2020
4924 Clouds 2 1007 55 10000 6.2 300 07:54 14.04.2020
4925 Clouds 2 1007 55 10000 7.2 300 07:30 14.04.2020
4926 Clouds 2 1007 55 10000 7.2 300 07:30 14.04.2020
4927 Clouds 2 1007 55 10000 7.7 300 06:49 14.04.2020
4928 Clouds 2 1007 55 10000 7.7 300 06:24 14.04.2020
4929 Clouds 3 1006 55 10000 6.2 300 03:52 14.04.2020
4930 Snow 3 1005 59 10000 7.2 300 02:56 14.04.2020
4931 Clouds 2 1004 64 10000 5.1 300 01:46 14.04.2020
4932 Clouds 2 1005 80 10000 4.6 280 01:24 14.04.2020
4933 Clouds 2 1005 86 10000 6.7 300 00:39 14.04.2020
4934 Clouds 2 1005 74 10000 7.7 320 00:19 14.04.2020
4935 Clouds 2 1004 55 10000 8.2 300 23:44 13.04.2020
4936 Clouds 3 1004 55 10000 8.2 300 23:26 13.04.2020
4937 Clouds 3 1004 51 10000 7.2 300 22:58 13.04.2020
4938 Clouds 3 1004 51 10000 7.7 300 22:40 13.04.2020
4939 Clouds 3 1004 51 10000 7.7 300 22:22 13.04.2020
4940 Clouds 3 1003 47 10000 6.7 300 21:56 13.04.2020
4941 Clouds 3 1003 44 10000 7.7 320 21:37 13.04.2020
4942 Clouds 3 1003 44 10000 7.7 320 21:19 13.04.2020
4943 Clouds 3 1003 41 10000 6.2 310 20:54 13.04.2020
4944 Clouds 3 1003 41 10000 6.2 310 20:54 13.04.2020
4945 Clouds 4 1003 38 10000 7.7 310 20:36 13.04.2020
4946 Clouds 4 1003 38 10000 7.7 310 20:18 13.04.2020
4947 Clouds 4 1003 38 10000 7.7 310 20:18 13.04.2020
4948 Clouds 5 1002 30 10000 7.7 310 19:39 13.04.2020
4949 Clouds 5 1002 30 10000 7.7 310 19:39 13.04.2020
4950 Clouds 5 1002 30 10000 7.7 310 19:20 13.04.2020
4951 Clouds 5 1002 28 10000 7.7 310 18:59 13.04.2020
4952 Clouds 5 1002 28 10000 8.2 310 18:39 13.04.2020
4953 Clouds 6 1001 26 10000 8.2 310 18:20 13.04.2020
4954 Clouds 6 1001 26 10000 8.2 310 17:58 13.04.2020
4955 Clouds 6 1001 26 10000 8.2 310 17:58 13.04.2020
4956 Clouds 6 1001 28 10000 9.8 300 17:38 13.04.2020
4957 Clouds 6 1001 28 10000 9.8 300 17:38 13.04.2020
4958 Clouds 6 1001 28 10000 9.8 300 17:19 13.04.2020
4959 Clouds 6 1001 26 10000 8.7 310 16:58 13.04.2020
4960 Clouds 6 1000 28 10000 8.7 330 16:40 13.04.2020
4961 Clouds 6 1000 28 10000 8.7 330 16:40 13.04.2020
4962 Clouds 7 1000 28 10000 10.8 300 16:21 13.04.2020
4963 Clouds 7 1000 28 10000 10.8 300 15:58 13.04.2020
4964 Clouds 7 1000 28 10000 10.8 300 15:39 13.04.2020
4965 Clouds 6 1000 26 10000 7.7 300 15:21 13.04.2020
4966 Clouds 6 999 28 10000 7.7 320 14:54 13.04.2020
4967 Clouds 7 999 30 10000 9.8 310 14:36 13.04.2020
4968 Clouds 7 999 30 10000 9.8 310 14:18 13.04.2020
4969 Clouds 6 999 33 10000 9.3 300 13:55 13.04.2020
4970 Clouds 6 999 35 10000 8.7 310 13:37 13.04.2020
4971 Clouds 6 999 35 10000 8.7 310 13:18 13.04.2020
4972 Clouds 6 999 38 10000 7.7 310 12:55 13.04.2020
4973 Clouds 6 999 52 10000 9.3 280 12:37 13.04.2020
4974 Clouds 5 999 52 10000 9.3 280 12:18 13.04.2020
4975 Clouds 4 999 55 10000 7.2 300 11:41 13.04.2020
4976 Clouds 4 999 60 10000 10.3 310 11:19 13.04.2020
4977 Clouds 5 999 48 10000 6.7 300 10:56 13.04.2020
4978 Clouds 4 999 51 10000 9.3 300 10:37 13.04.2020
4979 Clouds 4 999 51 10000 9.3 300 10:19 13.04.2020
4980 Clouds 4 998 51 10000 8.7 300 09:46 13.04.2020
4981 Clouds 4 998 55 10000 7.7 290 09:26 13.04.2020
4982 Clouds 3 998 60 10000 8.7 290 08:52 13.04.2020
4983 Clouds 3 998 69 10000 7.7 290 08:31 13.04.2020
4984 Clouds 3 998 69 10000 6.2 290 07:59 13.04.2020
4985 Clouds 3 998 74 10000 4.6 280 07:41 13.04.2020
4986 Clouds 2 998 69 10000 4.1 290 07:20 13.04.2020
4987 Clouds 2 998 69 10000 4.1 290 06:47 13.04.2020
4988 Clouds 2 997 69 10000 3.6 290 06:25 13.04.2020
4989 Clouds 2 997 74 10000 5.1 310 05:32 13.04.2020
4990 Clouds 3 997 74 10000 5.1 310 04:53 13.04.2020
4991 Clouds 3 996 64 10000 6.2 310 04:24 13.04.2020
4992 Clouds 4 996 69 10000 6.2 310 03:47 13.04.2020
4993 Rain 4 995 74 10000 6.7 280 02:59 13.04.2020
4994 Rain 4 995 77 10000 5.7 280 02:37 13.04.2020
4995 Rain 5 995 75 10000 4.1 270 01:43 13.04.2020
4996 Rain 5 995 75 10000 3.6 280 01:25 13.04.2020
4997 Rain 5 995 80 10000 6.7 300 00:42 13.04.2020
4998 Rain 6 995 75 10000 8.7 310 00:21 13.04.2020
4999 Drizzle 7 994 66 10000 7.7 240 23:48 12.04.2020
5000 Drizzle 8 994 66 10000 7.7 240 23:23 12.04.2020
5001 Rain 9 994 66 10000 7.2 240 22:59 12.04.2020
5002 Rain 9 994 66 10000 6.2 230 22:37 12.04.2020
5003 Rain 9 994 66 10000 6.2 230 22:19 12.04.2020
5004 Rain 9 994 66 10000 5.1 230 21:54 12.04.2020
5005 Rain 9 995 66 10000 5.1 230 21:36 12.04.2020
5006 Clouds 9 995 66 10000 5.1 230 21:18 12.04.2020
5007 Clouds 9 995 61 10000 7.7 250 20:41 12.04.2020
5008 Clouds 9 995 61 10000 7.7 250 20:22 12.04.2020
5009 Clouds 10 996 57 10000 8.2 260 19:56 12.04.2020
5010 Clouds 9 996 57 10000 8.2 260 19:56 12.04.2020
5011 Clouds 10 996 57 10000 8.7 260 19:38 12.04.2020
5012 Clouds 11 996 62 10000 7.7 260 19:18 12.04.2020
5013 Clouds 11 996 62 10000 7.7 260 18:41 12.04.2020
5014 Clouds 12 996 58 10000 5.7 250 18:23 12.04.2020
5015 Clouds 12 996 58 10000 5.7 250 17:58 12.04.2020
5016 Clouds 12 996 54 10000 6.7 250 17:40 12.04.2020
5017 Clouds 12 996 54 10000 6.7 250 17:21 12.04.2020
5018 Clouds 13 997 54 10000 8.7 250 16:57 12.04.2020
5019 Clouds 13 997 58 10000 8.7 240 16:39 12.04.2020
5020 Clouds 13 997 58 10000 8.7 240 16:20 12.04.2020
5021 Clouds 13 998 58 10000 8.7 230 15:47 12.04.2020
5022 Clouds 13 998 62 10000 7.7 240 15:29 12.04.2020
5023 Clouds 12 999 62 10000 6.7 230 14:54 12.04.2020
5024 Clouds 12 999 66 10000 6.7 230 14:36 12.04.2020
5025 Clouds 11 999 66 10000 6.7 230 14:18 12.04.2020
5026 Rain 10 1000 76 10000 5.1 230 13:41 12.04.2020
5027 Rain 10 1000 76 10000 5.1 230 13:23 12.04.2020
5028 Clouds 9 1001 76 10000 6.7 240 12:55 12.04.2020
5029 Clouds 9 1002 81 10000 7.7 230 12:37 12.04.2020
5030 Rain 9 1002 81 10000 7.7 230 12:18 12.04.2020
5031 Rain 9 1002 81 10000 4.6 230 11:42 12.04.2020
5032 Rain 8 1002 81 10000 4.6 230 11:22 12.04.2020
5033 Rain 8 1003 87 10000 5.1 230 10:58 12.04.2020
5034 Rain 8 1003 87 10000 6.2 230 10:40 12.04.2020
5035 Rain 8 1003 87 10000 6.2 230 10:21 12.04.2020
5036 Rain 8 1004 87 10000 4.6 220 10:00 12.04.2020
5037 Clouds 7 1004 93 10000 4.1 210 09:40 12.04.2020
5038 Rain 7 1004 93 10000 4.1 210 09:21 12.04.2020
5039 Rain 7 1005 93 10000 4.1 210 08:52 12.04.2020
5040 Rain 6 1005 93 10000 4.1 210 08:33 12.04.2020
5041 Rain 6 1005 93 10000 3.6 190 07:58 12.04.2020
5042 Rain 6 1006 93 10000 3.1 190 07:40 12.04.2020
5043 Drizzle 6 1007 93 3900 3.6 200 07:18 12.04.2020
5044 Mist 6 1007 93 8000 4.1 200 06:33 12.04.2020
5045 Rain 5 1007 93 10000 4.1 190 05:51 12.04.2020
5046 Rain 5 1008 93 10000 3.1 190 05:29 12.04.2020
5047 Drizzle 6 1010 93 10000 4.1 180 03:43 12.04.2020
5048 Rain 6 1012 87 10000 3.6 180 03:19 12.04.2020
5049 Rain 5 1012 87 10000 3.1 180 02:34 12.04.2020
5050 Drizzle 5 1013 87 10000 3.1 190 01:47 12.04.2020
5051 Drizzle 6 1014 81 10000 2.6 180 00:57 12.04.2020
5052 Drizzle 6 1014 81 10000 2.6 180 00:57 12.04.2020
5053 Drizzle 6 1015 81 10000 2.6 170 00:39 12.04.2020
5054 Clouds 6 1015 75 10000 2.6 150 00:19 12.04.2020
5055 Clouds 6 1015 75 10000 2.6 150 23:46 11.04.2020
5056 Clouds 6 1016 75 10000 3.6 160 23:25 11.04.2020
5057 Clouds 6 1016 70 10000 4.1 150 22:42 11.04.2020
5058 Clouds 6 1016 70 10000 4.1 150 22:42 11.04.2020
5059 Clouds 7 1017 56 10000 4.1 140 22:23 11.04.2020
5060 Clouds 7 1017 56 10000 4.1 140 22:23 11.04.2020
5061 Clouds 7 1018 56 10000 2.6 160 21:57 11.04.2020
5062 Clouds 7 1018 56 10000 2.6 160 21:57 11.04.2020
5063 Clouds 7 1018 56 10000 2.6 150 21:38 11.04.2020
5064 Clouds 7 1018 56 10000 2.6 150 21:38 11.04.2020
5065 Clouds 7 1018 56 10000 2.6 150 21:19 11.04.2020
5066 Clouds 7 1019 52 10000 3.1 170 20:58 11.04.2020
5067 Clouds 7 1020 45 10000 3.6 190 20:39 11.04.2020
5068 Clouds 7 1020 45 10000 3.6 190 20:20 11.04.2020
5069 Clouds 7 1020 42 10000 4.1 170 19:58 11.04.2020
5070 Clouds 8 1020 39 10000 3.6 190 19:39 11.04.2020
5071 Clouds 8 1020 39 10000 3.6 190 19:20 11.04.2020
5072 Clouds 8 1021 39 10000 4.6 190 18:58 11.04.2020
5073 Clouds 8 1021 36 10000 4.6 190 18:39 11.04.2020
5074 Clouds 9 1021 36 10000 4.6 190 18:21 11.04.2020
5075 Clouds 9 1021 36 10000 4.1 190 17:59 11.04.2020
5076 Clouds 9 1022 31 10000 4.6 200 17:41 11.04.2020
5077 Clouds 9 1022 31 10000 4.6 200 17:21 11.04.2020
5078 Clouds 10 1022 37 10000 4.1 190 16:58 11.04.2020
5079 Clouds 10 1022 37 10000 4.1 190 16:40 11.04.2020
5080 Clouds 10 1023 34 10000 1.5 0 16:20 11.04.2020
5081 Clouds 10 1023 34 10000 1 0 16:20 11.04.2020
5082 Clouds 10 1024 37 10000 1.5 300 15:39 11.04.2020
5083 Clouds 10 1024 37 10000 1.5 300 15:19 11.04.2020
5084 Clouds 10 1024 34 10000 3.1 240 14:43 11.04.2020
5085 Clouds 10 1024 37 10000 3.1 250 14:43 11.04.2020
5086 Clouds 10 1024 34 10000 3.1 240 14:25 11.04.2020
5087 Clouds 9 1025 34 10000 3.1 270 13:59 11.04.2020
5088 Clouds 9 1025 39 10000 2.6 300 13:40 11.04.2020
5089 Clouds 9 1025 39 10000 2.6 300 13:22 11.04.2020
5090 Clouds 9 1025 39 10000 2.6 300 13:22 11.04.2020
5091 Clouds 9 1025 39 10000 2.6 300 13:22 11.04.2020
5092 Clouds 8 1025 39 10000 3.1 260 12:43 11.04.2020
5093 Clear 8 1025 39 10000 3.1 270 12:22 11.04.2020
5094 Clear 7 1025 42 10000 3.1 320 11:58 11.04.2020
5095 Clear 7 1026 45 10000 2.6 240 11:40 11.04.2020
5096 Clear 7 1026 45 10000 2.6 240 11:40 11.04.2020
5097 Clear 7 1026 45 10000 2.6 240 11:20 11.04.2020
5098 Clear 7 1026 48 10000 2.1 270 10:56 11.04.2020
5099 Clear 7 1025 48 10000 2.6 310 10:36 11.04.2020
5100 Clear 7 1025 48 10000 2.6 310 10:18 11.04.2020
5101 Clear 6 1025 52 10000 3.6 350 09:41 11.04.2020
5102 Clear 5 1025 52 10000 3.6 350 09:22 11.04.2020
5103 Clear 4 1025 56 10000 2.6 320 08:59 11.04.2020
5104 Clear 4 1025 64 10000 1.5 0 08:41 11.04.2020
5105 Clear 4 1025 64 10000 1.5 0 08:23 11.04.2020
5106 Clear 2 1025 70 10000 0.5 0 07:42 11.04.2020
5107 Clear 2 1025 70 10000 0.5 0 07:23 11.04.2020
5108 Clear 0 1024 92 10000 2.41 291 06:37 11.04.2020
5109 Clear 0 1024 86 10000 0.5 0 05:58 11.04.2020
5110 Clear 0 1024 86 10000 2.3 272 04:26 11.04.2020
5111 Clear 0 1024 82 10000 2.67 229 02:53 11.04.2020
5112 Clear 0 1023 84 10000 0.5 0 01:27 11.04.2020
5113 Clear 0 1023 84 10000 0.5 160 00:57 11.04.2020
5114 Clear 0 1023 84 10000 2.51 221 00:38 11.04.2020
5115 Clouds 0 1023 81 10000 1.74 146 00:18 11.04.2020
5116 Clouds 1 1023 74 10000 0.5 0 23:43 10.04.2020
5117 Clouds 1 1023 74 10000 1 0 23:19 10.04.2020
5118 Clouds 2 1023 69 10000 0.5 0 22:58 10.04.2020
5119 Clouds 2 1023 64 10000 1.5 140 22:39 10.04.2020
5120 Clouds 2 1023 64 10000 1.5 0 22:20 10.04.2020
5121 Clouds 3 1023 64 10000 1.5 0 21:42 10.04.2020
5122 Clouds 3 1023 64 10000 1.5 0 21:42 10.04.2020
5123 Clouds 4 1022 56 10000 1.5 80 21:22 10.04.2020
5124 Clouds 4 1022 52 10000 2.6 70 20:59 10.04.2020
5125 Clouds 5 1022 31 10000 4.1 330 20:41 10.04.2020
5126 Clouds 6 1022 31 10000 4.1 330 20:21 10.04.2020
5127 Clouds 7 1022 29 10000 4.1 340 19:57 10.04.2020
5128 Clouds 8 1021 31 10000 4.6 320 19:39 10.04.2020
5129 Clouds 9 1021 29 10000 6.2 290 19:19 10.04.2020
5130 Clouds 9 1021 29 10000 6.2 290 18:56 10.04.2020
5131 Clouds 9 1021 31 10000 5.7 300 18:38 10.04.2020
5132 Clouds 9 1021 31 10000 5.7 300 18:20 10.04.2020
5133 Clouds 9 1021 31 10000 7.2 290 17:57 10.04.2020
5134 Clouds 9 1021 31 10000 6.7 270 17:39 10.04.2020
5135 Clouds 9 1021 31 10000 6.7 270 17:19 10.04.2020
5136 Clouds 9 1021 29 10000 5.7 290 16:46 10.04.2020
5137 Clouds 10 1021 29 10000 6.2 270 16:24 10.04.2020
5138 Clouds 10 1021 34 10000 6.7 270 15:59 10.04.2020
5139 Clouds 10 1022 37 10000 5.1 280 15:40 10.04.2020
5140 Clouds 9 1022 37 10000 5.1 280 15:22 10.04.2020
5141 Clouds 9 1022 37 10000 4.6 260 15:00 10.04.2020
5142 Clouds 9 1022 42 10000 4.6 250 14:41 10.04.2020
5143 Clouds 9 1022 42 10000 4.6 250 14:23 10.04.2020
5144 Clouds 9 1022 39 10000 5.1 270 13:57 10.04.2020
5145 Clouds 8 1022 39 10000 5.1 280 13:39 10.04.2020
5146 Clouds 8 1022 45 10000 5.1 270 13:20 10.04.2020
5147 Clouds 8 1022 45 10000 5.1 250 12:43 10.04.2020
5148 Clouds 8 1022 45 10000 5.1 250 12:23 10.04.2020
5149 Clouds 7 1023 48 10000 4.1 250 11:55 10.04.2020
5150 Clouds 7 1023 48 10000 3.6 250 11:37 10.04.2020
5151 Clouds 6 1023 48 10000 3.6 250 11:18 10.04.2020
5152 Clouds 6 1023 56 10000 2.1 250 10:43 10.04.2020
5153 Clouds 5 1023 56 10000 2.1 290 10:23 10.04.2020
5154 Clouds 5 1023 60 10000 2.6 310 09:56 10.04.2020
5155 Clouds 5 1023 64 10000 2.6 310 09:38 10.04.2020
5156 Clouds 4 1023 64 10000 2.6 310 09:18 10.04.2020
5157 Clouds 3 1022 64 10000 2.6 290 08:42 10.04.2020
5158 Clouds 3 1022 64 10000 2.6 290 08:21 10.04.2020
5159 Clouds 3 1022 69 10000 2.6 300 07:45 10.04.2020
5160 Clouds 2 1022 69 10000 1.5 280 07:23 10.04.2020
5161 Clouds 2 1022 69 10000 2.1 270 06:48 10.04.2020
5162 Clear 1 1022 69 10000 2.6 280 06:27 10.04.2020
5163 Clear 1 1021 69 10000 2.6 300 05:38 10.04.2020
5164 Clear 2 1021 64 10000 3.1 300 04:57 10.04.2020
5165 Clear 2 1021 64 10000 3.1 290 03:45 10.04.2020
5166 Clouds 2 1021 59 10000 2.6 300 03:24 10.04.2020
5167 Clouds 3 1020 55 10000 2.6 290 02:48 10.04.2020
5168 Clouds 3 1020 51 10000 3.6 280 02:28 10.04.2020
5169 Clear 4 1020 44 10000 3.6 270 01:30 10.04.2020
5170 Clear 4 1020 48 10000 2.6 270 00:49 10.04.2020
5171 Clouds 4 1020 48 10000 2.1 260 00:23 10.04.2020
5172 Clouds 4 1019 44 10000 2.6 280 23:44 09.04.2020
5173 Clouds 4 1019 44 10000 2.6 280 23:26 09.04.2020
5174 Clouds 4 1019 41 10000 3.1 280 23:00 09.04.2020
5175 Clouds 4 1019 41 10000 2.1 270 22:41 09.04.2020
5176 Clouds 5 1019 41 10000 2.1 270 22:22 09.04.2020
5177 Clouds 5 1019 41 10000 2.6 290 21:45 09.04.2020
5178 Clouds 5 1018 41 10000 3.1 290 21:26 09.04.2020
5179 Clouds 6 1018 39 10000 4.1 280 20:59 09.04.2020
5180 Clouds 7 1018 36 10000 2.6 270 20:40 09.04.2020
5181 Clouds 7 1018 36 10000 2.6 270 20:20 09.04.2020
5182 Clouds 9 1017 31 10000 4.1 280 19:41 09.04.2020
5183 Clouds 9 1017 31 10000 4.1 280 19:23 09.04.2020
5184 Clouds 9 1017 31 10000 6.2 290 18:59 09.04.2020
5185 Clouds 9 1017 29 10000 6.7 290 18:40 09.04.2020
5186 Clouds 9 1017 29 10000 6.7 290 18:18 09.04.2020
5187 Clouds 9 1016 31 10000 4.6 300 17:40 09.04.2020
5188 Clouds 9 1016 31 10000 4.6 300 17:22 09.04.2020
5189 Clouds 9 1016 31 10000 8.2 290 16:56 09.04.2020
5190 Clouds 9 1016 31 10000 8.2 280 16:37 09.04.2020
5191 Clouds 9 1016 31 10000 8.2 280 16:37 09.04.2020
5192 Clouds 9 1016 31 10000 8.2 280 16:18 09.04.2020
5193 Clouds 9 1016 29 10000 5.1 320 15:54 09.04.2020
5194 Clouds 9 1015 29 10000 6.2 310 15:36 09.04.2020
5195 Clear 9 1015 29 10000 6.2 310 15:18 09.04.2020
5196 Clear 10 1015 29 10000 8.2 280 14:39 09.04.2020
5197 Clear 9 1015 29 10000 8.2 280 14:20 09.04.2020
5198 Clear 10 1014 29 10000 7.7 300 13:43 09.04.2020
5199 Clear 9 1014 29 10000 7.7 300 13:24 09.04.2020
5200 Clear 10 1014 29 10000 7.7 300 12:59 09.04.2020
5201 Clear 9 1014 31 10000 6.2 300 12:40 09.04.2020
5202 Clear 9 1014 31 10000 6.2 300 12:21 09.04.2020
5203 Clear 9 1013 34 10000 7.7 290 11:56 09.04.2020
5204 Clear 9 1013 34 10000 6.2 310 11:37 09.04.2020
5205 Clear 9 1013 34 10000 6.2 310 11:19 09.04.2020
5206 Clear 8 1013 36 10000 6.7 300 10:54 09.04.2020
5207 Clear 8 1013 42 10000 6.7 320 10:36 09.04.2020
5208 Clear 8 1013 42 10000 6.7 320 10:18 09.04.2020
5209 Clear 7 1012 42 10000 7.2 310 09:40 09.04.2020
5210 Clouds 7 1012 45 10000 6.7 320 09:21 09.04.2020
5211 Clouds 7 1012 52 10000 5.1 320 08:57 09.04.2020
5212 Clouds 6 1011 63 10000 4.6 310 08:39 09.04.2020
5213 Clouds 6 1011 63 10000 4.6 310 08:21 09.04.2020
5214 Clouds 6 1011 75 10000 2.6 310 07:46 09.04.2020
5215 Clouds 5 1011 63 10000 2.1 320 07:21 09.04.2020
5216 Clouds 5 1010 70 10000 1.5 360 06:42 09.04.2020
5217 Clouds 6 1010 75 10000 5.1 280 05:49 09.04.2020
5218 Clouds 7 1009 70 10000 4.6 270 05:25 09.04.2020
5219 Clouds 9 1010 57 10000 5.7 240 02:36 09.04.2020
5220 Clouds 10 1010 57 10000 5.7 230 01:46 09.04.2020
5221 Clouds 10 1010 71 10000 5.1 230 01:27 09.04.2020
5222 Clouds 10 1011 50 10000 5.1 230 00:55 09.04.2020
5223 Clouds 10 1011 50 10000 4.6 230 00:37 09.04.2020
5224 Clouds 10 1012 50 10000 4.6 220 00:18 09.04.2020
5225 Clouds 10 1012 50 10000 5.7 230 23:42 08.04.2020
5226 Clouds 10 1012 50 10000 5.7 230 23:23 08.04.2020
5227 Clouds 10 1012 50 10000 5.7 230 23:23 08.04.2020
5228 Clouds 10 1012 50 10000 5.7 230 22:56 08.04.2020
5229 Clouds 10 1013 50 10000 3.6 220 22:38 08.04.2020
5230 Clouds 10 1014 50 10000 3.6 210 22:19 08.04.2020
5231 Clouds 10 1014 50 10000 3.6 210 21:55 08.04.2020
5232 Clouds 10 1014 50 10000 3.6 210 21:37 08.04.2020
5233 Clouds 10 1014 50 10000 3.6 210 21:37 08.04.2020
5234 Clouds 10 1014 55 10000 3.6 220 21:18 08.04.2020
5235 Clouds 10 1015 55 10000 4.6 230 20:41 08.04.2020
5236 Clouds 11 1015 55 10000 4.6 230 20:21 08.04.2020
5237 Clouds 11 1015 55 10000 4.6 230 20:21 08.04.2020
5238 Clouds 11 1015 55 10000 4.6 230 19:59 08.04.2020
5239 Clouds 11 1016 33 10000 3.6 230 19:40 08.04.2020
5240 Clouds 12 1016 33 10000 3.6 230 19:21 08.04.2020
5241 Clouds 13 1016 33 10000 5.1 230 18:54 08.04.2020
5242 Clouds 13 1017 33 10000 5.1 230 18:36 08.04.2020
5243 Clouds 13 1017 33 10000 5.1 230 18:18 08.04.2020
5244 Clouds 14 1018 28 10000 7.2 230 17:42 08.04.2020
5245 Clouds 14 1018 28 10000 7.2 230 17:20 08.04.2020
5246 Clouds 14 1019 30 10000 7.7 230 16:56 08.04.2020
5247 -273 0 0 0 0 0 16:37 08.04.2020
5248 Clouds 14 1020 30 10000 8.2 240 16:19 08.04.2020
5249 Clouds 14 1021 33 10000 7.7 230 15:38 08.04.2020
5250 Clouds 14 1021 33 10000 7.7 230 15:20 08.04.2020
5251 Clouds 14 1021 33 10000 7.7 230 14:57 08.04.2020
5252 Clouds 14 1021 44 10000 7.7 230 14:39 08.04.2020
5253 Clouds 13 1021 44 10000 7.7 230 14:21 08.04.2020
5254 Clouds 13 1022 43 10000 7.2 220 13:44 08.04.2020
5255 Clouds 13 1022 43 10000 7.2 220 13:21 08.04.2020
5256 Clouds 12 1023 43 10000 6.7 260 12:54 08.04.2020
5257 Clouds 12 1023 47 10000 6.2 230 12:36 08.04.2020
5258 Clouds 12 1023 47 10000 6.2 230 12:18 08.04.2020
5259 Clouds 11 1024 50 10000 6.2 230 11:41 08.04.2020
5260 Clouds 11 1024 50 10000 6.2 230 11:41 08.04.2020
5261 Clouds 10 1024 53 10000 5.7 230 11:22 08.04.2020
5262 Clouds 10 1025 53 10000 4.6 250 10:58 08.04.2020
5263 Clouds 9 1025 57 10000 4.6 230 10:39 08.04.2020
5264 Clouds 9 1025 57 10000 4.6 230 10:20 08.04.2020
5265 Clouds 8 1025 61 10000 4.1 230 09:56 08.04.2020
5266 Clouds 8 1025 70 10000 3.6 210 09:38 08.04.2020
5267 Clouds 7 1025 70 10000 3.6 210 09:18 08.04.2020
5268 Clouds 7 1026 70 10000 4.1 220 08:56 08.04.2020
5269 Clouds 6 1026 75 10000 4.1 220 08:38 08.04.2020
5270 Clouds 5 1026 75 10000 4.1 220 08:20 08.04.2020
5271 Clouds 4 1026 80 10000 3.6 220 07:42 08.04.2020
5272 Clouds 4 1026 80 10000 3.6 220 07:20 08.04.2020
5273 Clouds 2 1026 86 10000 2.6 210 06:22 08.04.2020
5274 Clouds 3 1027 93 10000 2.1 200 04:44 08.04.2020
5275 Clear 2 1028 76 10000 0.5 0 02:49 08.04.2020
5276 Clouds 2 1028 74 10000 2.63 256 02:21 08.04.2020
5277 Clouds 3 1028 74 10000 1 0 01:56 08.04.2020
5278 Clouds 3 1028 86 10000 0.5 0 01:27 08.04.2020
5279 Clouds 4 1028 74 10000 1.5 260 00:44 08.04.2020
5280 Clear 5 1028 74 10000 1.5 260 00:23 08.04.2020
5281 Clear 5 1028 75 10000 2.1 230 23:40 07.04.2020
5282 Clear 5 1028 75 10000 2.1 230 23:22 07.04.2020
5283 Clear 6 1027 70 10000 2.1 240 22:58 07.04.2020
5284 Clear 6 1027 75 10000 3.6 240 22:40 07.04.2020
5285 Clear 6 1027 75 10000 3.6 240 22:21 07.04.2020
5286 Clear 6 1027 70 10000 2.1 230 21:58 07.04.2020
5287 Clear 7 1026 65 10000 3.1 250 21:40 07.04.2020
5288 Clouds 7 1026 65 10000 3.1 250 21:20 07.04.2020
5289 Clouds 7 1025 70 10000 2.1 240 20:57 07.04.2020
5290 Clouds 8 1025 70 10000 2.1 240 20:39 07.04.2020
5291 Clouds 8 1025 70 10000 2.1 240 20:20 07.04.2020
5292 Clouds 8 1025 70 10000 2.1 240 19:57 07.04.2020
5293 Clouds 9 1025 66 10000 4.6 290 19:37 07.04.2020
5294 Clouds 9 1024 66 10000 5.1 300 19:19 07.04.2020
5295 Clouds 10 1024 66 10000 5.1 300 19:19 07.04.2020
5296 Clouds 10 1024 66 10000 5.1 300 18:57 07.04.2020
5297 Clouds 9 1023 70 10000 6.7 320 18:39 07.04.2020
5298 Clouds 9 1023 70 10000 6.7 320 18:19 07.04.2020
5299 Clouds 9 1023 70 10000 6.7 320 18:19 07.04.2020
5300 Clouds 9 1023 70 10000 6.7 320 17:44 07.04.2020
5301 Clouds 9 1023 70 10000 7.7 320 17:21 07.04.2020
5302 Clouds 8 1022 75 10000 9.8 300 16:47 07.04.2020
5303 Clouds 8 1021 70 10000 9.3 290 16:29 07.04.2020
5304 Clouds 9 1020 76 10000 8.7 280 15:58 07.04.2020
5305 Clouds 9 1020 76 10000 8.7 280 15:40 07.04.2020
5306 Clouds 9 1019 81 10000 9.3 270 15:22 07.04.2020
5307 Clouds 9 1019 81 10000 9.3 270 14:41 07.04.2020
5308 Clouds 9 1018 76 10000 8.2 260 14:22 07.04.2020
5309 Clouds 10 1018 71 10000 9.8 260 13:57 07.04.2020
5310 Clouds 10 1017 71 10000 9.3 250 13:39 07.04.2020
5311 Clouds 10 1017 71 10000 9.3 250 13:18 07.04.2020
5312 Clouds 10 1017 76 10000 7.2 250 12:55 07.04.2020
5313 Clouds 10 1017 81 10000 7.7 250 12:36 07.04.2020
5314 Clouds 10 1017 81 10000 7.7 250 12:18 07.04.2020
5315 Rain 9 1017 81 10000 4.1 240 11:44 07.04.2020
5316 Rain 8 1017 81 9000 3.6 240 11:26 07.04.2020
5317 Rain 9 1017 61 10000 3.6 220 10:59 07.04.2020
5318 Rain 10 1017 61 10000 3.1 210 10:38 07.04.2020
5319 Rain 10 1017 61 10000 3.1 210 10:19 07.04.2020
5320 Rain 9 1017 66 10000 3.1 200 09:45 07.04.2020
5321 Clouds 9 1017 66 10000 3.1 200 09:19 07.04.2020
5322 Clouds 8 1017 65 10000 2.1 200 08:56 07.04.2020
5323 Clouds 7 1017 75 10000 1.5 140 08:38 07.04.2020
5324 Clouds 6 1017 75 10000 1.5 140 08:18 07.04.2020
5325 Clouds 5 1018 86 10000 1 150 07:41 07.04.2020
5326 Clouds 4 1018 86 10000 1 150 07:21 07.04.2020
5327 Clouds 3 1018 93 10000 1.5 120 06:51 07.04.2020
5328 Clouds 3 1018 77 10000 2.1 130 06:23 07.04.2020
5329 Clouds 3 1019 86 10000 1.5 150 05:43 07.04.2020
5330 Clouds 3 1019 86 10000 1.5 150 05:22 07.04.2020
5331 Clouds 4 1020 80 10000 2.1 150 03:32 07.04.2020
5332 Clouds 4 1020 80 10000 1.5 150 02:59 07.04.2020
5333 Clouds 5 1021 75 10000 2.1 140 01:58 07.04.2020
5334 Clouds 5 1021 70 10000 2.6 150 01:32 07.04.2020
5335 Clouds 6 1021 65 10000 3.6 180 00:29 07.04.2020
5336 Clouds 6 1022 65 10000 4.1 170 23:57 06.04.2020
5337 Clouds 6 1021 56 10000 5.7 170 23:38 06.04.2020
5338 Clouds 6 1022 72 10000 4.1 170 23:20 06.04.2020
5339 Clouds 6 1021 48 10000 5.7 170 22:41 06.04.2020
5340 Clouds 7 1022 52 10000 4.1 160 22:22 06.04.2020
5341 Clouds 7 1022 49 10000 5.1 170 21:58 06.04.2020
5342 Clouds 7 1022 42 10000 5.7 160 21:40 06.04.2020
5343 Clouds 7 1022 42 10000 5.7 160 21:19 06.04.2020
5344 Clouds 8 1023 39 10000 4.6 170 20:56 06.04.2020
5345 Clouds 9 1023 34 10000 5.1 170 20:38 06.04.2020
5346 Clouds 9 1023 32 10000 6.2 170 20:19 06.04.2020
5347 Clouds 9 1023 32 10000 6.2 170 19:54 06.04.2020
5348 Clouds 10 1023 32 10000 8.2 180 19:36 06.04.2020
5349 Clouds 10 1023 32 10000 8.2 180 19:18 06.04.2020
5350 Clouds 11 1023 32 10000 7.2 190 18:41 06.04.2020
5351 Clouds 12 1023 32 10000 7.2 190 18:23 06.04.2020
5352 Clouds 13 1024 30 10000 6.2 180 17:55 06.04.2020
5353 Clouds 13 1024 28 10000 5.1 180 17:37 06.04.2020
5354 Clouds 13 1024 28 10000 7.7 180 17:18 06.04.2020
5355 Clouds 13 1025 28 10000 8.2 180 16:47 06.04.2020
5356 Clouds 13 1025 28 10000 8.2 180 16:29 06.04.2020
5357 Clouds 14 1026 30 10000 6.2 180 14:46 06.04.2020
5358 Clouds 14 1026 30 10000 6.2 180 14:46 06.04.2020
5359 Clouds 14 1026 30 10000 6.2 180 14:46 06.04.2020
5360 Clouds 14 1026 30 10000 6.2 180 14:46 06.04.2020
5361 Clouds 14 1026 28 10000 6.7 200 13:44 06.04.2020
5362 Clouds 14 1026 30 10000 5.7 190 13:21 06.04.2020
5363 Clouds 13 1026 35 10000 4.6 200 12:41 06.04.2020
5364 Clouds 13 1026 35 10000 4.6 200 12:41 06.04.2020
5365 Clouds 13 1027 56 10000 4.1 200 12:18 06.04.2020
5366 Clouds 13 1027 56 10000 4.1 200 12:18 06.04.2020
5367 Clouds 11 1027 46 10000 4.6 190 11:40 06.04.2020
5368 Clouds 11 1027 46 10000 4.6 190 11:40 06.04.2020
5369 Clouds 11 1027 46 10000 4.6 190 11:40 06.04.2020
5370 Clouds 11 1027 46 10000 4.6 190 11:40 06.04.2020
5371 Clouds 11 1027 46 10000 4.6 190 11:40 06.04.2020
5372 Clouds 10 1027 57 10000 3.6 200 10:53 06.04.2020
5373 Clouds 10 1027 57 10000 3.6 200 10:53 06.04.2020
5374 Clouds 10 1027 57 10000 3.6 200 10:53 06.04.2020
5375 Clouds 9 1027 61 10000 3.6 190 10:23 06.04.2020
5376 Clouds 9 1027 61 10000 3.6 190 10:03 06.04.2020
5377 Clouds 9 1027 61 10000 3.6 190 10:03 06.04.2020
5378 Clouds 8 1027 65 10000 3.1 190 10:03 06.04.2020
5379 Clouds 8 1027 65 10000 3.1 190 09:36 06.04.2020
5380 Clouds 7 1027 70 10000 3.1 190 09:18 06.04.2020
5381 Clouds 6 1028 70 10000 2.6 180 08:41 06.04.2020
5382 Clouds 6 1028 70 10000 2.6 180 08:41 06.04.2020
5383 Clouds 5 1028 80 10000 2.1 200 07:56 06.04.2020
5384 Clouds 5 1028 80 10000 2.1 200 07:56 06.04.2020
5385 Clouds 5 1028 80 10000 2.1 200 07:56 06.04.2020
5386 Clouds 4 1028 86 10000 2.1 190 07:19 06.04.2020
5387 Clouds 3 1028 100 9000 1.5 200 06:26 06.04.2020
5388 Mist 3 1027 93 5000 1 0 05:42 06.04.2020
5389 Mist 3 1028 93 6000 1 140 03:29 06.04.2020
5390 Mist 4 1028 93 9000 1.5 150 02:49 06.04.2020
5391 Clouds 5 1028 87 10000 2.6 190 01:52 06.04.2020
5392 Clouds 5 1028 81 10000 1 180 00:51 06.04.2020
5393 Clouds 5 1028 81 10000 1.5 190 00:27 06.04.2020
5394 Clouds 5 1028 81 10000 1.5 190 00:27 06.04.2020
5395 Clouds 6 1028 81 10000 2.1 200 23:49 05.04.2020
5396 Clouds 6 1028 81 10000 2.1 190 23:31 05.04.2020
5397 Clouds 6 1028 81 10000 2.1 190 23:31 05.04.2020
5398 Clouds 6 1028 87 10000 2.6 200 22:56 05.04.2020
5399 Clouds 6 1028 81 10000 2.6 190 22:38 05.04.2020
5400 Clouds 6 1028 81 10000 2.6 190 22:19 05.04.2020
5401 Clouds 6 1029 81 10000 2.6 190 21:58 05.04.2020
5402 Clouds 6 1029 81 10000 2.6 190 21:39 05.04.2020
5403 Clouds 7 1028 75 10000 3.1 200 21:21 05.04.2020
5404 Clouds 7 1028 75 10000 3.1 190 20:21 05.04.2020
5405 Clouds 7 1028 75 10000 2.1 180 19:41 05.04.2020
5406 Clouds 7 1028 75 10000 3.1 180 19:22 05.04.2020
5407 Clouds 8 1028 75 10000 2.6 180 18:46 05.04.2020
5408 Clouds 8 1028 75 10000 2.6 180 18:46 05.04.2020
5409 Clouds 8 1029 81 10000 3.6 200 17:59 05.04.2020
5410 Clouds 8 1029 81 10000 3.6 200 17:58 05.04.2020
5411 Clouds 8 1029 81 10000 4.1 200 17:39 05.04.2020
5412 Clouds 8 1029 81 10000 4.1 200 17:20 05.04.2020
5413 Clouds 8 1029 81 10000 4.1 200 17:20 05.04.2020
5414 Rain 8 1029 70 10000 4.1 210 16:46 05.04.2020
5415 Rain 8 1029 70 10000 4.1 210 16:46 05.04.2020
5416 Rain 8 1029 70 10000 4.1 210 16:46 05.04.2020
5417 Rain 8 1029 70 10000 4.1 210 16:46 05.04.2020
5418 Rain 8 1029 70 10000 4.1 210 16:46 05.04.2020
5419 Drizzle 8 1029 61 10000 4.1 190 16:18 05.04.2020
5420 Clouds 9 1029 53 10000 2.6 190 15:44 05.04.2020
5421 Clouds 10 1029 53 10000 2.6 170 15:25 05.04.2020
5422 Clouds 9 1030 57 10000 2.6 210 14:48 05.04.2020
5423 Clouds 9 1030 57 10000 2.6 210 14:48 05.04.2020
5424 Clouds 9 1030 57 10000 2.6 210 14:48 05.04.2020
5425 Clouds 9 1030 57 10000 2.6 210 14:48 05.04.2020
5426 Clouds 9 1030 57 10000 2.6 210 14:48 05.04.2020
5427 Clouds 8 1030 67 10000 2.6 170 13:46 05.04.2020
5428 Clouds 8 1030 67 10000 2.6 170 13:46 05.04.2020
5429 Clouds 8 1030 67 10000 2.6 170 13:46 05.04.2020
5430 Clouds 8 1030 67 10000 2.6 170 13:46 05.04.2020
5431 Clouds 8 1030 67 10000 2.6 170 13:46 05.04.2020
5432 Clouds 8 1030 52 10000 1.5 210 12:57 05.04.2020
5433 Clouds 8 1030 52 10000 1.5 210 12:57 05.04.2020
5434 Clouds 7 1030 56 10000 1.5 220 11:58 05.04.2020
5435 Clouds 7 1030 56 10000 1.5 220 11:58 05.04.2020
5436 Clouds 7 1030 56 10000 1.5 220 11:38 05.04.2020
5437 Clouds 6 1030 52 10000 1.5 0 11:19 05.04.2020
5438 Clouds 6 1030 56 10000 2.1 210 10:44 05.04.2020
5439 Clouds 6 1030 56 10000 2.1 210 10:44 05.04.2020
5440 Clouds 6 1030 56 10000 2.1 210 10:44 05.04.2020
5441 Clouds 6 1030 56 10000 1.5 230 10:21 05.04.2020
5442 Clouds 5 1029 56 10000 2.1 240 09:52 05.04.2020
5443 Clouds 5 1029 56 10000 2.1 240 09:52 05.04.2020
5444 Clouds 4 1029 56 10000 1 0 09:25 05.04.2020
5445 Clouds 5 1029 56 10000 1 0 09:25 05.04.2020
5446 Clouds 4 1029 56 10000 1 0 09:25 05.04.2020
5447 Clouds 4 1029 56 10000 1 0 09:25 05.04.2020
5448 Clouds 4 1029 56 10000 1 0 09:25 05.04.2020
5449 Clouds 1 1028 64 10000 2.53 234 07:58 05.04.2020
5450 Clouds -1 1026 79 10000 1.79 258 04:56 05.04.2020
5451 Clouds -1 1026 68 10000 1.5 220 03:35 05.04.2020
5452 Clouds 0 1025 74 10000 2.48 271 02:53 05.04.2020
5453 Clouds 0 1025 83 10000 1.5 250 01:51 05.04.2020
5454 Clouds 0 1024 83 10000 2.1 240 01:32 05.04.2020
5455 Clouds 1 1024 59 10000 2.6 250 00:48 05.04.2020
5456 Clouds 1 1024 59 10000 2.1 220 00:22 05.04.2020
5457 Clouds 1 1024 59 10000 2.1 220 00:22 05.04.2020
5458 Clouds 1 1023 55 10000 2.1 230 23:57 04.04.2020
5459 Clouds 1 1023 55 10000 3.1 230 23:38 04.04.2020
5460 Clouds 1 1023 55 10000 3.1 230 23:20 04.04.2020
5461 Clouds 1 1022 55 10000 2.6 250 22:56 04.04.2020
5462 Clouds 1 1022 55 10000 2.6 250 22:37 04.04.2020
5463 Clouds 1 1022 59 10000 2.1 210 22:19 04.04.2020
5464 Clouds 1 1021 59 10000 2.45 288 21:54 04.04.2020
5465 Clouds 1 1021 59 10000 2.45 288 21:36 04.04.2020
5466 Clouds 2 1021 55 10000 3.11 287 21:18 04.04.2020
5467 Clouds 3 1020 44 10000 2.1 230 20:42 04.04.2020
5468 Clouds 4 1020 38 10000 2.6 250 20:23 04.04.2020
5469 Clouds 5 1019 33 10000 3.6 260 19:59 04.04.2020
5470 Clouds 6 1019 33 10000 3.6 260 19:38 04.04.2020
5471 Clouds 6 1019 30 10000 4.1 260 19:19 04.04.2020
5472 Clouds 6 1018 28 10000 7.2 270 18:58 04.04.2020
5473 Clouds 6 1018 28 10000 7.2 270 18:39 04.04.2020
5474 Clouds 6 1018 28 10000 6.2 270 18:19 04.04.2020
5475 Clouds 6 1018 28 10000 6.2 270 18:19 04.04.2020
5476 Clouds 7 1018 28 10000 7.2 280 17:56 04.04.2020
5477 Clouds 7 1018 28 10000 7.2 280 17:38 04.04.2020
5478 Clouds 7 1017 28 10000 6.7 270 17:19 04.04.2020
5479 Clouds 7 1017 28 10000 7.2 270 16:42 04.04.2020
5480 Clouds 7 1016 24 10000 7.2 250 16:23 04.04.2020
5481 Clouds 7 1016 28 10000 7.7 260 15:58 04.04.2020
5482 Clouds 7 1016 28 10000 7.7 260 15:38 04.04.2020
5483 Clear 7 1016 28 10000 7.7 260 15:19 04.04.2020
5484 Clear 7 1016 28 10000 7.7 260 15:19 04.04.2020
5485 Clear 7 1016 28 10000 7.7 260 15:19 04.04.2020
5486 Clear 7 1015 30 10000 6.2 240 14:46 04.04.2020
5487 Clear 6 1015 30 10000 7.2 240 14:25 04.04.2020
5488 Clear 7 1015 28 10000 7.2 250 13:58 04.04.2020
5489 Clear 6 1015 28 10000 7.2 250 13:40 04.04.2020
5490 Clear 6 1014 30 10000 7.7 260 13:20 04.04.2020
5491 Clear 6 1014 32 10000 7.7 260 12:57 04.04.2020
5492 Clear 6 1014 32 10000 7.7 260 12:39 04.04.2020
5493 Clear 5 1014 35 10000 8.7 270 12:19 04.04.2020
5494 Clear 5 1014 38 10000 7.2 260 11:41 04.04.2020
5495 Clear 4 1013 44 10000 7.2 250 11:23 04.04.2020
5496 Clear 4 1013 47 10000 6.2 260 10:58 04.04.2020
5497 Clear 4 1013 47 10000 6.2 260 10:40 04.04.2020
5498 Clear 3 1012 51 10000 4.6 240 10:21 04.04.2020
5499 Clear 3 1012 59 10000 4.6 250 09:55 04.04.2020
5500 Clear 3 1012 59 10000 4.6 250 09:37 04.04.2020
5501 Clouds 2 1012 64 10000 4.1 240 09:19 04.04.2020
5502 Clouds 1 1011 69 10000 2.6 230 08:42 04.04.2020
5503 Clouds 1 1011 80 10000 2.6 230 08:23 04.04.2020
5504 Clouds 0 1011 74 10000 0.5 0 07:55 04.04.2020
5505 Clouds 0 1011 74 10000 0.5 0 07:37 04.04.2020
5506 Clouds -2 1010 79 10000 1 200 07:19 04.04.2020
5507 Clear -4 1010 92 10000 2.49 252 06:22 04.04.2020
5508 Clear -3 1009 85 10000 2.49 252 05:51 04.04.2020
5509 Clear -3 1009 85 10000 1 0 05:32 04.04.2020
5510 Clear -3 1009 85 10000 2.49 252 04:34 04.04.2020
5511 Clear -2 1008 79 10000 2.49 252 03:55 04.04.2020
5512 Clear -2 1008 79 10000 0.5 0 03:27 04.04.2020
5513 Clear -2 1007 79 10000 1 230 02:42 04.04.2020
5514 Clear -2 1007 74 10000 2.8 276 02:24 04.04.2020
5515 Clear -1 1006 87 10000 2.1 230 01:27 04.04.2020
5516 Clear -1 1005 87 10000 1.5 240 00:57 04.04.2020
5517 Clear -1 1005 87 10000 2.1 250 00:30 04.04.2020
5518 Clouds 0 1005 55 10000 2.6 250 23:56 03.04.2020
5519 Clouds 0 1005 55 10000 2.6 250 23:37 03.04.2020
5520 Clouds 1 1004 50 10000 3.1 250 23:18 03.04.2020
5521 Clouds 1 1004 47 10000 3.1 250 22:40 03.04.2020
5522 Clouds 1 1003 43 10000 3.1 250 22:19 03.04.2020
5523 Clouds 1 1003 43 10000 3.1 250 22:19 03.04.2020
5524 Clouds 2 1002 37 10000 3.6 250 21:56 03.04.2020
5525 Clouds 2 1002 37 10000 3.6 260 21:38 03.04.2020
5526 Clouds 2 1002 37 10000 3.6 260 21:20 03.04.2020
5527 Clouds 3 1001 35 10000 3.6 270 20:55 03.04.2020
5528 Clouds 3 1001 35 10000 3.6 270 20:36 03.04.2020
5529 Clouds 3 1001 35 10000 3.6 260 20:18 03.04.2020
5530 Clouds 4 999 32 10000 6.7 290 19:55 03.04.2020
5531 Clouds 4 999 32 10000 6.7 290 19:36 03.04.2020
5532 Clouds 5 999 32 10000 6.7 290 19:18 03.04.2020
5533 Clouds 5 998 26 10000 8.2 280 18:57 03.04.2020
5534 Clouds 5 998 26 10000 8.2 280 18:39 03.04.2020
5535 Clouds 5 998 26 10000 8.2 280 18:39 03.04.2020
5536 Clouds 6 998 30 10000 5.7 270 18:21 03.04.2020
5537 Clouds 6 997 30 10000 5.1 270 17:41 03.04.2020
5538 Clouds 6 996 30 10000 9.8 290 17:19 03.04.2020
5539 Clouds 6 996 33 10000 8.2 260 16:55 03.04.2020
5540 Clouds 7 996 33 10000 8.2 260 16:36 03.04.2020
5541 Clouds 7 995 36 10000 5.7 280 16:18 03.04.2020
5542 Clouds 7 994 36 10000 6.7 270 15:55 03.04.2020
5543 Clouds 7 994 36 10000 6.7 270 15:36 03.04.2020
5544 Clouds 7 994 36 10000 6.7 270 15:18 03.04.2020
5545 Clouds 6 988 38 0 4.02 270 14:40 03.04.2020
5546 Clouds 6 992 44 10000 9.8 280 14:22 03.04.2020
5547 Clouds 5 992 44 10000 9.8 280 13:46 03.04.2020
5548 Clouds 5 992 44 10000 9.8 280 13:27 03.04.2020
5549 Clouds 4 991 48 10000 9.3 280 12:58 03.04.2020
5550 Clouds 4 990 48 10000 9.3 280 12:40 03.04.2020
5551 Snow 4 990 48 10000 9.3 280 12:19 03.04.2020
5552 Snow 3 989 48 10000 9.8 300 11:56 03.04.2020
5553 Snow 4 989 48 10000 9.8 300 11:37 03.04.2020
5554 Snow 3 988 55 10000 11.8 300 11:18 03.04.2020
5555 Rain 3 987 55 10000 11.8 290 10:57 03.04.2020
5556 Rain 2 987 55 10000 11.8 290 10:38 03.04.2020
5557 Rain 2 987 55 10000 11.8 290 10:38 03.04.2020
5558 Snow 3 986 55 10000 11.8 280 10:20 03.04.2020
5559 Snow 3 986 55 10000 11.8 280 10:20 03.04.2020
5560 Snow 2 985 55 10000 11.3 280 09:56 03.04.2020
5561 Snow 2 985 55 10000 11.3 280 09:38 03.04.2020
5562 Snow 2 984 59 10000 11.8 270 09:20 03.04.2020
5563 Clouds 2 983 59 10000 10.3 260 08:45 03.04.2020
5564 Clouds 2 982 59 10000 11.3 270 08:25 03.04.2020
5565 Clouds 2 981 59 10000 11.8 260 07:59 03.04.2020
5566 Clouds 2 981 59 10000 11.8 260 07:40 03.04.2020
5567 Clouds 2 980 59 10000 10.8 270 07:22 03.04.2020
5568 Clouds 1 978 86 10000 8.7 250 06:29 03.04.2020
5569 Snow 0 978 83 2200 8.2 250 05:43 03.04.2020
5570 Clouds 0 977 83 10000 5.7 230 04:30 03.04.2020
5571 Clouds 0 978 83 10000 5.7 240 03:35 03.04.2020
5572 Rain 1 977 80 10000 6.2 250 02:47 03.04.2020
5573 Snow 1 977 85 10000 5.1 240 01:27 03.04.2020
5574 Snow 1 977 85 10000 3.6 250 00:56 03.04.2020
5575 Snow 1 977 85 1000 7.2 260 00:33 03.04.2020
5576 Clouds 2 977 80 10000 5.7 240 23:57 02.04.2020
5577 Clouds 2 977 80 10000 5.7 240 23:38 02.04.2020
5578 Clouds 2 977 69 10000 7.7 230 23:19 02.04.2020
5579 Clouds 3 977 69 10000 6.2 240 22:42 02.04.2020
5580 Clouds 3 977 69 10000 6.2 240 22:42 02.04.2020
5581 Clouds 3 978 69 10000 7.7 240 22:23 02.04.2020
5582 Clouds 3 978 74 10000 8.2 240 21:59 02.04.2020
5583 Clouds 3 978 74 10000 8.2 240 21:59 02.04.2020
5584 Clouds 2 978 74 10000 8.2 240 21:37 02.04.2020
5585 Snow 2 978 93 10000 7.2 240 21:19 02.04.2020
5586 Rain 2 978 72 4500 10.3 280 20:54 02.04.2020
5587 Rain 3 978 72 4500 10.3 280 20:36 02.04.2020
5588 Rain 3 977 72 10000 10.8 240 20:18 02.04.2020
5589 Rain 3 977 93 10000 7.7 240 19:42 02.04.2020
5590 Rain 3 978 86 10000 12.3 250 19:20 02.04.2020
5591 Rain 3 978 86 10000 12.3 250 19:20 02.04.2020
5592 Rain 4 978 86 10000 12.9 250 18:56 02.04.2020
5593 Rain 7 978 65 10000 10.3 230 18:38 02.04.2020
5594 Rain 6 978 65 10000 10.3 230 18:19 02.04.2020
5595 Clouds 8 978 49 10000 9.3 210 17:43 02.04.2020
5596 Clouds 9 980 49 10000 8.7 210 17:24 02.04.2020
5597 Clouds 9 981 49 10000 7.7 210 16:59 02.04.2020
5598 Clouds 9 981 49 10000 7.7 210 16:40 02.04.2020
5599 Clouds 9 982 45 10000 8.2 230 16:22 02.04.2020
5600 Clouds 8 983 45 10000 8.7 230 15:57 02.04.2020
5601 Clouds 8 984 45 10000 10.3 230 15:39 02.04.2020
5602 Clouds 8 984 45 10000 10.3 230 15:19 02.04.2020
5603 Clear 8 984 45 10000 8.2 220 14:57 02.04.2020
5604 Clear 8 984 45 10000 8.2 220 14:38 02.04.2020
5605 Clouds 8 985 49 10000 8.2 230 14:18 02.04.2020
5606 Clouds 8 986 49 10000 8.2 220 13:55 02.04.2020
5607 Clouds 9 986 49 10000 8.2 210 13:37 02.04.2020
5608 Clouds 9 986 49 10000 8.2 210 13:18 02.04.2020
5609 Clouds 9 987 49 10000 7.2 210 12:45 02.04.2020
5610 Clouds 9 987 49 10000 7.2 210 12:45 02.04.2020
5611 Clouds 9 987 49 10000 6.7 230 12:20 02.04.2020
5612 Clear 8 988 52 10000 6.2 230 11:58 02.04.2020
5613 Clear 8 988 52 10000 6.2 230 11:39 02.04.2020
5614 Clear 7 989 52 10000 7.2 230 11:20 02.04.2020
5615 Clear 7 989 52 10000 7.2 230 11:20 02.04.2020
5616 Clear 7 989 52 10000 6.2 250 10:57 02.04.2020
5617 Clear 7 989 52 10000 6.2 250 10:38 02.04.2020
5618 Clear 7 990 60 10000 6.2 250 10:20 02.04.2020
5619 Clear 7 990 60 10000 6.2 250 10:20 02.04.2020
5620 Clear 6 990 60 10000 7.2 260 09:59 02.04.2020
5621 Clear 6 990 60 10000 7.2 260 09:41 02.04.2020
5622 Clear 5 990 60 10000 5.7 250 09:21 02.04.2020
5623 Clouds 5 991 78 10000 6.2 250 08:48 02.04.2020
5624 Clouds 5 991 80 10000 5.1 250 08:28 02.04.2020
5625 Clouds 4 991 80 10000 5.1 240 07:59 02.04.2020
5626 Clouds 4 991 80 10000 5.1 240 07:40 02.04.2020
5627 Clouds 4 991 80 10000 5.1 240 07:19 02.04.2020
5628 Clouds 4 991 80 10000 5.1 240 06:25 02.04.2020
5629 Clouds 4 991 80 10000 5.7 240 05:46 02.04.2020
5630 Clouds 4 992 86 10000 6.2 240 04:58 02.04.2020
5631 Clouds 5 993 80 10000 6.2 240 02:21 02.04.2020
5632 Clouds 6 994 80 10000 4.6 230 01:27 02.04.2020
5633 Clouds 6 994 80 10000 4.1 230 00:41 02.04.2020
5634 Clouds 6 995 69 10000 4.1 230 00:19 02.04.2020
5635 Clouds 6 995 69 10000 3.6 230 23:39 01.04.2020
5636 Clouds 6 996 69 10000 3.6 230 23:19 01.04.2020
5637 Clouds 6 996 69 10000 3.6 220 22:57 01.04.2020
5638 Clouds 6 996 69 10000 3.6 220 22:38 01.04.2020
5639 Clouds 6 996 69 10000 3.6 220 22:19 01.04.2020
5640 Clouds 6 996 69 10000 3.6 220 22:19 01.04.2020
5641 Clouds 6 996 69 10000 3.6 220 21:41 01.04.2020
5642 Clouds 6 997 64 10000 3.1 220 21:19 01.04.2020
5643 Clouds 6 997 63 10000 3.1 220 21:19 01.04.2020
5644 Clouds 6 997 64 10000 4.1 230 20:56 01.04.2020
5645 Clouds 6 997 64 10000 4.1 230 20:38 01.04.2020
5646 Clouds 7 997 64 10000 3.1 220 20:19 01.04.2020
5647 Clouds 7 998 64 10000 4.1 230 19:58 01.04.2020
5648 Clouds 7 998 64 10000 4.1 230 19:38 01.04.2020
5649 Clouds 8 997 52 10000 7.2 240 19:19 01.04.2020
5650 Clouds 8 998 64 10000 4.6 240 18:42 01.04.2020
5651 Clouds 8 998 64 10000 4.6 240 18:42 01.04.2020
5652 Clouds 9 999 49 10000 5.1 230 18:23 01.04.2020
5653 Clouds 9 999 46 10000 4.6 210 17:57 01.04.2020
5654 Clouds 9 999 46 10000 4.6 210 17:38 01.04.2020
5655 Clouds 9 1000 46 10000 4.6 250 17:19 01.04.2020
5656 Clouds 9 1000 46 10000 4.6 250 17:19 01.04.2020
5657 Clouds 9 1000 46 10000 4.6 250 16:58 01.04.2020
5658 Clouds 9 1001 46 10000 5.1 250 16:39 01.04.2020
5659 Clouds 10 1000 46 10000 4.6 250 16:39 01.04.2020
5660 Clouds 9 1001 46 10000 5.1 250 16:20 01.04.2020
5661 Clouds 9 1001 45 10000 5.1 250 15:56 01.04.2020
5662 Clouds 10 1001 45 10000 5.1 250 15:37 01.04.2020
5663 Clouds 10 1001 39 10000 5.7 260 15:18 01.04.2020
5664 Clouds 10 1002 39 10000 6.2 260 14:40 01.04.2020
5665 Clouds 9 1002 42 10000 6.7 240 14:22 01.04.2020
5666 Clouds 9 1003 36 10000 5.7 290 13:59 01.04.2020
5667 Clouds 9 1003 36 10000 5.7 290 13:40 01.04.2020
5668 Clouds 9 1003 36 10000 6.2 290 13:20 01.04.2020
5669 Clouds 8 1003 36 10000 5.1 260 12:59 01.04.2020
5670 Clouds 8 1003 36 10000 5.1 260 12:41 01.04.2020
5671 Clouds 8 1004 36 10000 5.1 270 12:22 01.04.2020
5672 Clouds 7 1004 39 10000 5.1 300 11:57 01.04.2020
5673 Clouds 7 1004 39 10000 5.1 300 11:37 01.04.2020
5674 Clouds 7 1004 39 10000 5.1 300 11:37 01.04.2020
5675 Clouds 7 1004 39 10000 5.1 290 11:19 01.04.2020
5676 Clouds 6 1004 41 10000 6.2 270 10:39 01.04.2020
5677 Clouds 6 1005 41 10000 6.2 280 10:21 01.04.2020
5678 Clouds 6 1005 45 10000 5.7 290 09:59 01.04.2020
5679 Clouds 6 1005 45 10000 5.7 290 09:40 01.04.2020
5680 Clouds 6 1005 45 10000 5.7 290 09:40 01.04.2020
5681 Clouds 5 1005 48 10000 5.7 280 09:20 01.04.2020
5682 Clouds 5 1005 60 10000 3.6 270 08:54 01.04.2020
5683 Clouds 5 1005 60 10000 3.6 270 08:36 01.04.2020
5684 Clouds 4 1005 64 10000 2.6 250 08:18 01.04.2020
5685 Clouds 3 1005 86 10000 1.5 250 07:40 01.04.2020
5686 Clouds 2 1005 86 10000 1.5 250 07:19 01.04.2020
5687 Clouds 2 1005 80 10000 2.6 260 06:42 01.04.2020
5688 Clouds 2 1005 59 10000 3.1 290 06:20 01.04.2020
5689 Clouds 3 1005 69 10000 2.1 290 05:28 01.04.2020
5690 Clouds 4 1005 82 10000 3.1 250 03:57 01.04.2020
5691 Clouds 4 1005 78 10000 3.6 260 03:19 01.04.2020
5692 Clouds 5 1006 78 10000 4.1 250 02:36 01.04.2020
5693 Clouds 5 1006 79 10000 4.6 260 01:50 01.04.2020
5694 Clouds 5 1007 79 10000 4.6 250 01:25 01.04.2020
5695 Clouds 6 1007 60 10000 5.1 250 00:47 01.04.2020
5696 Clouds 6 1007 60 10000 5.1 260 00:22 01.04.2020
5697 Clouds 6 1008 60 10000 4.6 250 23:57 31.03.2020
5698 Clouds 6 1008 60 10000 4.6 250 23:57 31.03.2020
5699 Clouds 6 1008 60 10000 4.6 250 23:38 31.03.2020
5700 Clouds 6 1008 60 10000 5.7 250 23:19 31.03.2020
5701 Clouds 6 1009 56 10000 5.7 250 22:41 31.03.2020
5702 Clouds 6 1009 56 10000 5.7 250 22:21 31.03.2020
5703 Clouds 6 1009 56 10000 5.1 250 21:58 31.03.2020
5704 Clouds 6 1010 56 10000 5.1 250 21:40 31.03.2020
5705 Clouds 6 1010 56 10000 5.1 250 21:21 31.03.2020
5706 Clouds 6 1011 52 10000 6.2 250 20:57 31.03.2020
5707 Clouds 6 1011 52 10000 6.2 250 20:57 31.03.2020
5708 Clouds 6 1011 52 10000 6.2 250 20:57 31.03.2020
5709 Clouds 6 1011 52 10000 6.2 250 20:57 31.03.2020
5710 Clouds 7 1011 52 10000 6.2 250 20:37 31.03.2020
5711 Clouds 6 1011 52 10000 6.2 250 20:19 31.03.2020
5712 Clouds 7 1011 48 10000 6.7 250 19:56 31.03.2020
5713 Clouds 7 1011 48 10000 6.7 250 19:37 31.03.2020
5714 Clouds 7 1011 48 10000 6.7 250 19:19 31.03.2020
5715 Clouds 7 1012 45 10000 7.2 260 18:43 31.03.2020
5716 Clouds 7 1013 45 10000 8.2 270 18:20 31.03.2020
5717 Clouds 8 1013 39 10000 7.7 270 17:57 31.03.2020
5718 Clouds 8 1013 39 10000 7.7 270 17:39 31.03.2020
5719 Clouds 8 1013 36 10000 7.2 240 17:21 31.03.2020
5720 Clouds 7 1014 36 10000 7.7 250 16:56 31.03.2020
5721 Clouds 8 1014 36 10000 7.7 250 16:36 31.03.2020
5722 Clouds 8 1015 36 10000 7.2 240 16:18 31.03.2020
5723 Clouds 7 1015 36 10000 5.7 230 15:54 31.03.2020
5724 Clouds 7 1015 36 10000 5.7 230 15:36 31.03.2020
5725 Clouds 7 1016 39 10000 5.1 230 15:18 31.03.2020
5726 Clouds 7 1017 36 10000 6.2 240 14:41 31.03.2020
5727 Clouds 6 1018 38 10000 7.2 230 14:22 31.03.2020
5728 Clouds 6 1019 35 10000 6.7 230 13:58 31.03.2020
5729 Clouds 6 1019 35 10000 6.7 230 13:39 31.03.2020
5730 Clouds 6 1019 33 10000 6.2 230 13:19 31.03.2020
5731 Clouds 5 1020 32 10000 6.7 230 12:44 31.03.2020
5732 Clouds 4 1021 32 10000 6.7 230 12:20 31.03.2020
5733 Clouds 4 1022 32 10000 6.7 230 11:56 31.03.2020
5734 Clouds 3 1022 32 10000 5.7 220 11:37 31.03.2020
5735 Clouds 3 1022 32 10000 5.7 220 11:18 31.03.2020
5736 Clouds 2 1023 37 10000 6.2 230 10:55 31.03.2020
5737 Clouds 2 1023 37 10000 6.2 230 10:55 31.03.2020
5738 Clouds 2 1023 37 10000 6.2 230 10:37 31.03.2020
5739 Clouds 1 1024 43 10000 5.1 240 10:18 31.03.2020
5740 Clouds 0 1025 71 10000 4.6 220 09:43 31.03.2020
5741 Clouds 0 1025 42 10000 3.6 230 09:25 31.03.2020
5742 Clouds -1 1025 54 10000 3.6 220 08:58 31.03.2020
5743 Clouds -2 1025 54 10000 3.6 220 08:39 31.03.2020
5744 Clouds -3 1026 68 10000 2.6 220 08:20 31.03.2020
5745 Clouds -3 1026 67 10000 3.1 200 07:56 31.03.2020
5746 Clouds -5 1027 92 10000 1 190 07:38 31.03.2020
5747 Clouds -5 1027 92 10000 1 190 07:19 31.03.2020
5748 Clouds -6 1027 92 10000 0.5 150 06:47 31.03.2020
5749 Clear -6 1027 85 10000 2.35 295 06:23 31.03.2020
5750 Clear -6 1028 85 10000 1.5 280 05:40 31.03.2020
5751 Clear -6 1028 85 10000 1.5 270 03:43 31.03.2020
5752 Clear -5 1029 73 10000 1 0 02:25 31.03.2020
5753 Clear -5 1029 67 10000 2.1 300 01:46 31.03.2020
5754 Clear -4 1029 67 10000 1.5 310 00:52 31.03.2020
5755 Clear -4 1029 62 10000 2.1 310 00:25 31.03.2020
5756 Clear -4 1029 62 10000 2.1 310 23:59 30.03.2020
5757 Clear -4 1029 62 10000 2.1 310 23:38 30.03.2020
5758 Clear -4 1029 62 10000 2.6 340 23:18 30.03.2020
5759 Clear -3 1029 58 10000 2.6 340 22:56 30.03.2020
5760 Clear -3 1029 58 10000 3.1 340 22:37 30.03.2020
5761 Clear -3 1029 58 10000 3.1 340 22:18 30.03.2020
5762 Clear -3 1028 50 10000 3.6 350 21:55 30.03.2020
5763 Clear -3 1028 50 10000 3.6 340 21:36 30.03.2020
5764 Clouds -3 1028 50 10000 3.6 340 21:18 30.03.2020
5765 Clouds -2 1028 46 10000 4.1 340 20:42 30.03.2020
5766 Clouds -2 1028 42 10000 4.1 340 20:24 30.03.2020
5767 Clouds -2 1027 36 10000 5.1 360 19:59 30.03.2020
5768 Clouds -2 1027 36 10000 5.1 360 19:40 30.03.2020
5769 Clouds -1 1027 39 10000 5.1 340 19:21 30.03.2020
5770 Clouds -1 1027 86 10000 6.2 350 18:57 30.03.2020
5771 Clouds 0 1026 86 10000 4.6 350 18:38 30.03.2020
5772 Clouds 0 1026 76 10000 4.6 350 18:20 30.03.2020
5773 Clouds 0 1026 76 10000 5.1 360 17:57 30.03.2020
5774 Clouds 0 1026 47 10000 4.6 350 17:38 30.03.2020
5775 Clouds 0 1026 47 10000 4.6 350 17:18 30.03.2020
5776 Clouds 0 1026 80 10000 4.1 350 16:55 30.03.2020
5777 Clouds 0 1026 80 10000 4.1 350 16:36 30.03.2020
5778 Clouds 0 1026 76 10000 5.7 360 16:18 30.03.2020
5779 Clouds -1 1026 86 10000 4.6 320 15:42 30.03.2020
5780 Snow 0 1026 92 10000 5.1 350 15:22 30.03.2020
5781 Clouds 0 1025 67 10000 4.6 360 14:59 30.03.2020
5782 Clouds 0 1025 67 10000 4.6 360 14:39 30.03.2020
5783 Clouds 0 1025 74 10000 7.2 320 14:19 30.03.2020
5784 Clouds 0 1025 74 10000 7.2 320 14:19 30.03.2020
5785 Snow 0 1025 86 5000 6.2 350 13:59 30.03.2020
5786 Snow 0 1025 86 5000 6.2 350 13:40 30.03.2020
5787 Snow 0 1025 67 2500 8.7 330 13:20 30.03.2020
5788 Clouds 1 1024 55 10000 7.2 320 12:54 30.03.2020
5789 Clouds 1 1024 55 10000 7.2 320 12:36 30.03.2020
5790 Clouds 1 1024 51 10000 6.7 310 12:36 30.03.2020
5791 Clouds 1 1024 51 10000 6.7 310 12:18 30.03.2020
5792 Snow 1 1024 40 10000 5.7 340 11:42 30.03.2020
5793 Snow 1 1023 43 10000 5.7 340 11:24 30.03.2020
5794 Clouds 1 1023 67 10000 6.7 320 10:59 30.03.2020
5795 Clouds 1 1023 67 10000 6.7 320 10:39 30.03.2020
5796 Clouds 1 1023 47 10000 7.7 340 10:21 30.03.2020
5797 Clouds 1 1023 67 10000 5.7 340 09:54 30.03.2020
5798 Clouds 1 1023 67 10000 5.7 340 09:36 30.03.2020
5799 Snow 0 1022 84 10000 6.2 340 09:18 30.03.2020
5800 Clouds 0 1022 86 10000 5.7 340 08:39 30.03.2020
5801 -273 0 0 0 0 0 08:20 30.03.2020
5802 Clouds -1 1022 80 10000 5.1 330 07:45 30.03.2020
5803 Clouds -1 1021 86 10000 4.6 330 07:23 30.03.2020
5804 Clouds -1 1021 80 10000 4.6 330 06:47 30.03.2020
5805 Clouds -1 1020 74 10000 5.1 340 06:27 30.03.2020
5806 Clouds 0 1020 91 10000 5.7 350 05:44 30.03.2020
5807 Clouds 0 1020 74 10000 4.6 340 04:37 30.03.2020
5808 Clouds 0 1019 69 10000 4.1 330 04:18 30.03.2020
5809 Clouds 0 1019 55 10000 3.1 290 02:45 30.03.2020
5810 Clouds 0 1019 50 10000 3.6 260 01:58 30.03.2020
5811 Clouds 0 1019 90 10000 3.1 240 01:18 30.03.2020
5812 Clouds 1 1019 43 10000 3.6 220 00:29 30.03.2020
5813 Clouds 1 1020 50 10000 3.1 230 23:57 29.03.2020
5814 Clouds 1 1020 50 10000 3.1 230 23:57 29.03.2020
5815 Clouds 1 1020 50 10000 3.1 230 23:39 29.03.2020
5816 Clouds 1 1020 50 10000 2.6 240 23:20 29.03.2020
5817 Clouds 1 1021 50 10000 2.6 230 22:55 29.03.2020
5818 Clouds 1 1021 50 10000 2.6 230 22:55 29.03.2020
5819 Clouds 1 1021 50 10000 2.6 230 22:37 29.03.2020
5820 Clouds 1 1021 50 10000 2.6 230 22:37 29.03.2020
5821 Clouds 0 1021 83 10000 3.1 230 22:18 29.03.2020
5822 Clouds 0 1021 83 10000 1.5 200 21:38 29.03.2020
5823 Clouds 1 1022 47 10000 2.1 210 21:20 29.03.2020
5824 Clouds 1 1022 47 10000 1.5 220 20:56 29.03.2020
5825 Clouds 2 1022 37 10000 3.1 280 20:37 29.03.2020
5826 Clouds 2 1022 37 10000 3.1 280 20:37 29.03.2020
5827 Clouds 2 1022 37 10000 3.1 280 20:19 29.03.2020
5828 Clouds 3 1023 37 10000 3.1 290 19:57 29.03.2020
5829 Clouds 3 1023 32 10000 4.6 270 19:39 29.03.2020
5830 Clouds 3 1023 32 10000 4.6 270 19:21 29.03.2020
5831 Clouds 3 1023 32 10000 5.1 280 18:57 29.03.2020
5832 Clouds 4 1023 27 10000 5.1 290 18:38 29.03.2020
5833 Clouds 4 1023 27 10000 5.1 290 18:19 29.03.2020
5834 Clouds 4 1023 29 10000 5.7 290 17:56 29.03.2020
5835 Clouds 4 1023 29 10000 5.7 290 17:37 29.03.2020
5836 Clouds 4 1024 30 10000 5.7 300 17:18 29.03.2020
5837 Clouds 4 1024 29 10000 6.2 300 16:56 29.03.2020
5838 Clouds 5 1024 29 10000 6.2 300 16:38 29.03.2020
5839 Clouds 4 1025 27 10000 6.2 310 16:18 29.03.2020
5840 Clouds 4 1025 27 10000 7.2 310 15:41 29.03.2020
5841 Clear 4 1025 27 10000 5.7 330 15:23 29.03.2020
5842 Clear 4 1025 27 10000 5.7 330 15:23 29.03.2020
5843 Clear 4 1026 27 10000 5.1 310 14:58 29.03.2020
5844 Clouds 4 1026 27 10000 6.2 310 14:40 29.03.2020
5845 Clouds 4 1026 27 10000 6.2 310 14:20 29.03.2020
5846 Clouds 3 1026 32 10000 6.2 310 13:57 29.03.2020
5847 Clouds 4 1026 32 10000 6.2 310 13:39 29.03.2020
5848 Clouds 3 1027 34 10000 4.6 320 13:20 29.03.2020
5849 Clouds 3 1027 34 10000 5.7 340 12:55 29.03.2020
5850 Clouds 2 1028 37 10000 5.1 330 12:37 29.03.2020
5851 Clear 2 1028 37 10000 5.1 330 12:18 29.03.2020
5852 Clear 1 1028 40 10000 4.6 320 11:55 29.03.2020
5853 Clear 1 1028 43 10000 5.1 320 11:36 29.03.2020
5854 Clear 1 1028 43 10000 5.1 320 11:18 29.03.2020
5855 Clear 0 1028 67 10000 4.1 320 10:38 29.03.2020
5856 Clear 0 1029 67 10000 5.1 330 10:18 29.03.2020
5857 Clear 0 1029 67 10000 5.1 330 10:18 29.03.2020
5858 Clear -1 1028 50 10000 5.1 320 09:41 29.03.2020
5859 Clear -1 1028 54 10000 5.1 330 09:20 29.03.2020
5860 Clear -2 1029 54 10000 5.7 330 08:54 29.03.2020
5861 Clear -2 1029 54 10000 5.7 330 08:54 29.03.2020
5862 Clear -2 1028 54 10000 5.1 330 08:30 29.03.2020
5863 Clear -2 1028 58 10000 5.1 340 07:59 29.03.2020
5864 Clear -2 1028 63 10000 4.6 330 07:41 29.03.2020
5865 Clear -2 1028 63 10000 4.6 330 07:20 29.03.2020
5866 Clouds -2 1028 54 10000 5.7 330 05:41 29.03.2020
5867 Clouds -1 1027 50 10000 4.6 330 03:58 29.03.2020
5868 Clouds -1 1027 46 10000 5.1 330 03:28 29.03.2020
5869 Clouds -1 1027 46 10000 4.1 330 01:51 29.03.2020
5870 Clouds -1 1027 46 10000 4.1 340 01:23 29.03.2020
5871 Clouds 0 1027 84 10000 5.7 340 00:55 29.03.2020
5872 Clouds 0 1026 84 10000 5.1 340 00:32 29.03.2020
5873 Clouds 1 1026 47 10000 5.7 360 23:43 28.03.2020
5874 Clouds 1 1026 47 10000 5.7 360 23:24 28.03.2020
5875 Clouds 1 1025 51 10000 5.7 350 22:59 28.03.2020
5876 Clouds 1 1025 51 10000 5.7 350 22:38 28.03.2020
5877 Clouds 2 1025 51 10000 5.7 360 22:20 28.03.2020
5878 Clouds 2 1024 51 10000 4.6 350 21:54 28.03.2020
5879 Clouds 3 1024 47 10000 5.1 10 21:36 28.03.2020
5880 Clouds 3 1024 47 10000 5.1 10 21:18 28.03.2020
5881 Clouds 3 1024 44 10000 5.1 10 20:41 28.03.2020
5882 Clouds 3 1023 41 10000 4.1 20 20:23 28.03.2020
5883 Clouds 3 1023 41 10000 4.6 20 19:57 28.03.2020
5884 Clouds 4 1023 41 10000 4.6 20 19:39 28.03.2020
5885 Clouds 4 1023 41 10000 4.6 20 19:20 28.03.2020
5886 Clouds 4 1022 38 10000 5.1 20 18:58 28.03.2020
5887 Clouds 4 1022 38 10000 5.1 20 18:38 28.03.2020
5888 Clouds 4 1022 38 10000 4.1 20 18:19 28.03.2020
5889 Clouds 5 1021 44 10000 5.7 30 17:39 28.03.2020
5890 Clouds 5 1021 44 10000 5.7 30 17:20 28.03.2020
5891 Clouds 5 1021 41 10000 5.1 10 16:43 28.03.2020
5892 Clouds 6 1021 41 10000 6.2 360 16:20 28.03.2020
5893 Clouds 6 1021 36 10000 5.1 360 15:58 28.03.2020
5894 Clouds 6 1021 36 10000 4.6 360 15:39 28.03.2020
5895 Clouds 7 1021 36 10000 4.6 360 15:19 28.03.2020
5896 Clouds 7 1020 39 10000 4.6 360 14:54 28.03.2020
5897 Clouds 8 1020 39 10000 3.6 20 14:36 28.03.2020
5898 Clouds 8 1020 39 10000 3.6 20 14:18 28.03.2020
5899 Clouds 8 1020 42 10000 4.1 10 13:38 28.03.2020
5900 Clouds 8 1020 42 10000 4.1 10 13:20 28.03.2020
5901 Clouds 8 1020 45 10000 2.1 20 12:39 28.03.2020
5902 Clouds 8 1020 49 10000 3.6 80 12:21 28.03.2020
5903 Clouds 8 1020 45 10000 4.1 70 11:42 28.03.2020
5904 Clouds 8 1020 45 10000 3.1 30 11:21 28.03.2020
5905 Clouds 8 1020 49 10000 2.6 40 10:56 28.03.2020
5906 Clouds 7 1020 49 10000 2.6 40 10:38 28.03.2020
5907 Clouds 7 1020 60 10000 2.6 360 10:18 28.03.2020
5908 Clouds 6 1020 56 10000 5.1 20 09:41 28.03.2020
5909 Clouds 6 1020 56 10000 5.1 20 09:23 28.03.2020
5910 Clouds 5 1020 64 10000 4.1 290 08:46 28.03.2020
5911 Clear 5 1020 64 10000 2.6 290 08:27 28.03.2020
5912 Clear 4 1020 64 10000 2.1 260 07:59 28.03.2020
5913 Clear 3 1020 69 10000 1 0 07:41 28.03.2020
5914 Clear 2 1020 74 10000 1 0 06:56 28.03.2020
5915 Clear 1 1020 74 10000 1 0 06:33 28.03.2020
5916 Clear 1 1020 74 10000 1 190 05:41 28.03.2020
5917 Clear 1 1020 85 10000 2.83 262 05:19 28.03.2020
5918 Clear 1 1021 80 10000 1 190 04:40 28.03.2020
5919 Clear 0 1021 80 10000 1 250 02:55 28.03.2020
5920 Clear 1 1022 79 10000 0.5 0 01:48 28.03.2020
5921 Clear 1 1022 79 10000 0.5 220 01:24 28.03.2020
5922 Clear 2 1022 64 10000 1.5 200 00:54 28.03.2020
5923 Clear 3 1022 64 10000 1.5 200 00:33 28.03.2020
5924 Clear 3 1023 69 10000 1.5 220 23:45 27.03.2020
5925 Clear 3 1023 69 10000 2.1 190 23:26 27.03.2020
5926 Clear 3 1023 69 10000 2.1 200 22:58 27.03.2020
5927 Clear 3 1024 64 10000 2.1 200 22:40 27.03.2020
5928 Clear 3 1024 64 10000 2.1 200 22:21 27.03.2020
5929 Clear 2 1024 64 10000 2.6 200 22:00 27.03.2020
5930 Clear 3 1024 64 10000 2.6 200 21:41 27.03.2020
5931 Clear 3 1024 60 10000 2.6 200 21:23 27.03.2020
5932 Clear 3 1024 60 10000 2.1 200 20:57 27.03.2020
5933 Clear 4 1024 52 10000 2.6 190 20:39 27.03.2020
5934 Clouds 4 1024 52 10000 2.6 190 20:19 27.03.2020
5935 Clouds 4 1024 52 10000 2.6 190 20:19 27.03.2020
5936 Clouds 4 1024 52 10000 2.6 190 20:19 27.03.2020
5937 Clouds 4 1024 52 10000 2.1 190 19:56 27.03.2020
5938 Clouds 5 1024 48 10000 2.1 180 19:38 27.03.2020
5939 Clouds 5 1024 48 10000 2.1 180 19:19 27.03.2020
5940 Clouds 6 1024 42 10000 2.1 180 18:43 27.03.2020
5941 Clouds 7 1024 39 10000 2.6 180 18:23 27.03.2020
5942 Clouds 8 1025 36 10000 2.6 190 17:55 27.03.2020
5943 Clouds 9 1025 34 10000 3.6 200 17:37 27.03.2020
5944 Clouds 9 1025 34 10000 3.6 200 17:19 27.03.2020
5945 Clouds 10 1025 34 10000 4.1 200 16:44 27.03.2020
5946 Clouds 9 1026 36 10000 3.6 180 16:25 27.03.2020
5947 Clouds 10 1026 34 10000 4.6 190 15:45 27.03.2020
5948 Clouds 10 1026 34 10000 4.1 190 15:26 27.03.2020
5949 Clouds 11 1027 32 10000 3.6 190 14:56 27.03.2020
5950 Clouds 11 1027 32 10000 3.6 190 14:37 27.03.2020
5951 Clouds 11 1027 32 10000 3.6 190 14:18 27.03.2020
5952 Clouds 10 1028 29 10000 3.6 190 13:43 27.03.2020
5953 Clear 11 1028 29 10000 4.1 200 13:22 27.03.2020
5954 Clear 11 1028 27 10000 3.6 220 12:59 27.03.2020
5955 Clear 10 1028 27 10000 3.6 220 12:41 27.03.2020
5956 Clear 10 1029 29 10000 2.6 220 12:19 27.03.2020
5957 Clear 9 1029 31 10000 2.6 200 11:43 27.03.2020
5958 Clear 9 1029 31 10000 2.6 200 11:25 27.03.2020
5959 Clear 7 1029 48 10000 2.1 240 10:57 27.03.2020
5960 Clear 7 1029 48 10000 2.1 240 10:39 27.03.2020
5961 Clear 6 1029 60 10000 1.5 190 10:20 27.03.2020
5962 Clear 5 1029 60 10000 1.5 190 09:58 27.03.2020
5963 Clear 5 1029 60 10000 1.5 190 09:39 27.03.2020
5964 Clear 5 1029 64 10000 1.5 180 09:21 27.03.2020
5965 Clear 4 1029 74 10000 1.5 0 08:57 27.03.2020
5966 Clear 3 1029 74 10000 1.5 0 08:39 27.03.2020
5967 Clear 2 1029 86 10000 1 0 08:21 27.03.2020
5968 Clear 0 1029 100 10000 2.24 246 07:53 27.03.2020
5969 Clear -1 1029 100 10000 2.24 246 07:28 27.03.2020
5970 Clear -2 1029 100 10000 2.24 246 06:57 27.03.2020
5971 Mist -2 1029 100 9000 2.24 246 06:37 27.03.2020
5972 Clear -2 1029 100 9000 1 130 05:37 27.03.2020
5973 Clear 0 1030 92 10000 1 120 02:51 27.03.2020
5974 Clear 1 1030 81 10000 1 130 01:50 27.03.2020
5975 Clear 1 1030 81 10000 1.5 160 00:55 27.03.2020
5976 Clear 1 1030 81 10000 1 150 00:32 27.03.2020
5977 Clear 2 1030 74 10000 2.93 218 23:45 26.03.2020
5978 Clear 2 1030 74 10000 1.5 180 23:25 26.03.2020
5979 Clouds 2 1030 69 10000 2.6 190 22:59 26.03.2020
5980 Clouds 2 1030 69 10000 2.6 190 22:59 26.03.2020
5981 Clouds 2 1030 69 10000 2.6 190 22:39 26.03.2020
5982 Clouds 2 1030 69 10000 2.1 170 22:20 26.03.2020
5983 Clouds 3 1030 64 10000 2.6 180 21:59 26.03.2020
5984 Clouds 3 1030 64 10000 2.6 180 21:39 26.03.2020
5985 Clouds 3 1030 64 10000 2.6 180 21:21 26.03.2020
5986 Clouds 3 1030 64 10000 3.1 190 20:58 26.03.2020
5987 Clouds 3 1030 64 10000 3.1 190 20:38 26.03.2020
5988 Clouds 4 1030 60 10000 2.6 180 20:20 26.03.2020
5989 Clouds 4 1029 60 10000 3.6 180 19:56 26.03.2020
5990 Clouds 5 1029 52 10000 3.1 180 19:38 26.03.2020
5991 Clouds 5 1029 52 10000 3.1 180 19:20 26.03.2020
5992 Clouds 6 1029 45 10000 2.6 180 18:55 26.03.2020
5993 Clouds 7 1029 42 10000 4.1 180 18:37 26.03.2020
5994 Clouds 7 1029 42 10000 4.1 180 18:19 26.03.2020
5995 Clouds 8 1029 39 10000 4.1 200 17:42 26.03.2020
5996 Clear 9 1029 39 10000 4.1 200 17:19 26.03.2020
5997 Clear 9 1029 39 10000 4.1 200 17:19 26.03.2020
5998 Clear 10 1029 40 10000 4.1 200 16:45 26.03.2020
5999 Clear 10 1029 37 10000 5.1 190 16:27 26.03.2020
6000 Clear 11 1029 32 10000 4.6 200 15:59 26.03.2020
6001 Clear 11 1029 32 10000 4.6 200 15:40 26.03.2020
6002 Clear 12 1029 32 10000 4.1 190 15:22 26.03.2020
6003 Clear 12 1029 25 10000 3.6 240 14:58 26.03.2020
6004 Clear 12 1029 27 10000 5.1 220 14:39 26.03.2020
6005 Clouds 11 1029 27 10000 5.1 220 14:19 26.03.2020
6006 Clouds 11 1029 29 10000 4.6 210 13:43 26.03.2020
6007 Clouds 10 1030 27 10000 4.1 220 13:23 26.03.2020
6008 Clouds 10 1030 31 10000 4.1 210 12:57 26.03.2020
6009 Clouds 10 1030 34 10000 4.6 200 12:38 26.03.2020
6010 Clouds 9 1030 36 10000 4.6 200 12:19 26.03.2020
6011 Clouds 9 1030 36 10000 4.6 200 11:45 26.03.2020
6012 Clouds 8 1030 42 10000 3.6 200 11:21 26.03.2020
6013 Clouds 7 1029 42 10000 3.6 200 10:56 26.03.2020
6014 Clouds 7 1029 45 10000 3.6 200 10:37 26.03.2020
6015 Clouds 6 1029 45 10000 3.6 200 10:18 26.03.2020
6016 Clouds 5 1029 45 10000 3.6 230 09:43 26.03.2020
6017 Clouds 5 1029 45 10000 4.1 240 09:19 26.03.2020
6018 Clouds 4 1029 48 10000 3.6 230 08:55 26.03.2020
6019 Clouds 4 1029 48 10000 3.6 230 08:37 26.03.2020
6020 Clouds 3 1029 51 10000 3.6 220 08:18 26.03.2020
6021 Clouds 3 1029 55 10000 3.1 230 07:41 26.03.2020
6022 Clouds 2 1029 55 10000 3.1 230 07:20 26.03.2020
6023 Clouds 2 1029 55 10000 3.6 210 06:48 26.03.2020
6024 Clouds 2 1029 51 10000 2.6 210 05:54 26.03.2020
6025 Clouds 3 1029 44 10000 3.6 220 03:59 26.03.2020
6026 Clouds 3 1028 41 10000 3.6 230 03:36 26.03.2020
6027 Clouds 3 1028 41 10000 3.6 230 02:54 26.03.2020
6028 Clouds 4 1028 38 10000 3.1 230 01:50 26.03.2020
6029 Clouds 5 1028 33 10000 3.6 220 00:48 26.03.2020
6030 Clouds 6 1028 30 10000 4.1 240 23:56 25.03.2020
6031 Clouds 6 1028 30 10000 4.6 230 23:36 25.03.2020
6032 Clouds 7 1028 30 10000 4.6 230 23:18 25.03.2020
6033 Clouds 7 1027 28 10000 4.1 230 22:38 25.03.2020
6034 Clouds 7 1027 28 10000 6.2 230 22:20 25.03.2020
6035 Clouds 7 1027 28 10000 6.2 230 21:55 25.03.2020
6036 Clouds 7 1027 26 10000 5.7 230 21:37 25.03.2020
6037 Clouds 7 1027 26 10000 5.7 230 21:18 25.03.2020
6038 Clouds 8 1027 26 10000 5.1 230 20:40 25.03.2020
6039 Clouds 8 1026 26 10000 5.1 230 20:20 25.03.2020
6040 Clouds 8 1026 26 10000 5.1 220 19:59 25.03.2020
6041 Clouds 8 1026 26 10000 5.1 220 19:41 25.03.2020
6042 Clouds 9 1026 27 10000 5.7 220 19:21 25.03.2020
6043 Clouds 9 1026 27 10000 5.7 220 18:56 25.03.2020
6044 Clouds 10 1026 25 10000 4.6 230 18:37 25.03.2020
6045 Clouds 10 1026 25 10000 4.6 230 18:37 25.03.2020
6046 Clouds 10 1026 25 10000 4.6 230 18:19 25.03.2020
6047 Clouds 11 1026 25 10000 5.7 240 17:42 25.03.2020
6048 Clouds 11 1026 25 10000 5.7 240 17:23 25.03.2020
6049 Clouds 11 1026 23 10000 5.7 230 16:59 25.03.2020
6050 Clouds 11 1026 23 10000 5.7 230 16:41 25.03.2020
6051 Clouds 11 1026 25 10000 5.7 240 16:21 25.03.2020
6052 Clouds 11 1026 22 10000 7.7 240 15:57 25.03.2020
6053 Clouds 11 1026 22 10000 7.7 240 15:37 25.03.2020
6054 Clouds 11 1026 25 10000 6.2 220 15:18 25.03.2020
6055 Clouds 11 1026 25 10000 6.2 220 15:18 25.03.2020
6056 Clouds 11 1026 25 10000 6.7 230 14:41 25.03.2020
6057 Clouds 11 1026 27 10000 6.2 220 14:21 25.03.2020
6058 Clouds 11 1026 25 10000 6.7 220 13:46 25.03.2020
6059 Clouds 11 1026 25 10000 5.7 220 13:26 25.03.2020
6060 Clouds 10 1026 27 10000 6.7 230 12:55 25.03.2020
6061 Clouds 10 1026 31 10000 7.7 230 12:37 25.03.2020
6062 Clouds 10 1026 31 10000 7.7 230 12:18 25.03.2020
6063 Clouds 9 1026 31 10000 7.7 220 11:41 25.03.2020
6064 Clouds 7 1026 36 10000 5.7 220 11:21 25.03.2020
6065 Clouds 7 1026 36 10000 5.7 220 11:21 25.03.2020
6066 Clouds 7 1026 39 10000 6.2 220 10:59 25.03.2020
6067 Clouds 7 1027 41 10000 6.7 220 10:40 25.03.2020
6068 Clouds 6 1027 41 10000 6.7 220 10:19 25.03.2020
6069 Clouds 6 1027 41 10000 6.7 220 10:19 25.03.2020
6070 Clouds 6 1027 41 10000 7.2 220 09:59 25.03.2020
6071 Clouds 6 1027 41 10000 7.2 220 09:40 25.03.2020
6072 Clouds 6 1027 48 10000 6.2 210 09:21 25.03.2020
6073 Clouds 4 1027 48 10000 5.7 210 08:43 25.03.2020
6074 Clouds 4 1027 48 10000 5.7 210 08:25 25.03.2020
6075 Clouds 3 1027 51 10000 5.7 210 07:59 25.03.2020
6076 Clouds 3 1021 54 0 3.13 247 07:39 25.03.2020
6077 Clouds 3 1027 51 10000 4.6 210 07:19 25.03.2020
6078 Clouds 2 1026 47 10000 4.1 210 06:45 25.03.2020
6079 Clouds 2 1026 44 10000 4.1 220 06:25 25.03.2020
6080 Clouds 2 1026 40 10000 4.1 220 05:48 25.03.2020
6081 Clouds 3 1026 34 10000 4.6 220 04:46 25.03.2020
6082 Clouds 3 1026 35 10000 5.1 230 03:58 25.03.2020
6083 Clouds 3 1026 38 10000 6.2 230 03:34 25.03.2020
6084 Clouds 4 1027 38 10000 5.7 230 01:41 25.03.2020
6085 Clouds 5 1027 33 10000 4.6 230 00:58 25.03.2020
6086 Clouds 6 1027 33 10000 4.6 220 00:40 25.03.2020
6087 Clouds 5 1027 33 10000 4.6 220 00:18 25.03.2020
6088 Clouds 5 1027 33 10000 4.6 220 23:40 24.03.2020
6089 Clouds 6 1027 33 10000 4.6 220 23:22 24.03.2020
6090 Clouds 5 1028 35 10000 4.1 210 22:55 24.03.2020
6091 Clouds 5 1028 35 10000 3.6 220 22:37 24.03.2020
6092 Clouds 5 1028 35 10000 3.6 220 22:19 24.03.2020
6093 Clouds 6 1028 41 10000 2.6 200 21:54 24.03.2020
6094 Clouds 6 1028 41 10000 2.6 200 21:36 24.03.2020
6095 Clouds 5 1028 45 10000 4.1 210 21:18 24.03.2020
6096 Clouds 5 1028 48 10000 4.1 220 20:41 24.03.2020
6097 Clouds 5 1028 52 10000 4.6 200 20:23 24.03.2020
6098 Clouds 5 1028 52 10000 3.6 190 19:54 24.03.2020
6099 Clouds 5 1028 52 10000 3.6 190 19:36 24.03.2020
6100 Clouds 5 1028 52 10000 4.1 190 19:18 24.03.2020
6101 Clouds 5 1029 52 10000 3.6 190 18:54 24.03.2020
6102 Clouds 6 1029 48 10000 3.6 190 18:36 24.03.2020
6103 Clouds 6 1029 48 10000 3.6 190 18:18 24.03.2020
6104 Clouds 7 1029 33 10000 5.1 220 17:41 24.03.2020
6105 Clouds 7 1029 33 10000 5.1 220 17:22 24.03.2020
6106 Clouds 7 1029 33 10000 5.1 220 16:57 24.03.2020
6107 Clouds 7 1029 33 10000 5.1 220 16:39 24.03.2020
6108 Clouds 7 1029 33 10000 5.7 220 16:20 24.03.2020
6109 Clouds 7 1030 33 10000 4.6 220 15:44 24.03.2020
6110 Clouds 7 1030 33 10000 5.7 230 15:25 24.03.2020
6111 Clouds 7 1030 36 10000 6.2 220 14:59 24.03.2020
6112 Clouds 7 1030 36 10000 6.2 220 14:40 24.03.2020
6113 Clouds 8 1030 36 10000 5.7 230 14:18 24.03.2020
6114 Clouds 7 1030 39 10000 5.7 210 13:42 24.03.2020
6115 Clouds 7 1030 39 10000 4.6 220 13:23 24.03.2020
6116 Clouds 7 1030 39 10000 4.6 220 13:23 24.03.2020
6117 Clouds 7 1031 39 10000 5.1 230 12:47 24.03.2020
6118 Clouds 7 1031 42 10000 5.1 230 12:28 24.03.2020
6119 Clouds 7 1031 45 10000 5.1 230 11:59 24.03.2020
6120 Clouds 7 1031 45 10000 6.2 230 11:39 24.03.2020
6121 Clouds 5 1031 45 10000 6.2 230 11:19 24.03.2020
6122 Clouds 5 1031 48 10000 6.2 220 10:42 24.03.2020
6123 Clouds 5 1031 51 10000 5.7 220 10:19 24.03.2020
6124 Clouds 4 1031 59 10000 5.7 220 09:57 24.03.2020
6125 Clouds 4 1031 59 10000 5.7 220 09:39 24.03.2020
6126 Clouds 3 1032 59 10000 5.7 220 09:20 24.03.2020
6127 Clouds 2 1032 64 10000 5.1 220 08:38 24.03.2020
6128 Clouds 2 1032 64 10000 5.1 220 08:20 24.03.2020
6129 Clouds 1 1032 69 10000 5.1 220 07:47 24.03.2020
6130 Clouds 1 1032 69 10000 4.6 210 07:24 24.03.2020
6131 Clouds 0 1032 69 10000 5.1 210 06:52 24.03.2020
6132 Clouds 0 1032 69 10000 5.1 210 06:25 24.03.2020
6133 Clouds 1 1033 69 10000 5.1 220 04:57 24.03.2020
6134 Clouds 1 1032 67 10000 4.6 210 03:48 24.03.2020
6135 Clouds 1 1033 64 10000 4.1 220 03:18 24.03.2020
6136 Clouds 1 1032 69 10000 3.6 230 01:47 24.03.2020
6137 Clouds 1 1032 69 10000 3.1 230 00:48 24.03.2020
6138 Clouds 1 1032 69 10000 3.1 220 00:25 24.03.2020
6139 Clouds 2 1032 69 10000 3.1 210 23:45 23.03.2020
6140 Clouds 2 1032 69 10000 3.1 210 23:26 23.03.2020
6141 Clouds 2 1032 64 10000 2.6 210 22:56 23.03.2020
6142 Clouds 2 1032 64 10000 2.6 210 22:37 23.03.2020
6143 Clouds 2 1032 64 10000 3.6 220 22:19 23.03.2020
6144 Clouds 2 1032 55 10000 4.1 210 21:44 23.03.2020
6145 Clouds 3 1033 55 10000 3.6 220 21:21 23.03.2020
6146 Clouds 3 1033 55 10000 3.6 210 20:58 23.03.2020
6147 Clouds 2 1033 55 10000 3.6 210 20:40 23.03.2020
6148 Clouds 3 1033 55 10000 3.6 210 20:22 23.03.2020
6149 Clouds 3 1032 59 10000 6.2 210 19:46 23.03.2020
6150 Clouds 3 1032 55 10000 6.2 220 19:27 23.03.2020
6151 Clouds 3 1033 51 10000 4.6 230 18:59 23.03.2020
6152 Clouds 3 1032 51 10000 7.7 220 18:41 23.03.2020
6153 Clouds 4 1032 51 10000 7.7 220 18:22 23.03.2020
6154 Clouds 4 1032 51 10000 8.2 220 17:56 23.03.2020
6155 Clouds 4 1033 41 10000 5.7 240 17:37 23.03.2020
6156 Clouds 5 1034 38 10000 6.7 220 17:18 23.03.2020
6157 Clouds 5 1034 38 10000 6.7 220 16:43 23.03.2020
6158 Clouds 5 1034 33 10000 7.2 220 16:24 23.03.2020
6159 Clouds 5 1034 35 10000 7.2 230 15:42 23.03.2020
6160 Clouds 5 1035 35 10000 6.2 230 15:20 23.03.2020
6161 Clouds 5 1035 38 10000 7.2 220 14:55 23.03.2020
6162 Clouds 5 1035 35 10000 6.7 220 14:37 23.03.2020
6163 Clouds 5 1035 35 10000 6.7 220 14:18 23.03.2020
6164 Clouds 5 1036 44 10000 5.7 210 13:41 23.03.2020
6165 Clouds 5 1036 44 10000 5.7 210 13:41 23.03.2020
6166 Clouds 4 1036 44 10000 5.7 210 13:22 23.03.2020
6167 Clouds 4 1036 55 10000 5.1 220 12:58 23.03.2020
6168 Clouds 4 1036 55 10000 5.1 220 12:58 23.03.2020
6169 Clouds 4 1036 55 10000 5.1 220 12:40 23.03.2020
6170 Clouds 4 1036 55 10000 6.7 230 12:21 23.03.2020
6171 Clouds 4 1037 55 10000 5.1 220 11:42 23.03.2020
6172 Clouds 4 1037 55 10000 5.1 220 11:21 23.03.2020
6173 Clouds 4 1037 59 10000 5.1 230 10:58 23.03.2020
6174 Clouds 4 1037 59 10000 5.1 230 10:39 23.03.2020
6175 Clouds 3 1037 59 10000 4.6 220 10:21 23.03.2020
6176 Clouds 3 1038 64 10000 5.7 230 09:57 23.03.2020
6177 Clouds 3 1038 64 10000 5.7 230 09:39 23.03.2020
6178 Clouds 3 1038 64 10000 4.1 230 09:18 23.03.2020
6179 Clouds 2 1038 69 10000 3.6 220 08:38 23.03.2020
6180 Clouds 2 1038 74 10000 3.6 220 08:19 23.03.2020
6181 Clouds 1 1038 69 10000 2.6 220 07:50 23.03.2020
6182 Clouds 1 1038 68 10000 3.1 220 07:32 23.03.2020
6183 Clouds 0 1038 68 10000 3.1 230 06:54 23.03.2020
6184 Clouds 0 1038 68 10000 3.1 230 06:32 23.03.2020
6185 Clouds 0 1038 68 10000 3.1 210 05:42 23.03.2020
6186 Clouds -1 1038 74 10000 2.1 200 03:45 23.03.2020
6187 Clouds -1 1038 74 10000 2.6 210 02:43 23.03.2020
6188 Clouds -1 1038 74 10000 2.6 200 01:38 23.03.2020
6189 Clouds -1 1038 70 10000 2.6 200 00:44 23.03.2020
6190 Clouds 0 1038 70 10000 2.6 200 23:54 22.03.2020
6191 Clouds 0 1038 70 10000 3.6 200 23:36 22.03.2020
6192 Clear 0 1038 71 10000 3.6 200 23:18 22.03.2020
6193 Clear 0 1039 71 10000 2.6 200 22:40 22.03.2020
6194 Clear 0 1039 71 10000 2.6 200 22:19 22.03.2020
6195 Clear 0 1039 71 10000 3.1 190 21:40 22.03.2020
6196 Clear 0 1039 74 10000 3.1 190 21:21 22.03.2020
6197 Clear 0 1039 74 10000 3.1 190 20:58 22.03.2020
6198 Clear 0 1039 74 10000 3.1 190 20:39 22.03.2020
6199 Clear 0 1039 74 10000 3.1 190 20:21 22.03.2020
6200 Clear 1 1039 69 10000 3.1 190 19:55 22.03.2020
6201 Clear 1 1039 69 10000 3.1 190 19:37 22.03.2020
6202 Clear 1 1039 69 10000 3.1 190 19:37 22.03.2020
6203 Clear 1 1039 69 10000 3.6 190 19:19 22.03.2020
6204 Clear 1 1039 64 10000 3.6 180 18:56 22.03.2020
6205 Clear 1 1039 64 10000 3.6 180 18:38 22.03.2020
6206 Clear 2 1039 64 10000 3.1 180 18:18 22.03.2020
6207 Clear 2 1039 55 10000 3.1 180 17:56 22.03.2020
6208 Clear 3 1039 44 10000 3.1 220 17:37 22.03.2020
6209 Clear 3 1038 34 10000 5.1 210 17:19 22.03.2020
6210 Clear 3 1039 38 10000 4.6 240 16:55 22.03.2020
6211 Clear 4 1039 38 10000 4.6 240 16:36 22.03.2020
6212 Clear 4 1039 35 10000 4.6 240 16:18 22.03.2020
6213 Clear 4 1039 30 10000 3.6 210 15:39 22.03.2020
6214 Clear 4 1040 35 10000 3.6 200 14:55 22.03.2020
6215 Clear 4 1040 32 10000 4.6 260 14:37 22.03.2020
6216 Clear 4 1040 32 10000 4.6 260 14:18 22.03.2020
6217 Clear 4 1040 32 10000 4.1 220 13:41 22.03.2020
6218 Clear 4 1041 32 10000 4.6 240 13:20 22.03.2020
6219 Clear 4 1041 35 10000 3.6 210 12:47 22.03.2020
6220 Clear 3 1041 44 10000 3.6 250 12:23 22.03.2020
6221 Clear 3 1041 44 10000 3.6 250 12:23 22.03.2020
6222 Clear 3 1041 47 10000 3.6 240 11:59 22.03.2020
6223 Clear 2 1041 55 10000 2.6 210 11:41 22.03.2020
6224 Clear 2 1041 55 10000 2.6 210 11:23 22.03.2020
6225 Clear 2 1041 59 10000 2.1 200 10:56 22.03.2020
6226 Clear 2 1041 64 10000 2.1 210 10:38 22.03.2020
6227 Clear 1 1041 64 10000 2.1 210 10:20 22.03.2020
6228 Clear 0 1042 49 10000 1 0 09:42 22.03.2020
6229 Clear 0 1042 49 10000 1 0 09:22 22.03.2020
6230 Clear -2 1042 74 10000 0.5 0 08:44 22.03.2020
6231 Clear -2 1042 79 10000 0.8 247 08:24 22.03.2020
6232 Clear -3 1042 86 10000 0.8 247 07:52 22.03.2020
6233 Clear -4 1041 85 10000 0.8 247 07:26 22.03.2020
6234 Clear -6 1041 92 10000 1 300 06:35 22.03.2020
6235 Clear -6 1040 100 10000 0.8 247 05:35 22.03.2020
6236 Clear -6 1040 92 10000 0.67 327 03:46 22.03.2020
6237 Clear -5 1039 85 10000 1.01 8 01:28 22.03.2020
6238 Clear -5 1039 85 10000 1.01 8 00:48 22.03.2020
6239 Clear -4 1039 85 10000 1 0 00:29 22.03.2020
6240 Clear -4 1039 79 10000 1 0 23:43 21.03.2020
6241 Clear -4 1039 79 10000 1 0 23:19 21.03.2020
6242 Clear -4 1039 79 10000 1 0 22:58 21.03.2020
6243 Clear -3 1039 79 10000 1 0 22:37 21.03.2020
6244 Clear -3 1039 73 10000 1.5 350 22:18 21.03.2020
6245 Clear -3 1039 68 10000 1 0 21:56 21.03.2020
6246 Clear -3 1039 68 10000 1 0 21:37 21.03.2020
6247 Clear -3 1038 68 10000 1.5 350 21:18 21.03.2020
6248 Clear -2 1038 63 10000 1.5 350 20:41 21.03.2020
6249 Clear -2 1038 63 10000 1.5 0 20:20 21.03.2020
6250 Clear -1 1038 63 10000 2.6 360 19:44 21.03.2020
6251 Clear -1 1037 70 10000 2.6 360 19:25 21.03.2020
6252 Clear -1 1037 70 10000 3.6 350 18:59 21.03.2020
6253 Clear 0 1037 70 10000 3.6 350 18:39 21.03.2020
6254 Clear 0 1037 50 10000 4.6 350 18:20 21.03.2020
6255 Clear 0 1036 50 10000 4.6 360 17:57 21.03.2020
6256 Clear 1 1036 43 10000 5.7 360 17:39 21.03.2020
6257 Clear 1 1036 43 10000 5.7 360 17:20 21.03.2020
6258 Clear 2 1036 37 10000 6.7 350 16:41 21.03.2020
6259 Clear 2 1036 37 10000 6.7 350 16:21 21.03.2020
6260 Clear 2 1036 37 10000 6.7 350 16:20 21.03.2020
6261 Clear 2 1035 34 10000 6.2 350 15:56 21.03.2020
6262 Clear 2 1035 34 10000 6.2 350 15:37 21.03.2020
6263 Clear 3 1035 37 10000 6.2 360 15:19 21.03.2020
6264 Clear 3 1035 37 10000 7.7 350 14:54 21.03.2020
6265 Clear 3 1035 37 10000 7.7 350 14:36 21.03.2020
6266 Clear 3 1035 40 10000 5.7 360 14:36 21.03.2020
6267 Clear 3 1035 40 10000 5.7 360 14:18 21.03.2020
6268 Clear 3 1035 43 10000 5.7 350 13:57 21.03.2020
6269 Clear 3 1034 40 10000 5.7 360 13:38 21.03.2020
6270 Clear 3 1034 40 10000 5.7 360 13:19 21.03.2020
6271 Clouds 3 1034 44 10000 5.7 340 12:40 21.03.2020
6272 Clouds 3 1034 44 10000 5.7 340 12:20 21.03.2020
6273 Clouds 2 1034 43 10000 6.2 350 11:59 21.03.2020
6274 Clouds 2 1034 51 10000 6.2 330 11:39 21.03.2020
6275 Clouds 2 1034 51 10000 6.2 330 11:39 21.03.2020
6276 Clouds 2 1034 51 10000 6.2 330 11:19 21.03.2020
6277 Clouds 2 1034 51 10000 6.2 330 11:19 21.03.2020
6278 Clouds 2 1034 50 10000 8.2 330 10:57 21.03.2020
6279 Clouds 2 1034 50 10000 8.2 330 10:57 21.03.2020
6280 Clouds 2 1034 55 10000 6.7 340 10:39 21.03.2020
6281 Clouds 1 1034 55 10000 6.7 340 10:21 21.03.2020
6282 Clouds 1 1034 59 10000 6.2 340 09:58 21.03.2020
6283 Clouds 1 1034 59 10000 6.2 340 09:38 21.03.2020
6284 Clouds 1 1033 45 10000 5.7 330 09:20 21.03.2020
6285 Clouds 0 1033 45 10000 5.7 330 08:55 21.03.2020
6286 Clouds 0 1033 45 10000 5.7 330 08:37 21.03.2020
6287 Clear 0 1033 59 10000 5.1 330 08:18 21.03.2020
6288 Clear -1 1033 68 10000 4.6 320 07:33 21.03.2020
6289 Clear -2 1032 74 10000 3.6 310 06:56 21.03.2020
6290 Clear -2 1032 68 10000 3.6 310 06:36 21.03.2020
6291 Clear -2 1032 68 10000 3.6 310 06:18 21.03.2020
6292 Clear -2 1031 68 10000 3.6 320 05:23 21.03.2020
6293 Clear -3 1031 73 10000 2.6 290 03:38 21.03.2020
6294 Clear -3 1031 79 10000 2.1 280 02:36 21.03.2020
6295 Clear -2 1031 79 10000 2.1 290 01:43 21.03.2020
6296 Clear -2 1031 79 10000 2.6 290 01:22 21.03.2020
6297 Clear -3 1031 92 10000 1 270 00:39 21.03.2020
6298 Clear -3 1031 92 10000 1 270 00:20 21.03.2020
6299 Clear -3 1031 92 10000 1.5 280 23:41 20.03.2020
6300 Clear -3 1030 92 10000 1.5 280 23:20 20.03.2020
6301 Clear -3 1030 86 10000 1 280 22:44 20.03.2020
6302 Clear -2 1030 86 10000 2.1 290 22:24 20.03.2020
6303 Clear -2 1030 86 10000 2.1 280 21:58 20.03.2020
6304 Clear -2 1030 86 10000 2.1 280 21:39 20.03.2020
6305 Clear -2 1030 79 10000 1 280 21:19 20.03.2020
6306 Clear -2 1030 74 10000 1.5 280 20:57 20.03.2020
6307 Clear -2 1030 74 10000 1.5 280 20:39 20.03.2020
6308 Clouds -1 1030 74 10000 2.1 310 20:19 20.03.2020
6309 Clouds -1 1030 74 10000 2.1 320 19:46 20.03.2020
6310 Clouds 0 1029 69 10000 2.6 340 19:20 20.03.2020
6311 Clouds 0 1029 69 10000 4.6 350 18:57 20.03.2020
6312 Clouds 1 1029 59 10000 4.1 350 18:38 20.03.2020
6313 Clouds 1 1029 59 10000 4.1 350 18:19 20.03.2020
6314 Clouds 2 1028 51 10000 5.1 340 17:56 20.03.2020
6315 Clouds 2 1028 51 10000 5.1 320 17:37 20.03.2020
6316 Clouds 2 1028 51 10000 5.1 320 17:18 20.03.2020
6317 Clouds 2 1028 47 10000 5.1 340 16:41 20.03.2020
6318 Clouds 3 1028 47 10000 5.1 350 16:20 20.03.2020
6319 Clouds 3 1027 51 10000 4.6 360 15:44 20.03.2020
6320 Clouds 3 1027 51 10000 5.1 360 15:23 20.03.2020
6321 Clouds 3 1027 44 10000 5.7 360 14:58 20.03.2020
6322 Clouds 3 1027 44 10000 5.7 360 14:40 20.03.2020
6323 Clouds 4 1027 44 10000 5.1 360 14:20 20.03.2020
6324 Clouds 4 1027 48 10000 5.1 360 13:48 20.03.2020
6325 Clouds 3 1026 51 10000 4.6 20 13:21 20.03.2020
6326 Clouds 3 1026 47 10000 5.1 30 12:58 20.03.2020
6327 Clouds 3 1026 47 10000 5.1 30 12:38 20.03.2020
6328 Clouds 3 1026 55 10000 5.7 30 12:19 20.03.2020
6329 Clouds 3 1025 74 10000 4.1 10 11:39 20.03.2020
6330 Snow 3 1024 69 10000 4.1 350 11:20 20.03.2020
6331 Snow 2 1024 69 10000 4.1 350 10:55 20.03.2020
6332 Snow 2 1024 69 10000 4.1 350 10:36 20.03.2020
6333 Rain 2 1024 69 10000 4.1 350 10:18 20.03.2020
6334 Clouds 2 1024 69 10000 4.1 350 09:44 20.03.2020
6335 Clouds 2 1023 69 10000 3.6 340 09:20 20.03.2020
6336 Snow 1 1023 69 6000 3.1 330 08:44 20.03.2020
6337 Clouds 1 1022 80 10000 3.6 330 08:23 20.03.2020
6338 Clouds 1 1022 80 10000 2.6 310 07:59 20.03.2020
6339 Clouds 1 1022 74 10000 3.1 320 07:38 20.03.2020
6340 Clouds 1 1022 74 10000 3.1 320 07:19 20.03.2020
6341 Clouds 1 1021 74 10000 4.6 330 06:42 20.03.2020
6342 Clouds 1 1021 74 10000 3.6 320 06:18 20.03.2020
6343 Clouds 1 1020 74 10000 3.6 330 04:36 20.03.2020
6344 Clouds 2 1019 77 10000 2.6 270 02:50 20.03.2020
6345 Clear 2 1019 87 10000 2.1 290 01:50 20.03.2020
6346 Clear 3 1018 80 10000 3.6 260 00:41 20.03.2020
6347 Clear 3 1018 80 10000 3.6 260 23:59 19.03.2020
6348 Clear 4 1018 79 10000 4.1 260 23:40 19.03.2020
6349 Clear 4 1018 79 10000 4.1 260 23:22 19.03.2020
6350 Clear 4 1018 81 10000 4.1 240 22:41 19.03.2020
6351 Clear 4 1018 81 10000 4.1 240 22:22 19.03.2020
6352 Clear 4 1018 81 10000 3.6 240 21:58 19.03.2020
6353 Clear 4 1018 81 10000 3.6 240 21:38 19.03.2020
6354 Clear 5 1017 81 10000 3.6 250 21:19 19.03.2020
6355 Clear 5 1017 81 10000 4.1 260 20:44 19.03.2020
6356 Clear 5 1017 60 10000 3.6 240 20:25 19.03.2020
6357 Clear 6 1017 60 10000 3.1 240 19:59 19.03.2020
6358 Clear 6 1017 60 10000 3.1 240 19:38 19.03.2020
6359 Clear 6 1017 60 10000 3.1 240 19:20 19.03.2020
6360 Clear 6 1016 56 10000 4.6 240 18:58 19.03.2020
6361 Clear 7 1016 56 10000 4.1 250 18:40 19.03.2020
6362 Clear 7 1016 56 10000 4.1 250 18:21 19.03.2020
6363 Clear 8 1016 52 10000 5.1 260 17:44 19.03.2020
6364 Clear 9 1016 46 10000 6.2 270 17:20 19.03.2020
6365 Clear 9 1016 46 10000 6.2 270 16:58 19.03.2020
6366 Clear 9 1016 46 10000 6.2 270 16:39 19.03.2020
6367 Clear 9 1016 43 10000 6.7 270 16:21 19.03.2020
6368 Clear 9 1015 43 10000 6.7 260 15:42 19.03.2020
6369 Clear 9 1015 43 10000 7.2 260 15:23 19.03.2020
6370 Clear 9 1015 43 10000 7.2 260 15:23 19.03.2020
6371 Clear 9 1015 45 10000 7.7 260 14:43 19.03.2020
6372 Clear 9 1015 49 10000 6.7 260 14:23 19.03.2020
6373 Clear 9 1016 49 10000 6.2 260 13:57 19.03.2020
6374 Clear 8 1015 52 10000 6.2 270 13:37 19.03.2020
6375 Clear 8 1015 52 10000 6.2 270 13:18 19.03.2020
6376 Clear 8 1015 56 10000 6.2 270 12:41 19.03.2020
6377 Clear 8 1015 56 10000 6.2 270 12:22 19.03.2020
6378 Clear 7 1015 56 10000 7.2 280 11:57 19.03.2020
6379 Clear 7 1014 60 10000 7.2 280 11:38 19.03.2020
6380 Clear 6 1014 60 10000 7.2 280 11:20 19.03.2020
6381 Clear 6 1014 65 10000 7.2 260 10:41 19.03.2020
6382 Clear 5 1014 65 10000 7.2 270 10:20 19.03.2020
6383 Clear 5 1013 65 10000 6.7 270 09:57 19.03.2020
6384 Clear 4 1013 69 10000 6.7 270 09:37 19.03.2020
6385 Clear 4 1013 69 10000 6.7 270 09:18 19.03.2020
6386 Clear 4 1013 69 10000 6.7 260 08:42 19.03.2020
6387 Clear 3 1012 74 10000 6.2 260 08:21 19.03.2020
6388 Clear 3 1012 74 10000 5.1 260 07:46 19.03.2020
6389 Clear 3 1012 74 10000 5.7 250 07:28 19.03.2020
6390 Clear 2 1012 80 10000 5.1 260 06:48 19.03.2020
6391 Clear 2 1011 74 10000 5.1 260 05:49 19.03.2020
6392 Clear 2 1011 80 10000 4.1 250 04:58 19.03.2020
6393 Clear 2 1011 80 10000 4.1 250 04:40 19.03.2020
6394 Clear 2 1011 74 10000 3.1 240 02:50 19.03.2020
6395 Clear 3 1010 69 10000 4.6 220 01:25 19.03.2020
6396 Clear 4 1010 69 10000 4.1 230 00:32 19.03.2020
6397 Clear 4 1010 69 10000 4.1 240 23:57 18.03.2020
6398 Clear 4 1010 69 10000 4.1 250 23:30 18.03.2020
6399 Clear 4 1010 69 10000 4.1 250 23:30 18.03.2020
6400 Clear 4 1010 69 10000 5.1 250 22:58 18.03.2020
6401 Clear 4 1010 69 10000 5.1 250 22:39 18.03.2020
6402 Clear 5 1010 69 10000 5.7 240 22:21 18.03.2020
6403 Clear 5 1009 75 10000 6.2 240 21:42 18.03.2020
6404 Clear 5 1009 75 10000 6.2 240 21:22 18.03.2020
6405 Clear 5 1009 75 10000 6.2 240 20:59 18.03.2020
6406 Clear 5 1009 75 10000 6.2 240 20:59 18.03.2020
6407 Clear 5 1009 75 10000 6.2 240 20:40 18.03.2020
6408 Clouds 5 1008 75 10000 5.1 250 20:20 18.03.2020
6409 Clouds 5 1008 80 10000 4.6 250 19:58 18.03.2020
6410 Clouds 5 1008 80 10000 4.6 250 19:39 18.03.2020
6411 Clouds 5 1007 86 10000 5.1 240 19:20 18.03.2020
6412 Clouds 5 1007 86 10000 5.7 250 18:42 18.03.2020
6413 Clouds 6 1007 75 10000 6.7 260 18:21 18.03.2020
6414 Clouds 6 1007 75 10000 6.7 260 18:21 18.03.2020
6415 Clouds 6 1006 75 10000 7.2 260 17:59 18.03.2020
6416 Clouds 6 1005 75 10000 7.7 250 17:41 18.03.2020
6417 Clouds 7 1005 75 10000 7.7 250 17:22 18.03.2020
6418 Clouds 7 1005 81 10000 6.7 250 16:58 18.03.2020
6419 Clouds 7 1005 81 10000 6.7 250 16:40 18.03.2020
6420 Clouds 7 1005 87 10000 6.7 270 16:20 18.03.2020
6421 Clouds 7 1005 87 10000 7.7 270 15:45 18.03.2020
6422 Clouds 7 1005 93 10000 5.7 260 15:23 18.03.2020
6423 Clouds 7 1005 93 10000 5.7 260 14:56 18.03.2020
6424 Clouds 7 1005 93 10000 5.7 260 14:38 18.03.2020
6425 Clouds 7 1004 93 10000 5.7 260 14:19 18.03.2020
6426 Clouds 7 1004 100 8000 1 0 13:38 18.03.2020
6427 Clouds 7 1004 100 8000 1 0 13:19 18.03.2020
6428 Rain 6 1004 100 8000 6.81 275 12:42 18.03.2020
6429 Rain 6 1004 100 8000 6.81 275 12:20 18.03.2020
6430 Rain 6 1005 86 10000 1 0 11:41 18.03.2020
6431 Rain 5 1005 86 10000 1 0 11:21 18.03.2020
6432 Rain 5 1006 93 10000 1 0 10:58 18.03.2020
6433 Rain 5 1006 93 10000 1 0 10:39 18.03.2020
6434 Rain 5 1006 93 7000 2.84 178 10:20 18.03.2020
6435 Rain 5 1007 93 10000 3.1 210 09:59 18.03.2020
6436 Rain 5 1007 93 10000 3.1 210 09:39 18.03.2020
6437 Rain 6 1008 87 8000 3.1 210 09:21 18.03.2020
6438 Drizzle 6 1008 75 10000 3.6 220 08:40 18.03.2020
6439 Drizzle 6 1008 75 10000 3.6 220 08:21 18.03.2020
6440 Clouds 6 1008 75 10000 5.7 220 07:49 18.03.2020
6441 Clouds 6 1009 75 10000 3.6 220 07:31 18.03.2020
6442 Clouds 6 1009 75 10000 4.6 220 06:50 18.03.2020
6443 Clouds 6 1009 75 10000 4.1 220 06:31 18.03.2020
6444 Clouds 6 1009 75 10000 7.2 220 05:36 18.03.2020
6445 Clouds 6 1011 75 10000 4.1 220 04:29 18.03.2020
6446 Clouds 7 1011 75 10000 4.1 240 02:51 18.03.2020
6447 Clouds 7 1012 75 10000 4.1 230 02:23 18.03.2020
6448 Clouds 7 1012 81 10000 3.1 230 01:29 18.03.2020
6449 Clouds 7 1012 81 10000 4.1 240 00:26 18.03.2020
6450 Clouds 7 1012 81 10000 4.1 230 23:59 17.03.2020
6451 Clouds 7 1012 81 10000 4.1 230 23:40 17.03.2020
6452 Clouds 7 1012 81 10000 3.6 230 23:19 17.03.2020
6453 Clouds 7 1013 75 10000 3.6 230 22:42 17.03.2020
6454 Clouds 7 1013 75 10000 3.6 230 22:23 17.03.2020
6455 Clouds 7 1013 75 10000 4.6 230 21:42 17.03.2020
6456 Clouds 7 1013 75 10000 4.6 230 21:22 17.03.2020
6457 Clouds 7 1013 75 10000 4.6 230 20:56 17.03.2020
6458 Clouds 7 1013 75 10000 4.6 230 20:37 17.03.2020
6459 Clouds 7 1013 75 10000 4.1 230 20:18 17.03.2020
6460 Clouds 7 1013 75 10000 4.6 230 19:41 17.03.2020
6461 Clouds 7 1013 75 10000 4.6 230 19:18 17.03.2020
6462 Clouds 7 1013 75 10000 4.6 230 18:56 17.03.2020
6463 Clouds 8 1013 75 10000 5.1 240 18:38 17.03.2020
6464 Clouds 8 1013 75 10000 5.1 240 18:20 17.03.2020
6465 Clouds 8 1013 75 10000 5.7 230 17:41 17.03.2020
6466 Clouds 8 1013 70 10000 6.7 230 17:23 17.03.2020
6467 Clouds 8 1013 70 10000 7.2 230 16:57 17.03.2020
6468 Clouds 8 1013 70 10000 6.7 230 16:39 17.03.2020
6469 Clouds 8 1013 70 10000 6.7 230 16:18 17.03.2020
6470 Clouds 8 1013 70 10000 5.7 230 15:44 17.03.2020
6471 Clouds 8 1013 70 10000 6.7 240 15:22 17.03.2020
6472 Clouds 8 1013 65 10000 7.7 230 14:44 17.03.2020
6473 Clouds 7 1014 70 10000 7.2 230 14:24 17.03.2020
6474 Clouds 7 1014 70 10000 6.2 230 13:56 17.03.2020
6475 Clouds 7 1014 70 10000 6.2 230 13:38 17.03.2020
6476 Clouds 7 1014 70 10000 8.7 230 13:20 17.03.2020
6477 Clouds 7 1014 65 10000 6.7 220 12:42 17.03.2020
6478 Clouds 7 1014 65 10000 7.2 210 12:22 17.03.2020
6479 Clouds 6 1014 70 10000 5.7 220 11:48 17.03.2020
6480 Clouds 6 1015 70 10000 5.7 220 11:29 17.03.2020
6481 Clouds 6 1015 75 10000 5.1 210 10:58 17.03.2020
6482 Clouds 5 1015 75 10000 5.1 210 10:39 17.03.2020
6483 Clouds 5 1015 75 10000 5.1 210 10:21 17.03.2020
6484 Clouds 5 1015 75 10000 6.2 210 09:59 17.03.2020
6485 Clouds 5 1015 75 10000 5.1 210 09:40 17.03.2020
6486 Clouds 5 1015 75 10000 5.1 210 09:19 17.03.2020
6487 Clouds 4 1016 75 10000 5.1 210 08:48 17.03.2020
6488 Clouds 4 1016 80 10000 4.1 210 08:23 17.03.2020
6489 Clouds 3 1016 86 10000 3.6 200 07:50 17.03.2020
6490 Clouds 3 1016 86 10000 4.1 210 07:28 17.03.2020
6491 Clouds 3 1016 86 10000 4.1 200 06:59 17.03.2020
6492 Clouds 3 1016 83 10000 4.1 200 06:34 17.03.2020
6493 Clouds 3 1016 83 10000 4.1 190 05:56 17.03.2020
6494 Clouds 2 1017 73 10000 4.6 170 03:56 17.03.2020
6495 Clouds 2 1018 80 10000 4.1 160 02:46 17.03.2020
6496 Clouds 0 1019 80 10000 3.6 150 01:49 17.03.2020
6497 Clouds -1 1019 68 10000 3.1 150 01:25 17.03.2020
6498 Clear -1 1019 67 10000 3.1 140 00:46 17.03.2020
6499 Clear -2 1020 74 10000 1.5 150 23:48 16.03.2020
6500 Clear -2 1020 74 10000 1.5 140 23:30 16.03.2020
6501 Clear -2 1020 74 10000 1 140 22:41 16.03.2020
6502 Clear -2 1020 68 10000 1.5 150 22:23 16.03.2020
6503 Clear -2 1020 68 10000 2.1 170 21:58 16.03.2020
6504 Clear -2 1020 68 10000 2.1 170 21:40 16.03.2020
6505 Clear -2 1019 68 10000 1 80 21:21 16.03.2020
6506 Clear -2 1019 68 10000 1.5 90 20:56 16.03.2020
6507 Clear -2 1019 68 10000 1.5 90 20:37 16.03.2020
6508 Clear -1 1019 67 10000 1 60 20:18 16.03.2020
6509 Clear 0 1019 55 10000 1.5 50 19:41 16.03.2020
6510 Clear 0 1018 44 10000 1.5 40 19:20 16.03.2020
6511 Clear 1 1018 40 10000 2.1 30 18:43 16.03.2020
6512 Clear 2 1017 41 10000 2.1 10 18:21 16.03.2020
6513 Clear 3 1017 38 10000 2.6 30 17:55 16.03.2020
6514 Clear 4 1016 38 10000 2.6 360 17:37 16.03.2020
6515 Clear 4 1016 38 10000 2.6 360 17:18 16.03.2020
6516 Clear 5 1016 38 10000 3.1 30 16:44 16.03.2020
6517 Clear 5 1015 41 10000 3.1 350 16:24 16.03.2020
6518 Clear 5 1015 41 10000 4.1 340 15:45 16.03.2020
6519 Clear 5 1015 41 10000 4.1 360 15:27 16.03.2020
6520 Clear 5 1014 38 10000 5.1 360 14:49 16.03.2020
6521 Clear 6 1014 45 10000 4.6 340 14:28 16.03.2020
6522 Clouds 5 1013 48 10000 4.1 350 13:59 16.03.2020
6523 Clouds 5 1013 48 10000 4.1 350 13:41 16.03.2020
6524 Clouds 5 1012 56 10000 5.1 340 13:22 16.03.2020
6525 Clouds 5 1012 60 10000 3.6 30 12:45 16.03.2020
6526 Clouds 5 1011 65 10000 4.1 20 12:24 16.03.2020
6527 Clouds 4 1011 69 10000 4.1 360 11:47 16.03.2020
6528 Clouds 4 1010 47 10000 3.6 20 11:28 16.03.2020
6529 Clouds 3 1010 57 10000 3.1 10 10:56 16.03.2020
6530 Clouds 3 1009 57 10000 4.6 30 10:37 16.03.2020
6531 Clouds 3 1009 57 10000 4.6 30 10:18 16.03.2020
6532 Snow 2 1009 57 10000 3.6 360 09:42 16.03.2020
6533 Snow 2 1008 57 5000 4.6 20 09:21 16.03.2020
6534 Snow 2 1007 57 4500 6.2 10 08:53 16.03.2020
6535 Rain 4 1006 100 10000 2.1 250 08:25 16.03.2020
6536 Rain 5 1005 100 8000 1.5 240 07:49 16.03.2020
6537 Rain 5 1005 100 7000 2.1 220 07:25 16.03.2020
6538 Rain 5 1005 100 10000 1.5 210 06:54 16.03.2020
6539 Drizzle 5 1005 100 10000 2.1 190 06:25 16.03.2020
6540 Drizzle 6 1004 93 10000 2.6 240 04:55 16.03.2020
6541 Drizzle 6 1003 93 6000 3.1 220 02:42 16.03.2020
6542 Rain 6 1003 87 10000 5.7 190 01:20 16.03.2020
6543 Drizzle 6 1003 87 10000 5.7 210 00:39 16.03.2020
6544 Rain 6 1003 87 10000 6.2 200 23:47 15.03.2020
6545 Rain 6 1003 75 10000 6.7 200 23:20 15.03.2020
6546 Rain 6 1003 75 10000 7.2 210 22:43 15.03.2020
6547 Clouds 6 1003 75 10000 6.2 210 22:23 15.03.2020
6548 Clouds 6 1004 81 10000 5.7 210 21:58 15.03.2020
6549 Rain 6 1003 75 10000 7.2 190 21:38 15.03.2020
6550 Rain 6 1003 75 10000 7.2 190 21:18 15.03.2020
6551 Rain 6 1004 75 10000 7.2 190 20:42 15.03.2020
6552 Clouds 6 1004 75 10000 8.2 190 20:21 15.03.2020
6553 Clouds 5 1004 75 10000 6.2 180 19:58 15.03.2020
6554 Clouds 5 1004 75 10000 6.2 180 19:39 15.03.2020
6555 Clouds 6 1005 75 10000 6.7 180 19:39 15.03.2020
6556 Clouds 6 1005 75 10000 6.7 180 19:20 15.03.2020
6557 Clouds 6 1005 75 10000 6.7 180 19:20 15.03.2020
6558 Clouds 6 1005 75 10000 5.7 180 18:55 15.03.2020
6559 Clouds 6 1005 70 10000 6.2 190 18:37 15.03.2020
6560 Clouds 6 1005 70 10000 6.2 190 18:19 15.03.2020
6561 Clouds 5 1005 70 10000 6.2 180 17:41 15.03.2020
6562 Clouds 5 1005 70 10000 6.7 180 17:21 15.03.2020
6563 Clouds 6 1006 70 10000 7.2 180 16:58 15.03.2020
6564 Clouds 6 1006 70 10000 7.2 180 16:40 15.03.2020
6565 Clouds 6 1006 70 10000 8.2 190 16:21 15.03.2020
6566 Clouds 6 1006 70 10000 9.8 180 15:48 15.03.2020
6567 Clouds 6 1007 64 10000 9.3 190 15:30 15.03.2020
6568 Clouds 6 1007 64 10000 9.3 180 14:58 15.03.2020
6569 Clouds 6 1007 64 10000 9.3 180 14:38 15.03.2020
6570 Clouds 6 1008 58 10000 7.7 180 14:19 15.03.2020
6571 Clouds 5 1008 58 10000 8.2 180 13:55 15.03.2020
6572 Clouds 5 1008 58 10000 8.2 180 13:37 15.03.2020
6573 Clouds 5 1009 58 10000 7.2 180 13:18 15.03.2020
6574 Clouds 5 1010 65 10000 7.7 170 12:40 15.03.2020
6575 Clouds 5 1010 65 10000 7.7 170 12:21 15.03.2020
6576 Clouds 5 1011 65 10000 7.2 170 11:44 15.03.2020
6577 Clouds 5 1011 65 10000 7.2 190 11:25 15.03.2020
6578 Clouds 5 1012 60 10000 7.7 190 10:59 15.03.2020
6579 Clouds 5 1012 60 10000 7.7 190 10:39 15.03.2020
6580 Clouds 4 1012 64 10000 6.7 180 10:21 15.03.2020
6581 Clouds 4 1013 64 10000 7.7 190 09:57 15.03.2020
6582 Clouds 4 1013 64 10000 7.7 190 09:36 15.03.2020
6583 Clouds 3 1013 64 10000 7.7 180 09:18 15.03.2020
6584 Clouds 2 1014 69 10000 6.7 190 08:41 15.03.2020
6585 Clouds 2 1014 69 10000 6.2 190 08:19 15.03.2020
6586 Clouds 1 1014 69 10000 6.2 190 07:45 15.03.2020
6587 Clouds 1 1015 69 10000 6.2 190 07:21 15.03.2020
6588 Clouds 0 1015 57 10000 6.2 190 06:43 15.03.2020
6589 Clouds 0 1016 57 10000 5.1 190 05:48 15.03.2020
6590 Clouds 0 1017 56 10000 4.6 190 04:56 15.03.2020
6591 Clouds 0 1017 56 10000 4.6 190 04:37 15.03.2020
6592 Clouds 0 1017 56 10000 4.1 200 04:18 15.03.2020
6593 Clouds -1 1018 56 10000 3.1 180 02:54 15.03.2020
6594 Clouds -1 1019 56 10000 3.1 200 02:21 15.03.2020
6595 Clouds -1 1019 63 10000 3.1 200 00:57 15.03.2020
6596 Clouds -1 1019 54 10000 3.6 210 00:39 15.03.2020
6597 Clouds -1 1019 54 10000 3.6 210 00:18 15.03.2020
6598 Clouds -1 1020 58 10000 3.6 200 23:39 14.03.2020
6599 Clear -1 1020 58 10000 3.6 200 23:19 14.03.2020
6600 Clear -1 1020 54 10000 2.6 210 22:55 14.03.2020
6601 Clear -1 1020 54 10000 2.6 210 22:37 14.03.2020
6602 Clear -1 1020 54 10000 3.1 210 22:19 14.03.2020
6603 Clear -1 1020 50 10000 3.1 210 21:55 14.03.2020
6604 Clear -1 1020 50 10000 3.1 210 21:55 14.03.2020
6605 Clear -1 1020 50 10000 3.1 210 21:36 14.03.2020
6606 Clear -1 1020 46 10000 2.1 200 21:18 14.03.2020
6607 Clear -1 1020 54 10000 2.1 220 20:55 14.03.2020
6608 Clear -1 1020 54 10000 2.1 220 20:37 14.03.2020
6609 Clear -1 1020 54 10000 2.1 200 20:18 14.03.2020
6610 Clear -1 1020 54 10000 1.5 200 19:40 14.03.2020
6611 Clear -1 1020 54 10000 1.5 200 19:20 14.03.2020
6612 Clear 0 1020 50 10000 2.1 220 18:39 14.03.2020
6613 Clear 0 1020 50 10000 2.1 220 18:20 14.03.2020
6614 Clear 1 1020 31 10000 3.1 240 17:42 14.03.2020
6615 Clear 2 1020 31 10000 3.1 240 17:21 14.03.2020
6616 Clear 2 1020 29 10000 4.1 270 16:58 14.03.2020
6617 Clear 2 1020 29 10000 4.1 270 16:38 14.03.2020
6618 Clear 2 1020 29 10000 5.1 250 16:19 14.03.2020
6619 Clear 2 1020 31 10000 4.6 280 15:44 14.03.2020
6620 Clear 2 1020 31 10000 4.6 270 15:22 14.03.2020
6621 Clear 2 1020 31 10000 5.7 260 14:40 14.03.2020
6622 Clear 2 1020 29 10000 5.7 280 14:21 14.03.2020
6623 Clear 2 1020 31 10000 5.1 290 13:57 14.03.2020
6624 Clear 2 1020 31 10000 5.1 290 13:38 14.03.2020
6625 Clear 2 1020 34 10000 7.2 280 13:19 14.03.2020
6626 Clear 1 1020 37 10000 6.7 260 12:44 14.03.2020
6627 Clear 1 1020 28 10000 5.7 290 12:25 14.03.2020
6628 Clear 0 1020 28 10000 5.7 290 11:46 14.03.2020
6629 Clear 0 1020 28 10000 5.7 290 11:26 14.03.2020
6630 Clear -1 1019 46 10000 5.7 290 10:57 14.03.2020
6631 Clear -1 1019 46 10000 5.7 290 10:38 14.03.2020
6632 Clear -1 1019 46 10000 5.7 290 10:20 14.03.2020
6633 Clear -2 1019 50 10000 6.2 300 09:41 14.03.2020
6634 Clear -2 1018 50 10000 5.1 310 09:22 14.03.2020
6635 Clear -3 1018 53 10000 4.6 310 08:47 14.03.2020
6636 Clear -3 1018 53 10000 4.6 310 08:47 14.03.2020
6637 Clear -3 1017 53 10000 5.1 310 08:27 14.03.2020
6638 Clear -4 1017 58 10000 4.1 300 07:49 14.03.2020
6639 Clear -4 1017 58 10000 4.1 310 07:23 14.03.2020
6640 Clear -4 1016 58 10000 4.1 310 06:59 14.03.2020
6641 Clear -4 1015 58 10000 5.1 310 06:39 14.03.2020
6642 Clear -4 1014 58 10000 5.1 300 04:58 14.03.2020
6643 Clear -3 1013 49 10000 6.2 310 03:41 14.03.2020
6644 Clear -3 1013 49 10000 4.6 300 03:20 14.03.2020
6645 Clear -3 1012 45 10000 5.7 310 02:19 14.03.2020
6646 Clouds -2 1010 42 10000 6.2 320 00:42 14.03.2020
6647 Clouds -1 1009 42 10000 4.6 310 23:44 13.03.2020
6648 Clouds -1 1008 46 10000 4.6 320 23:25 13.03.2020
6649 Clouds -1 1007 49 10000 4.1 320 22:46 13.03.2020
6650 Clouds 0 1007 49 10000 4.1 320 22:25 13.03.2020
6651 Clouds 0 1006 49 10000 5.1 340 21:42 13.03.2020
6652 Clouds 0 1006 49 10000 4.6 330 21:21 13.03.2020
6653 Clouds 0 1005 63 10000 2.1 310 20:57 13.03.2020
6654 Clouds 0 1005 63 10000 2.1 310 20:38 13.03.2020
6655 Clouds 0 1004 55 10000 2.1 320 20:19 13.03.2020
6656 Clouds 0 1003 50 10000 2.6 340 19:42 13.03.2020
6657 Clouds 0 1003 50 10000 2.6 340 19:42 13.03.2020
6658 Clouds 0 1003 50 10000 2.6 340 19:23 13.03.2020
6659 Clouds 0 1003 50 10000 2.6 340 19:23 13.03.2020
6660 Clouds 1 1002 43 10000 2.6 350 18:44 13.03.2020
6661 Clouds 1 1002 47 10000 4.6 340 18:25 13.03.2020
6662 Clouds 2 1001 37 10000 4.6 320 17:55 13.03.2020
6663 Clouds 2 1001 34 10000 4.1 320 17:37 13.03.2020
6664 Clouds 2 1001 34 10000 4.1 320 17:18 13.03.2020
6665 Clouds 3 1000 34 10000 5.1 330 16:40 13.03.2020
6666 Clouds 3 1000 37 10000 5.1 320 16:22 13.03.2020
6667 Clouds 3 1000 37 10000 4.6 310 15:55 13.03.2020
6668 Clouds 3 1000 37 10000 4.6 310 15:37 13.03.2020
6669 Clouds 3 999 37 10000 3.6 320 15:18 13.03.2020
6670 Clouds 3 999 37 10000 4.6 310 14:41 13.03.2020
6671 Clouds 3 999 34 10000 5.1 320 14:22 13.03.2020
6672 Clouds 3 998 32 10000 5.7 340 13:56 13.03.2020
6673 Clouds 3 997 40 10000 4.1 310 13:37 13.03.2020
6674 Clouds 3 997 40 10000 4.1 310 13:18 13.03.2020
6675 Clouds 3 997 37 10000 5.7 320 12:40 13.03.2020
6676 Clouds 3 997 37 10000 5.7 320 12:21 13.03.2020
6677 Clouds 3 997 40 10000 4.6 350 11:57 13.03.2020
6678 Clouds 3 997 40 10000 4.6 350 11:38 13.03.2020
6679 Clear 3 996 47 10000 4.6 310 11:19 13.03.2020
6680 Clear 3 996 47 10000 4.6 310 10:47 13.03.2020
6681 Clear 2 995 51 10000 5.1 330 10:26 13.03.2020
6682 Clear 2 995 51 10000 6.2 330 09:57 13.03.2020
6683 Clear 2 994 55 10000 6.2 320 09:38 13.03.2020
6684 Clear 2 994 55 10000 6.2 320 09:20 13.03.2020
6685 Clear 2 994 59 10000 4.6 320 08:44 13.03.2020
6686 Clear 2 993 64 10000 4.6 320 08:22 13.03.2020
6687 Clouds 1 992 69 10000 4.1 310 07:47 13.03.2020
6688 Clouds 1 992 74 10000 5.1 310 07:28 13.03.2020
6689 Clouds 2 991 74 10000